<?xml version='1.0' encoding='UTF-8'?><gpx version="1.1" creator="JPX - https://github.com/jenetics/jpx" xmlns="http://www.topografix.com/GPX/1/1"><trk><trkseg><trkpt lat="38.1294451" lon="14.9045647"><ele>454.99999999999994</ele><time>2026-04-04T07:37:33.201Z</time></trkpt><trkpt lat="38.1294148" lon="14.9046397"><ele>455.0</ele><time>2026-04-04T07:37:36.702Z</time></trkpt><trkpt lat="38.1293367" lon="14.9046116"><ele>455.0</ele><time>2026-04-04T07:40:08.703Z</time></trkpt><trkpt lat="38.1292602" lon="14.9046356"><ele>455.0</ele><time>2026-04-04T07:40:31.703Z</time></trkpt><trkpt lat="38.1291871" lon="14.9045941"><ele>454.99999999999994</ele><time>2026-04-04T07:40:33.703Z</time></trkpt><trkpt lat="38.129093" lon="14.9045354"><ele>455.0</ele><time>2026-04-04T07:40:35.702Z</time></trkpt><trkpt lat="38.128986" lon="14.9044792"><ele>457.1428571428571</ele><time>2026-04-04T07:40:37.702Z</time></trkpt><trkpt lat="38.1289261" lon="14.9044448"><ele>459.2857142857143</ele><time>2026-04-04T07:40:38.703Z</time></trkpt><trkpt lat="38.1288597" lon="14.904409"><ele>461.42857142857144</ele><time>2026-04-04T07:40:39.703Z</time></trkpt><trkpt lat="38.1287956" lon="14.9043822"><ele>463.57142857142856</ele><time>2026-04-04T07:40:40.703Z</time></trkpt><trkpt lat="38.1287308" lon="14.9043589"><ele>465.71428571428567</ele><time>2026-04-04T07:40:41.703Z</time></trkpt><trkpt lat="38.1286634" lon="14.9043486"><ele>467.85714285714283</ele><time>2026-04-04T07:40:42.702Z</time></trkpt><trkpt lat="38.1285961" lon="14.9043505"><ele>470.0</ele><time>2026-04-04T07:40:43.702Z</time></trkpt><trkpt lat="38.1284798" lon="14.9043614"><ele>469.99999999999994</ele><time>2026-04-04T07:40:45.702Z</time></trkpt><trkpt lat="38.128416" lon="14.9043891"><ele>470.0</ele><time>2026-04-04T07:40:46.703Z</time></trkpt><trkpt lat="38.1283553" lon="14.9044486"><ele>470.0</ele><time>2026-04-04T07:40:47.703Z</time></trkpt><trkpt lat="38.1283016" lon="14.9045372"><ele>470.0</ele><time>2026-04-04T07:40:48.702Z</time></trkpt><trkpt lat="38.1282602" lon="14.9046313"><ele>469.99999999999994</ele><time>2026-04-04T07:40:49.702Z</time></trkpt><trkpt lat="38.1282245" lon="14.9047224"><ele>470.0</ele><time>2026-04-04T07:40:50.703Z</time></trkpt><trkpt lat="38.1281871" lon="14.9048021"><ele>473.8333333333333</ele><time>2026-04-04T07:40:51.703Z</time></trkpt><trkpt lat="38.1281429" lon="14.9048747"><ele>477.66666666666663</ele><time>2026-04-04T07:40:52.703Z</time></trkpt><trkpt lat="38.1280968" lon="14.9049469"><ele>481.5</ele><time>2026-04-04T07:40:53.703Z</time></trkpt><trkpt lat="38.1280502" lon="14.9050206"><ele>485.33333333333337</ele><time>2026-04-04T07:40:54.703Z</time></trkpt><trkpt lat="38.1280002" lon="14.9050916"><ele>489.1666666666667</ele><time>2026-04-04T07:40:55.703Z</time></trkpt><trkpt lat="38.1279067" lon="14.9051272"><ele>493.0</ele><time>2026-04-04T07:40:57.703Z</time></trkpt><trkpt lat="38.1278531" lon="14.9049795"><ele>493.00000000000006</ele><time>2026-04-04T07:40:59.702Z</time></trkpt><trkpt lat="38.1278345" lon="14.9048891"><ele>493.0</ele><time>2026-04-04T07:41:00.702Z</time></trkpt><trkpt lat="38.1278138" lon="14.9048112"><ele>493.0</ele><time>2026-04-04T07:41:01.702Z</time></trkpt><trkpt lat="38.1277871" lon="14.904736"><ele>493.0</ele><time>2026-04-04T07:41:02.703Z</time></trkpt><trkpt lat="38.1277893" lon="14.904595"><ele>493.00000000000006</ele><time>2026-04-04T07:41:04.703Z</time></trkpt><trkpt lat="38.1278098" lon="14.9044365"><ele>493.0</ele><time>2026-04-04T07:41:06.702Z</time></trkpt><trkpt lat="38.12782" lon="14.9043483"><ele>493.00000000000006</ele><time>2026-04-04T07:41:07.703Z</time></trkpt><trkpt lat="38.1278342" lon="14.9042574"><ele>493.0</ele><time>2026-04-04T07:41:08.703Z</time></trkpt><trkpt lat="38.1278674" lon="14.9041535"><ele>493.0</ele><time>2026-04-04T07:41:10.703Z</time></trkpt><trkpt lat="38.1278907" lon="14.9040301"><ele>493.0</ele><time>2026-04-04T07:41:14.703Z</time></trkpt><trkpt lat="38.1279474" lon="14.9038935"><ele>493.00000000000006</ele><time>2026-04-04T07:41:16.703Z</time></trkpt><trkpt lat="38.1279829" lon="14.9038236"><ele>493.0</ele><time>2026-04-04T07:41:17.702Z</time></trkpt><trkpt lat="38.1280249" lon="14.9037159"><ele>496.59999999999997</ele><time>2026-04-04T07:41:19.703Z</time></trkpt><trkpt lat="38.1279822" lon="14.903597"><ele>500.19999999999993</ele><time>2026-04-04T07:41:21.703Z</time></trkpt><trkpt lat="38.1279439" lon="14.9035265"><ele>503.8</ele><time>2026-04-04T07:41:22.703Z</time></trkpt><trkpt lat="38.1278873" lon="14.9033855"><ele>507.4</ele><time>2026-04-04T07:41:24.703Z</time></trkpt><trkpt lat="38.1278617" lon="14.9033112"><ele>511.0</ele><time>2026-04-04T07:41:25.703Z</time></trkpt><trkpt lat="38.1278182" lon="14.9031997"><ele>512.1666666666667</ele><time>2026-04-04T07:41:27.703Z</time></trkpt><trkpt lat="38.1277713" lon="14.9031092"><ele>513.3333333333334</ele><time>2026-04-04T07:41:30.702Z</time></trkpt><trkpt lat="38.1277141" lon="14.902992"><ele>514.5</ele><time>2026-04-04T07:41:32.703Z</time></trkpt><trkpt lat="38.12767" lon="14.9029289"><ele>515.6666666666666</ele><time>2026-04-04T07:41:33.703Z</time></trkpt><trkpt lat="38.1276268" lon="14.9028701"><ele>516.8333333333333</ele><time>2026-04-04T07:41:34.702Z</time></trkpt><trkpt lat="38.1275613" lon="14.9027622"><ele>518.0</ele><time>2026-04-04T07:41:36.703Z</time></trkpt><trkpt lat="38.1275065" lon="14.9026229"><ele>519.5</ele><time>2026-04-04T07:41:38.703Z</time></trkpt><trkpt lat="38.1274852" lon="14.9025428"><ele>521.0</ele><time>2026-04-04T07:41:39.703Z</time></trkpt><trkpt lat="38.1274717" lon="14.9024559"><ele>522.5</ele><time>2026-04-04T07:41:40.703Z</time></trkpt><trkpt lat="38.1274693" lon="14.9023705"><ele>524.0</ele><time>2026-04-04T07:41:41.702Z</time></trkpt><trkpt lat="38.1274408" lon="14.9022347"><ele>525.5</ele><time>2026-04-04T07:41:43.703Z</time></trkpt><trkpt lat="38.1273541" lon="14.902191"><ele>527.0</ele><time>2026-04-04T07:41:45.702Z</time></trkpt><trkpt lat="38.1272495" lon="14.9022619"><ele>535.0</ele><time>2026-04-04T07:41:47.703Z</time></trkpt><trkpt lat="38.1272051" lon="14.9023264"><ele>543.0</ele><time>2026-04-04T07:41:48.702Z</time></trkpt><trkpt lat="38.1271828" lon="14.9024065"><ele>551.0</ele><time>2026-04-04T07:41:49.703Z</time></trkpt><trkpt lat="38.1271748" lon="14.9024901"><ele>559.0</ele><time>2026-04-04T07:41:50.702Z</time></trkpt><trkpt lat="38.1271763" lon="14.9025732"><ele>567.0</ele><time>2026-04-04T07:41:51.702Z</time></trkpt><trkpt lat="38.1271816" lon="14.9027229"><ele>575.0</ele><time>2026-04-04T07:41:53.702Z</time></trkpt><trkpt lat="38.1272146" lon="14.902841"><ele>576.3333333333333</ele><time>2026-04-04T07:41:55.702Z</time></trkpt><trkpt lat="38.1272404" lon="14.9029619"><ele>577.6666666666666</ele><time>2026-04-04T07:41:57.703Z</time></trkpt><trkpt lat="38.1272641" lon="14.9030386"><ele>579.0</ele><time>2026-04-04T07:41:59.702Z</time></trkpt><trkpt lat="38.1273239" lon="14.9030797"><ele>580.3333333333334</ele><time>2026-04-04T07:42:38.703Z</time></trkpt><trkpt lat="38.1273682" lon="14.9031519"><ele>581.6666666666667</ele><time>2026-04-04T07:43:03.703Z</time></trkpt><trkpt lat="38.1273928" lon="14.9032962"><ele>583.0</ele><time>2026-04-04T07:43:05.703Z</time></trkpt><trkpt lat="38.1273316" lon="14.9034042"><ele>580.8333333333334</ele><time>2026-04-04T07:43:07.703Z</time></trkpt><trkpt lat="38.1272684" lon="14.9034293"><ele>578.6666666666667</ele><time>2026-04-04T07:43:08.702Z</time></trkpt><trkpt lat="38.1271989" lon="14.9034632"><ele>576.5</ele><time>2026-04-04T07:43:09.703Z</time></trkpt><trkpt lat="38.1270939" lon="14.9035461"><ele>574.3333333333334</ele><time>2026-04-04T07:43:11.702Z</time></trkpt><trkpt lat="38.1270543" lon="14.9036796"><ele>572.1666666666666</ele><time>2026-04-04T07:43:13.703Z</time></trkpt><trkpt lat="38.1270735" lon="14.9037665"><ele>570.0</ele><time>2026-04-04T07:43:14.703Z</time></trkpt><trkpt lat="38.1270867" lon="14.9038448"><ele>570.0</ele><time>2026-04-04T07:43:15.702Z</time></trkpt><trkpt lat="38.1270437" lon="14.9039632"><ele>570.0</ele><time>2026-04-04T07:43:17.702Z</time></trkpt><trkpt lat="38.1269634" lon="14.9040743"><ele>570.0</ele><time>2026-04-04T07:43:19.703Z</time></trkpt><trkpt lat="38.1269268" lon="14.9041405"><ele>570.0</ele><time>2026-04-04T07:43:20.703Z</time></trkpt><trkpt lat="38.1268761" lon="14.9042731"><ele>570.0</ele><time>2026-04-04T07:43:22.703Z</time></trkpt><trkpt lat="38.1268487" lon="14.9044152"><ele>570.0</ele><time>2026-04-04T07:43:24.703Z</time></trkpt><trkpt lat="38.1268081" lon="14.9045264"><ele>570.0</ele><time>2026-04-04T07:43:26.703Z</time></trkpt><trkpt lat="38.1267847" lon="14.9043837"><ele>570.0</ele><time>2026-04-04T07:43:29.702Z</time></trkpt><trkpt lat="38.1267944" lon="14.9043036"><ele>570.0</ele><time>2026-04-04T07:43:30.703Z</time></trkpt><trkpt lat="38.1267974" lon="14.9041671"><ele>570.0</ele><time>2026-04-04T07:43:32.703Z</time></trkpt><trkpt lat="38.1267985" lon="14.904034"><ele>570.0</ele><time>2026-04-04T07:43:34.702Z</time></trkpt><trkpt lat="38.1267991" lon="14.903897"><ele>570.0</ele><time>2026-04-04T07:43:36.702Z</time></trkpt><trkpt lat="38.1267819" lon="14.9037656"><ele>570.0</ele><time>2026-04-04T07:43:38.703Z</time></trkpt><trkpt lat="38.1267327" lon="14.9036346"><ele>570.0</ele><time>2026-04-04T07:43:40.702Z</time></trkpt><trkpt lat="38.1267025" lon="14.903491"><ele>570.0</ele><time>2026-04-04T07:43:42.703Z</time></trkpt><trkpt lat="38.1267348" lon="14.9033391"><ele>572.1666666666666</ele><time>2026-04-04T07:43:44.703Z</time></trkpt><trkpt lat="38.1267575" lon="14.9032496"><ele>574.3333333333334</ele><time>2026-04-04T07:43:45.703Z</time></trkpt><trkpt lat="38.1267624" lon="14.9031094"><ele>576.5</ele><time>2026-04-04T07:43:47.702Z</time></trkpt><trkpt lat="38.126694" lon="14.9029945"><ele>578.6666666666667</ele><time>2026-04-04T07:43:49.702Z</time></trkpt><trkpt lat="38.1266496" lon="14.9029376"><ele>580.8333333333334</ele><time>2026-04-04T07:43:50.703Z</time></trkpt><trkpt lat="38.1266018" lon="14.9028804"><ele>583.0</ele><time>2026-04-04T07:43:51.703Z</time></trkpt><trkpt lat="38.1265247" lon="14.9027728"><ele>589.0</ele><time>2026-04-04T07:43:53.703Z</time></trkpt><trkpt lat="38.1265016" lon="14.9026422"><ele>595.0</ele><time>2026-04-04T07:43:55.702Z</time></trkpt><trkpt lat="38.1264646" lon="14.9025535"><ele>601.0</ele><time>2026-04-04T07:43:57.703Z</time></trkpt><trkpt lat="38.1264198" lon="14.9024643"><ele>607.0</ele><time>2026-04-04T07:44:19.704Z</time></trkpt><trkpt lat="38.1264307" lon="14.9025535"><ele>613.0</ele><time>2026-04-04T07:46:45.704Z</time></trkpt><trkpt lat="38.126488" lon="14.9026408"><ele>619.0</ele><time>2026-04-04T07:46:48.704Z</time></trkpt><trkpt lat="38.126517" lon="14.9027247"><ele>619.0</ele><time>2026-04-04T07:46:50.703Z</time></trkpt><trkpt lat="38.1265384" lon="14.9028092"><ele>619.0</ele><time>2026-04-04T07:46:52.703Z</time></trkpt><trkpt lat="38.1266057" lon="14.9028805"><ele>619.0</ele><time>2026-04-04T07:46:55.704Z</time></trkpt><trkpt lat="38.1266758" lon="14.9029517"><ele>619.0</ele><time>2026-04-04T07:46:57.703Z</time></trkpt><trkpt lat="38.1267322" lon="14.9030321"><ele>619.0</ele><time>2026-04-04T07:46:59.704Z</time></trkpt><trkpt lat="38.1267799" lon="14.9031127"><ele>619.0</ele><time>2026-04-04T07:47:01.704Z</time></trkpt><trkpt lat="38.1267905" lon="14.9032143"><ele>613.0</ele><time>2026-04-04T07:47:03.703Z</time></trkpt><trkpt lat="38.1267609" lon="14.9033086"><ele>607.0</ele><time>2026-04-04T07:47:05.704Z</time></trkpt><trkpt lat="38.1267285" lon="14.9033948"><ele>601.0</ele><time>2026-04-04T07:47:07.704Z</time></trkpt><trkpt lat="38.1267131" lon="14.9034872"><ele>595.0</ele><time>2026-04-04T07:47:10.703Z</time></trkpt><trkpt lat="38.1267188" lon="14.9035729"><ele>589.0</ele><time>2026-04-04T07:47:12.703Z</time></trkpt><trkpt lat="38.1267487" lon="14.9036869"><ele>583.0</ele><time>2026-04-04T07:47:14.704Z</time></trkpt><trkpt lat="38.1267919" lon="14.9038031"><ele>580.8333333333334</ele><time>2026-04-04T07:47:16.704Z</time></trkpt><trkpt lat="38.1268065" lon="14.9039208"><ele>578.6666666666667</ele><time>2026-04-04T07:47:18.703Z</time></trkpt><trkpt lat="38.1267925" lon="14.9040526"><ele>576.5</ele><time>2026-04-04T07:47:20.704Z</time></trkpt><trkpt lat="38.1267983" lon="14.9041683"><ele>574.3333333333334</ele><time>2026-04-04T07:47:22.704Z</time></trkpt><trkpt lat="38.12679" lon="14.9042633"><ele>572.1666666666666</ele><time>2026-04-04T07:47:24.703Z</time></trkpt><trkpt lat="38.1267833" lon="14.9043483"><ele>570.0</ele><time>2026-04-04T07:47:26.704Z</time></trkpt><trkpt lat="38.1267583" lon="14.90445"><ele>570.0</ele><time>2026-04-04T07:47:28.703Z</time></trkpt><trkpt lat="38.1268217" lon="14.904445"><ele>570.0</ele><time>2026-04-04T07:47:33.703Z</time></trkpt><trkpt lat="38.126855" lon="14.9043317"><ele>570.0</ele><time>2026-04-04T07:47:35.704Z</time></trkpt><trkpt lat="38.126875" lon="14.9042167"><ele>570.0</ele><time>2026-04-04T07:47:37.703Z</time></trkpt><trkpt lat="38.1269117" lon="14.9041"><ele>570.0</ele><time>2026-04-04T07:47:39.704Z</time></trkpt><trkpt lat="38.1269717" lon="14.9039783"><ele>570.0</ele><time>2026-04-04T07:47:41.703Z</time></trkpt><trkpt lat="38.1270583" lon="14.903875"><ele>570.0</ele><time>2026-04-04T07:47:43.704Z</time></trkpt><trkpt lat="38.1270833" lon="14.90376"><ele>570.0</ele><time>2026-04-04T07:47:45.703Z</time></trkpt><trkpt lat="38.1270633" lon="14.90362"><ele>570.0</ele><time>2026-04-04T07:47:47.704Z</time></trkpt><trkpt lat="38.1271033" lon="14.9034983"><ele>570.0</ele><time>2026-04-04T07:47:49.704Z</time></trkpt><trkpt lat="38.1272" lon="14.90342"><ele>572.1666666666666</ele><time>2026-04-04T07:47:51.703Z</time></trkpt><trkpt lat="38.1272617" lon="14.9033967"><ele>574.3333333333334</ele><time>2026-04-04T07:47:52.704Z</time></trkpt><trkpt lat="38.1273717" lon="14.903345"><ele>576.5</ele><time>2026-04-04T07:47:54.704Z</time></trkpt><trkpt lat="38.1274133" lon="14.903255"><ele>578.6666666666667</ele><time>2026-04-04T07:47:56.704Z</time></trkpt><trkpt lat="38.127385" lon="14.9031533"><ele>580.8333333333334</ele><time>2026-04-04T07:47:58.703Z</time></trkpt><trkpt lat="38.1273333" lon="14.9030867"><ele>583.0</ele><time>2026-04-04T07:48:00.704Z</time></trkpt><trkpt lat="38.1272782" lon="14.9030082"><ele>583.0</ele><time>2026-04-04T07:49:11.704Z</time></trkpt><trkpt lat="38.127264" lon="14.9029222"><ele>583.0</ele><time>2026-04-04T07:49:13.704Z</time></trkpt><trkpt lat="38.1272481" lon="14.9028167"><ele>583.0</ele><time>2026-04-04T07:49:15.704Z</time></trkpt><trkpt lat="38.1272203" lon="14.9026941"><ele>583.0</ele><time>2026-04-04T07:49:17.703Z</time></trkpt><trkpt lat="38.1272054" lon="14.902572"><ele>583.0</ele><time>2026-04-04T07:49:19.704Z</time></trkpt><trkpt lat="38.1272107" lon="14.9024541"><ele>583.0</ele><time>2026-04-04T07:49:21.704Z</time></trkpt><trkpt lat="38.1272347" lon="14.9023371"><ele>581.6666666666667</ele><time>2026-04-04T07:49:23.704Z</time></trkpt><trkpt lat="38.1272913" lon="14.9022547"><ele>580.3333333333334</ele><time>2026-04-04T07:49:25.703Z</time></trkpt><trkpt lat="38.1273562" lon="14.902236"><ele>579.0</ele><time>2026-04-04T07:49:27.704Z</time></trkpt><trkpt lat="38.1274168" lon="14.9022733"><ele>577.6666666666666</ele><time>2026-04-04T07:49:29.704Z</time></trkpt><trkpt lat="38.1274405" lon="14.9023557"><ele>576.3333333333333</ele><time>2026-04-04T07:49:31.704Z</time></trkpt><trkpt lat="38.1274377" lon="14.9024868"><ele>575.0</ele><time>2026-04-04T07:49:33.704Z</time></trkpt><trkpt lat="38.1274473" lon="14.9025704"><ele>565.5</ele><time>2026-04-04T07:49:34.704Z</time></trkpt><trkpt lat="38.1274705" lon="14.902655"><ele>556.0</ele><time>2026-04-04T07:49:35.705Z</time></trkpt><trkpt lat="38.1275005" lon="14.9027359"><ele>546.5</ele><time>2026-04-04T07:49:36.704Z</time></trkpt><trkpt lat="38.1275363" lon="14.9028104"><ele>537.0</ele><time>2026-04-04T07:49:37.704Z</time></trkpt><trkpt lat="38.1275725" lon="14.9028808"><ele>527.5</ele><time>2026-04-04T07:49:38.704Z</time></trkpt><trkpt lat="38.1276562" lon="14.9029979"><ele>518.0</ele><time>2026-04-04T07:49:40.705Z</time></trkpt><trkpt lat="38.1277395" lon="14.9031099"><ele>518.0</ele><time>2026-04-04T07:49:42.705Z</time></trkpt><trkpt lat="38.1277996" lon="14.9032015"><ele>518.0</ele><time>2026-04-04T07:49:44.704Z</time></trkpt><trkpt lat="38.1278344" lon="14.903295"><ele>518.0</ele><time>2026-04-04T07:49:46.705Z</time></trkpt><trkpt lat="38.1278834" lon="14.9034067"><ele>518.0</ele><time>2026-04-04T07:49:48.705Z</time></trkpt><trkpt lat="38.1279395" lon="14.9035576"><ele>518.0</ele><time>2026-04-04T07:49:50.705Z</time></trkpt><trkpt lat="38.1279713" lon="14.9036332"><ele>516.6</ele><time>2026-04-04T07:49:51.704Z</time></trkpt><trkpt lat="38.1280244" lon="14.9037588"><ele>515.1999999999999</ele><time>2026-04-04T07:49:53.705Z</time></trkpt><trkpt lat="38.1279999" lon="14.9038585"><ele>513.8</ele><time>2026-04-04T07:49:55.705Z</time></trkpt><trkpt lat="38.1279194" lon="14.9039452"><ele>512.4</ele><time>2026-04-04T07:49:57.704Z</time></trkpt><trkpt lat="38.1278726" lon="14.904063"><ele>511.0</ele><time>2026-04-04T07:49:59.705Z</time></trkpt><trkpt lat="38.1278572" lon="14.904149"><ele>511.00000000000006</ele><time>2026-04-04T07:50:02.705Z</time></trkpt><trkpt lat="38.1278127" lon="14.904239"><ele>511.0</ele><time>2026-04-04T07:50:08.705Z</time></trkpt><trkpt lat="38.1277961" lon="14.9043395"><ele>511.0</ele><time>2026-04-04T07:50:10.705Z</time></trkpt><trkpt lat="38.1277888" lon="14.9044535"><ele>511.0</ele><time>2026-04-04T07:50:12.704Z</time></trkpt><trkpt lat="38.1277796" lon="14.9045691"><ele>511.00000000000006</ele><time>2026-04-04T07:50:14.704Z</time></trkpt><trkpt lat="38.1277749" lon="14.9046794"><ele>511.0</ele><time>2026-04-04T07:50:16.705Z</time></trkpt><trkpt lat="38.1277883" lon="14.904787"><ele>509.20000000000005</ele><time>2026-04-04T07:50:18.704Z</time></trkpt><trkpt lat="38.127821" lon="14.9049061"><ele>507.40000000000003</ele><time>2026-04-04T07:50:20.704Z</time></trkpt><trkpt lat="38.1278517" lon="14.9050216"><ele>505.6</ele><time>2026-04-04T07:50:22.705Z</time></trkpt><trkpt lat="38.1278889" lon="14.9050978"><ele>503.8</ele><time>2026-04-04T07:50:24.705Z</time></trkpt><trkpt lat="38.127989" lon="14.9050424"><ele>502.0</ele><time>2026-04-04T07:50:27.705Z</time></trkpt><trkpt lat="38.1280803" lon="14.9049278"><ele>500.50000000000006</ele><time>2026-04-04T07:50:29.705Z</time></trkpt><trkpt lat="38.1281316" lon="14.9048688"><ele>499.0</ele><time>2026-04-04T07:50:30.704Z</time></trkpt><trkpt lat="38.1281823" lon="14.9048115"><ele>497.5</ele><time>2026-04-04T07:50:31.705Z</time></trkpt><trkpt lat="38.1282264" lon="14.9047517"><ele>496.0</ele><time>2026-04-04T07:50:32.705Z</time></trkpt><trkpt lat="38.1282867" lon="14.9046319"><ele>494.50000000000006</ele><time>2026-04-04T07:50:34.704Z</time></trkpt><trkpt lat="38.1283443" lon="14.9044818"><ele>493.0</ele><time>2026-04-04T07:50:36.704Z</time></trkpt><trkpt lat="38.1283853" lon="14.904413"><ele>489.71428571428567</ele><time>2026-04-04T07:50:37.705Z</time></trkpt><trkpt lat="38.128434" lon="14.9043575"><ele>486.42857142857144</ele><time>2026-04-04T07:50:38.704Z</time></trkpt><trkpt lat="38.128493" lon="14.9043265"><ele>483.1428571428571</ele><time>2026-04-04T07:50:39.705Z</time></trkpt><trkpt lat="38.1285679" lon="14.9043197"><ele>479.85714285714283</ele><time>2026-04-04T07:50:40.704Z</time></trkpt><trkpt lat="38.1286434" lon="14.9043212"><ele>476.57142857142856</ele><time>2026-04-04T07:50:41.704Z</time></trkpt><trkpt lat="38.1287172" lon="14.9043341"><ele>473.2857142857143</ele><time>2026-04-04T07:50:42.704Z</time></trkpt><trkpt lat="38.1287876" lon="14.9043515"><ele>470.0</ele><time>2026-04-04T07:50:43.705Z</time></trkpt><trkpt lat="38.1288513" lon="14.9043813"><ele>470.0</ele><time>2026-04-04T07:50:44.705Z</time></trkpt><trkpt lat="38.1289586" lon="14.904465"><ele>470.0</ele><time>2026-04-04T07:50:46.705Z</time></trkpt><trkpt lat="38.1290632" lon="14.9045263"><ele>470.0</ele><time>2026-04-04T07:50:48.705Z</time></trkpt><trkpt lat="38.1291513" lon="14.9045745"><ele>470.0</ele><time>2026-04-04T07:50:50.705Z</time></trkpt><trkpt lat="38.1292106" lon="14.9046105"><ele>470.0</ele><time>2026-04-04T07:50:52.705Z</time></trkpt><trkpt lat="38.1292808" lon="14.9046402"><ele>467.49999999999994</ele><time>2026-04-04T07:50:56.704Z</time></trkpt><trkpt lat="38.1293437" lon="14.9046549"><ele>465.0</ele><time>2026-04-04T07:51:15.705Z</time></trkpt><trkpt lat="38.1294025" lon="14.9047375"><ele>462.5</ele><time>2026-04-04T07:51:18.705Z</time></trkpt><trkpt lat="38.1294554" lon="14.9048111"><ele>460.0</ele><time>2026-04-04T07:51:20.705Z</time></trkpt><trkpt lat="38.129508" lon="14.9048626"><ele>457.49999999999994</ele><time>2026-04-04T07:51:22.704Z</time></trkpt><trkpt lat="38.1295272" lon="14.9049538"><ele>455.0</ele><time>2026-04-04T07:51:25.704Z</time></trkpt><trkpt lat="38.1294573" lon="14.9050636"><ele>459.8333333333333</ele><time>2026-04-04T07:51:27.704Z</time></trkpt><trkpt lat="38.1294124" lon="14.9051387"><ele>464.66666666666663</ele><time>2026-04-04T07:51:28.705Z</time></trkpt><trkpt lat="38.1293785" lon="14.9052235"><ele>469.5</ele><time>2026-04-04T07:51:29.705Z</time></trkpt><trkpt lat="38.1293648" lon="14.9053112"><ele>474.33333333333337</ele><time>2026-04-04T07:51:30.705Z</time></trkpt><trkpt lat="38.129397" lon="14.9054611"><ele>479.1666666666667</ele><time>2026-04-04T07:51:32.705Z</time></trkpt><trkpt lat="38.1294471" lon="14.9055321"><ele>484.0</ele><time>2026-04-04T07:51:33.705Z</time></trkpt><trkpt lat="38.1295147" lon="14.9056007"><ele>484.0</ele><time>2026-04-04T07:51:34.705Z</time></trkpt><trkpt lat="38.129582" lon="14.905669"><ele>484.0</ele><time>2026-04-04T07:51:35.704Z</time></trkpt><trkpt lat="38.1296432" lon="14.9057389"><ele>484.0</ele><time>2026-04-04T07:51:36.704Z</time></trkpt><trkpt lat="38.1296843" lon="14.9058156"><ele>484.0</ele><time>2026-04-04T07:51:37.705Z</time></trkpt><trkpt lat="38.1296881" lon="14.9059831"><ele>484.0</ele><time>2026-04-04T07:51:39.704Z</time></trkpt><trkpt lat="38.1296918" lon="14.9060816"><ele>488.79999999999995</ele><time>2026-04-04T07:51:40.705Z</time></trkpt><trkpt lat="38.1297006" lon="14.906183"><ele>493.59999999999997</ele><time>2026-04-04T07:51:41.705Z</time></trkpt><trkpt lat="38.12978" lon="14.9063133"><ele>498.4</ele><time>2026-04-04T07:51:43.705Z</time></trkpt><trkpt lat="38.1298333" lon="14.9063567"><ele>503.2</ele><time>2026-04-04T07:51:44.705Z</time></trkpt><trkpt lat="38.1299017" lon="14.9064617"><ele>508.0</ele><time>2026-04-04T07:51:46.704Z</time></trkpt><trkpt lat="38.1298667" lon="14.9066417"><ele>508.79999999999995</ele><time>2026-04-04T07:51:48.705Z</time></trkpt><trkpt lat="38.129845" lon="14.9067667"><ele>509.59999999999997</ele><time>2026-04-04T07:51:49.704Z</time></trkpt><trkpt lat="38.1298283" lon="14.9068933"><ele>510.40000000000003</ele><time>2026-04-04T07:51:50.704Z</time></trkpt><trkpt lat="38.1297933" lon="14.9070117"><ele>511.20000000000005</ele><time>2026-04-04T07:51:51.705Z</time></trkpt><trkpt lat="38.129775" lon="14.907135"><ele>512.0</ele><time>2026-04-04T07:51:52.705Z</time></trkpt><trkpt lat="38.1297517" lon="14.90724"><ele>512.0</ele><time>2026-04-04T07:51:53.704Z</time></trkpt><trkpt lat="38.1297383" lon="14.9073617"><ele>512.0</ele><time>2026-04-04T07:51:54.704Z</time></trkpt><trkpt lat="38.1297183" lon="14.907475"><ele>512.0</ele><time>2026-04-04T07:51:55.705Z</time></trkpt><trkpt lat="38.12969" lon="14.9075883"><ele>512.0</ele><time>2026-04-04T07:51:56.704Z</time></trkpt><trkpt lat="38.1296783" lon="14.9076983"><ele>512.0</ele><time>2026-04-04T07:51:57.705Z</time></trkpt><trkpt lat="38.1296667" lon="14.9078217"><ele>512.6666666666666</ele><time>2026-04-04T07:51:58.704Z</time></trkpt><trkpt lat="38.1296667" lon="14.9079433"><ele>513.3333333333333</ele><time>2026-04-04T07:51:59.705Z</time></trkpt><trkpt lat="38.1296683" lon="14.908065"><ele>514.0</ele><time>2026-04-04T07:52:00.704Z</time></trkpt><trkpt lat="38.1296917" lon="14.908175"><ele>514.6666666666666</ele><time>2026-04-04T07:52:01.704Z</time></trkpt><trkpt lat="38.1297117" lon="14.9082817"><ele>515.3333333333334</ele><time>2026-04-04T07:52:02.704Z</time></trkpt><trkpt lat="38.129735" lon="14.90836"><ele>516.0</ele><time>2026-04-04T07:52:03.705Z</time></trkpt><trkpt lat="38.1297717" lon="14.90843"><ele>515.5</ele><time>2026-04-04T07:52:04.705Z</time></trkpt><trkpt lat="38.1298267" lon="14.9084767"><ele>515.0</ele><time>2026-04-04T07:52:05.705Z</time></trkpt><trkpt lat="38.1298933" lon="14.9084933"><ele>514.5</ele><time>2026-04-04T07:52:06.704Z</time></trkpt><trkpt lat="38.1300233" lon="14.9084317"><ele>514.0</ele><time>2026-04-04T07:52:08.705Z</time></trkpt><trkpt lat="38.1300883" lon="14.9083633"><ele>513.5</ele><time>2026-04-04T07:52:09.705Z</time></trkpt><trkpt lat="38.13015" lon="14.908315"><ele>513.0</ele><time>2026-04-04T07:52:10.705Z</time></trkpt><trkpt lat="38.1302167" lon="14.90826"><ele>508.6666666666667</ele><time>2026-04-04T07:52:11.705Z</time></trkpt><trkpt lat="38.1302867" lon="14.9082183"><ele>504.33333333333337</ele><time>2026-04-04T07:52:12.705Z</time></trkpt><trkpt lat="38.1303617" lon="14.9081767"><ele>500.0</ele><time>2026-04-04T07:52:13.705Z</time></trkpt><trkpt lat="38.1304517" lon="14.9081517"><ele>495.6666666666667</ele><time>2026-04-04T07:52:14.705Z</time></trkpt><trkpt lat="38.130545" lon="14.90813"><ele>491.33333333333337</ele><time>2026-04-04T07:52:15.705Z</time></trkpt><trkpt lat="38.1306233" lon="14.9081033"><ele>487.0</ele><time>2026-04-04T07:52:16.705Z</time></trkpt><trkpt lat="38.1307217" lon="14.9080933"><ele>488.25</ele><time>2026-04-04T07:52:17.705Z</time></trkpt><trkpt lat="38.13083" lon="14.9080633"><ele>489.5</ele><time>2026-04-04T07:52:18.705Z</time></trkpt><trkpt lat="38.1309617" lon="14.908035"><ele>490.75</ele><time>2026-04-04T07:52:19.704Z</time></trkpt><trkpt lat="38.1310983" lon="14.9079933"><ele>492.0</ele><time>2026-04-04T07:52:20.704Z</time></trkpt><trkpt lat="38.131235" lon="14.9079583"><ele>492.0</ele><time>2026-04-04T07:52:21.705Z</time></trkpt><trkpt lat="38.1313667" lon="14.90793"><ele>492.0</ele><time>2026-04-04T07:52:22.705Z</time></trkpt><trkpt lat="38.1314833" lon="14.9079033"><ele>492.0</ele><time>2026-04-04T07:52:23.705Z</time></trkpt><trkpt lat="38.131585" lon="14.907885"><ele>492.0</ele><time>2026-04-04T07:52:24.704Z</time></trkpt><trkpt lat="38.1316867" lon="14.9078783"><ele>494.0</ele><time>2026-04-04T07:52:25.705Z</time></trkpt><trkpt lat="38.131795" lon="14.9078783"><ele>496.00000000000006</ele><time>2026-04-04T07:52:26.705Z</time></trkpt><trkpt lat="38.1319" lon="14.907885"><ele>498.00000000000006</ele><time>2026-04-04T07:52:27.705Z</time></trkpt><trkpt lat="38.1320117" lon="14.907905"><ele>500.0</ele><time>2026-04-04T07:52:28.704Z</time></trkpt><trkpt lat="38.1321017" lon="14.90794"><ele>502.0</ele><time>2026-04-04T07:52:29.705Z</time></trkpt><trkpt lat="38.1321583" lon="14.9080067"><ele>502.0</ele><time>2026-04-04T07:52:30.705Z</time></trkpt><trkpt lat="38.1321967" lon="14.90809"><ele>502.00000000000006</ele><time>2026-04-04T07:52:31.705Z</time></trkpt><trkpt lat="38.1322283" lon="14.90821"><ele>502.00000000000006</ele><time>2026-04-04T07:52:32.705Z</time></trkpt><trkpt lat="38.1322567" lon="14.9083517"><ele>502.0</ele><time>2026-04-04T07:52:33.704Z</time></trkpt><trkpt lat="38.1322917" lon="14.908485"><ele>502.0</ele><time>2026-04-04T07:52:34.704Z</time></trkpt><trkpt lat="38.1323283" lon="14.90862"><ele>504.1666666666667</ele><time>2026-04-04T07:52:35.704Z</time></trkpt><trkpt lat="38.1323617" lon="14.9087433"><ele>506.33333333333337</ele><time>2026-04-04T07:52:36.704Z</time></trkpt><trkpt lat="38.1324017" lon="14.9088617"><ele>508.5</ele><time>2026-04-04T07:52:37.705Z</time></trkpt><trkpt lat="38.1324333" lon="14.9089667"><ele>510.66666666666663</ele><time>2026-04-04T07:52:38.704Z</time></trkpt><trkpt lat="38.1324683" lon="14.9090617"><ele>512.8333333333333</ele><time>2026-04-04T07:52:39.705Z</time></trkpt><trkpt lat="38.13251" lon="14.9091367"><ele>515.0</ele><time>2026-04-04T07:52:40.705Z</time></trkpt><trkpt lat="38.1325567" lon="14.9092133"><ele>515.0</ele><time>2026-04-04T07:52:42.705Z</time></trkpt><trkpt lat="38.1325283" lon="14.9091383"><ele>515.0</ele><time>2026-04-04T07:53:37.705Z</time></trkpt><trkpt lat="38.1325983" lon="14.90913"><ele>515.0</ele><time>2026-04-04T07:53:41.705Z</time></trkpt><trkpt lat="38.13271" lon="14.9092233"><ele>515.0</ele><time>2026-04-04T07:53:43.704Z</time></trkpt><trkpt lat="38.1327817" lon="14.9092783"><ele>515.0</ele><time>2026-04-04T07:53:44.704Z</time></trkpt><trkpt lat="38.1328483" lon="14.90932"><ele>515.0</ele><time>2026-04-04T07:53:45.705Z</time></trkpt><trkpt lat="38.1329033" lon="14.9093717"><ele>518.6666666666666</ele><time>2026-04-04T07:53:46.704Z</time></trkpt><trkpt lat="38.1329567" lon="14.90945"><ele>522.3333333333333</ele><time>2026-04-04T07:53:47.704Z</time></trkpt><trkpt lat="38.1330217" lon="14.9095533"><ele>526.0</ele><time>2026-04-04T07:53:48.705Z</time></trkpt><trkpt lat="38.13309" lon="14.90966"><ele>529.6666666666666</ele><time>2026-04-04T07:53:49.704Z</time></trkpt><trkpt lat="38.1331383" lon="14.9097417"><ele>533.3333333333334</ele><time>2026-04-04T07:53:50.705Z</time></trkpt><trkpt lat="38.1331467" lon="14.9098283"><ele>537.0</ele><time>2026-04-04T07:53:52.705Z</time></trkpt><trkpt lat="38.1330733" lon="14.9097717"><ele>537.0</ele><time>2026-04-04T07:53:54.705Z</time></trkpt><trkpt lat="38.1330117" lon="14.9097133"><ele>537.0</ele><time>2026-04-04T07:53:55.705Z</time></trkpt><trkpt lat="38.13294" lon="14.9096533"><ele>537.0</ele><time>2026-04-04T07:53:56.704Z</time></trkpt><trkpt lat="38.132865" lon="14.9096"><ele>537.0</ele><time>2026-04-04T07:53:57.705Z</time></trkpt><trkpt lat="38.1327967" lon="14.9095683"><ele>537.0</ele><time>2026-04-04T07:53:58.704Z</time></trkpt><trkpt lat="38.13273" lon="14.9095617"><ele>537.0</ele><time>2026-04-04T07:53:59.705Z</time></trkpt><trkpt lat="38.1326633" lon="14.9095883"><ele>537.0</ele><time>2026-04-04T07:54:00.705Z</time></trkpt><trkpt lat="38.1325767" lon="14.90965"><ele>537.0</ele><time>2026-04-04T07:54:01.705Z</time></trkpt><trkpt lat="38.1325" lon="14.9096983"><ele>537.0</ele><time>2026-04-04T07:54:02.705Z</time></trkpt><trkpt lat="38.1323817" lon="14.9097117"><ele>537.0</ele><time>2026-04-04T07:54:04.704Z</time></trkpt><trkpt lat="38.1323167" lon="14.90968"><ele>537.0</ele><time>2026-04-04T07:54:05.704Z</time></trkpt><trkpt lat="38.13226" lon="14.9096433"><ele>537.0</ele><time>2026-04-04T07:54:06.705Z</time></trkpt><trkpt lat="38.1321683" lon="14.9096183"><ele>539.2</ele><time>2026-04-04T07:54:08.705Z</time></trkpt><trkpt lat="38.13208" lon="14.9096217"><ele>541.4000000000001</ele><time>2026-04-04T07:54:11.705Z</time></trkpt><trkpt lat="38.131975" lon="14.90956"><ele>543.5999999999999</ele><time>2026-04-04T07:54:13.705Z</time></trkpt><trkpt lat="38.1319067" lon="14.9095167"><ele>545.8</ele><time>2026-04-04T07:54:14.705Z</time></trkpt><trkpt lat="38.1318167" lon="14.909495"><ele>548.0</ele><time>2026-04-04T07:54:15.704Z</time></trkpt><trkpt lat="38.1317383" lon="14.9094983"><ele>548.0</ele><time>2026-04-04T07:54:16.705Z</time></trkpt><trkpt lat="38.131645" lon="14.9095033"><ele>548.0</ele><time>2026-04-04T07:54:17.705Z</time></trkpt><trkpt lat="38.1315383" lon="14.9095133"><ele>548.0</ele><time>2026-04-04T07:54:18.705Z</time></trkpt><trkpt lat="38.1314317" lon="14.90951"><ele>548.0</ele><time>2026-04-04T07:54:19.705Z</time></trkpt><trkpt lat="38.13134" lon="14.9095133"><ele>548.0</ele><time>2026-04-04T07:54:20.705Z</time></trkpt><trkpt lat="38.1312617" lon="14.909515"><ele>547.6666666666666</ele><time>2026-04-04T07:54:21.704Z</time></trkpt><trkpt lat="38.1311833" lon="14.9095317"><ele>547.3333333333333</ele><time>2026-04-04T07:54:22.704Z</time></trkpt><trkpt lat="38.1311183" lon="14.9095867"><ele>547.0</ele><time>2026-04-04T07:54:23.704Z</time></trkpt><trkpt lat="38.1310617" lon="14.9096283"><ele>546.6666666666666</ele><time>2026-04-04T07:54:24.705Z</time></trkpt><trkpt lat="38.1309733" lon="14.9096867"><ele>546.3333333333334</ele><time>2026-04-04T07:54:26.705Z</time></trkpt><trkpt lat="38.1308633" lon="14.909645"><ele>546.0</ele><time>2026-04-04T07:54:28.705Z</time></trkpt><trkpt lat="38.13079" lon="14.9096033"><ele>546.1666666666666</ele><time>2026-04-04T07:54:29.704Z</time></trkpt><trkpt lat="38.1307133" lon="14.9095583"><ele>546.3333333333334</ele><time>2026-04-04T07:54:30.705Z</time></trkpt><trkpt lat="38.1306317" lon="14.9095233"><ele>546.5</ele><time>2026-04-04T07:54:31.705Z</time></trkpt><trkpt lat="38.1305533" lon="14.9094967"><ele>546.6666666666667</ele><time>2026-04-04T07:54:32.705Z</time></trkpt><trkpt lat="38.13047" lon="14.90948"><ele>546.8333333333334</ele><time>2026-04-04T07:54:33.704Z</time></trkpt><trkpt lat="38.1303917" lon="14.90949"><ele>547.0</ele><time>2026-04-04T07:54:34.704Z</time></trkpt><trkpt lat="38.1303083" lon="14.909515"><ele>547.0</ele><time>2026-04-04T07:54:35.705Z</time></trkpt><trkpt lat="38.13021" lon="14.9095517"><ele>547.0</ele><time>2026-04-04T07:54:36.704Z</time></trkpt><trkpt lat="38.13012" lon="14.90959"><ele>547.0</ele><time>2026-04-04T07:54:37.704Z</time></trkpt><trkpt lat="38.13003" lon="14.909635"><ele>547.0</ele><time>2026-04-04T07:54:38.704Z</time></trkpt><trkpt lat="38.12995" lon="14.9096833"><ele>547.0</ele><time>2026-04-04T07:54:39.704Z</time></trkpt><trkpt lat="38.1298683" lon="14.909725"><ele>548.5</ele><time>2026-04-04T07:54:40.704Z</time></trkpt><trkpt lat="38.1297883" lon="14.9097533"><ele>550.0</ele><time>2026-04-04T07:54:41.704Z</time></trkpt><trkpt lat="38.1297" lon="14.9097633"><ele>551.5</ele><time>2026-04-04T07:54:42.704Z</time></trkpt><trkpt lat="38.1296167" lon="14.9097867"><ele>553.0</ele><time>2026-04-04T07:54:43.704Z</time></trkpt><trkpt lat="38.1295333" lon="14.9098267"><ele>554.5</ele><time>2026-04-04T07:54:44.704Z</time></trkpt><trkpt lat="38.1294533" lon="14.9098667"><ele>556.0</ele><time>2026-04-04T07:54:45.705Z</time></trkpt><trkpt lat="38.1293817" lon="14.9099117"><ele>556.0</ele><time>2026-04-04T07:54:46.704Z</time></trkpt><trkpt lat="38.129315" lon="14.9099467"><ele>556.0</ele><time>2026-04-04T07:54:47.705Z</time></trkpt><trkpt lat="38.1292517" lon="14.9099667"><ele>556.0</ele><time>2026-04-04T07:54:48.705Z</time></trkpt><trkpt lat="38.12914" lon="14.909935"><ele>556.0</ele><time>2026-04-04T07:54:50.705Z</time></trkpt><trkpt lat="38.1291" lon="14.9098717"><ele>556.0</ele><time>2026-04-04T07:54:51.705Z</time></trkpt><trkpt lat="38.129065" lon="14.9097733"><ele>556.0</ele><time>2026-04-04T07:54:52.705Z</time></trkpt><trkpt lat="38.1290317" lon="14.9096567"><ele>558.8333333333334</ele><time>2026-04-04T07:54:53.705Z</time></trkpt><trkpt lat="38.12902" lon="14.9095383"><ele>561.6666666666667</ele><time>2026-04-04T07:54:54.704Z</time></trkpt><trkpt lat="38.129015" lon="14.9094233"><ele>564.5</ele><time>2026-04-04T07:54:55.704Z</time></trkpt><trkpt lat="38.1290083" lon="14.9093233"><ele>567.3333333333334</ele><time>2026-04-04T07:54:56.705Z</time></trkpt><trkpt lat="38.1289833" lon="14.9092267"><ele>570.1666666666666</ele><time>2026-04-04T07:54:57.705Z</time></trkpt><trkpt lat="38.1289333" lon="14.9091417"><ele>573.0</ele><time>2026-04-04T07:54:58.705Z</time></trkpt><trkpt lat="38.1288733" lon="14.9090633"><ele>573.0</ele><time>2026-04-04T07:54:59.704Z</time></trkpt><trkpt lat="38.128805" lon="14.909"><ele>573.0</ele><time>2026-04-04T07:55:00.705Z</time></trkpt><trkpt lat="38.1287433" lon="14.9089317"><ele>573.0</ele><time>2026-04-04T07:55:01.705Z</time></trkpt><trkpt lat="38.128685" lon="14.90886"><ele>573.0</ele><time>2026-04-04T07:55:02.704Z</time></trkpt><trkpt lat="38.1286233" lon="14.9087767"><ele>573.0</ele><time>2026-04-04T07:55:03.704Z</time></trkpt><trkpt lat="38.12857" lon="14.908685"><ele>573.0</ele><time>2026-04-04T07:55:04.705Z</time></trkpt><trkpt lat="38.12853" lon="14.9085883"><ele>573.0</ele><time>2026-04-04T07:55:05.704Z</time></trkpt><trkpt lat="38.1284983" lon="14.908485"><ele>573.0</ele><time>2026-04-04T07:55:06.704Z</time></trkpt><trkpt lat="38.128475" lon="14.9083667"><ele>573.0</ele><time>2026-04-04T07:55:07.705Z</time></trkpt><trkpt lat="38.1284667" lon="14.90825"><ele>573.0</ele><time>2026-04-04T07:55:08.704Z</time></trkpt><trkpt lat="38.128455" lon="14.9081317"><ele>573.0</ele><time>2026-04-04T07:55:09.705Z</time></trkpt><trkpt lat="38.128455" lon="14.9080167"><ele>570.3333333333334</ele><time>2026-04-04T07:55:10.704Z</time></trkpt><trkpt lat="38.128455" lon="14.9079017"><ele>567.6666666666666</ele><time>2026-04-04T07:55:11.705Z</time></trkpt><trkpt lat="38.128465" lon="14.9077883"><ele>565.0</ele><time>2026-04-04T07:55:12.705Z</time></trkpt><trkpt lat="38.1284583" lon="14.9076883"><ele>562.3333333333333</ele><time>2026-04-04T07:55:13.705Z</time></trkpt><trkpt lat="38.1284333" lon="14.9076"><ele>559.6666666666666</ele><time>2026-04-04T07:55:14.705Z</time></trkpt><trkpt lat="38.128405" lon="14.9075083"><ele>557.0</ele><time>2026-04-04T07:55:15.705Z</time></trkpt><trkpt lat="38.1283683" lon="14.907415"><ele>556.3333333333333</ele><time>2026-04-04T07:55:16.704Z</time></trkpt><trkpt lat="38.1283317" lon="14.9073233"><ele>555.6666666666666</ele><time>2026-04-04T07:55:17.705Z</time></trkpt><trkpt lat="38.128305" lon="14.90723"><ele>555.0</ele><time>2026-04-04T07:55:18.704Z</time></trkpt><trkpt lat="38.128265" lon="14.9071133"><ele>554.3333333333334</ele><time>2026-04-04T07:55:20.706Z</time></trkpt><trkpt lat="38.1281933" lon="14.9071633"><ele>553.6666666666667</ele><time>2026-04-04T07:55:24.706Z</time></trkpt><trkpt lat="38.1281533" lon="14.90727"><ele>553.0</ele><time>2026-04-04T07:55:26.705Z</time></trkpt><trkpt lat="38.1280783" lon="14.9072767"><ele>553.0</ele><time>2026-04-04T07:55:28.705Z</time></trkpt><trkpt lat="38.1279867" lon="14.90713"><ele>553.0</ele><time>2026-04-04T07:55:30.705Z</time></trkpt><trkpt lat="38.1279333" lon="14.9070683"><ele>553.0</ele><time>2026-04-04T07:55:31.706Z</time></trkpt><trkpt lat="38.1278317" lon="14.907055"><ele>553.0</ele><time>2026-04-04T07:55:33.706Z</time></trkpt><trkpt lat="38.1277917" lon="14.9071233"><ele>553.0</ele><time>2026-04-04T07:55:34.706Z</time></trkpt><trkpt lat="38.1277533" lon="14.907215"><ele>553.0</ele><time>2026-04-04T07:55:35.705Z</time></trkpt><trkpt lat="38.127725" lon="14.9073467"><ele>553.0</ele><time>2026-04-04T07:55:36.706Z</time></trkpt><trkpt lat="38.127715" lon="14.907485"><ele>553.0</ele><time>2026-04-04T07:55:37.706Z</time></trkpt><trkpt lat="38.127715" lon="14.90762"><ele>553.0</ele><time>2026-04-04T07:55:38.706Z</time></trkpt><trkpt lat="38.1277033" lon="14.90778"><ele>553.0</ele><time>2026-04-04T07:55:39.706Z</time></trkpt><trkpt lat="38.127675" lon="14.9079417"><ele>557.8</ele><time>2026-04-04T07:55:40.705Z</time></trkpt><trkpt lat="38.1276433" lon="14.908105"><ele>562.5999999999999</ele><time>2026-04-04T07:55:41.706Z</time></trkpt><trkpt lat="38.12762" lon="14.90824"><ele>567.4000000000001</ele><time>2026-04-04T07:55:42.706Z</time></trkpt><trkpt lat="38.127595" lon="14.908335"><ele>572.2</ele><time>2026-04-04T07:55:43.706Z</time></trkpt><trkpt lat="38.127565" lon="14.90841"><ele>577.0</ele><time>2026-04-04T07:55:44.705Z</time></trkpt><trkpt lat="38.1275267" lon="14.908505"><ele>579.6</ele><time>2026-04-04T07:55:45.706Z</time></trkpt><trkpt lat="38.1275017" lon="14.9086067"><ele>582.2</ele><time>2026-04-04T07:55:46.706Z</time></trkpt><trkpt lat="38.1274967" lon="14.90873"><ele>584.8</ele><time>2026-04-04T07:55:47.706Z</time></trkpt><trkpt lat="38.1274933" lon="14.9088517"><ele>587.4</ele><time>2026-04-04T07:55:48.705Z</time></trkpt><trkpt lat="38.1274983" lon="14.908985"><ele>590.0</ele><time>2026-04-04T07:55:49.706Z</time></trkpt><trkpt lat="38.1275167" lon="14.9091017"><ele>590.0</ele><time>2026-04-04T07:55:50.706Z</time></trkpt><trkpt lat="38.1275483" lon="14.9092167"><ele>590.0</ele><time>2026-04-04T07:55:51.705Z</time></trkpt><trkpt lat="38.1275833" lon="14.90932"><ele>590.0</ele><time>2026-04-04T07:55:52.705Z</time></trkpt><trkpt lat="38.1276117" lon="14.90943"><ele>590.0</ele><time>2026-04-04T07:55:53.706Z</time></trkpt><trkpt lat="38.12764" lon="14.9095317"><ele>590.0</ele><time>2026-04-04T07:55:54.706Z</time></trkpt><trkpt lat="38.127655" lon="14.9096433"><ele>590.0</ele><time>2026-04-04T07:55:55.706Z</time></trkpt><trkpt lat="38.1276683" lon="14.909745"><ele>592.2857142857143</ele><time>2026-04-04T07:55:56.705Z</time></trkpt><trkpt lat="38.127675" lon="14.9098533"><ele>594.5714285714286</ele><time>2026-04-04T07:55:57.706Z</time></trkpt><trkpt lat="38.1276733" lon="14.9099533"><ele>596.8571428571429</ele><time>2026-04-04T07:55:58.705Z</time></trkpt><trkpt lat="38.1276817" lon="14.910045"><ele>599.1428571428571</ele><time>2026-04-04T07:55:59.706Z</time></trkpt><trkpt lat="38.12769" lon="14.9101267"><ele>601.4285714285714</ele><time>2026-04-04T07:56:00.706Z</time></trkpt><trkpt lat="38.1276967" lon="14.9102167"><ele>603.7142857142858</ele><time>2026-04-04T07:56:01.706Z</time></trkpt><trkpt lat="38.127705" lon="14.910305"><ele>606.0</ele><time>2026-04-04T07:56:02.706Z</time></trkpt><trkpt lat="38.1277167" lon="14.9104417"><ele>610.2</ele><time>2026-04-04T07:56:04.705Z</time></trkpt><trkpt lat="38.1277333" lon="14.9105433"><ele>614.4000000000001</ele><time>2026-04-04T07:56:06.705Z</time></trkpt><trkpt lat="38.1277383" lon="14.9106267"><ele>618.6</ele><time>2026-04-04T07:56:08.705Z</time></trkpt><trkpt lat="38.1276983" lon="14.91073"><ele>622.8000000000001</ele><time>2026-04-04T07:56:11.705Z</time></trkpt><trkpt lat="38.1276067" lon="14.910795"><ele>627.0</ele><time>2026-04-04T07:56:13.706Z</time></trkpt><trkpt lat="38.1274967" lon="14.91087"><ele>627.0</ele><time>2026-04-04T07:56:15.706Z</time></trkpt><trkpt lat="38.127435" lon="14.9108967"><ele>627.0</ele><time>2026-04-04T07:56:16.706Z</time></trkpt><trkpt lat="38.1273683" lon="14.9109067"><ele>627.0</ele><time>2026-04-04T07:56:17.706Z</time></trkpt><trkpt lat="38.1272983" lon="14.9109117"><ele>627.0</ele><time>2026-04-04T07:56:18.706Z</time></trkpt><trkpt lat="38.1272183" lon="14.9109217"><ele>627.0</ele><time>2026-04-04T07:56:19.705Z</time></trkpt><trkpt lat="38.1271283" lon="14.9109283"><ele>627.0</ele><time>2026-04-04T07:56:20.706Z</time></trkpt><trkpt lat="38.1270383" lon="14.910945"><ele>629.5</ele><time>2026-04-04T07:56:21.706Z</time></trkpt><trkpt lat="38.1269583" lon="14.9109817"><ele>632.0</ele><time>2026-04-04T07:56:22.706Z</time></trkpt><trkpt lat="38.1268683" lon="14.9110183"><ele>634.5</ele><time>2026-04-04T07:56:23.706Z</time></trkpt><trkpt lat="38.1267933" lon="14.9110567"><ele>637.0</ele><time>2026-04-04T07:56:24.706Z</time></trkpt><trkpt lat="38.1267217" lon="14.9110933"><ele>639.5</ele><time>2026-04-04T07:56:25.706Z</time></trkpt><trkpt lat="38.1266533" lon="14.911135"><ele>642.0</ele><time>2026-04-04T07:56:26.705Z</time></trkpt><trkpt lat="38.1265833" lon="14.9111817"><ele>639.8333333333334</ele><time>2026-04-04T07:56:27.705Z</time></trkpt><trkpt lat="38.126525" lon="14.911235"><ele>637.6666666666666</ele><time>2026-04-04T07:56:28.706Z</time></trkpt><trkpt lat="38.126445" lon="14.911295"><ele>635.5</ele><time>2026-04-04T07:56:30.706Z</time></trkpt><trkpt lat="38.126355" lon="14.9113617"><ele>633.3333333333333</ele><time>2026-04-04T07:56:32.705Z</time></trkpt><trkpt lat="38.1262983" lon="14.9114217"><ele>631.1666666666666</ele><time>2026-04-04T07:56:33.706Z</time></trkpt><trkpt lat="38.1262317" lon="14.9114983"><ele>629.0</ele><time>2026-04-04T07:56:34.706Z</time></trkpt><trkpt lat="38.126165" lon="14.9115933"><ele>629.0</ele><time>2026-04-04T07:56:35.706Z</time></trkpt><trkpt lat="38.1260983" lon="14.9116817"><ele>629.0</ele><time>2026-04-04T07:56:36.706Z</time></trkpt><trkpt lat="38.126025" lon="14.91176"><ele>629.0</ele><time>2026-04-04T07:56:37.706Z</time></trkpt><trkpt lat="38.125945" lon="14.9118283"><ele>629.0</ele><time>2026-04-04T07:56:38.705Z</time></trkpt><trkpt lat="38.1258517" lon="14.9118817"><ele>629.0</ele><time>2026-04-04T07:56:39.706Z</time></trkpt><trkpt lat="38.1257517" lon="14.9119267"><ele>631.2</ele><time>2026-04-04T07:56:40.706Z</time></trkpt><trkpt lat="38.1256517" lon="14.9119733"><ele>633.4</ele><time>2026-04-04T07:56:41.706Z</time></trkpt><trkpt lat="38.12558" lon="14.912015"><ele>635.6</ele><time>2026-04-04T07:56:42.706Z</time></trkpt><trkpt lat="38.1255017" lon="14.9120567"><ele>637.8</ele><time>2026-04-04T07:56:43.706Z</time></trkpt><trkpt lat="38.125415" lon="14.9121017"><ele>640.0</ele><time>2026-04-04T07:56:44.706Z</time></trkpt><trkpt lat="38.12533" lon="14.91216"><ele>640.0</ele><time>2026-04-04T07:56:45.706Z</time></trkpt><trkpt lat="38.1252583" lon="14.9122267"><ele>640.0</ele><time>2026-04-04T07:56:46.706Z</time></trkpt><trkpt lat="38.1252" lon="14.9123033"><ele>640.0</ele><time>2026-04-04T07:56:47.706Z</time></trkpt><trkpt lat="38.12514" lon="14.9124"><ele>640.0</ele><time>2026-04-04T07:56:48.705Z</time></trkpt><trkpt lat="38.1250767" lon="14.9124967"><ele>640.0</ele><time>2026-04-04T07:56:49.706Z</time></trkpt><trkpt lat="38.1250267" lon="14.91258"><ele>642.6666666666667</ele><time>2026-04-04T07:56:50.706Z</time></trkpt><trkpt lat="38.12498" lon="14.9126467"><ele>645.3333333333334</ele><time>2026-04-04T07:56:51.706Z</time></trkpt><trkpt lat="38.1248783" lon="14.9127233"><ele>648.0</ele><time>2026-04-04T07:56:53.706Z</time></trkpt><trkpt lat="38.1248117" lon="14.9127433"><ele>650.6666666666666</ele><time>2026-04-04T07:56:54.706Z</time></trkpt><trkpt lat="38.1247367" lon="14.91278"><ele>653.3333333333333</ele><time>2026-04-04T07:56:55.706Z</time></trkpt><trkpt lat="38.1246533" lon="14.9128367"><ele>656.0</ele><time>2026-04-04T07:56:56.706Z</time></trkpt><trkpt lat="38.1245733" lon="14.9129167"><ele>656.0</ele><time>2026-04-04T07:56:57.705Z</time></trkpt><trkpt lat="38.124505" lon="14.913005"><ele>656.0</ele><time>2026-04-04T07:56:58.706Z</time></trkpt><trkpt lat="38.124445" lon="14.9131"><ele>656.0</ele><time>2026-04-04T07:56:59.706Z</time></trkpt><trkpt lat="38.1243833" lon="14.9131867"><ele>656.0</ele><time>2026-04-04T07:57:00.706Z</time></trkpt><trkpt lat="38.1243217" lon="14.9132683"><ele>656.0</ele><time>2026-04-04T07:57:01.706Z</time></trkpt><trkpt lat="38.124255" lon="14.913345"><ele>656.0</ele><time>2026-04-04T07:57:02.705Z</time></trkpt><trkpt lat="38.1241933" lon="14.9134017"><ele>656.0</ele><time>2026-04-04T07:57:03.705Z</time></trkpt><trkpt lat="38.124115" lon="14.9134367"><ele>656.0</ele><time>2026-04-04T07:57:05.705Z</time></trkpt><trkpt lat="38.1240483" lon="14.9134017"><ele>656.0</ele><time>2026-04-04T07:57:07.706Z</time></trkpt><trkpt lat="38.1239317" lon="14.9134117"><ele>656.0</ele><time>2026-04-04T07:57:09.706Z</time></trkpt><trkpt lat="38.1238667" lon="14.9134467"><ele>656.0</ele><time>2026-04-04T07:57:10.705Z</time></trkpt><trkpt lat="38.1237917" lon="14.9134783"><ele>661.0</ele><time>2026-04-04T07:57:11.706Z</time></trkpt><trkpt lat="38.12372" lon="14.9135117"><ele>666.0</ele><time>2026-04-04T07:57:12.705Z</time></trkpt><trkpt lat="38.1236533" lon="14.9135233"><ele>671.0</ele><time>2026-04-04T07:57:13.706Z</time></trkpt><trkpt lat="38.1235817" lon="14.913485"><ele>676.0</ele><time>2026-04-04T07:57:15.706Z</time></trkpt><trkpt lat="38.1236033" lon="14.9133067"><ele>681.0</ele><time>2026-04-04T07:57:17.706Z</time></trkpt><trkpt lat="38.1236367" lon="14.913165"><ele>681.0</ele><time>2026-04-04T07:57:18.706Z</time></trkpt><trkpt lat="38.12367" lon="14.9130433"><ele>681.0</ele><time>2026-04-04T07:57:19.706Z</time></trkpt><trkpt lat="38.1236917" lon="14.91295"><ele>681.0</ele><time>2026-04-04T07:57:20.706Z</time></trkpt><trkpt lat="38.1236933" lon="14.91286"><ele>681.0</ele><time>2026-04-04T07:57:21.705Z</time></trkpt><trkpt lat="38.1236867" lon="14.9127683"><ele>681.0</ele><time>2026-04-04T07:57:22.706Z</time></trkpt><trkpt lat="38.1236633" lon="14.9126783"><ele>681.0</ele><time>2026-04-04T07:57:23.706Z</time></trkpt><trkpt lat="38.12363" lon="14.9125983"><ele>678.8333333333334</ele><time>2026-04-04T07:57:24.705Z</time></trkpt><trkpt lat="38.123585" lon="14.9125217"><ele>676.6666666666666</ele><time>2026-04-04T07:57:25.705Z</time></trkpt><trkpt lat="38.12353" lon="14.912475"><ele>674.5</ele><time>2026-04-04T07:57:26.706Z</time></trkpt><trkpt lat="38.123465" lon="14.9124367"><ele>672.3333333333333</ele><time>2026-04-04T07:57:27.705Z</time></trkpt><trkpt lat="38.1234" lon="14.9123933"><ele>670.1666666666666</ele><time>2026-04-04T07:57:28.706Z</time></trkpt><trkpt lat="38.123345" lon="14.9123383"><ele>668.0</ele><time>2026-04-04T07:57:29.706Z</time></trkpt><trkpt lat="38.1232967" lon="14.912215"><ele>668.0</ele><time>2026-04-04T07:57:31.706Z</time></trkpt><trkpt lat="38.1232933" lon="14.912055"><ele>668.0</ele><time>2026-04-04T07:57:33.705Z</time></trkpt><trkpt lat="38.12331" lon="14.9119617"><ele>668.0</ele><time>2026-04-04T07:57:34.705Z</time></trkpt><trkpt lat="38.12333" lon="14.91187"><ele>668.0</ele><time>2026-04-04T07:57:35.706Z</time></trkpt><trkpt lat="38.1233433" lon="14.9117867"><ele>668.0</ele><time>2026-04-04T07:57:36.706Z</time></trkpt><trkpt lat="38.1233567" lon="14.911705"><ele>668.0</ele><time>2026-04-04T07:57:37.705Z</time></trkpt><trkpt lat="38.1233217" lon="14.9115583"><ele>665.8</ele><time>2026-04-04T07:57:39.706Z</time></trkpt><trkpt lat="38.1232367" lon="14.9114667"><ele>663.5999999999999</ele><time>2026-04-04T07:57:41.705Z</time></trkpt><trkpt lat="38.1231133" lon="14.9114433"><ele>661.4000000000001</ele><time>2026-04-04T07:57:43.706Z</time></trkpt><trkpt lat="38.1230417" lon="14.911445"><ele>659.2</ele><time>2026-04-04T07:57:44.706Z</time></trkpt><trkpt lat="38.122965" lon="14.9114517"><ele>657.0</ele><time>2026-04-04T07:57:45.706Z</time></trkpt><trkpt lat="38.1228867" lon="14.9114683"><ele>661.5</ele><time>2026-04-04T07:57:46.706Z</time></trkpt><trkpt lat="38.1228133" lon="14.9114883"><ele>666.0</ele><time>2026-04-04T07:57:47.705Z</time></trkpt><trkpt lat="38.1227467" lon="14.91151"><ele>670.5</ele><time>2026-04-04T07:57:48.705Z</time></trkpt><trkpt lat="38.1226817" lon="14.9115367"><ele>675.0</ele><time>2026-04-04T07:57:49.705Z</time></trkpt><trkpt lat="38.1225867" lon="14.9115567"><ele>679.5</ele><time>2026-04-04T07:57:51.706Z</time></trkpt><trkpt lat="38.1225233" lon="14.9114417"><ele>684.0</ele><time>2026-04-04T07:57:53.706Z</time></trkpt><trkpt lat="38.1224833" lon="14.9113533"><ele>684.0</ele><time>2026-04-04T07:57:54.706Z</time></trkpt><trkpt lat="38.1224283" lon="14.9112683"><ele>684.0</ele><time>2026-04-04T07:57:55.706Z</time></trkpt><trkpt lat="38.1223733" lon="14.9111867"><ele>684.0</ele><time>2026-04-04T07:57:56.706Z</time></trkpt><trkpt lat="38.12231" lon="14.911115"><ele>684.0</ele><time>2026-04-04T07:57:57.706Z</time></trkpt><trkpt lat="38.1222383" lon="14.9110617"><ele>684.0</ele><time>2026-04-04T07:57:58.705Z</time></trkpt><trkpt lat="38.1221767" lon="14.9110283"><ele>684.0</ele><time>2026-04-04T07:57:59.705Z</time></trkpt><trkpt lat="38.1220467" lon="14.9110467"><ele>686.2</ele><time>2026-04-04T07:58:01.706Z</time></trkpt><trkpt lat="38.1219867" lon="14.9110867"><ele>688.4000000000001</ele><time>2026-04-04T07:58:02.705Z</time></trkpt><trkpt lat="38.1219283" lon="14.911125"><ele>690.6</ele><time>2026-04-04T07:58:03.706Z</time></trkpt><trkpt lat="38.1218333" lon="14.9112133"><ele>692.8</ele><time>2026-04-04T07:58:05.706Z</time></trkpt><trkpt lat="38.12172" lon="14.9112883"><ele>695.0</ele><time>2026-04-04T07:58:07.705Z</time></trkpt><trkpt lat="38.1216117" lon="14.9113417"><ele>696.8</ele><time>2026-04-04T07:58:09.706Z</time></trkpt><trkpt lat="38.12148" lon="14.911355"><ele>698.6</ele><time>2026-04-04T07:58:11.706Z</time></trkpt><trkpt lat="38.1214017" lon="14.9113517"><ele>700.4000000000001</ele><time>2026-04-04T07:58:12.705Z</time></trkpt><trkpt lat="38.1213167" lon="14.9113467"><ele>702.2</ele><time>2026-04-04T07:58:13.705Z</time></trkpt><trkpt lat="38.1212117" lon="14.9113267"><ele>704.0</ele><time>2026-04-04T07:58:14.706Z</time></trkpt><trkpt lat="38.121095" lon="14.9113"><ele>704.0</ele><time>2026-04-04T07:58:15.706Z</time></trkpt><trkpt lat="38.1209933" lon="14.9112817"><ele>704.0</ele><time>2026-04-04T07:58:16.706Z</time></trkpt><trkpt lat="38.120905" lon="14.9112767"><ele>704.0</ele><time>2026-04-04T07:58:17.705Z</time></trkpt><trkpt lat="38.12081" lon="14.91131"><ele>704.0</ele><time>2026-04-04T07:58:18.705Z</time></trkpt><trkpt lat="38.1207117" lon="14.911355"><ele>704.0</ele><time>2026-04-04T07:58:19.706Z</time></trkpt><trkpt lat="38.1206183" lon="14.91139"><ele>704.0</ele><time>2026-04-04T07:58:20.706Z</time></trkpt><trkpt lat="38.12055" lon="14.9114033"><ele>704.0</ele><time>2026-04-04T07:58:21.705Z</time></trkpt><trkpt lat="38.1204267" lon="14.9114117"><ele>704.0</ele><time>2026-04-04T07:58:23.705Z</time></trkpt><trkpt lat="38.1203583" lon="14.9114233"><ele>704.0</ele><time>2026-04-04T07:58:24.705Z</time></trkpt><trkpt lat="38.120295" lon="14.9114533"><ele>704.0</ele><time>2026-04-04T07:58:25.706Z</time></trkpt><trkpt lat="38.120225" lon="14.9114833"><ele>704.0</ele><time>2026-04-04T07:58:26.706Z</time></trkpt><trkpt lat="38.1201567" lon="14.911505"><ele>704.0</ele><time>2026-04-04T07:58:27.706Z</time></trkpt><trkpt lat="38.1200933" lon="14.91152"><ele>704.0</ele><time>2026-04-04T07:58:28.706Z</time></trkpt><trkpt lat="38.119985" lon="14.9115617"><ele>704.0</ele><time>2026-04-04T07:58:30.706Z</time></trkpt><trkpt lat="38.119875" lon="14.9116417"><ele>704.0</ele><time>2026-04-04T07:58:32.705Z</time></trkpt><trkpt lat="38.1198167" lon="14.9116883"><ele>704.0</ele><time>2026-04-04T07:58:33.705Z</time></trkpt><trkpt lat="38.1197483" lon="14.9117333"><ele>711.0</ele><time>2026-04-04T07:58:34.706Z</time></trkpt><trkpt lat="38.1196767" lon="14.9117717"><ele>718.0</ele><time>2026-04-04T07:58:35.705Z</time></trkpt><trkpt lat="38.1196083" lon="14.9118067"><ele>725.0</ele><time>2026-04-04T07:58:36.706Z</time></trkpt><trkpt lat="38.1195483" lon="14.9118567"><ele>732.0</ele><time>2026-04-04T07:58:37.706Z</time></trkpt><trkpt lat="38.1194967" lon="14.9119117"><ele>739.0</ele><time>2026-04-04T07:58:38.706Z</time></trkpt><trkpt lat="38.11941" lon="14.91196"><ele>746.0</ele><time>2026-04-04T07:58:40.706Z</time></trkpt><trkpt lat="38.1193217" lon="14.9119"><ele>746.0</ele><time>2026-04-04T07:58:42.706Z</time></trkpt><trkpt lat="38.1192617" lon="14.911845"><ele>746.0</ele><time>2026-04-04T07:58:43.706Z</time></trkpt><trkpt lat="38.119205" lon="14.9118033"><ele>746.0</ele><time>2026-04-04T07:58:44.706Z</time></trkpt><trkpt lat="38.11911" lon="14.91173"><ele>746.0</ele><time>2026-04-04T07:58:46.706Z</time></trkpt><trkpt lat="38.11903" lon="14.9116567"><ele>746.0</ele><time>2026-04-04T07:58:48.705Z</time></trkpt><trkpt lat="38.1189633" lon="14.9115583"><ele>739.5999999999999</ele><time>2026-04-04T07:58:50.706Z</time></trkpt><trkpt lat="38.11889" lon="14.9114733"><ele>733.2</ele><time>2026-04-04T07:58:52.706Z</time></trkpt><trkpt lat="38.11879" lon="14.91147"><ele>726.8</ele><time>2026-04-04T07:58:54.706Z</time></trkpt><trkpt lat="38.1186867" lon="14.9115033"><ele>720.4000000000001</ele><time>2026-04-04T07:58:56.705Z</time></trkpt><trkpt lat="38.11858" lon="14.9115017"><ele>714.0</ele><time>2026-04-04T07:58:58.706Z</time></trkpt><trkpt lat="38.1184783" lon="14.91147"><ele>714.0</ele><time>2026-04-04T07:59:00.705Z</time></trkpt><trkpt lat="38.1183717" lon="14.911465"><ele>714.0</ele><time>2026-04-04T07:59:02.705Z</time></trkpt><trkpt lat="38.11829" lon="14.911445"><ele>714.0</ele><time>2026-04-04T07:59:04.706Z</time></trkpt><trkpt lat="38.1183" lon="14.911355"><ele>714.0</ele><time>2026-04-04T07:59:07.705Z</time></trkpt><trkpt lat="38.118395" lon="14.9113283"><ele>714.0</ele><time>2026-04-04T07:59:09.706Z</time></trkpt><trkpt lat="38.1184583" lon="14.911325"><ele>714.0</ele><time>2026-04-04T07:59:10.706Z</time></trkpt><trkpt lat="38.1185233" lon="14.9113217"><ele>714.0</ele><time>2026-04-04T07:59:11.706Z</time></trkpt><trkpt lat="38.1186233" lon="14.9112867"><ele>714.0</ele><time>2026-04-04T07:59:13.706Z</time></trkpt><trkpt lat="38.1186833" lon="14.9112083"><ele>714.0</ele><time>2026-04-04T07:59:15.705Z</time></trkpt><trkpt lat="38.118715" lon="14.9111167"><ele>714.0</ele><time>2026-04-04T07:59:17.706Z</time></trkpt><trkpt lat="38.1187383" lon="14.9110383"><ele>714.0</ele><time>2026-04-04T07:59:19.705Z</time></trkpt><trkpt lat="38.11882" lon="14.9109733"><ele>714.0</ele><time>2026-04-04T07:59:22.706Z</time></trkpt><trkpt lat="38.1188967" lon="14.9109317"><ele>714.0</ele><time>2026-04-04T07:59:24.705Z</time></trkpt><trkpt lat="38.1189867" lon="14.9109117"><ele>714.0</ele><time>2026-04-04T07:59:26.705Z</time></trkpt><trkpt lat="38.119065" lon="14.91093"><ele>714.0</ele><time>2026-04-04T07:59:28.706Z</time></trkpt><trkpt lat="38.1191567" lon="14.9109733"><ele>714.0</ele><time>2026-04-04T07:59:30.706Z</time></trkpt><trkpt lat="38.1192383" lon="14.9110367"><ele>714.0</ele><time>2026-04-04T07:59:32.706Z</time></trkpt><trkpt lat="38.1193067" lon="14.91107"><ele>714.0</ele><time>2026-04-04T07:59:34.705Z</time></trkpt><trkpt lat="38.11933" lon="14.9109933"><ele>712.8333333333334</ele><time>2026-04-04T07:59:37.705Z</time></trkpt><trkpt lat="38.1192583" lon="14.9109367"><ele>711.6666666666666</ele><time>2026-04-04T07:59:39.705Z</time></trkpt><trkpt lat="38.1191817" lon="14.9108683"><ele>710.5</ele><time>2026-04-04T07:59:41.706Z</time></trkpt><trkpt lat="38.11912" lon="14.9107917"><ele>709.3333333333333</ele><time>2026-04-04T07:59:43.706Z</time></trkpt><trkpt lat="38.119065" lon="14.9107467"><ele>708.1666666666666</ele><time>2026-04-04T07:59:45.706Z</time></trkpt><trkpt lat="38.1190183" lon="14.9106583"><ele>707.0</ele><time>2026-04-04T07:59:48.706Z</time></trkpt><trkpt lat="38.11904" lon="14.9105767"><ele>701.4000000000001</ele><time>2026-04-04T07:59:50.705Z</time></trkpt><trkpt lat="38.119115" lon="14.9105233"><ele>695.8000000000001</ele><time>2026-04-04T07:59:52.705Z</time></trkpt><trkpt lat="38.1192233" lon="14.9104983"><ele>690.2</ele><time>2026-04-04T07:59:54.705Z</time></trkpt><trkpt lat="38.1193433" lon="14.91053"><ele>684.6</ele><time>2026-04-04T07:59:56.706Z</time></trkpt><trkpt lat="38.1194567" lon="14.910545"><ele>679.0</ele><time>2026-04-04T07:59:58.706Z</time></trkpt><trkpt lat="38.1195583" lon="14.9105517"><ele>679.0</ele><time>2026-04-04T08:00:00.706Z</time></trkpt><trkpt lat="38.1196483" lon="14.9105717"><ele>679.0</ele><time>2026-04-04T08:00:02.706Z</time></trkpt><trkpt lat="38.1197367" lon="14.9105817"><ele>679.0</ele><time>2026-04-04T08:00:04.706Z</time></trkpt><trkpt lat="38.1198217" lon="14.910545"><ele>679.0</ele><time>2026-04-04T08:00:06.705Z</time></trkpt><trkpt lat="38.1199083" lon="14.91047"><ele>679.0</ele><time>2026-04-04T08:00:08.706Z</time></trkpt><trkpt lat="38.1199583" lon="14.910315"><ele>677.8000000000001</ele><time>2026-04-04T08:00:10.706Z</time></trkpt><trkpt lat="38.119955" lon="14.9102017"><ele>676.6</ele><time>2026-04-04T08:00:11.706Z</time></trkpt><trkpt lat="38.1199583" lon="14.9100733"><ele>675.4</ele><time>2026-04-04T08:00:12.705Z</time></trkpt><trkpt lat="38.1199933" lon="14.9099667"><ele>674.2</ele><time>2026-04-04T08:00:13.705Z</time></trkpt><trkpt lat="38.1200267" lon="14.9098633"><ele>673.0</ele><time>2026-04-04T08:00:14.706Z</time></trkpt><trkpt lat="38.12004" lon="14.90976"><ele>673.0</ele><time>2026-04-04T08:00:15.705Z</time></trkpt><trkpt lat="38.1200517" lon="14.9096633"><ele>673.0</ele><time>2026-04-04T08:00:16.706Z</time></trkpt><trkpt lat="38.120065" lon="14.909585"><ele>673.0</ele><time>2026-04-04T08:00:17.706Z</time></trkpt><trkpt lat="38.120125" lon="14.9094783"><ele>673.0</ele><time>2026-04-04T08:00:19.706Z</time></trkpt><trkpt lat="38.1202283" lon="14.909415"><ele>673.0</ele><time>2026-04-04T08:00:21.706Z</time></trkpt><trkpt lat="38.120335" lon="14.909355"><ele>673.0</ele><time>2026-04-04T08:00:23.706Z</time></trkpt><trkpt lat="38.1204567" lon="14.9093033"><ele>673.0</ele><time>2026-04-04T08:00:25.706Z</time></trkpt><trkpt lat="38.1205033" lon="14.9092467"><ele>673.0</ele><time>2026-04-04T08:00:26.705Z</time></trkpt><trkpt lat="38.1205867" lon="14.9091433"><ele>673.0</ele><time>2026-04-04T08:00:28.707Z</time></trkpt><trkpt lat="38.1207017" lon="14.9090733"><ele>673.0</ele><time>2026-04-04T08:00:30.706Z</time></trkpt><trkpt lat="38.120805" lon="14.9090233"><ele>671.8333333333334</ele><time>2026-04-04T08:00:32.706Z</time></trkpt><trkpt lat="38.1208867" lon="14.908915"><ele>670.6666666666667</ele><time>2026-04-04T08:00:34.707Z</time></trkpt><trkpt lat="38.120955" lon="14.90886"><ele>669.5</ele><time>2026-04-04T08:00:36.706Z</time></trkpt><trkpt lat="38.1210233" lon="14.9088167"><ele>668.3333333333334</ele><time>2026-04-04T08:00:39.707Z</time></trkpt><trkpt lat="38.12109" lon="14.9087883"><ele>667.1666666666666</ele><time>2026-04-04T08:00:41.707Z</time></trkpt><trkpt lat="38.12118" lon="14.9087583"><ele>666.0</ele><time>2026-04-04T08:00:43.706Z</time></trkpt><trkpt lat="38.121255" lon="14.9087283"><ele>666.0</ele><time>2026-04-04T08:00:45.707Z</time></trkpt><trkpt lat="38.1213067" lon="14.9086567"><ele>666.0</ele><time>2026-04-04T08:01:10.706Z</time></trkpt><trkpt lat="38.1213583" lon="14.908555"><ele>666.0</ele><time>2026-04-04T08:01:12.706Z</time></trkpt><trkpt lat="38.121415" lon="14.90849"><ele>666.0</ele><time>2026-04-04T08:01:14.707Z</time></trkpt><trkpt lat="38.1214883" lon="14.9084267"><ele>666.0</ele><time>2026-04-04T08:01:16.706Z</time></trkpt><trkpt lat="38.1215767" lon="14.9083667"><ele>666.0</ele><time>2026-04-04T08:01:18.707Z</time></trkpt><trkpt lat="38.1216633" lon="14.9083183"><ele>668.4</ele><time>2026-04-04T08:01:20.707Z</time></trkpt><trkpt lat="38.1217533" lon="14.9082733"><ele>670.8</ele><time>2026-04-04T08:01:22.707Z</time></trkpt><trkpt lat="38.1218267" lon="14.9082083"><ele>673.1999999999999</ele><time>2026-04-04T08:01:24.707Z</time></trkpt><trkpt lat="38.1219233" lon="14.908115"><ele>675.5999999999999</ele><time>2026-04-04T08:01:26.707Z</time></trkpt><trkpt lat="38.1219733" lon="14.908035"><ele>678.0</ele><time>2026-04-04T08:01:27.706Z</time></trkpt><trkpt lat="38.122015" lon="14.907945"><ele>678.0</ele><time>2026-04-04T08:01:28.707Z</time></trkpt><trkpt lat="38.1220567" lon="14.90787"><ele>678.0</ele><time>2026-04-04T08:01:29.706Z</time></trkpt><trkpt lat="38.1221217" lon="14.9077467"><ele>678.0</ele><time>2026-04-04T08:01:31.707Z</time></trkpt><trkpt lat="38.1221267" lon="14.90764"><ele>678.0</ele><time>2026-04-04T08:01:33.707Z</time></trkpt><trkpt lat="38.1221033" lon="14.9075633"><ele>678.0</ele><time>2026-04-04T08:01:35.707Z</time></trkpt><trkpt lat="38.1220967" lon="14.9074817"><ele>678.0</ele><time>2026-04-04T08:01:38.706Z</time></trkpt><trkpt lat="38.1221117" lon="14.9073817"><ele>683.5999999999999</ele><time>2026-04-04T08:01:42.707Z</time></trkpt><trkpt lat="38.12212" lon="14.9072867"><ele>689.1999999999999</ele><time>2026-04-04T08:01:44.706Z</time></trkpt><trkpt lat="38.1221617" lon="14.90717"><ele>694.8</ele><time>2026-04-04T08:01:46.707Z</time></trkpt><trkpt lat="38.1221917" lon="14.9070367"><ele>700.4</ele><time>2026-04-04T08:01:48.707Z</time></trkpt><trkpt lat="38.1222083" lon="14.906895"><ele>706.0</ele><time>2026-04-04T08:01:50.706Z</time></trkpt><trkpt lat="38.1222467" lon="14.9067717"><ele>708.3333333333334</ele><time>2026-04-04T08:01:52.707Z</time></trkpt><trkpt lat="38.1223133" lon="14.9066867"><ele>710.6666666666667</ele><time>2026-04-04T08:01:54.707Z</time></trkpt><trkpt lat="38.1223683" lon="14.9066467"><ele>713.0</ele><time>2026-04-04T08:01:55.707Z</time></trkpt><trkpt lat="38.12246" lon="14.9065367"><ele>715.3333333333334</ele><time>2026-04-04T08:01:57.707Z</time></trkpt><trkpt lat="38.1225083" lon="14.9064717"><ele>717.6666666666666</ele><time>2026-04-04T08:01:58.707Z</time></trkpt><trkpt lat="38.1225583" lon="14.9064133"><ele>720.0</ele><time>2026-04-04T08:01:59.706Z</time></trkpt><trkpt lat="38.12265" lon="14.9063017"><ele>713.5</ele><time>2026-04-04T08:02:01.707Z</time></trkpt><trkpt lat="38.1226883" lon="14.9062367"><ele>707.0</ele><time>2026-04-04T08:02:02.706Z</time></trkpt><trkpt lat="38.1227067" lon="14.9061217"><ele>700.5</ele><time>2026-04-04T08:02:04.707Z</time></trkpt><trkpt lat="38.1227383" lon="14.9060517"><ele>694.0</ele><time>2026-04-04T08:02:06.706Z</time></trkpt><trkpt lat="38.1228033" lon="14.906025"><ele>687.5</ele><time>2026-04-04T08:02:12.706Z</time></trkpt><trkpt lat="38.122885" lon="14.906005"><ele>681.0</ele><time>2026-04-04T08:02:15.707Z</time></trkpt><trkpt lat="38.122975" lon="14.9059917"><ele>681.0</ele><time>2026-04-04T08:02:17.706Z</time></trkpt><trkpt lat="38.12308" lon="14.9059483"><ele>681.0</ele><time>2026-04-04T08:02:19.707Z</time></trkpt><trkpt lat="38.1231817" lon="14.90588"><ele>681.0</ele><time>2026-04-04T08:02:21.706Z</time></trkpt><trkpt lat="38.123235" lon="14.90583"><ele>681.0</ele><time>2026-04-04T08:02:22.707Z</time></trkpt><trkpt lat="38.1232983" lon="14.9057683"><ele>681.0</ele><time>2026-04-04T08:02:23.706Z</time></trkpt><trkpt lat="38.1233767" lon="14.9057133"><ele>683.0</ele><time>2026-04-04T08:02:24.706Z</time></trkpt><trkpt lat="38.1234533" lon="14.9056617"><ele>685.0</ele><time>2026-04-04T08:02:25.707Z</time></trkpt><trkpt lat="38.123515" lon="14.90562"><ele>687.0</ele><time>2026-04-04T08:02:26.706Z</time></trkpt><trkpt lat="38.1235833" lon="14.9055883"><ele>689.0</ele><time>2026-04-04T08:02:27.707Z</time></trkpt><trkpt lat="38.12365" lon="14.9055517"><ele>691.0</ele><time>2026-04-04T08:02:28.707Z</time></trkpt><trkpt lat="38.1237367" lon="14.9054833"><ele>693.0</ele><time>2026-04-04T08:02:30.706Z</time></trkpt><trkpt lat="38.1237717" lon="14.9054"><ele>693.0</ele><time>2026-04-04T08:02:32.707Z</time></trkpt><trkpt lat="38.12378" lon="14.905285"><ele>693.0</ele><time>2026-04-04T08:02:34.707Z</time></trkpt><trkpt lat="38.1237467" lon="14.9051317"><ele>693.0</ele><time>2026-04-04T08:02:36.707Z</time></trkpt><trkpt lat="38.1237167" lon="14.9049717"><ele>693.0</ele><time>2026-04-04T08:02:38.707Z</time></trkpt><trkpt lat="38.1236967" lon="14.9048883"><ele>693.0</ele><time>2026-04-04T08:02:40.707Z</time></trkpt><trkpt lat="38.1237383" lon="14.9048067"><ele>698.3333333333334</ele><time>2026-04-04T08:05:25.707Z</time></trkpt><trkpt lat="38.1237328" lon="14.9047257"><ele>703.6666666666666</ele><time>2026-04-04T08:05:27.708Z</time></trkpt><trkpt lat="38.1237211" lon="14.9046148"><ele>709.0</ele><time>2026-04-04T08:05:30.708Z</time></trkpt><trkpt lat="38.1237017" lon="14.9045362"><ele>714.3333333333333</ele><time>2026-04-04T08:05:32.708Z</time></trkpt><trkpt lat="38.1236912" lon="14.904398"><ele>719.6666666666666</ele><time>2026-04-04T08:05:34.708Z</time></trkpt><trkpt lat="38.1236605" lon="14.9043016"><ele>725.0</ele><time>2026-04-04T08:05:35.708Z</time></trkpt><trkpt lat="38.1236186" lon="14.9042026"><ele>727.3333333333333</ele><time>2026-04-04T08:05:36.708Z</time></trkpt><trkpt lat="38.1235759" lon="14.9041079"><ele>729.6666666666666</ele><time>2026-04-04T08:05:37.708Z</time></trkpt><trkpt lat="38.1235335" lon="14.9040231"><ele>732.0</ele><time>2026-04-04T08:05:38.708Z</time></trkpt><trkpt lat="38.1234964" lon="14.9039486"><ele>734.3333333333334</ele><time>2026-04-04T08:05:39.708Z</time></trkpt><trkpt lat="38.1234615" lon="14.9038245"><ele>736.6666666666667</ele><time>2026-04-04T08:05:41.708Z</time></trkpt><trkpt lat="38.1234408" lon="14.9037119"><ele>739.0</ele><time>2026-04-04T08:05:43.707Z</time></trkpt><trkpt lat="38.1234167" lon="14.9035755"><ele>739.0</ele><time>2026-04-04T08:05:45.708Z</time></trkpt><trkpt lat="38.1233919" lon="14.9034619"><ele>739.0</ele><time>2026-04-04T08:05:47.708Z</time></trkpt><trkpt lat="38.1233721" lon="14.903322"><ele>739.0</ele><time>2026-04-04T08:05:49.707Z</time></trkpt><trkpt lat="38.1233683" lon="14.9032237"><ele>739.0</ele><time>2026-04-04T08:05:50.708Z</time></trkpt><trkpt lat="38.1233667" lon="14.9031167"><ele>739.0</ele><time>2026-04-04T08:05:51.708Z</time></trkpt><trkpt lat="38.1233517" lon="14.9030317"><ele>739.0</ele><time>2026-04-04T08:05:52.708Z</time></trkpt><trkpt lat="38.123325" lon="14.902905"><ele>739.0</ele><time>2026-04-04T08:05:54.707Z</time></trkpt><trkpt lat="38.12333" lon="14.902785"><ele>739.0</ele><time>2026-04-04T08:05:56.708Z</time></trkpt><trkpt lat="38.123405" lon="14.902655"><ele>739.0</ele><time>2026-04-04T08:05:58.708Z</time></trkpt><trkpt lat="38.1234533" lon="14.9025883"><ele>739.0</ele><time>2026-04-04T08:05:59.708Z</time></trkpt><trkpt lat="38.1234867" lon="14.9025183"><ele>739.0</ele><time>2026-04-04T08:06:00.708Z</time></trkpt><trkpt lat="38.1235183" lon="14.9023583"><ele>740.5</ele><time>2026-04-04T08:06:02.708Z</time></trkpt><trkpt lat="38.1235583" lon="14.90221"><ele>742.0</ele><time>2026-04-04T08:06:04.707Z</time></trkpt><trkpt lat="38.12355" lon="14.90206"><ele>743.5</ele><time>2026-04-04T08:06:06.707Z</time></trkpt><trkpt lat="38.1235417" lon="14.9019333"><ele>745.0</ele><time>2026-04-04T08:06:08.707Z</time></trkpt><trkpt lat="38.1235817" lon="14.901785"><ele>748.5</ele><time>2026-04-04T08:06:10.708Z</time></trkpt><trkpt lat="38.12361" lon="14.901685"><ele>752.0</ele><time>2026-04-04T08:06:11.708Z</time></trkpt><trkpt lat="38.123645" lon="14.9015717"><ele>755.5</ele><time>2026-04-04T08:06:12.708Z</time></trkpt><trkpt lat="38.123685" lon="14.9014683"><ele>759.0</ele><time>2026-04-04T08:06:13.708Z</time></trkpt><trkpt lat="38.1237017" lon="14.9013867"><ele>762.5</ele><time>2026-04-04T08:06:14.708Z</time></trkpt><trkpt lat="38.123725" lon="14.9013033"><ele>766.0</ele><time>2026-04-04T08:06:15.708Z</time></trkpt><trkpt lat="38.1237533" lon="14.9012283"><ele>766.0</ele><time>2026-04-04T08:06:16.708Z</time></trkpt><trkpt lat="38.1237833" lon="14.9011567"><ele>766.0</ele><time>2026-04-04T08:06:17.707Z</time></trkpt><trkpt lat="38.12382" lon="14.901075"><ele>766.0</ele><time>2026-04-04T08:06:18.708Z</time></trkpt><trkpt lat="38.12386" lon="14.9009967"><ele>766.0</ele><time>2026-04-04T08:06:19.707Z</time></trkpt><trkpt lat="38.1239017" lon="14.9009267"><ele>766.0</ele><time>2026-04-04T08:06:20.708Z</time></trkpt><trkpt lat="38.1239367" lon="14.9008517"><ele>766.0</ele><time>2026-04-04T08:06:21.708Z</time></trkpt><trkpt lat="38.1239667" lon="14.900775"><ele>766.0</ele><time>2026-04-04T08:06:22.707Z</time></trkpt><trkpt lat="38.1239883" lon="14.9006833"><ele>768.1666666666667</ele><time>2026-04-04T08:06:23.708Z</time></trkpt><trkpt lat="38.1240217" lon="14.900585"><ele>770.3333333333334</ele><time>2026-04-04T08:06:24.708Z</time></trkpt><trkpt lat="38.1240583" lon="14.9005"><ele>772.5</ele><time>2026-04-04T08:06:25.707Z</time></trkpt><trkpt lat="38.1240933" lon="14.90043"><ele>774.6666666666667</ele><time>2026-04-04T08:06:26.708Z</time></trkpt><trkpt lat="38.1241533" lon="14.9002967"><ele>776.8333333333334</ele><time>2026-04-04T08:06:28.707Z</time></trkpt><trkpt lat="38.1241883" lon="14.9002183"><ele>779.0</ele><time>2026-04-04T08:06:29.707Z</time></trkpt><trkpt lat="38.1242333" lon="14.9001483"><ele>773.8000000000001</ele><time>2026-04-04T08:06:30.708Z</time></trkpt><trkpt lat="38.1242783" lon="14.9000883"><ele>768.6</ele><time>2026-04-04T08:06:31.708Z</time></trkpt><trkpt lat="38.12434" lon="14.8999717"><ele>763.4</ele><time>2026-04-04T08:06:33.708Z</time></trkpt><trkpt lat="38.12435" lon="14.899805"><ele>758.2</ele><time>2026-04-04T08:06:35.708Z</time></trkpt><trkpt lat="38.1243533" lon="14.89972"><ele>753.0</ele><time>2026-04-04T08:06:36.708Z</time></trkpt><trkpt lat="38.1243283" lon="14.8995933"><ele>753.0</ele><time>2026-04-04T08:06:38.708Z</time></trkpt><trkpt lat="38.12426" lon="14.8994733"><ele>753.0</ele><time>2026-04-04T08:06:40.708Z</time></trkpt><trkpt lat="38.124225" lon="14.8993433"><ele>753.0</ele><time>2026-04-04T08:06:42.708Z</time></trkpt><trkpt lat="38.124225" lon="14.899225"><ele>753.0</ele><time>2026-04-04T08:06:44.707Z</time></trkpt><trkpt lat="38.12421" lon="14.89909"><ele>753.0</ele><time>2026-04-04T08:06:46.707Z</time></trkpt><trkpt lat="38.1242517" lon="14.8989867"><ele>752.8333333333334</ele><time>2026-04-04T08:06:48.708Z</time></trkpt><trkpt lat="38.1243317" lon="14.8989417"><ele>752.6666666666666</ele><time>2026-04-04T08:06:50.708Z</time></trkpt><trkpt lat="38.1243983" lon="14.8989267"><ele>752.5</ele><time>2026-04-04T08:06:52.708Z</time></trkpt><trkpt lat="38.1244883" lon="14.898925"><ele>752.3333333333333</ele><time>2026-04-04T08:06:55.708Z</time></trkpt><trkpt lat="38.1245617" lon="14.8988917"><ele>752.1666666666666</ele><time>2026-04-04T08:06:57.708Z</time></trkpt><trkpt lat="38.124635" lon="14.898855"><ele>752.0</ele><time>2026-04-04T08:06:59.708Z</time></trkpt><trkpt lat="38.12472" lon="14.8988467"><ele>752.0</ele><time>2026-04-04T08:07:01.708Z</time></trkpt><trkpt lat="38.1248" lon="14.89885"><ele>752.0</ele><time>2026-04-04T08:07:03.708Z</time></trkpt><trkpt lat="38.1248767" lon="14.8988917"><ele>752.0</ele><time>2026-04-04T08:07:05.707Z</time></trkpt><trkpt lat="38.1249583" lon="14.89892"><ele>752.0</ele><time>2026-04-04T08:07:07.707Z</time></trkpt><trkpt lat="38.1250633" lon="14.8989217"><ele>752.0</ele><time>2026-04-04T08:07:09.708Z</time></trkpt><trkpt lat="38.1251267" lon="14.8989183"><ele>752.0</ele><time>2026-04-04T08:07:10.708Z</time></trkpt><trkpt lat="38.1252383" lon="14.8989017"><ele>750.5</ele><time>2026-04-04T08:07:12.708Z</time></trkpt><trkpt lat="38.1253217" lon="14.898885"><ele>749.0</ele><time>2026-04-04T08:07:14.708Z</time></trkpt><trkpt lat="38.1254067" lon="14.8989067"><ele>747.5</ele><time>2026-04-04T08:07:17.708Z</time></trkpt><trkpt lat="38.1253917" lon="14.8989867"><ele>746.0</ele><time>2026-04-04T08:07:19.708Z</time></trkpt><trkpt lat="38.125335" lon="14.8990867"><ele>744.5</ele><time>2026-04-04T08:07:21.707Z</time></trkpt><trkpt lat="38.1252567" lon="14.8991567"><ele>743.0</ele><time>2026-04-04T08:07:23.708Z</time></trkpt><trkpt lat="38.1252033" lon="14.8992083"><ele>741.0</ele><time>2026-04-04T08:07:24.708Z</time></trkpt><trkpt lat="38.125145" lon="14.8992633"><ele>739.0</ele><time>2026-04-04T08:07:25.708Z</time></trkpt><trkpt lat="38.1250933" lon="14.8993233"><ele>737.0</ele><time>2026-04-04T08:07:26.708Z</time></trkpt><trkpt lat="38.1250183" lon="14.8993967"><ele>735.0</ele><time>2026-04-04T08:07:28.708Z</time></trkpt><trkpt lat="38.12498" lon="14.8995"><ele>733.0</ele><time>2026-04-04T08:07:30.708Z</time></trkpt><trkpt lat="38.1249683" lon="14.899625"><ele>731.0</ele><time>2026-04-04T08:07:32.707Z</time></trkpt><trkpt lat="38.1249733" lon="14.899705"><ele>731.0</ele><time>2026-04-04T08:07:33.708Z</time></trkpt><trkpt lat="38.1249817" lon="14.8998417"><ele>731.0</ele><time>2026-04-04T08:07:35.708Z</time></trkpt><trkpt lat="38.1249517" lon="14.8999233"><ele>731.0</ele><time>2026-04-04T08:07:37.708Z</time></trkpt><trkpt lat="38.12494" lon="14.89982"><ele>731.0</ele><time>2026-04-04T08:08:02.708Z</time></trkpt><trkpt lat="38.1249467" lon="14.89968"><ele>731.0</ele><time>2026-04-04T08:08:04.708Z</time></trkpt><trkpt lat="38.124945" lon="14.89957"><ele>731.0</ele><time>2026-04-04T08:08:05.708Z</time></trkpt><trkpt lat="38.1249533" lon="14.8994583"><ele>731.0</ele><time>2026-04-04T08:08:06.707Z</time></trkpt><trkpt lat="38.1249683" lon="14.8993733"><ele>731.0</ele><time>2026-04-04T08:08:07.708Z</time></trkpt><trkpt lat="38.1250583" lon="14.899275"><ele>731.0</ele><time>2026-04-04T08:08:09.708Z</time></trkpt><trkpt lat="38.1251717" lon="14.89923"><ele>731.0</ele><time>2026-04-04T08:08:11.708Z</time></trkpt><trkpt lat="38.1252533" lon="14.89914"><ele>733.4</ele><time>2026-04-04T08:08:13.708Z</time></trkpt><trkpt lat="38.1253583" lon="14.8990567"><ele>735.8</ele><time>2026-04-04T08:08:15.707Z</time></trkpt><trkpt lat="38.1254067" lon="14.898925"><ele>738.1999999999999</ele><time>2026-04-04T08:08:17.708Z</time></trkpt><trkpt lat="38.12537" lon="14.8988383"><ele>740.5999999999999</ele><time>2026-04-04T08:08:19.708Z</time></trkpt><trkpt lat="38.12528" lon="14.8988683"><ele>743.0</ele><time>2026-04-04T08:08:22.707Z</time></trkpt><trkpt lat="38.12519" lon="14.89889"><ele>743.0</ele><time>2026-04-04T08:08:24.708Z</time></trkpt><trkpt lat="38.1250817" lon="14.89891"><ele>743.0</ele><time>2026-04-04T08:08:26.707Z</time></trkpt><trkpt lat="38.1250117" lon="14.8989133"><ele>743.0</ele><time>2026-04-04T08:08:27.707Z</time></trkpt><trkpt lat="38.1249383" lon="14.89891"><ele>743.0</ele><time>2026-04-04T08:08:28.708Z</time></trkpt><trkpt lat="38.12486" lon="14.8988933"><ele>743.0</ele><time>2026-04-04T08:08:29.708Z</time></trkpt><trkpt lat="38.124795" lon="14.8988633"><ele>743.0</ele><time>2026-04-04T08:08:30.708Z</time></trkpt><trkpt lat="38.1247267" lon="14.8988533"><ele>744.5</ele><time>2026-04-04T08:08:31.708Z</time></trkpt><trkpt lat="38.1246517" lon="14.8988433"><ele>746.0</ele><time>2026-04-04T08:08:32.708Z</time></trkpt><trkpt lat="38.124575" lon="14.8988617"><ele>747.5</ele><time>2026-04-04T08:08:33.707Z</time></trkpt><trkpt lat="38.12451" lon="14.8988933"><ele>749.0</ele><time>2026-04-04T08:08:34.708Z</time></trkpt><trkpt lat="38.124445" lon="14.8989117"><ele>750.5</ele><time>2026-04-04T08:08:35.708Z</time></trkpt><trkpt lat="38.1243217" lon="14.898885"><ele>752.0</ele><time>2026-04-04T08:08:37.707Z</time></trkpt><trkpt lat="38.1242583" lon="14.8988717"><ele>752.0</ele><time>2026-04-04T08:08:38.707Z</time></trkpt><trkpt lat="38.1241933" lon="14.8988767"><ele>752.0</ele><time>2026-04-04T08:08:39.707Z</time></trkpt><trkpt lat="38.124135" lon="14.898915"><ele>752.0</ele><time>2026-04-04T08:08:40.707Z</time></trkpt><trkpt lat="38.1240833" lon="14.898965"><ele>752.0</ele><time>2026-04-04T08:08:41.707Z</time></trkpt><trkpt lat="38.1240367" lon="14.8990283"><ele>752.0</ele><time>2026-04-04T08:08:42.707Z</time></trkpt><trkpt lat="38.1239783" lon="14.8990867"><ele>752.0</ele><time>2026-04-04T08:08:43.708Z</time></trkpt><trkpt lat="38.1239183" lon="14.89913"><ele>752.0</ele><time>2026-04-04T08:08:44.708Z</time></trkpt><trkpt lat="38.123855" lon="14.8992"><ele>756.5</ele><time>2026-04-04T08:08:46.707Z</time></trkpt><trkpt lat="38.1238967" lon="14.8992683"><ele>761.0</ele><time>2026-04-04T08:08:48.708Z</time></trkpt><trkpt lat="38.1239617" lon="14.8993567"><ele>765.5</ele><time>2026-04-04T08:08:50.707Z</time></trkpt><trkpt lat="38.1239783" lon="14.8994683"><ele>770.0</ele><time>2026-04-04T08:08:52.707Z</time></trkpt><trkpt lat="38.1240167" lon="14.89962"><ele>774.5000000000001</ele><time>2026-04-04T08:08:54.708Z</time></trkpt><trkpt lat="38.124035" lon="14.8997033"><ele>779.0</ele><time>2026-04-04T08:08:55.707Z</time></trkpt><trkpt lat="38.124035" lon="14.89979"><ele>779.0</ele><time>2026-04-04T08:08:56.708Z</time></trkpt><trkpt lat="38.12403" lon="14.8998717"><ele>779.0</ele><time>2026-04-04T08:08:57.708Z</time></trkpt><trkpt lat="38.1239867" lon="14.9000167"><ele>779.0</ele><time>2026-04-04T08:08:59.708Z</time></trkpt><trkpt lat="38.12395" lon="14.9001017"><ele>779.0</ele><time>2026-04-04T08:09:00.708Z</time></trkpt><trkpt lat="38.12389" lon="14.90022"><ele>779.0</ele><time>2026-04-04T08:09:02.707Z</time></trkpt><trkpt lat="38.1238167" lon="14.90031"><ele>779.0</ele><time>2026-04-04T08:10:01.708Z</time></trkpt><trkpt lat="38.1237533" lon="14.9004067"><ele>779.0</ele><time>2026-04-04T08:10:03.708Z</time></trkpt><trkpt lat="38.1236817" lon="14.90048"><ele>779.0</ele><time>2026-04-04T08:10:05.708Z</time></trkpt><trkpt lat="38.1236417" lon="14.900545"><ele>779.0</ele><time>2026-04-04T08:10:07.708Z</time></trkpt><trkpt lat="38.123605" lon="14.90064"><ele>779.0</ele><time>2026-04-04T08:10:09.708Z</time></trkpt><trkpt lat="38.1235317" lon="14.900765"><ele>779.0</ele><time>2026-04-04T08:10:11.708Z</time></trkpt><trkpt lat="38.123475" lon="14.90085"><ele>779.0</ele><time>2026-04-04T08:10:12.708Z</time></trkpt><trkpt lat="38.1234" lon="14.90095"><ele>779.0</ele><time>2026-04-04T08:10:13.708Z</time></trkpt><trkpt lat="38.1233033" lon="14.9010783"><ele>779.0</ele><time>2026-04-04T08:10:14.708Z</time></trkpt><trkpt lat="38.1232117" lon="14.9012067"><ele>779.8000000000001</ele><time>2026-04-04T08:10:15.708Z</time></trkpt><trkpt lat="38.12313" lon="14.901325"><ele>780.6</ele><time>2026-04-04T08:10:16.708Z</time></trkpt><trkpt lat="38.123065" lon="14.9014233"><ele>781.4</ele><time>2026-04-04T08:10:17.708Z</time></trkpt><trkpt lat="38.123005" lon="14.9015167"><ele>782.2</ele><time>2026-04-04T08:10:18.708Z</time></trkpt><trkpt lat="38.1229417" lon="14.9016067"><ele>783.0</ele><time>2026-04-04T08:10:19.707Z</time></trkpt><trkpt lat="38.1228717" lon="14.9017"><ele>784.4</ele><time>2026-04-04T08:10:20.708Z</time></trkpt><trkpt lat="38.1228083" lon="14.9017883"><ele>785.8</ele><time>2026-04-04T08:10:21.707Z</time></trkpt><trkpt lat="38.1227467" lon="14.9018683"><ele>787.2</ele><time>2026-04-04T08:10:22.707Z</time></trkpt><trkpt lat="38.12268" lon="14.901945"><ele>788.6</ele><time>2026-04-04T08:10:23.707Z</time></trkpt><trkpt lat="38.1226067" lon="14.90202"><ele>790.0</ele><time>2026-04-04T08:10:24.709Z</time></trkpt><trkpt lat="38.1225283" lon="14.9020917"><ele>790.0</ele><time>2026-04-04T08:10:25.708Z</time></trkpt><trkpt lat="38.122455" lon="14.90217"><ele>790.0</ele><time>2026-04-04T08:10:26.709Z</time></trkpt><trkpt lat="38.1223767" lon="14.90227"><ele>790.0</ele><time>2026-04-04T08:10:27.709Z</time></trkpt><trkpt lat="38.1222883" lon="14.9023833"><ele>790.0</ele><time>2026-04-04T08:10:28.709Z</time></trkpt><trkpt lat="38.1222117" lon="14.902495"><ele>790.0</ele><time>2026-04-04T08:10:29.708Z</time></trkpt><trkpt lat="38.122145" lon="14.9025783"><ele>794.8333333333333</ele><time>2026-04-04T08:10:30.708Z</time></trkpt><trkpt lat="38.1220533" lon="14.9026567"><ele>799.6666666666666</ele><time>2026-04-04T08:10:32.709Z</time></trkpt><trkpt lat="38.1219833" lon="14.9026617"><ele>804.5</ele><time>2026-04-04T08:10:33.709Z</time></trkpt><trkpt lat="38.1218917" lon="14.9026483"><ele>809.3333333333333</ele><time>2026-04-04T08:10:34.709Z</time></trkpt><trkpt lat="38.12181" lon="14.9026467"><ele>814.1666666666666</ele><time>2026-04-04T08:10:35.709Z</time></trkpt><trkpt lat="38.1217367" lon="14.9026733"><ele>819.0</ele><time>2026-04-04T08:10:36.709Z</time></trkpt><trkpt lat="38.1216617" lon="14.9027317"><ele>819.0</ele><time>2026-04-04T08:10:37.709Z</time></trkpt><trkpt lat="38.1215883" lon="14.902815"><ele>819.0</ele><time>2026-04-04T08:10:38.708Z</time></trkpt><trkpt lat="38.1215067" lon="14.902895"><ele>819.0</ele><time>2026-04-04T08:10:39.708Z</time></trkpt><trkpt lat="38.12142" lon="14.902975"><ele>819.0</ele><time>2026-04-04T08:10:40.709Z</time></trkpt><trkpt lat="38.1213383" lon="14.9030583"><ele>819.0</ele><time>2026-04-04T08:10:41.709Z</time></trkpt><trkpt lat="38.1212533" lon="14.903145"><ele>816.0</ele><time>2026-04-04T08:10:42.709Z</time></trkpt><trkpt lat="38.1211633" lon="14.9032267"><ele>813.0</ele><time>2026-04-04T08:10:43.709Z</time></trkpt><trkpt lat="38.1210733" lon="14.90333"><ele>810.0</ele><time>2026-04-04T08:10:44.708Z</time></trkpt><trkpt lat="38.1209817" lon="14.9034183"><ele>807.0</ele><time>2026-04-04T08:10:45.708Z</time></trkpt><trkpt lat="38.12091" lon="14.903525"><ele>809.4000000000001</ele><time>2026-04-04T08:10:46.709Z</time></trkpt><trkpt lat="38.120845" lon="14.9036317"><ele>811.8000000000001</ele><time>2026-04-04T08:10:47.709Z</time></trkpt><trkpt lat="38.12078" lon="14.903735"><ele>814.2</ele><time>2026-04-04T08:10:48.708Z</time></trkpt><trkpt lat="38.120715" lon="14.9038383"><ele>816.6</ele><time>2026-04-04T08:10:49.709Z</time></trkpt><trkpt lat="38.1206567" lon="14.9039567"><ele>819.0</ele><time>2026-04-04T08:10:50.709Z</time></trkpt><trkpt lat="38.1205967" lon="14.9040733"><ele>819.0</ele><time>2026-04-04T08:10:51.709Z</time></trkpt><trkpt lat="38.12053" lon="14.9041733"><ele>819.0</ele><time>2026-04-04T08:10:52.709Z</time></trkpt><trkpt lat="38.120455" lon="14.9042517"><ele>819.0</ele><time>2026-04-04T08:10:53.709Z</time></trkpt><trkpt lat="38.1203783" lon="14.9043233"><ele>819.0</ele><time>2026-04-04T08:10:54.708Z</time></trkpt><trkpt lat="38.1202983" lon="14.9043983"><ele>819.0</ele><time>2026-04-04T08:10:55.709Z</time></trkpt><trkpt lat="38.1202267" lon="14.904455"><ele>822.8000000000001</ele><time>2026-04-04T08:10:56.709Z</time></trkpt><trkpt lat="38.12016" lon="14.9045067"><ele>826.6</ele><time>2026-04-04T08:10:57.708Z</time></trkpt><trkpt lat="38.1200867" lon="14.9045717"><ele>830.4</ele><time>2026-04-04T08:10:58.709Z</time></trkpt><trkpt lat="38.1200083" lon="14.9046417"><ele>834.2</ele><time>2026-04-04T08:10:59.709Z</time></trkpt><trkpt lat="38.11992" lon="14.9047"><ele>838.0</ele><time>2026-04-04T08:11:00.709Z</time></trkpt><trkpt lat="38.11983" lon="14.9047417"><ele>840.5999999999999</ele><time>2026-04-04T08:11:01.709Z</time></trkpt><trkpt lat="38.119735" lon="14.9047767"><ele>843.1999999999999</ele><time>2026-04-04T08:11:02.709Z</time></trkpt><trkpt lat="38.1196467" lon="14.9048167"><ele>845.8</ele><time>2026-04-04T08:11:03.709Z</time></trkpt><trkpt lat="38.11957" lon="14.9048667"><ele>848.4</ele><time>2026-04-04T08:11:04.709Z</time></trkpt><trkpt lat="38.11951" lon="14.9049167"><ele>851.0</ele><time>2026-04-04T08:11:05.709Z</time></trkpt><trkpt lat="38.1194083" lon="14.9049983"><ele>851.0000000000001</ele><time>2026-04-04T08:11:07.709Z</time></trkpt><trkpt lat="38.119345" lon="14.9050367"><ele>851.0</ele><time>2026-04-04T08:11:08.708Z</time></trkpt><trkpt lat="38.1192783" lon="14.905055"><ele>851.0</ele><time>2026-04-04T08:11:09.708Z</time></trkpt><trkpt lat="38.1192067" lon="14.9050583"><ele>851.0</ele><time>2026-04-04T08:11:10.709Z</time></trkpt><trkpt lat="38.1191283" lon="14.90503"><ele>851.0000000000001</ele><time>2026-04-04T08:11:11.708Z</time></trkpt><trkpt lat="38.1190417" lon="14.9049783"><ele>851.0</ele><time>2026-04-04T08:11:12.709Z</time></trkpt><trkpt lat="38.1189267" lon="14.9049"><ele>852.75</ele><time>2026-04-04T08:11:13.709Z</time></trkpt><trkpt lat="38.1188067" lon="14.9048267"><ele>854.5</ele><time>2026-04-04T08:11:14.709Z</time></trkpt><trkpt lat="38.11868" lon="14.9047583"><ele>856.25</ele><time>2026-04-04T08:11:15.708Z</time></trkpt><trkpt lat="38.1185733" lon="14.9047167"><ele>858.0</ele><time>2026-04-04T08:11:16.709Z</time></trkpt><trkpt lat="38.1184848" lon="14.9046838"><ele>858.0</ele><time>2026-04-04T08:11:17.709Z</time></trkpt><trkpt lat="38.1184148" lon="14.9046756"><ele>858.0</ele><time>2026-04-04T08:11:18.709Z</time></trkpt><trkpt lat="38.1183441" lon="14.9047"><ele>858.0</ele><time>2026-04-04T08:11:20.709Z</time></trkpt><trkpt lat="38.1184012" lon="14.904759"><ele>858.0</ele><time>2026-04-04T08:11:32.709Z</time></trkpt><trkpt lat="38.1185134" lon="14.9048154"><ele>858.0</ele><time>2026-04-04T08:11:34.708Z</time></trkpt><trkpt lat="38.1185815" lon="14.9048715"><ele>858.0</ele><time>2026-04-04T08:11:35.709Z</time></trkpt><trkpt lat="38.1186611" lon="14.9049567"><ele>858.0</ele><time>2026-04-04T08:11:36.709Z</time></trkpt><trkpt lat="38.1187451" lon="14.9050639"><ele>858.0</ele><time>2026-04-04T08:11:37.708Z</time></trkpt><trkpt lat="38.1188223" lon="14.9051792"><ele>858.0</ele><time>2026-04-04T08:11:38.709Z</time></trkpt><trkpt lat="38.1189" lon="14.9053084"><ele>858.0</ele><time>2026-04-04T08:11:39.708Z</time></trkpt><trkpt lat="38.118972" lon="14.9054351"><ele>859.5999999999999</ele><time>2026-04-04T08:11:40.709Z</time></trkpt><trkpt lat="38.1190317" lon="14.9055433"><ele>861.1999999999999</ele><time>2026-04-04T08:11:41.709Z</time></trkpt><trkpt lat="38.11907" lon="14.9056583"><ele>862.8</ele><time>2026-04-04T08:11:42.709Z</time></trkpt><trkpt lat="38.1190933" lon="14.9057833"><ele>864.4</ele><time>2026-04-04T08:11:43.708Z</time></trkpt><trkpt lat="38.119095" lon="14.90591"><ele>866.0</ele><time>2026-04-04T08:11:44.709Z</time></trkpt><trkpt lat="38.1190633" lon="14.90602"><ele>867.4</ele><time>2026-04-04T08:11:45.709Z</time></trkpt><trkpt lat="38.1190117" lon="14.9061417"><ele>868.8</ele><time>2026-04-04T08:11:46.708Z</time></trkpt><trkpt lat="38.1189517" lon="14.9062583"><ele>870.1999999999999</ele><time>2026-04-04T08:11:47.708Z</time></trkpt><trkpt lat="38.1188817" lon="14.9063617"><ele>871.5999999999999</ele><time>2026-04-04T08:11:48.709Z</time></trkpt><trkpt lat="38.1188" lon="14.9064467"><ele>873.0</ele><time>2026-04-04T08:11:49.709Z</time></trkpt><trkpt lat="38.1187117" lon="14.9065017"><ele>873.0</ele><time>2026-04-04T08:11:50.709Z</time></trkpt><trkpt lat="38.1186117" lon="14.90653"><ele>873.0</ele><time>2026-04-04T08:11:51.708Z</time></trkpt><trkpt lat="38.1185167" lon="14.9065467"><ele>873.0</ele><time>2026-04-04T08:11:52.709Z</time></trkpt><trkpt lat="38.118415" lon="14.9065717"><ele>873.0</ele><time>2026-04-04T08:11:53.709Z</time></trkpt><trkpt lat="38.1183117" lon="14.9066267"><ele>873.0</ele><time>2026-04-04T08:11:54.709Z</time></trkpt><trkpt lat="38.118225" lon="14.9066733"><ele>871.0</ele><time>2026-04-04T08:11:55.709Z</time></trkpt><trkpt lat="38.1181433" lon="14.906725"><ele>869.0</ele><time>2026-04-04T08:11:56.708Z</time></trkpt><trkpt lat="38.1180617" lon="14.9067767"><ele>867.0</ele><time>2026-04-04T08:11:57.708Z</time></trkpt><trkpt lat="38.1179683" lon="14.9068133"><ele>865.0</ele><time>2026-04-04T08:11:58.709Z</time></trkpt><trkpt lat="38.1178617" lon="14.9068433"><ele>863.0</ele><time>2026-04-04T08:11:59.708Z</time></trkpt><trkpt lat="38.1177683" lon="14.9068783"><ele>863.0000000000001</ele><time>2026-04-04T08:12:00.709Z</time></trkpt><trkpt lat="38.1176967" lon="14.9069083"><ele>863.0</ele><time>2026-04-04T08:12:01.708Z</time></trkpt><trkpt lat="38.1176333" lon="14.9069283"><ele>863.0</ele><time>2026-04-04T08:12:03.709Z</time></trkpt><trkpt lat="38.1176717" lon="14.9068517"><ele>863.0</ele><time>2026-04-04T08:12:05.709Z</time></trkpt><trkpt lat="38.1177833" lon="14.90677"><ele>863.0000000000001</ele><time>2026-04-04T08:12:07.709Z</time></trkpt><trkpt lat="38.1178483" lon="14.9067283"><ele>863.0</ele><time>2026-04-04T08:12:08.708Z</time></trkpt><trkpt lat="38.11791" lon="14.9066833"><ele>865.5</ele><time>2026-04-04T08:12:09.708Z</time></trkpt><trkpt lat="38.1180033" lon="14.906595"><ele>868.0</ele><time>2026-04-04T08:12:11.709Z</time></trkpt><trkpt lat="38.11812" lon="14.9064883"><ele>870.5</ele><time>2026-04-04T08:12:13.708Z</time></trkpt><trkpt lat="38.1182" lon="14.9064217"><ele>873.0</ele><time>2026-04-04T08:12:14.709Z</time></trkpt><trkpt lat="38.1182917" lon="14.906335"><ele>873.0</ele><time>2026-04-04T08:12:15.708Z</time></trkpt><trkpt lat="38.1183817" lon="14.9062417"><ele>873.0</ele><time>2026-04-04T08:12:16.708Z</time></trkpt><trkpt lat="38.1184517" lon="14.9061667"><ele>873.0</ele><time>2026-04-04T08:12:17.708Z</time></trkpt><trkpt lat="38.11854" lon="14.9060933"><ele>873.0</ele><time>2026-04-04T08:12:19.709Z</time></trkpt><trkpt lat="38.1184661" lon="14.9061371"><ele>873.0</ele><time>2026-04-04T08:13:26.709Z</time></trkpt><trkpt lat="38.1184059" lon="14.9061905"><ele>873.0</ele><time>2026-04-04T08:13:27.709Z</time></trkpt><trkpt lat="38.1183404" lon="14.9062633"><ele>873.0</ele><time>2026-04-04T08:13:28.709Z</time></trkpt><trkpt lat="38.1182715" lon="14.9063349"><ele>873.0</ele><time>2026-04-04T08:13:29.709Z</time></trkpt><trkpt lat="38.1182056" lon="14.9064006"><ele>873.0</ele><time>2026-04-04T08:13:30.709Z</time></trkpt><trkpt lat="38.1181414" lon="14.9064631"><ele>873.0</ele><time>2026-04-04T08:13:31.709Z</time></trkpt><trkpt lat="38.1180698" lon="14.9065223"><ele>873.0</ele><time>2026-04-04T08:13:32.708Z</time></trkpt><trkpt lat="38.1179947" lon="14.9065806"><ele>871.3333333333334</ele><time>2026-04-04T08:13:33.709Z</time></trkpt><trkpt lat="38.1179168" lon="14.9066359"><ele>869.6666666666667</ele><time>2026-04-04T08:13:34.709Z</time></trkpt><trkpt lat="38.1178393" lon="14.906684"><ele>868.0</ele><time>2026-04-04T08:13:35.709Z</time></trkpt><trkpt lat="38.1177517" lon="14.9067147"><ele>866.3333333333334</ele><time>2026-04-04T08:13:36.709Z</time></trkpt><trkpt lat="38.1176621" lon="14.9067431"><ele>864.6666666666667</ele><time>2026-04-04T08:13:37.709Z</time></trkpt><trkpt lat="38.1175805" lon="14.9067691"><ele>863.0</ele><time>2026-04-04T08:13:38.709Z</time></trkpt><trkpt lat="38.117506" lon="14.9067652"><ele>863.0000000000001</ele><time>2026-04-04T08:13:39.708Z</time></trkpt><trkpt lat="38.1174337" lon="14.9067581"><ele>863.0</ele><time>2026-04-04T08:13:40.709Z</time></trkpt><trkpt lat="38.117354" lon="14.9067558"><ele>863.0</ele><time>2026-04-04T08:13:41.709Z</time></trkpt><trkpt lat="38.1172715" lon="14.9067649"><ele>863.0</ele><time>2026-04-04T08:13:42.709Z</time></trkpt><trkpt lat="38.1171903" lon="14.9067777"><ele>863.0000000000001</ele><time>2026-04-04T08:13:43.709Z</time></trkpt><trkpt lat="38.1171112" lon="14.9067827"><ele>863.0</ele><time>2026-04-04T08:13:44.708Z</time></trkpt><trkpt lat="38.1170306" lon="14.9067893"><ele>867.1666666666667</ele><time>2026-04-04T08:13:45.709Z</time></trkpt><trkpt lat="38.1169498" lon="14.9068155"><ele>871.3333333333334</ele><time>2026-04-04T08:13:46.709Z</time></trkpt><trkpt lat="38.1168713" lon="14.9068598"><ele>875.5</ele><time>2026-04-04T08:13:47.709Z</time></trkpt><trkpt lat="38.116795" lon="14.9069149"><ele>879.6666666666667</ele><time>2026-04-04T08:13:48.708Z</time></trkpt><trkpt lat="38.1167314" lon="14.9069698"><ele>883.8333333333334</ele><time>2026-04-04T08:13:49.709Z</time></trkpt><trkpt lat="38.11668" lon="14.907019"><ele>888.0</ele><time>2026-04-04T08:13:50.709Z</time></trkpt><trkpt lat="38.1165851" lon="14.9071057"><ele>888.8</ele><time>2026-04-04T08:13:52.709Z</time></trkpt><trkpt lat="38.1164793" lon="14.9071903"><ele>889.5999999999999</ele><time>2026-04-04T08:13:54.709Z</time></trkpt><trkpt lat="38.116432" lon="14.9072485"><ele>890.4000000000001</ele><time>2026-04-04T08:13:55.709Z</time></trkpt><trkpt lat="38.1163921" lon="14.9073206"><ele>891.2</ele><time>2026-04-04T08:13:56.708Z</time></trkpt><trkpt lat="38.1163564" lon="14.9073951"><ele>892.0</ele><time>2026-04-04T08:13:57.709Z</time></trkpt><trkpt lat="38.1162607" lon="14.9075019"><ele>892.0</ele><time>2026-04-04T08:13:59.709Z</time></trkpt><trkpt lat="38.1161869" lon="14.9075518"><ele>892.0</ele><time>2026-04-04T08:14:00.709Z</time></trkpt><trkpt lat="38.1160967" lon="14.9075972"><ele>892.0</ele><time>2026-04-04T08:14:01.709Z</time></trkpt><trkpt lat="38.1159998" lon="14.9076467"><ele>892.0</ele><time>2026-04-04T08:14:02.709Z</time></trkpt><trkpt lat="38.1159052" lon="14.9077031"><ele>892.0</ele><time>2026-04-04T08:14:03.709Z</time></trkpt><trkpt lat="38.1158237" lon="14.9077604"><ele>889.8</ele><time>2026-04-04T08:14:04.709Z</time></trkpt><trkpt lat="38.1157557" lon="14.9078133"><ele>887.6</ele><time>2026-04-04T08:14:05.708Z</time></trkpt><trkpt lat="38.115683" lon="14.9078668"><ele>885.3999999999999</ele><time>2026-04-04T08:14:06.708Z</time></trkpt><trkpt lat="38.1156019" lon="14.9079203"><ele>883.1999999999999</ele><time>2026-04-04T08:14:07.709Z</time></trkpt><trkpt lat="38.1155084" lon="14.9079736"><ele>881.0</ele><time>2026-04-04T08:14:08.709Z</time></trkpt><trkpt lat="38.1154183" lon="14.9080202"><ele>884.8333333333334</ele><time>2026-04-04T08:14:09.709Z</time></trkpt><trkpt lat="38.1153407" lon="14.9080467"><ele>888.6666666666667</ele><time>2026-04-04T08:14:10.709Z</time></trkpt><trkpt lat="38.1152676" lon="14.9080529"><ele>892.5</ele><time>2026-04-04T08:14:11.709Z</time></trkpt><trkpt lat="38.1151919" lon="14.908053"><ele>896.3333333333333</ele><time>2026-04-04T08:14:12.709Z</time></trkpt><trkpt lat="38.1151129" lon="14.9080464"><ele>900.1666666666666</ele><time>2026-04-04T08:14:13.709Z</time></trkpt><trkpt lat="38.1150203" lon="14.9080334"><ele>904.0</ele><time>2026-04-04T08:14:14.709Z</time></trkpt><trkpt lat="38.1149127" lon="14.9080157"><ele>905.0</ele><time>2026-04-04T08:14:15.708Z</time></trkpt><trkpt lat="38.1148075" lon="14.9080077"><ele>906.0000000000001</ele><time>2026-04-04T08:14:16.708Z</time></trkpt><trkpt lat="38.1147073" lon="14.908007"><ele>907.0000000000001</ele><time>2026-04-04T08:14:17.708Z</time></trkpt><trkpt lat="38.1146069" lon="14.9080171"><ele>908.0</ele><time>2026-04-04T08:14:18.709Z</time></trkpt><trkpt lat="38.1145078" lon="14.9080359"><ele>909.0</ele><time>2026-04-04T08:14:19.709Z</time></trkpt><trkpt lat="38.1144159" lon="14.9080606"><ele>909.0</ele><time>2026-04-04T08:14:20.708Z</time></trkpt><trkpt lat="38.114339" lon="14.9081034"><ele>909.0000000000001</ele><time>2026-04-04T08:14:21.709Z</time></trkpt><trkpt lat="38.1142786" lon="14.90815"><ele>909.0000000000001</ele><time>2026-04-04T08:14:22.708Z</time></trkpt><trkpt lat="38.1142331" lon="14.9082099"><ele>909.0</ele><time>2026-04-04T08:14:23.709Z</time></trkpt><trkpt lat="38.1141605" lon="14.9083215"><ele>909.0</ele><time>2026-04-04T08:14:25.708Z</time></trkpt><trkpt lat="38.1140699" lon="14.9084193"><ele>908.3333333333334</ele><time>2026-04-04T08:14:27.709Z</time></trkpt><trkpt lat="38.1140217" lon="14.9084728"><ele>907.6666666666667</ele><time>2026-04-04T08:14:28.709Z</time></trkpt><trkpt lat="38.1139426" lon="14.9085756"><ele>907.0</ele><time>2026-04-04T08:14:30.709Z</time></trkpt><trkpt lat="38.1138913" lon="14.9086345"><ele>906.3333333333334</ele><time>2026-04-04T08:14:32.708Z</time></trkpt><trkpt lat="38.113849" lon="14.9087014"><ele>905.6666666666667</ele><time>2026-04-04T08:14:34.709Z</time></trkpt><trkpt lat="38.1137835" lon="14.9087642"><ele>905.0</ele><time>2026-04-04T08:14:36.708Z</time></trkpt><trkpt lat="38.1137045" lon="14.9088452"><ele>905.0</ele><time>2026-04-04T08:14:38.709Z</time></trkpt><trkpt lat="38.1136117" lon="14.9089267"><ele>905.0</ele><time>2026-04-04T08:14:40.708Z</time></trkpt><trkpt lat="38.1135" lon="14.90897"><ele>905.0</ele><time>2026-04-04T08:14:42.708Z</time></trkpt><trkpt lat="38.113435" lon="14.9089933"><ele>905.0</ele><time>2026-04-04T08:14:43.709Z</time></trkpt><trkpt lat="38.113365" lon="14.9090233"><ele>905.0</ele><time>2026-04-04T08:14:44.709Z</time></trkpt><trkpt lat="38.1132817" lon="14.9090617"><ele>905.2</ele><time>2026-04-04T08:14:45.708Z</time></trkpt><trkpt lat="38.1131967" lon="14.9091067"><ele>905.4</ele><time>2026-04-04T08:14:46.709Z</time></trkpt><trkpt lat="38.1131283" lon="14.9091417"><ele>905.5999999999999</ele><time>2026-04-04T08:14:47.708Z</time></trkpt><trkpt lat="38.1130683" lon="14.9091667"><ele>905.8</ele><time>2026-04-04T08:14:48.708Z</time></trkpt><trkpt lat="38.1129533" lon="14.9092"><ele>906.0</ele><time>2026-04-04T08:14:50.708Z</time></trkpt><trkpt lat="38.1128333" lon="14.9092117"><ele>906.0</ele><time>2026-04-04T08:14:52.709Z</time></trkpt><trkpt lat="38.11277" lon="14.90922"><ele>905.9999999999999</ele><time>2026-04-04T08:14:53.709Z</time></trkpt><trkpt lat="38.1126467" lon="14.909245"><ele>905.9999999999999</ele><time>2026-04-04T08:14:55.709Z</time></trkpt><trkpt lat="38.112525" lon="14.90928"><ele>906.0</ele><time>2026-04-04T08:14:57.709Z</time></trkpt><trkpt lat="38.1124167" lon="14.9093083"><ele>906.0</ele><time>2026-04-04T08:14:59.709Z</time></trkpt><trkpt lat="38.1123167" lon="14.9093167"><ele>912.0</ele><time>2026-04-04T08:15:01.709Z</time></trkpt><trkpt lat="38.1122133" lon="14.9093283"><ele>918.0</ele><time>2026-04-04T08:15:03.709Z</time></trkpt><trkpt lat="38.1121067" lon="14.9093567"><ele>924.0</ele><time>2026-04-04T08:15:05.709Z</time></trkpt><trkpt lat="38.111995" lon="14.9094"><ele>930.0</ele><time>2026-04-04T08:15:07.708Z</time></trkpt><trkpt lat="38.1118833" lon="14.9094633"><ele>930.0</ele><time>2026-04-04T08:15:09.709Z</time></trkpt><trkpt lat="38.1118317" lon="14.909515"><ele>930.0</ele><time>2026-04-04T08:15:10.708Z</time></trkpt><trkpt lat="38.1117833" lon="14.9095783"><ele>930.0</ele><time>2026-04-04T08:15:11.709Z</time></trkpt><trkpt lat="38.1117067" lon="14.9096717"><ele>930.0</ele><time>2026-04-04T08:15:13.709Z</time></trkpt><trkpt lat="38.1116417" lon="14.9097517"><ele>930.0</ele><time>2026-04-04T08:15:15.708Z</time></trkpt><trkpt lat="38.11159" lon="14.90981"><ele>930.0</ele><time>2026-04-04T08:15:17.708Z</time></trkpt><trkpt lat="38.1115283" lon="14.90987"><ele>928.6</ele><time>2026-04-04T08:15:19.708Z</time></trkpt><trkpt lat="38.111465" lon="14.9099483"><ele>927.2</ele><time>2026-04-04T08:15:21.708Z</time></trkpt><trkpt lat="38.111395" lon="14.9100383"><ele>925.8</ele><time>2026-04-04T08:15:23.708Z</time></trkpt><trkpt lat="38.11132" lon="14.9101233"><ele>924.4</ele><time>2026-04-04T08:15:25.709Z</time></trkpt><trkpt lat="38.1112267" lon="14.91023"><ele>923.0</ele><time>2026-04-04T08:15:27.709Z</time></trkpt><trkpt lat="38.11118" lon="14.910285"><ele>926.2857142857142</ele><time>2026-04-04T08:15:28.709Z</time></trkpt><trkpt lat="38.111125" lon="14.9103367"><ele>929.5714285714287</ele><time>2026-04-04T08:15:29.709Z</time></trkpt><trkpt lat="38.1110783" lon="14.9103933"><ele>932.8571428571429</ele><time>2026-04-04T08:15:30.71Z</time></trkpt><trkpt lat="38.111" lon="14.9105033"><ele>936.1428571428571</ele><time>2026-04-04T08:15:32.71Z</time></trkpt><trkpt lat="38.1109583" lon="14.9105667"><ele>939.4285714285713</ele><time>2026-04-04T08:15:33.71Z</time></trkpt><trkpt lat="38.1109217" lon="14.910635"><ele>942.7142857142858</ele><time>2026-04-04T08:15:34.71Z</time></trkpt><trkpt lat="38.1108833" lon="14.9107083"><ele>946.0</ele><time>2026-04-04T08:15:35.71Z</time></trkpt><trkpt lat="38.1108433" lon="14.9107767"><ele>945.9999999999999</ele><time>2026-04-04T08:15:36.71Z</time></trkpt><trkpt lat="38.1108" lon="14.910835"><ele>946.0</ele><time>2026-04-04T08:15:37.71Z</time></trkpt><trkpt lat="38.1107583" lon="14.910895"><ele>946.0</ele><time>2026-04-04T08:15:38.71Z</time></trkpt><trkpt lat="38.1107083" lon="14.91095"><ele>946.0</ele><time>2026-04-04T08:15:39.71Z</time></trkpt><trkpt lat="38.110605" lon="14.910995"><ele>945.9999999999999</ele><time>2026-04-04T08:15:41.709Z</time></trkpt><trkpt lat="38.1104917" lon="14.9110433"><ele>946.0</ele><time>2026-04-04T08:15:43.71Z</time></trkpt><trkpt lat="38.1103917" lon="14.91111"><ele>949.0</ele><time>2026-04-04T08:15:45.71Z</time></trkpt><trkpt lat="38.1103017" lon="14.9112083"><ele>951.9999999999999</ele><time>2026-04-04T08:15:47.71Z</time></trkpt><trkpt lat="38.110265" lon="14.911275"><ele>954.9999999999999</ele><time>2026-04-04T08:15:48.709Z</time></trkpt><trkpt lat="38.1102333" lon="14.91135"><ele>958.0</ele><time>2026-04-04T08:15:49.71Z</time></trkpt><trkpt lat="38.110165" lon="14.911475"><ele>961.0</ele><time>2026-04-04T08:15:51.709Z</time></trkpt><trkpt lat="38.1101033" lon="14.9116"><ele>961.0</ele><time>2026-04-04T08:15:53.71Z</time></trkpt><trkpt lat="38.1100717" lon="14.9116717"><ele>960.9999999999999</ele><time>2026-04-04T08:15:54.71Z</time></trkpt><trkpt lat="38.1100367" lon="14.91174"><ele>960.9999999999999</ele><time>2026-04-04T08:15:55.71Z</time></trkpt><trkpt lat="38.1099667" lon="14.9118733"><ele>961.0</ele><time>2026-04-04T08:15:57.71Z</time></trkpt><trkpt lat="38.109895" lon="14.9119917"><ele>961.0</ele><time>2026-04-04T08:15:59.71Z</time></trkpt><trkpt lat="38.1098217" lon="14.912105"><ele>962.4</ele><time>2026-04-04T08:16:01.71Z</time></trkpt><trkpt lat="38.109755" lon="14.91223"><ele>963.8</ele><time>2026-04-04T08:16:03.71Z</time></trkpt><trkpt lat="38.1096817" lon="14.91233"><ele>965.1999999999999</ele><time>2026-04-04T08:16:05.709Z</time></trkpt><trkpt lat="38.109605" lon="14.9124317"><ele>966.5999999999999</ele><time>2026-04-04T08:16:07.71Z</time></trkpt><trkpt lat="38.1095133" lon="14.91251"><ele>968.0</ele><time>2026-04-04T08:16:09.709Z</time></trkpt><trkpt lat="38.1094717" lon="14.9126117"><ele>970.8</ele><time>2026-04-04T08:16:11.71Z</time></trkpt><trkpt lat="38.10952" lon="14.912695"><ele>973.5999999999999</ele><time>2026-04-04T08:16:13.709Z</time></trkpt><trkpt lat="38.1095733" lon="14.91281"><ele>976.4000000000001</ele><time>2026-04-04T08:16:15.71Z</time></trkpt><trkpt lat="38.1095817" lon="14.91293"><ele>979.2</ele><time>2026-04-04T08:16:17.709Z</time></trkpt><trkpt lat="38.109551" lon="14.9130048"><ele>982.0</ele><time>2026-04-04T08:16:45.71Z</time></trkpt><trkpt lat="38.1095226" lon="14.9131296"><ele>982.0</ele><time>2026-04-04T08:16:47.71Z</time></trkpt><trkpt lat="38.1095128" lon="14.9132091"><ele>982.0</ele><time>2026-04-04T08:16:48.709Z</time></trkpt><trkpt lat="38.1094956" lon="14.9133557"><ele>982.0</ele><time>2026-04-04T08:16:50.71Z</time></trkpt><trkpt lat="38.10945" lon="14.9135094"><ele>982.0</ele><time>2026-04-04T08:16:52.709Z</time></trkpt><trkpt lat="38.1094338" lon="14.9135937"><ele>982.0</ele><time>2026-04-04T08:16:53.71Z</time></trkpt><trkpt lat="38.1093949" lon="14.913738"><ele>985.0</ele><time>2026-04-04T08:16:55.709Z</time></trkpt><trkpt lat="38.1093651" lon="14.9139048"><ele>988.0</ele><time>2026-04-04T08:16:57.71Z</time></trkpt><trkpt lat="38.1093657" lon="14.9140183"><ele>991.0</ele><time>2026-04-04T08:16:58.71Z</time></trkpt><trkpt lat="38.109376" lon="14.9141347"><ele>994.0</ele><time>2026-04-04T08:16:59.71Z</time></trkpt><trkpt lat="38.1093927" lon="14.9142418"><ele>997.0</ele><time>2026-04-04T08:17:00.71Z</time></trkpt><trkpt lat="38.1094033" lon="14.91433"><ele>997.4999999999999</ele><time>2026-04-04T08:17:01.71Z</time></trkpt><trkpt lat="38.1093667" lon="14.914485"><ele>998.0</ele><time>2026-04-04T08:17:03.71Z</time></trkpt><trkpt lat="38.1093283" lon="14.9145617"><ele>998.5</ele><time>2026-04-04T08:17:04.71Z</time></trkpt><trkpt lat="38.1092867" lon="14.9146417"><ele>999.0</ele><time>2026-04-04T08:17:05.71Z</time></trkpt><trkpt lat="38.1092483" lon="14.9147133"><ele>999.4999999999999</ele><time>2026-04-04T08:17:06.709Z</time></trkpt><trkpt lat="38.1091983" lon="14.9148183"><ele>1000.0</ele><time>2026-04-04T08:17:08.709Z</time></trkpt><trkpt lat="38.109155" lon="14.9149133"><ele>999.9999999999999</ele><time>2026-04-04T08:17:10.71Z</time></trkpt><trkpt lat="38.1091017" lon="14.9150567"><ele>1000.0</ele><time>2026-04-04T08:17:12.709Z</time></trkpt><trkpt lat="38.1090683" lon="14.9151317"><ele>1000.0</ele><time>2026-04-04T08:17:13.71Z</time></trkpt><trkpt lat="38.1090333" lon="14.9152083"><ele>1000.0</ele><time>2026-04-04T08:17:14.71Z</time></trkpt><trkpt lat="38.1090067" lon="14.9152917"><ele>999.9999999999999</ele><time>2026-04-04T08:17:15.71Z</time></trkpt><trkpt lat="38.1089433" lon="14.9153833"><ele>1000.0</ele><time>2026-04-04T08:17:17.71Z</time></trkpt><trkpt lat="38.10886" lon="14.915435"><ele>999.9999999999999</ele><time>2026-04-04T08:17:20.709Z</time></trkpt><trkpt lat="38.1088" lon="14.915485"><ele>1000.0</ele><time>2026-04-04T08:17:22.71Z</time></trkpt><trkpt lat="38.1087317" lon="14.9155383"><ele>1000.0</ele><time>2026-04-04T08:17:24.71Z</time></trkpt><trkpt lat="38.10867" lon="14.9155683"><ele>1000.0</ele><time>2026-04-04T08:17:26.71Z</time></trkpt><trkpt lat="38.1085933" lon="14.9155983"><ele>999.9999999999999</ele><time>2026-04-04T08:17:29.71Z</time></trkpt><trkpt lat="38.1085067" lon="14.9156333"><ele>1000.0</ele><time>2026-04-04T08:17:32.709Z</time></trkpt><trkpt lat="38.1084167" lon="14.9156683"><ele>1000.0</ele><time>2026-04-04T08:17:35.71Z</time></trkpt><trkpt lat="38.1083483" lon="14.9156917"><ele>1000.0</ele><time>2026-04-04T08:17:37.71Z</time></trkpt><trkpt lat="38.1082883" lon="14.9157217"><ele>1000.0</ele><time>2026-04-04T08:17:39.71Z</time></trkpt><trkpt lat="38.1082333" lon="14.91577"><ele>1000.0</ele><time>2026-04-04T08:17:41.71Z</time></trkpt><trkpt lat="38.1081633" lon="14.9158083"><ele>1000.0</ele><time>2026-04-04T08:17:43.71Z</time></trkpt><trkpt lat="38.1080817" lon="14.9158467"><ele>1000.0</ele><time>2026-04-04T08:17:45.71Z</time></trkpt><trkpt lat="38.10802" lon="14.9158783"><ele>1000.0</ele><time>2026-04-04T08:17:47.71Z</time></trkpt><trkpt lat="38.10796" lon="14.915905"><ele>999.9999999999999</ele><time>2026-04-04T08:17:49.71Z</time></trkpt><trkpt lat="38.1078717" lon="14.915945"><ele>1000.0</ele><time>2026-04-04T08:17:51.709Z</time></trkpt><trkpt lat="38.10776" lon="14.9159933"><ele>1000.0</ele><time>2026-04-04T08:17:53.709Z</time></trkpt><trkpt lat="38.1076933" lon="14.9160067"><ele>1000.0</ele><time>2026-04-04T08:17:54.71Z</time></trkpt><trkpt lat="38.1076017" lon="14.91605"><ele>999.9999999999999</ele><time>2026-04-04T08:17:56.709Z</time></trkpt><trkpt lat="38.1075567" lon="14.9161117"><ele>1000.0</ele><time>2026-04-04T08:17:58.71Z</time></trkpt><trkpt lat="38.1074933" lon="14.9161583"><ele>1000.9999999999999</ele><time>2026-04-04T08:18:00.71Z</time></trkpt><trkpt lat="38.1074" lon="14.9162017"><ele>1002.0</ele><time>2026-04-04T08:18:02.709Z</time></trkpt><trkpt lat="38.107335" lon="14.9162167"><ele>1003.0</ele><time>2026-04-04T08:18:03.709Z</time></trkpt><trkpt lat="38.1072567" lon="14.9162417"><ele>1004.0</ele><time>2026-04-04T08:18:04.71Z</time></trkpt><trkpt lat="38.1071667" lon="14.9162667"><ele>1004.9999999999999</ele><time>2026-04-04T08:18:05.709Z</time></trkpt><trkpt lat="38.1070733" lon="14.9163083"><ele>1006.0</ele><time>2026-04-04T08:18:06.71Z</time></trkpt><trkpt lat="38.1069783" lon="14.9163767"><ele>1005.9999999999999</ele><time>2026-04-04T08:18:07.71Z</time></trkpt><trkpt lat="38.1068917" lon="14.9164617"><ele>1006.0</ele><time>2026-04-04T08:18:08.71Z</time></trkpt><trkpt lat="38.1068283" lon="14.9165533"><ele>1006.0</ele><time>2026-04-04T08:18:09.709Z</time></trkpt><trkpt lat="38.106775" lon="14.916625"><ele>1006.0</ele><time>2026-04-04T08:18:10.71Z</time></trkpt><trkpt lat="38.1067233" lon="14.916685"><ele>1005.9999999999999</ele><time>2026-04-04T08:18:11.71Z</time></trkpt><trkpt lat="38.10667" lon="14.9167433"><ele>1006.0</ele><time>2026-04-04T08:18:12.71Z</time></trkpt><trkpt lat="38.1066217" lon="14.9168033"><ele>1005.1666666666666</ele><time>2026-04-04T08:18:13.71Z</time></trkpt><trkpt lat="38.10657" lon="14.9168533"><ele>1004.3333333333333</ele><time>2026-04-04T08:18:14.71Z</time></trkpt><trkpt lat="38.106505" lon="14.9169"><ele>1003.5</ele><time>2026-04-04T08:18:15.709Z</time></trkpt><trkpt lat="38.1064283" lon="14.9169433"><ele>1002.6666666666667</ele><time>2026-04-04T08:18:16.71Z</time></trkpt><trkpt lat="38.106345" lon="14.9169867"><ele>1001.8333333333334</ele><time>2026-04-04T08:18:17.71Z</time></trkpt><trkpt lat="38.10625" lon="14.9170183"><ele>1001.0</ele><time>2026-04-04T08:18:18.709Z</time></trkpt><trkpt lat="38.1061533" lon="14.9170267"><ele>1001.0</ele><time>2026-04-04T08:18:19.709Z</time></trkpt><trkpt lat="38.106055" lon="14.91703"><ele>1000.9999999999999</ele><time>2026-04-04T08:18:20.709Z</time></trkpt><trkpt lat="38.1059533" lon="14.9170717"><ele>1000.9999999999999</ele><time>2026-04-04T08:18:21.709Z</time></trkpt><trkpt lat="38.1058583" lon="14.9171433"><ele>1001.0</ele><time>2026-04-04T08:18:22.709Z</time></trkpt><trkpt lat="38.1057717" lon="14.917225"><ele>1001.0</ele><time>2026-04-04T08:18:23.71Z</time></trkpt><trkpt lat="38.1056967" lon="14.9173117"><ele>1001.0</ele><time>2026-04-04T08:18:24.71Z</time></trkpt><trkpt lat="38.1056217" lon="14.9173883"><ele>1000.9999999999999</ele><time>2026-04-04T08:18:25.71Z</time></trkpt><trkpt lat="38.105545" lon="14.9174667"><ele>1000.9999999999999</ele><time>2026-04-04T08:18:26.709Z</time></trkpt><trkpt lat="38.1054733" lon="14.91755"><ele>1001.0</ele><time>2026-04-04T08:18:27.71Z</time></trkpt><trkpt lat="38.105405" lon="14.9176283"><ele>1001.0</ele><time>2026-04-04T08:18:28.709Z</time></trkpt><trkpt lat="38.1053583" lon="14.9177133"><ele>1003.1999999999999</ele><time>2026-04-04T08:18:29.71Z</time></trkpt><trkpt lat="38.10532" lon="14.9178033"><ele>1005.3999999999999</ele><time>2026-04-04T08:18:30.71Z</time></trkpt><trkpt lat="38.1052867" lon="14.9179183"><ele>1007.6</ele><time>2026-04-04T08:18:31.71Z</time></trkpt><trkpt lat="38.1052417" lon="14.918045"><ele>1009.8</ele><time>2026-04-04T08:18:32.71Z</time></trkpt><trkpt lat="38.1051817" lon="14.91818"><ele>1012.0</ele><time>2026-04-04T08:18:33.709Z</time></trkpt><trkpt lat="38.1051083" lon="14.9183017"><ele>1012.0</ele><time>2026-04-04T08:18:34.71Z</time></trkpt><trkpt lat="38.1050467" lon="14.9183967"><ele>1012.0</ele><time>2026-04-04T08:18:35.709Z</time></trkpt><trkpt lat="38.1049817" lon="14.9184567"><ele>1012.0</ele><time>2026-04-04T08:18:36.709Z</time></trkpt><trkpt lat="38.1049267" lon="14.9185017"><ele>1012.0</ele><time>2026-04-04T08:18:37.71Z</time></trkpt><trkpt lat="38.1048283" lon="14.9186167"><ele>1012.0</ele><time>2026-04-04T08:18:39.709Z</time></trkpt><trkpt lat="38.1047767" lon="14.9186933"><ele>1015.4000000000001</ele><time>2026-04-04T08:18:40.71Z</time></trkpt><trkpt lat="38.1047233" lon="14.9187567"><ele>1018.8000000000001</ele><time>2026-04-04T08:18:41.709Z</time></trkpt><trkpt lat="38.1046633" lon="14.918815"><ele>1022.2</ele><time>2026-04-04T08:18:42.71Z</time></trkpt><trkpt lat="38.1046117" lon="14.9188683"><ele>1025.6000000000001</ele><time>2026-04-04T08:18:43.71Z</time></trkpt><trkpt lat="38.1045117" lon="14.9189667"><ele>1029.0</ele><time>2026-04-04T08:18:45.709Z</time></trkpt><trkpt lat="38.1043883" lon="14.918975"><ele>1029.0</ele><time>2026-04-04T08:18:47.71Z</time></trkpt><trkpt lat="38.104325" lon="14.9189367"><ele>1029.0</ele><time>2026-04-04T08:18:48.71Z</time></trkpt><trkpt lat="38.10426" lon="14.9188917"><ele>1029.0</ele><time>2026-04-04T08:18:49.709Z</time></trkpt><trkpt lat="38.1041917" lon="14.9188417"><ele>1029.0</ele><time>2026-04-04T08:18:50.71Z</time></trkpt><trkpt lat="38.1041217" lon="14.9187817"><ele>1029.0</ele><time>2026-04-04T08:18:51.709Z</time></trkpt><trkpt lat="38.1040533" lon="14.918735"><ele>1029.0</ele><time>2026-04-04T08:18:52.709Z</time></trkpt><trkpt lat="38.1039883" lon="14.9187117"><ele>1030.8333333333333</ele><time>2026-04-04T08:18:53.709Z</time></trkpt><trkpt lat="38.1039217" lon="14.9187133"><ele>1032.6666666666667</ele><time>2026-04-04T08:18:54.71Z</time></trkpt><trkpt lat="38.103805" lon="14.9187283"><ele>1034.5</ele><time>2026-04-04T08:18:56.71Z</time></trkpt><trkpt lat="38.1037133" lon="14.9187433"><ele>1036.3333333333335</ele><time>2026-04-04T08:18:58.71Z</time></trkpt><trkpt lat="38.1036317" lon="14.9187383"><ele>1038.1666666666667</ele><time>2026-04-04T08:19:00.71Z</time></trkpt><trkpt lat="38.10356" lon="14.918765"><ele>1040.0</ele><time>2026-04-04T08:19:02.71Z</time></trkpt><trkpt lat="38.1035067" lon="14.9188783"><ele>1040.0</ele><time>2026-04-04T08:19:04.709Z</time></trkpt><trkpt lat="38.1034467" lon="14.91902"><ele>1040.0</ele><time>2026-04-04T08:19:06.71Z</time></trkpt><trkpt lat="38.1033917" lon="14.9190733"><ele>1040.0</ele><time>2026-04-04T08:19:07.71Z</time></trkpt><trkpt lat="38.1033133" lon="14.9191133"><ele>1040.0</ele><time>2026-04-04T08:19:08.709Z</time></trkpt><trkpt lat="38.103235" lon="14.919125"><ele>1040.0</ele><time>2026-04-04T08:19:09.71Z</time></trkpt><trkpt lat="38.1031433" lon="14.9191233"><ele>1042.8</ele><time>2026-04-04T08:19:10.71Z</time></trkpt><trkpt lat="38.1030633" lon="14.9191083"><ele>1045.6</ele><time>2026-04-04T08:19:11.71Z</time></trkpt><trkpt lat="38.102995" lon="14.9190767"><ele>1048.4</ele><time>2026-04-04T08:19:12.71Z</time></trkpt><trkpt lat="38.1028917" lon="14.9190267"><ele>1051.2</ele><time>2026-04-04T08:19:14.71Z</time></trkpt><trkpt lat="38.1028" lon="14.9190033"><ele>1054.0</ele><time>2026-04-04T08:19:16.71Z</time></trkpt><trkpt lat="38.10269" lon="14.9189767"><ele>1054.0</ele><time>2026-04-04T08:19:18.709Z</time></trkpt><trkpt lat="38.102585" lon="14.918985"><ele>1054.0</ele><time>2026-04-04T08:19:20.709Z</time></trkpt><trkpt lat="38.1025167" lon="14.9190083"><ele>1054.0</ele><time>2026-04-04T08:19:21.71Z</time></trkpt><trkpt lat="38.10244" lon="14.919025"><ele>1054.0</ele><time>2026-04-04T08:19:22.71Z</time></trkpt><trkpt lat="38.10237" lon="14.9190267"><ele>1054.0</ele><time>2026-04-04T08:19:23.71Z</time></trkpt><trkpt lat="38.1023067" lon="14.9190233"><ele>1054.0</ele><time>2026-04-04T08:19:24.71Z</time></trkpt><trkpt lat="38.1022183" lon="14.9190433"><ele>1055.1666666666665</ele><time>2026-04-04T08:19:26.71Z</time></trkpt><trkpt lat="38.1021483" lon="14.9190717"><ele>1056.3333333333333</ele><time>2026-04-04T08:20:22.711Z</time></trkpt><trkpt lat="38.10205" lon="14.9191033"><ele>1057.5</ele><time>2026-04-04T08:20:24.711Z</time></trkpt><trkpt lat="38.1019717" lon="14.9191433"><ele>1058.6666666666667</ele><time>2026-04-04T08:20:25.71Z</time></trkpt><trkpt lat="38.1018883" lon="14.9191817"><ele>1059.8333333333335</ele><time>2026-04-04T08:20:26.71Z</time></trkpt><trkpt lat="38.1018183" lon="14.9192317"><ele>1061.0</ele><time>2026-04-04T08:20:27.71Z</time></trkpt><trkpt lat="38.10174" lon="14.9193133"><ele>1061.3999999999999</ele><time>2026-04-04T08:20:29.711Z</time></trkpt><trkpt lat="38.1017933" lon="14.919205"><ele>1061.8</ele><time>2026-04-04T08:31:04.712Z</time></trkpt><trkpt lat="38.101885" lon="14.9191467"><ele>1062.1999999999998</ele><time>2026-04-04T08:31:06.711Z</time></trkpt><trkpt lat="38.1019467" lon="14.9191133"><ele>1062.6</ele><time>2026-04-04T08:31:07.712Z</time></trkpt><trkpt lat="38.10201" lon="14.919075"><ele>1063.0</ele><time>2026-04-04T08:31:08.712Z</time></trkpt><trkpt lat="38.1021367" lon="14.9190433"><ele>1063.0</ele><time>2026-04-04T08:31:10.712Z</time></trkpt><trkpt lat="38.102245" lon="14.9190317"><ele>1063.0</ele><time>2026-04-04T08:31:12.713Z</time></trkpt><trkpt lat="38.1023417" lon="14.9190267"><ele>1063.0</ele><time>2026-04-04T08:31:14.713Z</time></trkpt><trkpt lat="38.10244" lon="14.9190067"><ele>1063.0</ele><time>2026-04-04T08:31:16.712Z</time></trkpt><trkpt lat="38.1025317" lon="14.9189833"><ele>1063.0</ele><time>2026-04-04T08:31:18.712Z</time></trkpt><trkpt lat="38.1026467" lon="14.9189683"><ele>1061.5</ele><time>2026-04-04T08:31:20.713Z</time></trkpt><trkpt lat="38.102715" lon="14.9189667"><ele>1060.0</ele><time>2026-04-04T08:31:21.713Z</time></trkpt><trkpt lat="38.1028187" lon="14.9189938"><ele>1058.5</ele><time>2026-04-04T08:31:23.713Z</time></trkpt><trkpt lat="38.1029036" lon="14.9189958"><ele>1057.0</ele><time>2026-04-04T08:31:25.713Z</time></trkpt><trkpt lat="38.1029673" lon="14.9190211"><ele>1055.5</ele><time>2026-04-04T08:31:27.713Z</time></trkpt><trkpt lat="38.1030553" lon="14.9190684"><ele>1054.0</ele><time>2026-04-04T08:31:30.713Z</time></trkpt><trkpt lat="38.1031422" lon="14.9190875"><ele>1054.0</ele><time>2026-04-04T08:31:32.712Z</time></trkpt><trkpt lat="38.1032372" lon="14.9190707"><ele>1054.0</ele><time>2026-04-04T08:31:34.713Z</time></trkpt><trkpt lat="38.1033262" lon="14.9190534"><ele>1054.0</ele><time>2026-04-04T08:31:36.713Z</time></trkpt><trkpt lat="38.1034284" lon="14.9190183"><ele>1054.0</ele><time>2026-04-04T08:31:38.713Z</time></trkpt><trkpt lat="38.1034977" lon="14.9189248"><ele>1054.0</ele><time>2026-04-04T08:31:40.712Z</time></trkpt><trkpt lat="38.1035228" lon="14.9188336"><ele>1051.2</ele><time>2026-04-04T08:31:42.712Z</time></trkpt><trkpt lat="38.1035613" lon="14.9187451"><ele>1048.4</ele><time>2026-04-04T08:31:44.713Z</time></trkpt><trkpt lat="38.103644" lon="14.9187191"><ele>1045.6</ele><time>2026-04-04T08:31:46.713Z</time></trkpt><trkpt lat="38.1037673" lon="14.9187272"><ele>1042.8</ele><time>2026-04-04T08:31:48.713Z</time></trkpt><trkpt lat="38.1038694" lon="14.9187054"><ele>1040.0</ele><time>2026-04-04T08:31:50.713Z</time></trkpt><trkpt lat="38.1039433" lon="14.9187147"><ele>1040.0</ele><time>2026-04-04T08:31:52.713Z</time></trkpt><trkpt lat="38.1040293" lon="14.9187287"><ele>1040.0</ele><time>2026-04-04T08:31:54.712Z</time></trkpt><trkpt lat="38.104109" lon="14.9187611"><ele>1040.0</ele><time>2026-04-04T08:31:56.713Z</time></trkpt><trkpt lat="38.1041875" lon="14.9188009"><ele>1040.0</ele><time>2026-04-04T08:31:58.712Z</time></trkpt><trkpt lat="38.1042631" lon="14.9188617"><ele>1040.0</ele><time>2026-04-04T08:32:00.712Z</time></trkpt><trkpt lat="38.1043352" lon="14.918917"><ele>1040.0</ele><time>2026-04-04T08:32:02.712Z</time></trkpt><trkpt lat="38.104412" lon="14.9189535"><ele>1037.8</ele><time>2026-04-04T08:32:04.713Z</time></trkpt><trkpt lat="38.1044948" lon="14.9189496"><ele>1035.6</ele><time>2026-04-04T08:32:06.713Z</time></trkpt><trkpt lat="38.1045766" lon="14.918886"><ele>1033.4</ele><time>2026-04-04T08:32:08.712Z</time></trkpt><trkpt lat="38.1046625" lon="14.9187868"><ele>1031.2</ele><time>2026-04-04T08:32:10.713Z</time></trkpt><trkpt lat="38.10471" lon="14.9187317"><ele>1029.0</ele><time>2026-04-04T08:32:11.713Z</time></trkpt><trkpt lat="38.1047917" lon="14.91865"><ele>1029.0</ele><time>2026-04-04T08:32:13.713Z</time></trkpt><trkpt lat="38.1048717" lon="14.9185383"><ele>1029.0</ele><time>2026-04-04T08:32:15.712Z</time></trkpt><trkpt lat="38.10494" lon="14.918425"><ele>1029.0</ele><time>2026-04-04T08:32:17.712Z</time></trkpt><trkpt lat="38.10503" lon="14.91835"><ele>1029.0</ele><time>2026-04-04T08:32:19.712Z</time></trkpt><trkpt lat="38.1050883" lon="14.918295"><ele>1029.0</ele><time>2026-04-04T08:32:20.712Z</time></trkpt><trkpt lat="38.1051533" lon="14.9181967"><ele>1025.6000000000001</ele><time>2026-04-04T08:32:21.712Z</time></trkpt><trkpt lat="38.10522" lon="14.9180683"><ele>1022.2</ele><time>2026-04-04T08:32:22.712Z</time></trkpt><trkpt lat="38.1052717" lon="14.9179333"><ele>1018.8000000000001</ele><time>2026-04-04T08:32:23.712Z</time></trkpt><trkpt lat="38.10532" lon="14.91781"><ele>1015.4000000000001</ele><time>2026-04-04T08:32:24.713Z</time></trkpt><trkpt lat="38.105365" lon="14.9177033"><ele>1012.0</ele><time>2026-04-04T08:32:25.713Z</time></trkpt><trkpt lat="38.1054367" lon="14.9176033"><ele>1009.8</ele><time>2026-04-04T08:32:26.713Z</time></trkpt><trkpt lat="38.10551" lon="14.91749"><ele>1007.6</ele><time>2026-04-04T08:32:27.713Z</time></trkpt><trkpt lat="38.1055967" lon="14.91739"><ele>1005.3999999999999</ele><time>2026-04-04T08:32:28.713Z</time></trkpt><trkpt lat="38.1056783" lon="14.9173083"><ele>1003.1999999999999</ele><time>2026-04-04T08:32:29.713Z</time></trkpt><trkpt lat="38.10575" lon="14.9172383"><ele>1001.0</ele><time>2026-04-04T08:32:30.712Z</time></trkpt><trkpt lat="38.10581" lon="14.9171717"><ele>1001.0000000000001</ele><time>2026-04-04T08:32:31.713Z</time></trkpt><trkpt lat="38.1058683" lon="14.9171117"><ele>1001.0</ele><time>2026-04-04T08:32:32.713Z</time></trkpt><trkpt lat="38.105925" lon="14.9170633"><ele>1001.0</ele><time>2026-04-04T08:32:33.713Z</time></trkpt><trkpt lat="38.1059833" lon="14.9170233"><ele>1001.0</ele><time>2026-04-04T08:32:34.713Z</time></trkpt><trkpt lat="38.10605" lon="14.917005"><ele>1001.0000000000001</ele><time>2026-04-04T08:32:35.713Z</time></trkpt><trkpt lat="38.1061417" lon="14.91699"><ele>1001.0</ele><time>2026-04-04T08:32:36.713Z</time></trkpt><trkpt lat="38.1062483" lon="14.91698"><ele>1001.0</ele><time>2026-04-04T08:32:37.713Z</time></trkpt><trkpt lat="38.10637" lon="14.9169417"><ele>1001.0</ele><time>2026-04-04T08:32:38.712Z</time></trkpt><trkpt lat="38.1064867" lon="14.9168833"><ele>1001.0</ele><time>2026-04-04T08:32:39.712Z</time></trkpt><trkpt lat="38.1065883" lon="14.9168083"><ele>1001.0</ele><time>2026-04-04T08:32:40.712Z</time></trkpt><trkpt lat="38.10668" lon="14.9167217"><ele>1002.0</ele><time>2026-04-04T08:32:41.712Z</time></trkpt><trkpt lat="38.1067533" lon="14.9166383"><ele>1002.9999999999999</ele><time>2026-04-04T08:32:42.712Z</time></trkpt><trkpt lat="38.1068067" lon="14.9165733"><ele>1003.9999999999999</ele><time>2026-04-04T08:32:43.713Z</time></trkpt><trkpt lat="38.1068833" lon="14.9164733"><ele>1005.0</ele><time>2026-04-04T08:32:45.712Z</time></trkpt><trkpt lat="38.106975" lon="14.91638"><ele>1006.0</ele><time>2026-04-04T08:32:47.713Z</time></trkpt><trkpt lat="38.1070283" lon="14.9163367"><ele>1005.9999999999999</ele><time>2026-04-04T08:32:48.712Z</time></trkpt><trkpt lat="38.107085" lon="14.9162983"><ele>1006.0</ele><time>2026-04-04T08:32:49.713Z</time></trkpt><trkpt lat="38.1071483" lon="14.916265"><ele>1006.0</ele><time>2026-04-04T08:32:50.713Z</time></trkpt><trkpt lat="38.10721" lon="14.91623"><ele>1006.0</ele><time>2026-04-04T08:32:51.712Z</time></trkpt><trkpt lat="38.107275" lon="14.9162017"><ele>1005.9999999999999</ele><time>2026-04-04T08:32:52.713Z</time></trkpt><trkpt lat="38.1073733" lon="14.9161833"><ele>1006.0</ele><time>2026-04-04T08:32:53.713Z</time></trkpt><trkpt lat="38.1074667" lon="14.916155"><ele>1004.9999999999999</ele><time>2026-04-04T08:32:54.713Z</time></trkpt><trkpt lat="38.10754" lon="14.9161133"><ele>1004.0</ele><time>2026-04-04T08:32:55.713Z</time></trkpt><trkpt lat="38.1075983" lon="14.9160633"><ele>1003.0</ele><time>2026-04-04T08:32:56.712Z</time></trkpt><trkpt lat="38.1076433" lon="14.9160067"><ele>1002.0</ele><time>2026-04-04T08:32:57.712Z</time></trkpt><trkpt lat="38.10775" lon="14.915965"><ele>1000.9999999999999</ele><time>2026-04-04T08:32:59.712Z</time></trkpt><trkpt lat="38.1078683" lon="14.9159783"><ele>1000.0</ele><time>2026-04-04T08:33:01.713Z</time></trkpt><trkpt lat="38.1079333" lon="14.916"><ele>999.9999999999999</ele><time>2026-04-04T08:33:02.712Z</time></trkpt><trkpt lat="38.1080017" lon="14.9160217"><ele>1000.0</ele><time>2026-04-04T08:33:03.712Z</time></trkpt><trkpt lat="38.1080683" lon="14.9160533"><ele>1000.0</ele><time>2026-04-04T08:33:04.712Z</time></trkpt><trkpt lat="38.1081433" lon="14.91607"><ele>1000.0</ele><time>2026-04-04T08:33:05.713Z</time></trkpt><trkpt lat="38.10822" lon="14.916075"><ele>999.9999999999999</ele><time>2026-04-04T08:33:06.712Z</time></trkpt><trkpt lat="38.1083067" lon="14.916065"><ele>1000.0</ele><time>2026-04-04T08:33:07.713Z</time></trkpt><trkpt lat="38.1083933" lon="14.9160667"><ele>996.6666666666666</ele><time>2026-04-04T08:33:08.713Z</time></trkpt><trkpt lat="38.108475" lon="14.9160733"><ele>993.3333333333333</ele><time>2026-04-04T08:33:09.713Z</time></trkpt><trkpt lat="38.1085517" lon="14.9161017"><ele>990.0</ele><time>2026-04-04T08:33:10.713Z</time></trkpt><trkpt lat="38.1086367" lon="14.9161367"><ele>986.6666666666667</ele><time>2026-04-04T08:33:11.713Z</time></trkpt><trkpt lat="38.1087267" lon="14.9161767"><ele>983.3333333333334</ele><time>2026-04-04T08:33:12.712Z</time></trkpt><trkpt lat="38.10882" lon="14.91621"><ele>980.0</ele><time>2026-04-04T08:33:13.713Z</time></trkpt><trkpt lat="38.1088983" lon="14.91623"><ele>980.0000000000001</ele><time>2026-04-04T08:33:14.713Z</time></trkpt><trkpt lat="38.1089767" lon="14.9162333"><ele>980.0</ele><time>2026-04-04T08:33:15.713Z</time></trkpt><trkpt lat="38.1090467" lon="14.916225"><ele>980.0</ele><time>2026-04-04T08:33:16.713Z</time></trkpt><trkpt lat="38.1091217" lon="14.9162133"><ele>980.0</ele><time>2026-04-04T08:33:17.712Z</time></trkpt><trkpt lat="38.10919" lon="14.9162083"><ele>980.0000000000001</ele><time>2026-04-04T08:33:18.713Z</time></trkpt><trkpt lat="38.1092817" lon="14.9162233"><ele>980.0</ele><time>2026-04-04T08:33:20.713Z</time></trkpt><trkpt lat="38.10919" lon="14.9162767"><ele>980.0000000000001</ele><time>2026-04-04T08:33:26.713Z</time></trkpt><trkpt lat="38.109115" lon="14.916315"><ele>980.0</ele><time>2026-04-04T08:33:28.713Z</time></trkpt><trkpt lat="38.1090533" lon="14.9163533"><ele>980.0</ele><time>2026-04-04T08:33:31.713Z</time></trkpt><trkpt lat="38.1089883" lon="14.9163783"><ele>980.0</ele><time>2026-04-04T08:33:42.713Z</time></trkpt><trkpt lat="38.1089267" lon="14.916415"><ele>980.0000000000001</ele><time>2026-04-04T08:33:43.713Z</time></trkpt><trkpt lat="38.10886" lon="14.91644"><ele>980.0</ele><time>2026-04-04T08:33:44.713Z</time></trkpt><trkpt lat="38.1087517" lon="14.9164333"><ele>980.0000000000001</ele><time>2026-04-04T08:33:46.713Z</time></trkpt><trkpt lat="38.1086333" lon="14.916385"><ele>980.0</ele><time>2026-04-04T08:33:48.713Z</time></trkpt><trkpt lat="38.1085617" lon="14.9163617"><ele>980.0</ele><time>2026-04-04T08:33:49.713Z</time></trkpt><trkpt lat="38.10849" lon="14.916345"><ele>980.0</ele><time>2026-04-04T08:33:50.712Z</time></trkpt><trkpt lat="38.1084167" lon="14.9163417"><ele>980.0000000000001</ele><time>2026-04-04T08:33:51.712Z</time></trkpt><trkpt lat="38.1083483" lon="14.916345"><ele>980.0</ele><time>2026-04-04T08:33:52.712Z</time></trkpt><trkpt lat="38.1082883" lon="14.916375"><ele>984.0</ele><time>2026-04-04T08:33:53.713Z</time></trkpt><trkpt lat="38.1081967" lon="14.9164367"><ele>988.0</ele><time>2026-04-04T08:33:55.713Z</time></trkpt><trkpt lat="38.1081467" lon="14.9165283"><ele>992.0</ele><time>2026-04-04T08:33:58.713Z</time></trkpt><trkpt lat="38.108115" lon="14.9166433"><ele>996.0</ele><time>2026-04-04T08:34:03.712Z</time></trkpt><trkpt lat="38.10817" lon="14.9165817"><ele>1000.0</ele><time>2026-04-04T08:34:12.713Z</time></trkpt><trkpt lat="38.1082417" lon="14.9165067"><ele>996.0</ele><time>2026-04-04T08:34:14.713Z</time></trkpt><trkpt lat="38.1083633" lon="14.9164783"><ele>992.0</ele><time>2026-04-04T08:34:16.712Z</time></trkpt><trkpt lat="38.1084733" lon="14.9165533"><ele>988.0</ele><time>2026-04-04T08:34:18.712Z</time></trkpt><trkpt lat="38.108515" lon="14.9166217"><ele>984.0</ele><time>2026-04-04T08:34:19.712Z</time></trkpt><trkpt lat="38.108545" lon="14.9167067"><ele>980.0</ele><time>2026-04-04T08:34:20.713Z</time></trkpt><trkpt lat="38.1085667" lon="14.916815"><ele>974.4</ele><time>2026-04-04T08:34:21.713Z</time></trkpt><trkpt lat="38.108585" lon="14.9169433"><ele>968.8</ele><time>2026-04-04T08:34:22.713Z</time></trkpt><trkpt lat="38.1086167" lon="14.9170517"><ele>963.2</ele><time>2026-04-04T08:34:23.713Z</time></trkpt><trkpt lat="38.108645" lon="14.91713"><ele>957.6</ele><time>2026-04-04T08:34:24.713Z</time></trkpt><trkpt lat="38.1087333" lon="14.9171583"><ele>952.0</ele><time>2026-04-04T08:34:26.713Z</time></trkpt><trkpt lat="38.1088233" lon="14.9170967"><ele>952.0</ele><time>2026-04-04T08:34:28.712Z</time></trkpt><trkpt lat="38.1089083" lon="14.9169617"><ele>952.0</ele><time>2026-04-04T08:34:30.712Z</time></trkpt><trkpt lat="38.1089567" lon="14.9168833"><ele>952.0</ele><time>2026-04-04T08:34:31.713Z</time></trkpt><trkpt lat="38.1090117" lon="14.9168217"><ele>952.0</ele><time>2026-04-04T08:34:32.713Z</time></trkpt><trkpt lat="38.1091167" lon="14.9167433"><ele>952.0</ele><time>2026-04-04T08:34:34.713Z</time></trkpt><trkpt lat="38.10925" lon="14.916705"><ele>949.4999999999999</ele><time>2026-04-04T08:34:36.713Z</time></trkpt><trkpt lat="38.1093267" lon="14.916705"><ele>947.0</ele><time>2026-04-04T08:34:37.713Z</time></trkpt><trkpt lat="38.1094167" lon="14.916715"><ele>944.5</ele><time>2026-04-04T08:34:38.713Z</time></trkpt><trkpt lat="38.10951" lon="14.9167433"><ele>942.0</ele><time>2026-04-04T08:34:39.713Z</time></trkpt><trkpt lat="38.109605" lon="14.9167667"><ele>939.4999999999999</ele><time>2026-04-04T08:34:40.713Z</time></trkpt><trkpt lat="38.1096817" lon="14.9167767"><ele>937.0</ele><time>2026-04-04T08:34:41.713Z</time></trkpt><trkpt lat="38.10976" lon="14.91679"><ele>936.9999999999999</ele><time>2026-04-04T08:34:42.713Z</time></trkpt><trkpt lat="38.10983" lon="14.916805"><ele>937.0</ele><time>2026-04-04T08:34:43.713Z</time></trkpt><trkpt lat="38.1099" lon="14.9168233"><ele>937.0</ele><time>2026-04-04T08:34:44.713Z</time></trkpt><trkpt lat="38.1099617" lon="14.9168567"><ele>937.0</ele><time>2026-04-04T08:34:45.713Z</time></trkpt><trkpt lat="38.1100617" lon="14.9169367"><ele>936.9999999999999</ele><time>2026-04-04T08:34:47.713Z</time></trkpt><trkpt lat="38.110125" lon="14.916975"><ele>937.0</ele><time>2026-04-04T08:34:48.713Z</time></trkpt><trkpt lat="38.1102417" lon="14.9169967"><ele>934.4000000000001</ele><time>2026-04-04T08:34:50.713Z</time></trkpt><trkpt lat="38.11034" lon="14.9169783"><ele>931.8000000000001</ele><time>2026-04-04T08:34:52.713Z</time></trkpt><trkpt lat="38.11044" lon="14.9169767"><ele>929.2</ele><time>2026-04-04T08:34:54.713Z</time></trkpt><trkpt lat="38.1105683" lon="14.9170183"><ele>926.6</ele><time>2026-04-04T08:34:56.713Z</time></trkpt><trkpt lat="38.110655" lon="14.9170383"><ele>924.0</ele><time>2026-04-04T08:34:57.712Z</time></trkpt><trkpt lat="38.1107467" lon="14.9170433"><ele>923.8333333333334</ele><time>2026-04-04T08:34:58.713Z</time></trkpt><trkpt lat="38.11084" lon="14.9170483"><ele>923.6666666666667</ele><time>2026-04-04T08:34:59.713Z</time></trkpt><trkpt lat="38.1109283" lon="14.9170533"><ele>923.5</ele><time>2026-04-04T08:35:00.712Z</time></trkpt><trkpt lat="38.1110067" lon="14.91706"><ele>923.3333333333334</ele><time>2026-04-04T08:35:01.713Z</time></trkpt><trkpt lat="38.111075" lon="14.91707"><ele>923.1666666666667</ele><time>2026-04-04T08:35:02.713Z</time></trkpt><trkpt lat="38.1111433" lon="14.917085"><ele>923.0</ele><time>2026-04-04T08:35:03.712Z</time></trkpt><trkpt lat="38.1112217" lon="14.91709"><ele>923.0000000000001</ele><time>2026-04-04T08:35:04.713Z</time></trkpt><trkpt lat="38.1113083" lon="14.9170783"><ele>923.0</ele><time>2026-04-04T08:35:05.713Z</time></trkpt><trkpt lat="38.1113967" lon="14.9170567"><ele>923.0</ele><time>2026-04-04T08:35:06.713Z</time></trkpt><trkpt lat="38.1114817" lon="14.9170367"><ele>923.0</ele><time>2026-04-04T08:35:07.713Z</time></trkpt><trkpt lat="38.1115617" lon="14.9170317"><ele>923.0000000000001</ele><time>2026-04-04T08:35:08.712Z</time></trkpt><trkpt lat="38.1116367" lon="14.9170433"><ele>923.0</ele><time>2026-04-04T08:35:09.713Z</time></trkpt><trkpt lat="38.1117133" lon="14.917075"><ele>923.8333333333334</ele><time>2026-04-04T08:35:10.713Z</time></trkpt><trkpt lat="38.11178" lon="14.917125"><ele>924.6666666666667</ele><time>2026-04-04T08:35:11.712Z</time></trkpt><trkpt lat="38.111855" lon="14.91719"><ele>925.5</ele><time>2026-04-04T08:35:12.712Z</time></trkpt><trkpt lat="38.1119217" lon="14.9172567"><ele>926.3333333333333</ele><time>2026-04-04T08:35:13.713Z</time></trkpt><trkpt lat="38.1119767" lon="14.9173383"><ele>927.1666666666666</ele><time>2026-04-04T08:35:14.713Z</time></trkpt><trkpt lat="38.1120267" lon="14.9174233"><ele>928.0</ele><time>2026-04-04T08:35:15.713Z</time></trkpt><trkpt lat="38.1120867" lon="14.9175017"><ele>922.0</ele><time>2026-04-04T08:35:16.713Z</time></trkpt><trkpt lat="38.112145" lon="14.917575"><ele>916.0</ele><time>2026-04-04T08:35:17.713Z</time></trkpt><trkpt lat="38.112205" lon="14.9176383"><ele>910.0</ele><time>2026-04-04T08:35:18.713Z</time></trkpt><trkpt lat="38.11226" lon="14.917695"><ele>904.0</ele><time>2026-04-04T08:35:19.713Z</time></trkpt><trkpt lat="38.1123433" lon="14.91779"><ele>898.0</ele><time>2026-04-04T08:35:21.713Z</time></trkpt><trkpt lat="38.1124433" lon="14.91788"><ele>898.0</ele><time>2026-04-04T08:35:23.713Z</time></trkpt><trkpt lat="38.1125383" lon="14.917935"><ele>898.0</ele><time>2026-04-04T08:35:25.712Z</time></trkpt><trkpt lat="38.1126383" lon="14.9179233"><ele>898.0</ele><time>2026-04-04T08:35:27.712Z</time></trkpt><trkpt lat="38.112735" lon="14.917885"><ele>898.0</ele><time>2026-04-04T08:35:29.713Z</time></trkpt><trkpt lat="38.112845" lon="14.9178133"><ele>898.0</ele><time>2026-04-04T08:35:31.713Z</time></trkpt><trkpt lat="38.1129033" lon="14.917765"><ele>897.9999999999999</ele><time>2026-04-04T08:35:32.712Z</time></trkpt><trkpt lat="38.1129583" lon="14.9177067"><ele>898.0</ele><time>2026-04-04T08:35:33.712Z</time></trkpt><trkpt lat="38.1130317" lon="14.9176467"><ele>898.0</ele><time>2026-04-04T08:35:34.713Z</time></trkpt><trkpt lat="38.1131033" lon="14.9176017"><ele>898.0</ele><time>2026-04-04T08:35:35.713Z</time></trkpt><trkpt lat="38.1131733" lon="14.9175633"><ele>897.9999999999999</ele><time>2026-04-04T08:35:36.712Z</time></trkpt><trkpt lat="38.1132683" lon="14.9174933"><ele>898.0</ele><time>2026-04-04T08:35:38.712Z</time></trkpt><trkpt lat="38.1133533" lon="14.91739"><ele>900.9999999999999</ele><time>2026-04-04T08:35:40.713Z</time></trkpt><trkpt lat="38.1134017" lon="14.9173217"><ele>904.0</ele><time>2026-04-04T08:35:41.713Z</time></trkpt><trkpt lat="38.1134467" lon="14.9172417"><ele>907.0</ele><time>2026-04-04T08:35:42.712Z</time></trkpt><trkpt lat="38.1134983" lon="14.91716"><ele>910.0</ele><time>2026-04-04T08:35:43.712Z</time></trkpt><trkpt lat="38.1135433" lon="14.9170833"><ele>912.9999999999999</ele><time>2026-04-04T08:35:44.713Z</time></trkpt><trkpt lat="38.11361" lon="14.916955"><ele>916.0</ele><time>2026-04-04T08:35:46.713Z</time></trkpt><trkpt lat="38.1136433" lon="14.9168733"><ele>915.9999999999999</ele><time>2026-04-04T08:35:47.712Z</time></trkpt><trkpt lat="38.1136667" lon="14.916785"><ele>916.0</ele><time>2026-04-04T08:35:48.713Z</time></trkpt><trkpt lat="38.11367" lon="14.91669"><ele>916.0</ele><time>2026-04-04T08:35:49.713Z</time></trkpt><trkpt lat="38.1136817" lon="14.9166"><ele>916.0</ele><time>2026-04-04T08:35:50.713Z</time></trkpt><trkpt lat="38.113695" lon="14.9165083"><ele>915.9999999999999</ele><time>2026-04-04T08:35:51.713Z</time></trkpt><trkpt lat="38.1137083" lon="14.9164283"><ele>916.0</ele><time>2026-04-04T08:35:52.713Z</time></trkpt><trkpt lat="38.1137583" lon="14.9162917"><ele>917.5999999999999</ele><time>2026-04-04T08:35:54.713Z</time></trkpt><trkpt lat="38.1138283" lon="14.9162033"><ele>919.1999999999999</ele><time>2026-04-04T08:35:56.712Z</time></trkpt><trkpt lat="38.1139267" lon="14.9161717"><ele>920.8000000000001</ele><time>2026-04-04T08:35:58.712Z</time></trkpt><trkpt lat="38.1140183" lon="14.91611"><ele>922.4000000000001</ele><time>2026-04-04T08:36:00.713Z</time></trkpt><trkpt lat="38.1141267" lon="14.9160533"><ele>924.0</ele><time>2026-04-04T08:36:02.713Z</time></trkpt><trkpt lat="38.1141883" lon="14.9160267"><ele>919.0</ele><time>2026-04-04T08:36:03.713Z</time></trkpt><trkpt lat="38.1142467" lon="14.9159367"><ele>914.0</ele><time>2026-04-04T08:36:05.713Z</time></trkpt><trkpt lat="38.1142467" lon="14.9158267"><ele>909.0</ele><time>2026-04-04T08:36:07.713Z</time></trkpt><trkpt lat="38.1142467" lon="14.9157167"><ele>904.0</ele><time>2026-04-04T08:36:22.713Z</time></trkpt><trkpt lat="38.1142917" lon="14.91565"><ele>899.0</ele><time>2026-04-04T08:36:24.713Z</time></trkpt><trkpt lat="38.1143533" lon="14.9155917"><ele>894.0</ele><time>2026-04-04T08:36:26.713Z</time></trkpt><trkpt lat="38.1144367" lon="14.9155433"><ele>893.9999999999999</ele><time>2026-04-04T08:36:28.712Z</time></trkpt><trkpt lat="38.1145067" lon="14.9155233"><ele>894.0</ele><time>2026-04-04T08:36:30.712Z</time></trkpt><trkpt lat="38.1145733" lon="14.9154983"><ele>894.0</ele><time>2026-04-04T08:36:32.712Z</time></trkpt><trkpt lat="38.1146417" lon="14.9154683"><ele>894.0</ele><time>2026-04-04T08:36:34.713Z</time></trkpt><trkpt lat="38.11463" lon="14.9153833"><ele>894.0</ele><time>2026-04-04T08:36:52.712Z</time></trkpt><trkpt lat="38.1146867" lon="14.915285"><ele>893.9999999999999</ele><time>2026-04-04T08:36:55.712Z</time></trkpt><trkpt lat="38.1147383" lon="14.915225"><ele>894.0</ele><time>2026-04-04T08:36:57.713Z</time></trkpt><trkpt lat="38.1147867" lon="14.9151667"><ele>894.0</ele><time>2026-04-04T08:36:59.713Z</time></trkpt><trkpt lat="38.1148633" lon="14.9150933"><ele>894.0</ele><time>2026-04-04T08:37:02.713Z</time></trkpt><trkpt lat="38.1149317" lon="14.9150267"><ele>894.0</ele><time>2026-04-04T08:37:04.712Z</time></trkpt><trkpt lat="38.1149983" lon="14.914975"><ele>894.0</ele><time>2026-04-04T08:37:06.712Z</time></trkpt><trkpt lat="38.1150517" lon="14.914925"><ele>894.0</ele><time>2026-04-04T08:37:08.712Z</time></trkpt><trkpt lat="38.1151083" lon="14.9148617"><ele>894.0</ele><time>2026-04-04T08:37:10.713Z</time></trkpt><trkpt lat="38.115195" lon="14.9148067"><ele>889.6666666666666</ele><time>2026-04-04T08:37:12.712Z</time></trkpt><trkpt lat="38.1152767" lon="14.9147733"><ele>885.3333333333333</ele><time>2026-04-04T08:37:14.713Z</time></trkpt><trkpt lat="38.1153583" lon="14.91475"><ele>881.0</ele><time>2026-04-04T08:37:17.714Z</time></trkpt><trkpt lat="38.1154283" lon="14.914725"><ele>876.6666666666666</ele><time>2026-04-04T08:37:20.714Z</time></trkpt><trkpt lat="38.1155183" lon="14.9147067"><ele>872.3333333333333</ele><time>2026-04-04T08:37:23.714Z</time></trkpt><trkpt lat="38.1155817" lon="14.9146883"><ele>868.0</ele><time>2026-04-04T08:37:25.714Z</time></trkpt><trkpt lat="38.1156717" lon="14.9146583"><ele>863.75</ele><time>2026-04-04T08:37:28.713Z</time></trkpt><trkpt lat="38.1157383" lon="14.914655"><ele>859.5</ele><time>2026-04-04T08:37:30.714Z</time></trkpt><trkpt lat="38.11587" lon="14.914655"><ele>855.25</ele><time>2026-04-04T08:37:32.714Z</time></trkpt><trkpt lat="38.11599" lon="14.914645"><ele>851.0</ele><time>2026-04-04T08:37:33.713Z</time></trkpt><trkpt lat="38.1161217" lon="14.9146217"><ele>851.0</ele><time>2026-04-04T08:37:34.714Z</time></trkpt><trkpt lat="38.1162417" lon="14.9146133"><ele>851.0</ele><time>2026-04-04T08:37:35.713Z</time></trkpt><trkpt lat="38.1163533" lon="14.9146"><ele>851.0</ele><time>2026-04-04T08:37:36.713Z</time></trkpt><trkpt lat="38.1164433" lon="14.9146067"><ele>851.0</ele><time>2026-04-04T08:37:37.714Z</time></trkpt><trkpt lat="38.1165333" lon="14.914615"><ele>851.0</ele><time>2026-04-04T08:37:38.714Z</time></trkpt><trkpt lat="38.1166117" lon="14.9146217"><ele>848.0000000000001</ele><time>2026-04-04T08:37:39.714Z</time></trkpt><trkpt lat="38.1166933" lon="14.914605"><ele>845.0</ele><time>2026-04-04T08:37:40.713Z</time></trkpt><trkpt lat="38.11677" lon="14.9145783"><ele>842.0</ele><time>2026-04-04T08:37:41.714Z</time></trkpt><trkpt lat="38.1168383" lon="14.9145567"><ele>839.0</ele><time>2026-04-04T08:37:42.714Z</time></trkpt><trkpt lat="38.116905" lon="14.9145433"><ele>836.0000000000001</ele><time>2026-04-04T08:37:43.713Z</time></trkpt><trkpt lat="38.11697" lon="14.91454"><ele>833.0</ele><time>2026-04-04T08:37:44.714Z</time></trkpt><trkpt lat="38.1170826" lon="14.9145568"><ele>833.0</ele><time>2026-04-04T08:37:46.713Z</time></trkpt><trkpt lat="38.1171625" lon="14.9145676"><ele>833.0</ele><time>2026-04-04T08:37:48.714Z</time></trkpt><trkpt lat="38.1172242" lon="14.9145254"><ele>833.0</ele><time>2026-04-04T08:38:05.713Z</time></trkpt><trkpt lat="38.1173238" lon="14.9145316"><ele>833.0</ele><time>2026-04-04T08:38:07.714Z</time></trkpt><trkpt lat="38.1174292" lon="14.9145221"><ele>833.0</ele><time>2026-04-04T08:38:09.713Z</time></trkpt><trkpt lat="38.1175355" lon="14.9144668"><ele>829.5999999999999</ele><time>2026-04-04T08:38:11.714Z</time></trkpt><trkpt lat="38.1176144" lon="14.9144287"><ele>826.1999999999999</ele><time>2026-04-04T08:38:12.714Z</time></trkpt><trkpt lat="38.1177216" lon="14.9143955"><ele>822.8</ele><time>2026-04-04T08:38:13.713Z</time></trkpt><trkpt lat="38.1178444" lon="14.9143612"><ele>819.4</ele><time>2026-04-04T08:38:14.713Z</time></trkpt><trkpt lat="38.1179594" lon="14.9143282"><ele>816.0</ele><time>2026-04-04T08:38:15.714Z</time></trkpt><trkpt lat="38.118062" lon="14.9142916"><ele>816.0</ele><time>2026-04-04T08:38:16.714Z</time></trkpt><trkpt lat="38.1181608" lon="14.9142534"><ele>816.0</ele><time>2026-04-04T08:38:17.713Z</time></trkpt><trkpt lat="38.1182522" lon="14.9142218"><ele>816.0</ele><time>2026-04-04T08:38:18.713Z</time></trkpt><trkpt lat="38.1183392" lon="14.9141765"><ele>816.0</ele><time>2026-04-04T08:38:19.714Z</time></trkpt><trkpt lat="38.1184272" lon="14.9141344"><ele>816.0</ele><time>2026-04-04T08:38:20.714Z</time></trkpt><trkpt lat="38.1185148" lon="14.9141108"><ele>815.3333333333334</ele><time>2026-04-04T08:38:21.714Z</time></trkpt><trkpt lat="38.1186026" lon="14.9141032"><ele>814.6666666666667</ele><time>2026-04-04T08:38:22.714Z</time></trkpt><trkpt lat="38.1186795" lon="14.9141048"><ele>814.0</ele><time>2026-04-04T08:38:23.713Z</time></trkpt><trkpt lat="38.11875" lon="14.9141207"><ele>813.3333333333334</ele><time>2026-04-04T08:38:24.714Z</time></trkpt><trkpt lat="38.1188228" lon="14.9141442"><ele>812.6666666666667</ele><time>2026-04-04T08:38:25.714Z</time></trkpt><trkpt lat="38.118908" lon="14.9141692"><ele>812.0</ele><time>2026-04-04T08:38:26.714Z</time></trkpt><trkpt lat="38.1190031" lon="14.9141868"><ele>812.6</ele><time>2026-04-04T08:38:27.714Z</time></trkpt><trkpt lat="38.1191041" lon="14.9141863"><ele>813.2</ele><time>2026-04-04T08:38:28.714Z</time></trkpt><trkpt lat="38.1192072" lon="14.9141775"><ele>813.8</ele><time>2026-04-04T08:38:29.714Z</time></trkpt><trkpt lat="38.1193026" lon="14.9141821"><ele>814.4</ele><time>2026-04-04T08:38:30.714Z</time></trkpt><trkpt lat="38.1193835" lon="14.9141941"><ele>815.0</ele><time>2026-04-04T08:38:31.714Z</time></trkpt><trkpt lat="38.1194592" lon="14.914188"><ele>815.0</ele><time>2026-04-04T08:38:32.713Z</time></trkpt><trkpt lat="38.1195285" lon="14.9141576"><ele>815.0</ele><time>2026-04-04T08:38:33.713Z</time></trkpt><trkpt lat="38.1195867" lon="14.9141049"><ele>815.0</ele><time>2026-04-04T08:38:34.713Z</time></trkpt><trkpt lat="38.1196407" lon="14.9140428"><ele>815.0</ele><time>2026-04-04T08:38:35.713Z</time></trkpt><trkpt lat="38.1196973" lon="14.9139911"><ele>815.0</ele><time>2026-04-04T08:38:36.713Z</time></trkpt><trkpt lat="38.1197564" lon="14.9139555"><ele>815.0</ele><time>2026-04-04T08:38:37.714Z</time></trkpt><trkpt lat="38.1198187" lon="14.9139313"><ele>815.0</ele><time>2026-04-04T08:38:38.714Z</time></trkpt><trkpt lat="38.1199312" lon="14.9139343"><ele>813.2</ele><time>2026-04-04T08:38:40.714Z</time></trkpt><trkpt lat="38.1200394" lon="14.9139912"><ele>811.4</ele><time>2026-04-04T08:38:42.714Z</time></trkpt><trkpt lat="38.1200975" lon="14.9140261"><ele>809.5999999999999</ele><time>2026-04-04T08:38:43.714Z</time></trkpt><trkpt lat="38.1202082" lon="14.914084"><ele>807.8</ele><time>2026-04-04T08:38:45.713Z</time></trkpt><trkpt lat="38.1203178" lon="14.9141442"><ele>806.0</ele><time>2026-04-04T08:38:47.713Z</time></trkpt><trkpt lat="38.1204249" lon="14.9141821"><ele>806.0</ele><time>2026-04-04T08:38:49.714Z</time></trkpt><trkpt lat="38.1205323" lon="14.914222"><ele>806.0</ele><time>2026-04-04T08:38:51.713Z</time></trkpt><trkpt lat="38.1206331" lon="14.9142697"><ele>806.0</ele><time>2026-04-04T08:38:53.713Z</time></trkpt><trkpt lat="38.1207189" lon="14.9143309"><ele>806.0</ele><time>2026-04-04T08:38:55.714Z</time></trkpt><trkpt lat="38.1207962" lon="14.9143938"><ele>806.0</ele><time>2026-04-04T08:38:57.714Z</time></trkpt><trkpt lat="38.1208587" lon="14.9144271"><ele>800.5000000000001</ele><time>2026-04-04T08:38:59.714Z</time></trkpt><trkpt lat="38.1209534" lon="14.9144573"><ele>795.0</ele><time>2026-04-04T08:39:02.713Z</time></trkpt><trkpt lat="38.1210286" lon="14.9144649"><ele>789.5</ele><time>2026-04-04T08:39:04.713Z</time></trkpt><trkpt lat="38.1211016" lon="14.914488"><ele>784.0</ele><time>2026-04-04T08:39:06.714Z</time></trkpt><trkpt lat="38.1211777" lon="14.9144952"><ele>778.5000000000001</ele><time>2026-04-04T08:39:08.714Z</time></trkpt><trkpt lat="38.1212408" lon="14.9144806"><ele>773.0</ele><time>2026-04-04T08:39:10.713Z</time></trkpt><trkpt lat="38.1213088" lon="14.914469"><ele>773.0000000000001</ele><time>2026-04-04T08:39:13.714Z</time></trkpt><trkpt lat="38.1213759" lon="14.9145273"><ele>773.0</ele><time>2026-04-04T08:39:16.713Z</time></trkpt><trkpt lat="38.1214413" lon="14.9145923"><ele>773.0</ele><time>2026-04-04T08:39:19.714Z</time></trkpt><trkpt lat="38.1214957" lon="14.9146408"><ele>773.0</ele><time>2026-04-04T08:39:22.713Z</time></trkpt><trkpt lat="38.1214433" lon="14.9145883"><ele>773.0000000000001</ele><time>2026-04-04T08:39:28.714Z</time></trkpt><trkpt lat="38.1213333" lon="14.914535"><ele>773.0</ele><time>2026-04-04T08:39:30.713Z</time></trkpt><trkpt lat="38.1212483" lon="14.9145017"><ele>773.0</ele><time>2026-04-04T08:39:32.714Z</time></trkpt><trkpt lat="38.1211617" lon="14.9145"><ele>773.0</ele><time>2026-04-04T08:39:35.714Z</time></trkpt><trkpt lat="38.1210783" lon="14.9144833"><ele>773.0</ele><time>2026-04-04T08:39:37.714Z</time></trkpt><trkpt lat="38.12096" lon="14.914455"><ele>773.0</ele><time>2026-04-04T08:39:39.714Z</time></trkpt><trkpt lat="38.1208817" lon="14.9144317"><ele>773.0</ele><time>2026-04-04T08:39:40.714Z</time></trkpt><trkpt lat="38.1208033" lon="14.9143933"><ele>773.0</ele><time>2026-04-04T08:39:41.714Z</time></trkpt><trkpt lat="38.1207333" lon="14.9143533"><ele>773.0</ele><time>2026-04-04T08:39:42.714Z</time></trkpt><trkpt lat="38.120675" lon="14.91431"><ele>773.0</ele><time>2026-04-04T08:39:43.713Z</time></trkpt><trkpt lat="38.1205867" lon="14.914245"><ele>773.0</ele><time>2026-04-04T08:39:45.713Z</time></trkpt><trkpt lat="38.1204833" lon="14.9142083"><ele>773.0</ele><time>2026-04-04T08:39:47.713Z</time></trkpt><trkpt lat="38.1203717" lon="14.9141533"><ele>778.5000000000001</ele><time>2026-04-04T08:39:49.714Z</time></trkpt><trkpt lat="38.120305" lon="14.9141283"><ele>784.0</ele><time>2026-04-04T08:39:50.714Z</time></trkpt><trkpt lat="38.12021" lon="14.9140783"><ele>789.5</ele><time>2026-04-04T08:39:52.713Z</time></trkpt><trkpt lat="38.12011" lon="14.9140283"><ele>795.0</ele><time>2026-04-04T08:39:54.713Z</time></trkpt><trkpt lat="38.120045" lon="14.9139983"><ele>800.5000000000001</ele><time>2026-04-04T08:39:55.714Z</time></trkpt><trkpt lat="38.1199767" lon="14.913965"><ele>806.0</ele><time>2026-04-04T08:39:56.714Z</time></trkpt><trkpt lat="38.1198967" lon="14.9139433"><ele>807.8</ele><time>2026-04-04T08:39:57.713Z</time></trkpt><trkpt lat="38.119815" lon="14.913935"><ele>809.5999999999999</ele><time>2026-04-04T08:39:58.714Z</time></trkpt><trkpt lat="38.1197183" lon="14.9139533"><ele>811.4</ele><time>2026-04-04T08:39:59.714Z</time></trkpt><trkpt lat="38.11962" lon="14.9139933"><ele>813.2</ele><time>2026-04-04T08:40:00.714Z</time></trkpt><trkpt lat="38.1195383" lon="14.9140567"><ele>815.0</ele><time>2026-04-04T08:40:01.713Z</time></trkpt><trkpt lat="38.1194667" lon="14.9141133"><ele>815.0000000000001</ele><time>2026-04-04T08:40:02.713Z</time></trkpt><trkpt lat="38.1193983" lon="14.9141533"><ele>815.0</ele><time>2026-04-04T08:40:03.714Z</time></trkpt><trkpt lat="38.1193317" lon="14.9141783"><ele>815.0</ele><time>2026-04-04T08:40:04.714Z</time></trkpt><trkpt lat="38.119265" lon="14.9141933"><ele>815.0</ele><time>2026-04-04T08:40:05.714Z</time></trkpt><trkpt lat="38.1191867" lon="14.9141917"><ele>815.0000000000001</ele><time>2026-04-04T08:40:06.713Z</time></trkpt><trkpt lat="38.119105" lon="14.914185"><ele>815.0</ele><time>2026-04-04T08:40:07.714Z</time></trkpt><trkpt lat="38.1190267" lon="14.9141883"><ele>814.5000000000001</ele><time>2026-04-04T08:40:08.713Z</time></trkpt><trkpt lat="38.1189567" lon="14.914185"><ele>814.0</ele><time>2026-04-04T08:40:09.714Z</time></trkpt><trkpt lat="38.11888" lon="14.9141717"><ele>813.5</ele><time>2026-04-04T08:40:10.713Z</time></trkpt><trkpt lat="38.1187983" lon="14.9141617"><ele>813.0</ele><time>2026-04-04T08:40:11.714Z</time></trkpt><trkpt lat="38.1187133" lon="14.9141433"><ele>812.5000000000001</ele><time>2026-04-04T08:40:12.714Z</time></trkpt><trkpt lat="38.11865" lon="14.9141183"><ele>812.0</ele><time>2026-04-04T08:40:13.713Z</time></trkpt><trkpt lat="38.1185633" lon="14.914115"><ele>812.0</ele><time>2026-04-04T08:40:15.714Z</time></trkpt><trkpt lat="38.1184717" lon="14.9141383"><ele>812.0</ele><time>2026-04-04T08:40:17.714Z</time></trkpt><trkpt lat="38.11836" lon="14.9141817"><ele>812.0</ele><time>2026-04-04T08:40:19.713Z</time></trkpt><trkpt lat="38.1182633" lon="14.9142367"><ele>812.0</ele><time>2026-04-04T08:40:21.713Z</time></trkpt><trkpt lat="38.1181383" lon="14.9142767"><ele>812.0</ele><time>2026-04-04T08:40:23.714Z</time></trkpt><trkpt lat="38.1180683" lon="14.9143033"><ele>812.8</ele><time>2026-04-04T08:40:24.714Z</time></trkpt><trkpt lat="38.1180017" lon="14.9143267"><ele>813.6</ele><time>2026-04-04T08:40:25.714Z</time></trkpt><trkpt lat="38.11793" lon="14.9143583"><ele>814.4</ele><time>2026-04-04T08:40:26.714Z</time></trkpt><trkpt lat="38.1178467" lon="14.91438"><ele>815.1999999999999</ele><time>2026-04-04T08:40:27.713Z</time></trkpt><trkpt lat="38.11774" lon="14.9144067"><ele>816.0</ele><time>2026-04-04T08:40:28.714Z</time></trkpt><trkpt lat="38.11763" lon="14.91443"><ele>816.0</ele><time>2026-04-04T08:40:29.714Z</time></trkpt><trkpt lat="38.1175517" lon="14.91445"><ele>816.0</ele><time>2026-04-04T08:40:30.713Z</time></trkpt><trkpt lat="38.1174917" lon="14.9144783"><ele>816.0</ele><time>2026-04-04T08:40:31.714Z</time></trkpt><trkpt lat="38.11743" lon="14.914515"><ele>816.0</ele><time>2026-04-04T08:40:32.714Z</time></trkpt><trkpt lat="38.1173683" lon="14.9145433"><ele>816.0</ele><time>2026-04-04T08:40:33.713Z</time></trkpt><trkpt lat="38.1172383" lon="14.9145533"><ele>816.0</ele><time>2026-04-04T08:40:35.713Z</time></trkpt><trkpt lat="38.1171233" lon="14.9145483"><ele>819.4</ele><time>2026-04-04T08:40:37.713Z</time></trkpt><trkpt lat="38.117045" lon="14.914555"><ele>822.8</ele><time>2026-04-04T08:40:38.714Z</time></trkpt><trkpt lat="38.11695" lon="14.9145567"><ele>826.1999999999999</ele><time>2026-04-04T08:40:39.714Z</time></trkpt><trkpt lat="38.1168583" lon="14.914565"><ele>829.5999999999999</ele><time>2026-04-04T08:40:40.714Z</time></trkpt><trkpt lat="38.1167617" lon="14.91457"><ele>833.0</ele><time>2026-04-04T08:40:41.714Z</time></trkpt><trkpt lat="38.1166633" lon="14.9145917"><ele>836.5999999999999</ele><time>2026-04-04T08:40:42.713Z</time></trkpt><trkpt lat="38.11656" lon="14.9146067"><ele>840.1999999999999</ele><time>2026-04-04T08:40:43.713Z</time></trkpt><trkpt lat="38.1164683" lon="14.9146183"><ele>843.8</ele><time>2026-04-04T08:40:44.714Z</time></trkpt><trkpt lat="38.1163817" lon="14.9146083"><ele>847.4</ele><time>2026-04-04T08:40:45.713Z</time></trkpt><trkpt lat="38.1162833" lon="14.9146067"><ele>851.0</ele><time>2026-04-04T08:40:46.714Z</time></trkpt><trkpt lat="38.1161667" lon="14.9146183"><ele>851.0</ele><time>2026-04-04T08:40:47.714Z</time></trkpt><trkpt lat="38.1160383" lon="14.91463"><ele>851.0</ele><time>2026-04-04T08:40:48.714Z</time></trkpt><trkpt lat="38.1159133" lon="14.91465"><ele>851.0</ele><time>2026-04-04T08:40:49.714Z</time></trkpt><trkpt lat="38.1157983" lon="14.9146583"><ele>851.0</ele><time>2026-04-04T08:40:50.714Z</time></trkpt><trkpt lat="38.115695" lon="14.9146667"><ele>854.4</ele><time>2026-04-04T08:40:51.714Z</time></trkpt><trkpt lat="38.1156267" lon="14.91468"><ele>857.8</ele><time>2026-04-04T08:40:52.713Z</time></trkpt><trkpt lat="38.1155267" lon="14.9147083"><ele>861.1999999999999</ele><time>2026-04-04T08:40:54.714Z</time></trkpt><trkpt lat="38.1154317" lon="14.9147483"><ele>864.5999999999999</ele><time>2026-04-04T08:40:56.714Z</time></trkpt><trkpt lat="38.115305" lon="14.9147917"><ele>868.0</ele><time>2026-04-04T08:40:58.713Z</time></trkpt><trkpt lat="38.11523" lon="14.91481"><ele>867.9999999999999</ele><time>2026-04-04T08:40:59.714Z</time></trkpt><trkpt lat="38.1151583" lon="14.9148367"><ele>868.0</ele><time>2026-04-04T08:41:00.714Z</time></trkpt><trkpt lat="38.1151017" lon="14.9148767"><ele>868.0</ele><time>2026-04-04T08:41:01.713Z</time></trkpt><trkpt lat="38.1150067" lon="14.9149817"><ele>868.0</ele><time>2026-04-04T08:41:03.714Z</time></trkpt><trkpt lat="38.1149567" lon="14.915035"><ele>867.9999999999999</ele><time>2026-04-04T08:41:04.714Z</time></trkpt><trkpt lat="38.1149067" lon="14.9150917"><ele>868.0</ele><time>2026-04-04T08:41:05.713Z</time></trkpt><trkpt lat="38.11486" lon="14.91515"><ele>873.2</ele><time>2026-04-04T08:41:06.714Z</time></trkpt><trkpt lat="38.11476" lon="14.9152433"><ele>878.4</ele><time>2026-04-04T08:41:08.714Z</time></trkpt><trkpt lat="38.11471" lon="14.9153017"><ele>883.6000000000001</ele><time>2026-04-04T08:41:09.714Z</time></trkpt><trkpt lat="38.1146667" lon="14.9153633"><ele>888.8000000000001</ele><time>2026-04-04T08:41:10.714Z</time></trkpt><trkpt lat="38.114625" lon="14.9154767"><ele>894.0</ele><time>2026-04-04T08:41:12.714Z</time></trkpt><trkpt lat="38.1145417" lon="14.915545"><ele>894.0</ele><time>2026-04-04T08:41:14.714Z</time></trkpt><trkpt lat="38.1144233" lon="14.9155817"><ele>894.0</ele><time>2026-04-04T08:41:16.713Z</time></trkpt><trkpt lat="38.114355" lon="14.9155983"><ele>894.0</ele><time>2026-04-04T08:41:17.714Z</time></trkpt><trkpt lat="38.1142867" lon="14.9156133"><ele>894.0</ele><time>2026-04-04T08:41:18.714Z</time></trkpt><trkpt lat="38.1142167" lon="14.91565"><ele>894.0</ele><time>2026-04-04T08:41:19.714Z</time></trkpt><trkpt lat="38.1141367" lon="14.91568"><ele>894.0</ele><time>2026-04-04T08:41:20.714Z</time></trkpt><trkpt lat="38.11405" lon="14.91572"><ele>898.1666666666666</ele><time>2026-04-04T08:41:21.713Z</time></trkpt><trkpt lat="38.1139717" lon="14.9157633"><ele>902.3333333333333</ele><time>2026-04-04T08:41:22.714Z</time></trkpt><trkpt lat="38.1138967" lon="14.9158083"><ele>906.5</ele><time>2026-04-04T08:41:23.713Z</time></trkpt><trkpt lat="38.1138267" lon="14.9158483"><ele>910.6666666666666</ele><time>2026-04-04T08:41:24.714Z</time></trkpt><trkpt lat="38.1137633" lon="14.9158983"><ele>914.8333333333333</ele><time>2026-04-04T08:41:25.714Z</time></trkpt><trkpt lat="38.1136967" lon="14.9159333"><ele>919.0</ele><time>2026-04-04T08:41:26.713Z</time></trkpt><trkpt lat="38.11362" lon="14.9159617"><ele>919.7142857142857</ele><time>2026-04-04T08:41:27.714Z</time></trkpt><trkpt lat="38.1135483" lon="14.9159833"><ele>920.4285714285713</ele><time>2026-04-04T08:41:28.713Z</time></trkpt><trkpt lat="38.1134767" lon="14.916015"><ele>921.1428571428571</ele><time>2026-04-04T08:41:29.714Z</time></trkpt><trkpt lat="38.1134067" lon="14.91605"><ele>921.8571428571429</ele><time>2026-04-04T08:41:30.714Z</time></trkpt><trkpt lat="38.1133417" lon="14.91609"><ele>922.5714285714286</ele><time>2026-04-04T08:41:31.714Z</time></trkpt><trkpt lat="38.1132783" lon="14.91613"><ele>923.2857142857142</ele><time>2026-04-04T08:41:32.714Z</time></trkpt><trkpt lat="38.1132167" lon="14.9161633"><ele>924.0</ele><time>2026-04-04T08:41:33.713Z</time></trkpt><trkpt lat="38.1131533" lon="14.9161783"><ele>930.0</ele><time>2026-04-04T08:41:34.714Z</time></trkpt><trkpt lat="38.1130467" lon="14.9162"><ele>936.0000000000001</ele><time>2026-04-04T08:41:36.714Z</time></trkpt><trkpt lat="38.1129583" lon="14.9162467"><ele>942.0000000000001</ele><time>2026-04-04T08:41:38.714Z</time></trkpt><trkpt lat="38.1128867" lon="14.916305"><ele>948.0</ele><time>2026-04-04T08:41:40.714Z</time></trkpt><trkpt lat="38.1127933" lon="14.9163167"><ele>954.0</ele><time>2026-04-04T08:41:42.714Z</time></trkpt><trkpt lat="38.1126933" lon="14.9163367"><ele>954.0</ele><time>2026-04-04T08:41:44.713Z</time></trkpt><trkpt lat="38.1126167" lon="14.916365"><ele>954.0</ele><time>2026-04-04T08:41:46.713Z</time></trkpt><trkpt lat="38.1125417" lon="14.916375"><ele>954.0</ele><time>2026-04-04T08:41:48.713Z</time></trkpt><trkpt lat="38.112455" lon="14.9163733"><ele>954.0</ele><time>2026-04-04T08:41:50.714Z</time></trkpt><trkpt lat="38.1123767" lon="14.9164133"><ele>954.0</ele><time>2026-04-04T08:41:52.713Z</time></trkpt><trkpt lat="38.1123033" lon="14.9164467"><ele>954.0</ele><time>2026-04-04T08:41:54.714Z</time></trkpt><trkpt lat="38.1122217" lon="14.91647"><ele>954.0</ele><time>2026-04-04T08:41:56.714Z</time></trkpt><trkpt lat="38.1121533" lon="14.9164333"><ele>953.9999999999999</ele><time>2026-04-04T08:41:58.714Z</time></trkpt><trkpt lat="38.1122167" lon="14.9164283"><ele>954.0</ele><time>2026-04-04T08:42:44.715Z</time></trkpt><trkpt lat="38.1122867" lon="14.9164367"><ele>954.0</ele><time>2026-04-04T08:44:40.714Z</time></trkpt><trkpt lat="38.1123533" lon="14.9164233"><ele>953.9999999999999</ele><time>2026-04-04T08:44:43.714Z</time></trkpt><trkpt lat="38.1124367" lon="14.9164083"><ele>954.0</ele><time>2026-04-04T08:44:47.714Z</time></trkpt><trkpt lat="38.112515" lon="14.9163983"><ele>954.0</ele><time>2026-04-04T08:44:51.715Z</time></trkpt><trkpt lat="38.11258" lon="14.91637"><ele>954.0</ele><time>2026-04-04T08:44:55.714Z</time></trkpt><trkpt lat="38.1126383" lon="14.9163383"><ele>953.9999999999999</ele><time>2026-04-04T08:44:58.715Z</time></trkpt><trkpt lat="38.1127017" lon="14.91633"><ele>954.0</ele><time>2026-04-04T08:45:01.715Z</time></trkpt><trkpt lat="38.1127783" lon="14.916315"><ele>954.0</ele><time>2026-04-04T08:45:05.715Z</time></trkpt><trkpt lat="38.1128667" lon="14.9163017"><ele>953.9999999999999</ele><time>2026-04-04T08:45:08.715Z</time></trkpt><trkpt lat="38.1129367" lon="14.9162767"><ele>954.0</ele><time>2026-04-04T08:45:11.714Z</time></trkpt><trkpt lat="38.1130117" lon="14.9162317"><ele>954.0</ele><time>2026-04-04T08:45:15.715Z</time></trkpt><trkpt lat="38.1130833" lon="14.9162083"><ele>954.0</ele><time>2026-04-04T08:45:18.715Z</time></trkpt><trkpt lat="38.1131467" lon="14.9161933"><ele>954.0</ele><time>2026-04-04T08:45:20.715Z</time></trkpt><trkpt lat="38.11322" lon="14.916155"><ele>954.0</ele><time>2026-04-04T08:45:23.715Z</time></trkpt><trkpt lat="38.1132983" lon="14.9161217"><ele>954.0</ele><time>2026-04-04T08:45:26.715Z</time></trkpt><trkpt lat="38.1133617" lon="14.916105"><ele>954.0</ele><time>2026-04-04T08:45:28.715Z</time></trkpt><trkpt lat="38.11343" lon="14.9160667"><ele>954.0</ele><time>2026-04-04T08:45:30.714Z</time></trkpt><trkpt lat="38.11351" lon="14.9160317"><ele>949.0</ele><time>2026-04-04T08:45:33.714Z</time></trkpt><trkpt lat="38.1135867" lon="14.915975"><ele>944.0</ele><time>2026-04-04T08:45:36.715Z</time></trkpt><trkpt lat="38.1136517" lon="14.915945"><ele>939.0</ele><time>2026-04-04T08:45:38.715Z</time></trkpt><trkpt lat="38.1137167" lon="14.91593"><ele>934.0</ele><time>2026-04-04T08:45:40.715Z</time></trkpt><trkpt lat="38.11381" lon="14.9159183"><ele>929.0</ele><time>2026-04-04T08:45:43.715Z</time></trkpt><trkpt lat="38.1138717" lon="14.9158867"><ele>924.0</ele><time>2026-04-04T08:45:46.714Z</time></trkpt><trkpt lat="38.1139517" lon="14.915865"><ele>923.1666666666666</ele><time>2026-04-04T08:45:49.715Z</time></trkpt><trkpt lat="38.1140283" lon="14.915855"><ele>922.3333333333333</ele><time>2026-04-04T08:45:52.715Z</time></trkpt><trkpt lat="38.1140933" lon="14.9158617"><ele>921.5</ele><time>2026-04-04T08:45:54.715Z</time></trkpt><trkpt lat="38.114175" lon="14.9158633"><ele>920.6666666666666</ele><time>2026-04-04T08:45:57.714Z</time></trkpt><trkpt lat="38.1142406" lon="14.9157877"><ele>919.8333333333333</ele><time>2026-04-04T08:46:00.714Z</time></trkpt><trkpt lat="38.1142674" lon="14.9156905"><ele>919.0</ele><time>2026-04-04T08:46:04.715Z</time></trkpt><trkpt lat="38.114332" lon="14.9156125"><ele>915.4285714285713</ele><time>2026-04-04T08:46:07.715Z</time></trkpt><trkpt lat="38.1144067" lon="14.9155639"><ele>911.8571428571428</ele><time>2026-04-04T08:46:09.715Z</time></trkpt><trkpt lat="38.1144754" lon="14.9155319"><ele>908.2857142857142</ele><time>2026-04-04T08:46:11.715Z</time></trkpt><trkpt lat="38.1145384" lon="14.9155235"><ele>904.7142857142857</ele><time>2026-04-04T08:46:13.715Z</time></trkpt><trkpt lat="38.114603" lon="14.915502"><ele>901.1428571428571</ele><time>2026-04-04T08:46:15.715Z</time></trkpt><trkpt lat="38.1146765" lon="14.9155051"><ele>897.5714285714284</ele><time>2026-04-04T08:46:18.715Z</time></trkpt><trkpt lat="38.1147078" lon="14.9155952"><ele>894.0</ele><time>2026-04-04T08:46:21.714Z</time></trkpt><trkpt lat="38.1146771" lon="14.915709"><ele>894.0</ele><time>2026-04-04T08:46:24.714Z</time></trkpt><trkpt lat="38.1146633" lon="14.9157977"><ele>894.0</ele><time>2026-04-04T08:46:26.715Z</time></trkpt><trkpt lat="38.1146795" lon="14.9158943"><ele>894.0</ele><time>2026-04-04T08:46:28.714Z</time></trkpt><trkpt lat="38.1147306" lon="14.916004"><ele>894.0</ele><time>2026-04-04T08:46:30.715Z</time></trkpt><trkpt lat="38.1147692" lon="14.9160799"><ele>894.0</ele><time>2026-04-04T08:46:31.715Z</time></trkpt><trkpt lat="38.1148001" lon="14.9161607"><ele>894.0</ele><time>2026-04-04T08:46:32.715Z</time></trkpt><trkpt lat="38.1148229" lon="14.9162462"><ele>893.8333333333334</ele><time>2026-04-04T08:46:33.715Z</time></trkpt><trkpt lat="38.1148355" lon="14.9163298"><ele>893.6666666666667</ele><time>2026-04-04T08:46:34.714Z</time></trkpt><trkpt lat="38.114841" lon="14.9164162"><ele>893.5</ele><time>2026-04-04T08:46:35.715Z</time></trkpt><trkpt lat="38.1148294" lon="14.9165822"><ele>893.3333333333334</ele><time>2026-04-04T08:46:37.715Z</time></trkpt><trkpt lat="38.1148033" lon="14.9166833"><ele>893.1666666666667</ele><time>2026-04-04T08:46:38.714Z</time></trkpt><trkpt lat="38.1147648" lon="14.9167966"><ele>893.0</ele><time>2026-04-04T08:46:39.715Z</time></trkpt><trkpt lat="38.1147232" lon="14.9169132"><ele>891.5000000000001</ele><time>2026-04-04T08:46:40.715Z</time></trkpt><trkpt lat="38.1146905" lon="14.9170228"><ele>890.0</ele><time>2026-04-04T08:46:41.714Z</time></trkpt><trkpt lat="38.1146721" lon="14.9171233"><ele>888.5</ele><time>2026-04-04T08:46:42.715Z</time></trkpt><trkpt lat="38.1146564" lon="14.917211"><ele>887.0</ele><time>2026-04-04T08:46:43.714Z</time></trkpt><trkpt lat="38.1146185" lon="14.9173095"><ele>885.5000000000001</ele><time>2026-04-04T08:46:44.715Z</time></trkpt><trkpt lat="38.1145736" lon="14.9174156"><ele>884.0</ele><time>2026-04-04T08:46:45.715Z</time></trkpt><trkpt lat="38.1145423" lon="14.9175119"><ele>879.4000000000001</ele><time>2026-04-04T08:46:46.715Z</time></trkpt><trkpt lat="38.1145087" lon="14.917602"><ele>874.8000000000001</ele><time>2026-04-04T08:46:47.714Z</time></trkpt><trkpt lat="38.1144776" lon="14.9176779"><ele>870.1999999999999</ele><time>2026-04-04T08:46:48.714Z</time></trkpt><trkpt lat="38.1144111" lon="14.9178067"><ele>865.5999999999999</ele><time>2026-04-04T08:46:50.715Z</time></trkpt><trkpt lat="38.114358" lon="14.9179354"><ele>861.0</ele><time>2026-04-04T08:46:52.715Z</time></trkpt><trkpt lat="38.1143044" lon="14.9180551"><ele>861.0</ele><time>2026-04-04T08:46:54.714Z</time></trkpt><trkpt lat="38.1142406" lon="14.9181359"><ele>861.0</ele><time>2026-04-04T08:46:56.715Z</time></trkpt><trkpt lat="38.1141883" lon="14.9181823"><ele>861.0</ele><time>2026-04-04T08:46:58.714Z</time></trkpt><trkpt lat="38.114131" lon="14.918227"><ele>861.0</ele><time>2026-04-04T08:47:02.715Z</time></trkpt><trkpt lat="38.1142029" lon="14.9181751"><ele>861.0</ele><time>2026-04-04T08:47:16.715Z</time></trkpt><trkpt lat="38.1142932" lon="14.918102"><ele>861.0</ele><time>2026-04-04T08:47:18.715Z</time></trkpt><trkpt lat="38.1143354" lon="14.9180404"><ele>861.0</ele><time>2026-04-04T08:47:19.715Z</time></trkpt><trkpt lat="38.1143678" lon="14.9179661"><ele>860.9999999999999</ele><time>2026-04-04T08:47:20.715Z</time></trkpt><trkpt lat="38.1144028" lon="14.9178712"><ele>860.9999999999999</ele><time>2026-04-04T08:47:21.715Z</time></trkpt><trkpt lat="38.1144463" lon="14.9177522"><ele>861.0</ele><time>2026-04-04T08:47:22.714Z</time></trkpt><trkpt lat="38.1145056" lon="14.9176126"><ele>861.0</ele><time>2026-04-04T08:47:23.715Z</time></trkpt><trkpt lat="38.1145686" lon="14.9174579"><ele>865.5999999999999</ele><time>2026-04-04T08:47:24.715Z</time></trkpt><trkpt lat="38.1146242" lon="14.9173112"><ele>870.1999999999999</ele><time>2026-04-04T08:47:25.715Z</time></trkpt><trkpt lat="38.1146736" lon="14.9171774"><ele>874.8000000000001</ele><time>2026-04-04T08:47:26.715Z</time></trkpt><trkpt lat="38.1147186" lon="14.917051"><ele>879.4000000000001</ele><time>2026-04-04T08:47:27.715Z</time></trkpt><trkpt lat="38.1147486" lon="14.9169413"><ele>884.0</ele><time>2026-04-04T08:47:28.714Z</time></trkpt><trkpt lat="38.1147777" lon="14.9168403"><ele>884.0000000000001</ele><time>2026-04-04T08:47:29.715Z</time></trkpt><trkpt lat="38.1148113" lon="14.9167394"><ele>884.0</ele><time>2026-04-04T08:47:30.715Z</time></trkpt><trkpt lat="38.114845" lon="14.916653"><ele>884.0</ele><time>2026-04-04T08:47:31.715Z</time></trkpt><trkpt lat="38.1148668" lon="14.9165709"><ele>884.0</ele><time>2026-04-04T08:47:32.715Z</time></trkpt><trkpt lat="38.1148816" lon="14.9164391"><ele>884.0000000000001</ele><time>2026-04-04T08:47:34.714Z</time></trkpt><trkpt lat="38.1148519" lon="14.9163383"><ele>884.0</ele><time>2026-04-04T08:47:36.715Z</time></trkpt><trkpt lat="38.1148027" lon="14.9162596"><ele>885.5000000000001</ele><time>2026-04-04T08:47:38.715Z</time></trkpt><trkpt lat="38.1148464" lon="14.9161916"><ele>887.0</ele><time>2026-04-04T08:47:41.714Z</time></trkpt><trkpt lat="38.1149123" lon="14.9162701"><ele>888.5</ele><time>2026-04-04T08:47:44.714Z</time></trkpt><trkpt lat="38.1149626" lon="14.9163412"><ele>890.0</ele><time>2026-04-04T08:47:46.715Z</time></trkpt><trkpt lat="38.115015" lon="14.9164203"><ele>891.5000000000001</ele><time>2026-04-04T08:47:49.715Z</time></trkpt><trkpt lat="38.1150433" lon="14.9164983"><ele>893.0</ele><time>2026-04-04T08:48:08.714Z</time></trkpt><trkpt lat="38.115065" lon="14.9165933"><ele>887.6666666666667</ele><time>2026-04-04T08:48:11.715Z</time></trkpt><trkpt lat="38.1150633" lon="14.91669"><ele>882.3333333333334</ele><time>2026-04-04T08:48:14.716Z</time></trkpt><trkpt lat="38.1151267" lon="14.9166633"><ele>877.0</ele><time>2026-04-04T08:48:20.715Z</time></trkpt><trkpt lat="38.11517" lon="14.9165883"><ele>871.6666666666667</ele><time>2026-04-04T08:48:22.716Z</time></trkpt><trkpt lat="38.11522" lon="14.9164833"><ele>866.3333333333334</ele><time>2026-04-04T08:48:25.716Z</time></trkpt><trkpt lat="38.1152683" lon="14.9164083"><ele>861.0</ele><time>2026-04-04T08:48:28.716Z</time></trkpt><trkpt lat="38.11531" lon="14.91634"><ele>861.0</ele><time>2026-04-04T08:48:32.716Z</time></trkpt><trkpt lat="38.11537" lon="14.9162767"><ele>861.0</ele><time>2026-04-04T08:48:35.716Z</time></trkpt><trkpt lat="38.1154433" lon="14.9163067"><ele>861.0</ele><time>2026-04-04T08:48:39.716Z</time></trkpt><trkpt lat="38.1155133" lon="14.9163483"><ele>861.0</ele><time>2026-04-04T08:48:42.715Z</time></trkpt><trkpt lat="38.1155786" lon="14.9163843"><ele>861.0</ele><time>2026-04-04T08:48:45.716Z</time></trkpt><trkpt lat="38.1156482" lon="14.9164581"><ele>861.0</ele><time>2026-04-04T08:49:17.715Z</time></trkpt><trkpt lat="38.115692" lon="14.9165244"><ele>861.0</ele><time>2026-04-04T08:49:19.716Z</time></trkpt><trkpt lat="38.115713" lon="14.9166374"><ele>861.0</ele><time>2026-04-04T08:49:22.716Z</time></trkpt><trkpt lat="38.1157122" lon="14.9167328"><ele>861.0</ele><time>2026-04-04T08:49:24.716Z</time></trkpt><trkpt lat="38.1157115" lon="14.9168484"><ele>861.0</ele><time>2026-04-04T08:49:26.716Z</time></trkpt><trkpt lat="38.1157299" lon="14.9169333"><ele>861.0</ele><time>2026-04-04T08:49:28.715Z</time></trkpt><trkpt lat="38.1157497" lon="14.9170173"><ele>861.0</ele><time>2026-04-04T08:49:31.716Z</time></trkpt><trkpt lat="38.115732" lon="14.917114"><ele>858.6666666666666</ele><time>2026-04-04T08:49:42.716Z</time></trkpt><trkpt lat="38.1156815" lon="14.9171851"><ele>856.3333333333333</ele><time>2026-04-04T08:49:45.716Z</time></trkpt><trkpt lat="38.1156318" lon="14.9172403"><ele>854.0</ele><time>2026-04-04T08:49:47.716Z</time></trkpt><trkpt lat="38.1155417" lon="14.9173238"><ele>851.6666666666666</ele><time>2026-04-04T08:49:49.716Z</time></trkpt><trkpt lat="38.1154898" lon="14.9173711"><ele>849.3333333333333</ele><time>2026-04-04T08:49:50.715Z</time></trkpt><trkpt lat="38.1154299" lon="14.9174158"><ele>847.0</ele><time>2026-04-04T08:49:51.716Z</time></trkpt><trkpt lat="38.1153679" lon="14.9174528"><ele>846.9999999999999</ele><time>2026-04-04T08:49:52.715Z</time></trkpt><trkpt lat="38.1153076" lon="14.9174923"><ele>847.0</ele><time>2026-04-04T08:49:53.716Z</time></trkpt><trkpt lat="38.1152444" lon="14.9175378"><ele>847.0</ele><time>2026-04-04T08:49:54.716Z</time></trkpt><trkpt lat="38.1151886" lon="14.9175884"><ele>847.0</ele><time>2026-04-04T08:49:55.715Z</time></trkpt><trkpt lat="38.1151399" lon="14.9176428"><ele>846.9999999999999</ele><time>2026-04-04T08:49:56.716Z</time></trkpt><trkpt lat="38.1150655" lon="14.9177205"><ele>847.0</ele><time>2026-04-04T08:49:58.716Z</time></trkpt><trkpt lat="38.1149835" lon="14.917793"><ele>849.8</ele><time>2026-04-04T08:50:00.715Z</time></trkpt><trkpt lat="38.1148661" lon="14.9178917"><ele>852.6</ele><time>2026-04-04T08:50:02.716Z</time></trkpt><trkpt lat="38.114796" lon="14.9179534"><ele>855.3999999999999</ele><time>2026-04-04T08:50:03.716Z</time></trkpt><trkpt lat="38.1147102" lon="14.9180275"><ele>858.1999999999999</ele><time>2026-04-04T08:50:04.716Z</time></trkpt><trkpt lat="38.1146234" lon="14.9180935"><ele>861.0</ele><time>2026-04-04T08:50:05.716Z</time></trkpt><trkpt lat="38.1145167" lon="14.9181683"><ele>861.0</ele><time>2026-04-04T08:50:06.716Z</time></trkpt><trkpt lat="38.1143997" lon="14.9182537"><ele>861.0</ele><time>2026-04-04T08:50:07.716Z</time></trkpt><trkpt lat="38.1142909" lon="14.9183426"><ele>861.0</ele><time>2026-04-04T08:50:08.715Z</time></trkpt><trkpt lat="38.114198" lon="14.9184199"><ele>861.0</ele><time>2026-04-04T08:50:09.716Z</time></trkpt><trkpt lat="38.1140999" lon="14.9184847"><ele>858.75</ele><time>2026-04-04T08:50:10.715Z</time></trkpt><trkpt lat="38.1139798" lon="14.9185426"><ele>856.5</ele><time>2026-04-04T08:50:11.715Z</time></trkpt><trkpt lat="38.1138638" lon="14.9186003"><ele>854.25</ele><time>2026-04-04T08:50:12.716Z</time></trkpt><trkpt lat="38.1137607" lon="14.9186633"><ele>852.0</ele><time>2026-04-04T08:50:13.716Z</time></trkpt><trkpt lat="38.1136732" lon="14.9187219"><ele>852.0</ele><time>2026-04-04T08:50:14.715Z</time></trkpt><trkpt lat="38.1136019" lon="14.918785"><ele>852.0</ele><time>2026-04-04T08:50:15.715Z</time></trkpt><trkpt lat="38.1135381" lon="14.9188429"><ele>852.0</ele><time>2026-04-04T08:50:16.716Z</time></trkpt><trkpt lat="38.1134848" lon="14.9188887"><ele>852.0</ele><time>2026-04-04T08:50:17.716Z</time></trkpt><trkpt lat="38.1133975" lon="14.9189327"><ele>852.0</ele><time>2026-04-04T08:50:19.715Z</time></trkpt><trkpt lat="38.1132962" lon="14.9189618"><ele>852.0</ele><time>2026-04-04T08:50:21.716Z</time></trkpt><trkpt lat="38.1132289" lon="14.9189741"><ele>853.1666666666666</ele><time>2026-04-04T08:50:22.716Z</time></trkpt><trkpt lat="38.113156" lon="14.9189997"><ele>854.3333333333333</ele><time>2026-04-04T08:50:23.715Z</time></trkpt><trkpt lat="38.1130598" lon="14.9190319"><ele>855.5</ele><time>2026-04-04T08:50:24.715Z</time></trkpt><trkpt lat="38.1129615" lon="14.9190561"><ele>856.6666666666666</ele><time>2026-04-04T08:50:25.716Z</time></trkpt><trkpt lat="38.1128743" lon="14.9190725"><ele>857.8333333333333</ele><time>2026-04-04T08:50:26.716Z</time></trkpt><trkpt lat="38.1128041" lon="14.9190914"><ele>859.0</ele><time>2026-04-04T08:50:27.716Z</time></trkpt><trkpt lat="38.1127145" lon="14.9191541"><ele>858.9999999999999</ele><time>2026-04-04T08:50:29.715Z</time></trkpt><trkpt lat="38.112682" lon="14.9192299"><ele>859.0</ele><time>2026-04-04T08:50:31.715Z</time></trkpt><trkpt lat="38.1125795" lon="14.9192615"><ele>859.0</ele><time>2026-04-04T09:01:49.718Z</time></trkpt><trkpt lat="38.1126367" lon="14.9193033"><ele>859.0</ele><time>2026-04-04T09:19:01.72Z</time></trkpt><trkpt lat="38.11256" lon="14.9193033"><ele>858.9999999999999</ele><time>2026-04-04T09:19:04.72Z</time></trkpt><trkpt lat="38.1126167" lon="14.91935"><ele>859.0</ele><time>2026-04-04T09:19:13.721Z</time></trkpt><trkpt lat="38.1127" lon="14.919245"><ele>859.0</ele><time>2026-04-04T09:19:37.72Z</time></trkpt><trkpt lat="38.1127417" lon="14.9191783"><ele>859.0000000000001</ele><time>2026-04-04T09:19:38.72Z</time></trkpt><trkpt lat="38.112795" lon="14.9190917"><ele>859.0000000000001</ele><time>2026-04-04T09:19:39.721Z</time></trkpt><trkpt lat="38.1128633" lon="14.9190067"><ele>859.0</ele><time>2026-04-04T09:19:40.721Z</time></trkpt><trkpt lat="38.1129233" lon="14.918915"><ele>859.0</ele><time>2026-04-04T09:19:41.72Z</time></trkpt><trkpt lat="38.1129967" lon="14.9188133"><ele>859.0</ele><time>2026-04-04T09:19:42.72Z</time></trkpt><trkpt lat="38.113075" lon="14.9187317"><ele>859.0000000000001</ele><time>2026-04-04T09:19:43.721Z</time></trkpt><trkpt lat="38.1131483" lon="14.9186683"><ele>859.0000000000001</ele><time>2026-04-04T09:19:44.721Z</time></trkpt><trkpt lat="38.113235" lon="14.91861"><ele>859.0</ele><time>2026-04-04T09:19:45.721Z</time></trkpt><trkpt lat="38.113315" lon="14.91853"><ele>859.0</ele><time>2026-04-04T09:19:46.721Z</time></trkpt><trkpt lat="38.1134" lon="14.91844"><ele>865.75</ele><time>2026-04-04T09:19:47.721Z</time></trkpt><trkpt lat="38.1134883" lon="14.9183233"><ele>872.5</ele><time>2026-04-04T09:19:48.72Z</time></trkpt><trkpt lat="38.1135733" lon="14.9182017"><ele>879.25</ele><time>2026-04-04T09:19:49.721Z</time></trkpt><trkpt lat="38.113665" lon="14.9181067"><ele>886.0</ele><time>2026-04-04T09:19:50.72Z</time></trkpt><trkpt lat="38.1137531" lon="14.9180327"><ele>885.9999999999999</ele><time>2026-04-04T09:19:51.72Z</time></trkpt><trkpt lat="38.1138388" lon="14.9179824"><ele>886.0</ele><time>2026-04-04T09:19:52.72Z</time></trkpt><trkpt lat="38.1139039" lon="14.9179452"><ele>886.0</ele><time>2026-04-04T09:19:53.72Z</time></trkpt><trkpt lat="38.1139773" lon="14.9178622"><ele>886.0</ele><time>2026-04-04T09:19:55.72Z</time></trkpt><trkpt lat="38.114015" lon="14.9177959"><ele>885.9999999999999</ele><time>2026-04-04T09:19:56.721Z</time></trkpt><trkpt lat="38.114064" lon="14.917695"><ele>886.0</ele><time>2026-04-04T09:19:57.72Z</time></trkpt><trkpt lat="38.114111" lon="14.9175695"><ele>885.5999999999999</ele><time>2026-04-04T09:19:58.721Z</time></trkpt><trkpt lat="38.1141545" lon="14.9174497"><ele>885.1999999999999</ele><time>2026-04-04T09:19:59.721Z</time></trkpt><trkpt lat="38.1141879" lon="14.9173386"><ele>884.8000000000001</ele><time>2026-04-04T09:20:00.72Z</time></trkpt><trkpt lat="38.1142141" lon="14.9172337"><ele>884.4000000000001</ele><time>2026-04-04T09:20:01.72Z</time></trkpt><trkpt lat="38.1142307" lon="14.9171386"><ele>884.0</ele><time>2026-04-04T09:20:02.721Z</time></trkpt><trkpt lat="38.1142389" lon="14.917009"><ele>884.0000000000001</ele><time>2026-04-04T09:20:04.72Z</time></trkpt><trkpt lat="38.114171" lon="14.9170435"><ele>884.0</ele><time>2026-04-04T09:20:09.721Z</time></trkpt><trkpt lat="38.1141609" lon="14.9171799"><ele>884.0</ele><time>2026-04-04T09:20:11.721Z</time></trkpt><trkpt lat="38.1141415" lon="14.9172727"><ele>884.0</ele><time>2026-04-04T09:20:12.72Z</time></trkpt><trkpt lat="38.1141168" lon="14.917371"><ele>884.0000000000001</ele><time>2026-04-04T09:20:13.721Z</time></trkpt><trkpt lat="38.1140891" lon="14.9174757"><ele>884.0</ele><time>2026-04-04T09:20:14.72Z</time></trkpt><trkpt lat="38.1140609" lon="14.9175828"><ele>884.3333333333334</ele><time>2026-04-04T09:20:15.721Z</time></trkpt><trkpt lat="38.1140331" lon="14.9176909"><ele>884.6666666666667</ele><time>2026-04-04T09:20:16.721Z</time></trkpt><trkpt lat="38.1139932" lon="14.9178013"><ele>885.0</ele><time>2026-04-04T09:20:17.72Z</time></trkpt><trkpt lat="38.1139493" lon="14.9178955"><ele>885.3333333333333</ele><time>2026-04-04T09:20:18.72Z</time></trkpt><trkpt lat="38.1139006" lon="14.9179743"><ele>885.6666666666666</ele><time>2026-04-04T09:20:19.721Z</time></trkpt><trkpt lat="38.1138476" lon="14.9180379"><ele>886.0</ele><time>2026-04-04T09:20:20.721Z</time></trkpt><trkpt lat="38.1137885" lon="14.9180913"><ele>885.9999999999999</ele><time>2026-04-04T09:20:21.721Z</time></trkpt><trkpt lat="38.1137174" lon="14.9181432"><ele>886.0</ele><time>2026-04-04T09:20:22.721Z</time></trkpt><trkpt lat="38.1136444" lon="14.918195"><ele>886.0</ele><time>2026-04-04T09:20:23.721Z</time></trkpt><trkpt lat="38.1135737" lon="14.9182525"><ele>886.0</ele><time>2026-04-04T09:20:24.72Z</time></trkpt><trkpt lat="38.1135096" lon="14.918316"><ele>885.9999999999999</ele><time>2026-04-04T09:20:25.72Z</time></trkpt><trkpt lat="38.1134425" lon="14.9183842"><ele>886.0</ele><time>2026-04-04T09:20:26.72Z</time></trkpt><trkpt lat="38.1133693" lon="14.918457"><ele>881.4999999999999</ele><time>2026-04-04T09:20:27.721Z</time></trkpt><trkpt lat="38.1132912" lon="14.9185268"><ele>877.0</ele><time>2026-04-04T09:20:28.72Z</time></trkpt><trkpt lat="38.1132119" lon="14.9185876"><ele>872.5</ele><time>2026-04-04T09:20:29.721Z</time></trkpt><trkpt lat="38.1131269" lon="14.9186447"><ele>868.0</ele><time>2026-04-04T09:20:30.721Z</time></trkpt><trkpt lat="38.1130518" lon="14.9186962"><ele>863.4999999999999</ele><time>2026-04-04T09:20:31.72Z</time></trkpt><trkpt lat="38.1129883" lon="14.918749"><ele>859.0</ele><time>2026-04-04T09:20:32.721Z</time></trkpt><trkpt lat="38.1129267" lon="14.9188027"><ele>858.9999999999999</ele><time>2026-04-04T09:20:33.72Z</time></trkpt><trkpt lat="38.112867" lon="14.9188659"><ele>859.0</ele><time>2026-04-04T09:20:34.721Z</time></trkpt><trkpt lat="38.1128129" lon="14.9189378"><ele>859.0</ele><time>2026-04-04T09:20:35.721Z</time></trkpt><trkpt lat="38.1127667" lon="14.9190023"><ele>859.0</ele><time>2026-04-04T09:20:36.721Z</time></trkpt><trkpt lat="38.1126953" lon="14.919116"><ele>858.9999999999999</ele><time>2026-04-04T09:20:38.721Z</time></trkpt><trkpt lat="38.1127285" lon="14.9192074"><ele>859.0</ele><time>2026-04-04T09:20:40.72Z</time></trkpt><trkpt lat="38.1128587" lon="14.9192339"><ele>859.0</ele><time>2026-04-04T09:20:42.721Z</time></trkpt><trkpt lat="38.1129451" lon="14.9192339"><ele>859.0000000000001</ele><time>2026-04-04T09:20:43.721Z</time></trkpt><trkpt lat="38.1130349" lon="14.9192238"><ele>859.0000000000001</ele><time>2026-04-04T09:20:44.721Z</time></trkpt><trkpt lat="38.1131288" lon="14.9192053"><ele>859.0</ele><time>2026-04-04T09:20:45.721Z</time></trkpt><trkpt lat="38.1132258" lon="14.9191756"><ele>859.0</ele><time>2026-04-04T09:20:46.72Z</time></trkpt><trkpt lat="38.113327" lon="14.919137"><ele>857.25</ele><time>2026-04-04T09:20:47.72Z</time></trkpt><trkpt lat="38.1134292" lon="14.9190911"><ele>855.5</ele><time>2026-04-04T09:20:48.72Z</time></trkpt><trkpt lat="38.1135508" lon="14.9190341"><ele>853.75</ele><time>2026-04-04T09:20:49.72Z</time></trkpt><trkpt lat="38.1136655" lon="14.9189755"><ele>852.0</ele><time>2026-04-04T09:20:50.721Z</time></trkpt><trkpt lat="38.1137727" lon="14.9189177"><ele>852.0</ele><time>2026-04-04T09:20:51.72Z</time></trkpt><trkpt lat="38.1138774" lon="14.9188593"><ele>852.0</ele><time>2026-04-04T09:20:52.72Z</time></trkpt><trkpt lat="38.1139785" lon="14.9188041"><ele>852.0</ele><time>2026-04-04T09:20:53.721Z</time></trkpt><trkpt lat="38.1140747" lon="14.9187461"><ele>852.0</ele><time>2026-04-04T09:20:54.72Z</time></trkpt><trkpt lat="38.1141803" lon="14.9186737"><ele>853.8</ele><time>2026-04-04T09:20:55.721Z</time></trkpt><trkpt lat="38.1142859" lon="14.9185972"><ele>855.6</ele><time>2026-04-04T09:20:56.721Z</time></trkpt><trkpt lat="38.1143674" lon="14.9185284"><ele>857.3999999999999</ele><time>2026-04-04T09:20:57.721Z</time></trkpt><trkpt lat="38.114447" lon="14.91845"><ele>859.1999999999999</ele><time>2026-04-04T09:20:58.721Z</time></trkpt><trkpt lat="38.1145189" lon="14.9183864"><ele>861.0</ele><time>2026-04-04T09:20:59.722Z</time></trkpt><trkpt lat="38.1145813" lon="14.9183216"><ele>861.0</ele><time>2026-04-04T09:21:00.722Z</time></trkpt><trkpt lat="38.1146446" lon="14.9182472"><ele>860.9999999999999</ele><time>2026-04-04T09:21:01.721Z</time></trkpt><trkpt lat="38.1147073" lon="14.9181574"><ele>860.9999999999999</ele><time>2026-04-04T09:21:02.722Z</time></trkpt><trkpt lat="38.1147774" lon="14.9180559"><ele>861.0</ele><time>2026-04-04T09:21:03.721Z</time></trkpt><trkpt lat="38.1148422" lon="14.9179776"><ele>861.0</ele><time>2026-04-04T09:21:04.722Z</time></trkpt><trkpt lat="38.1149034" lon="14.9179103"><ele>858.1999999999999</ele><time>2026-04-04T09:21:05.721Z</time></trkpt><trkpt lat="38.1149748" lon="14.9178369"><ele>855.3999999999999</ele><time>2026-04-04T09:21:06.721Z</time></trkpt><trkpt lat="38.1150461" lon="14.917757"><ele>852.6</ele><time>2026-04-04T09:21:07.721Z</time></trkpt><trkpt lat="38.1151112" lon="14.9176806"><ele>849.8</ele><time>2026-04-04T09:21:08.722Z</time></trkpt><trkpt lat="38.1151795" lon="14.917608"><ele>847.0</ele><time>2026-04-04T09:21:09.722Z</time></trkpt><trkpt lat="38.1152564" lon="14.9175482"><ele>847.0</ele><time>2026-04-04T09:21:10.722Z</time></trkpt><trkpt lat="38.1153236" lon="14.9174981"><ele>847.0</ele><time>2026-04-04T09:21:11.722Z</time></trkpt><trkpt lat="38.1153906" lon="14.9174503"><ele>847.0</ele><time>2026-04-04T09:21:12.722Z</time></trkpt><trkpt lat="38.1154473" lon="14.9173942"><ele>847.0</ele><time>2026-04-04T09:21:13.722Z</time></trkpt><trkpt lat="38.1155048" lon="14.9173392"><ele>847.0</ele><time>2026-04-04T09:21:14.721Z</time></trkpt><trkpt lat="38.1155603" lon="14.9172829"><ele>847.0</ele><time>2026-04-04T09:21:15.721Z</time></trkpt><trkpt lat="38.115615" lon="14.9172302"><ele>847.0</ele><time>2026-04-04T09:21:16.722Z</time></trkpt><trkpt lat="38.1156871" lon="14.91714"><ele>838.4000000000001</ele><time>2026-04-04T09:21:18.722Z</time></trkpt><trkpt lat="38.1157503" lon="14.9170046"><ele>829.8000000000001</ele><time>2026-04-04T09:21:20.722Z</time></trkpt><trkpt lat="38.1157808" lon="14.9168696"><ele>821.2</ele><time>2026-04-04T09:21:22.722Z</time></trkpt><trkpt lat="38.1158228" lon="14.9167854"><ele>812.6</ele><time>2026-04-04T09:21:24.722Z</time></trkpt><trkpt lat="38.1158873" lon="14.9168325"><ele>804.0</ele><time>2026-04-04T09:21:26.721Z</time></trkpt><trkpt lat="38.1159041" lon="14.9169117"><ele>804.0</ele><time>2026-04-04T09:21:27.722Z</time></trkpt><trkpt lat="38.1159169" lon="14.9169964"><ele>804.0</ele><time>2026-04-04T09:21:28.722Z</time></trkpt><trkpt lat="38.11592" lon="14.9170967"><ele>804.0</ele><time>2026-04-04T09:21:29.722Z</time></trkpt><trkpt lat="38.1159083" lon="14.917185"><ele>804.0</ele><time>2026-04-04T09:21:30.722Z</time></trkpt><trkpt lat="38.115885" lon="14.9172667"><ele>804.0</ele><time>2026-04-04T09:21:31.722Z</time></trkpt><trkpt lat="38.11584" lon="14.9173483"><ele>804.0</ele><time>2026-04-04T09:21:32.721Z</time></trkpt><trkpt lat="38.11578" lon="14.9174267"><ele>806.5</ele><time>2026-04-04T09:21:33.722Z</time></trkpt><trkpt lat="38.1157283" lon="14.9175"><ele>809.0</ele><time>2026-04-04T09:21:34.722Z</time></trkpt><trkpt lat="38.1156817" lon="14.9175867"><ele>811.5</ele><time>2026-04-04T09:21:35.722Z</time></trkpt><trkpt lat="38.1156367" lon="14.917685"><ele>814.0</ele><time>2026-04-04T09:21:36.722Z</time></trkpt><trkpt lat="38.1156017" lon="14.9177817"><ele>816.5</ele><time>2026-04-04T09:21:37.722Z</time></trkpt><trkpt lat="38.115575" lon="14.917885"><ele>819.0</ele><time>2026-04-04T09:21:38.721Z</time></trkpt><trkpt lat="38.1155417" lon="14.917985"><ele>819.0</ele><time>2026-04-04T09:21:39.722Z</time></trkpt><trkpt lat="38.1154983" lon="14.9180767"><ele>819.0</ele><time>2026-04-04T09:21:40.722Z</time></trkpt><trkpt lat="38.1154433" lon="14.918165"><ele>819.0</ele><time>2026-04-04T09:21:41.722Z</time></trkpt><trkpt lat="38.11538" lon="14.9182367"><ele>819.0</ele><time>2026-04-04T09:21:42.722Z</time></trkpt><trkpt lat="38.11532" lon="14.9183133"><ele>819.0</ele><time>2026-04-04T09:21:43.722Z</time></trkpt><trkpt lat="38.1152717" lon="14.9184083"><ele>819.0</ele><time>2026-04-04T09:21:44.722Z</time></trkpt><trkpt lat="38.1152283" lon="14.9185017"><ele>814.3333333333334</ele><time>2026-04-04T09:21:45.721Z</time></trkpt><trkpt lat="38.115195" lon="14.9186033"><ele>809.6666666666667</ele><time>2026-04-04T09:21:46.722Z</time></trkpt><trkpt lat="38.115155" lon="14.918695"><ele>805.0</ele><time>2026-04-04T09:21:47.722Z</time></trkpt><trkpt lat="38.1150967" lon="14.91877"><ele>800.3333333333334</ele><time>2026-04-04T09:21:48.722Z</time></trkpt><trkpt lat="38.115035" lon="14.9188133"><ele>795.6666666666667</ele><time>2026-04-04T09:21:49.721Z</time></trkpt><trkpt lat="38.1149783" lon="14.91892"><ele>791.0</ele><time>2026-04-04T09:21:51.722Z</time></trkpt><trkpt lat="38.1149717" lon="14.9190683"><ele>791.0000000000001</ele><time>2026-04-04T09:21:53.722Z</time></trkpt><trkpt lat="38.1149333" lon="14.9192217"><ele>791.0</ele><time>2026-04-04T09:21:55.722Z</time></trkpt><trkpt lat="38.114905" lon="14.9192933"><ele>791.0</ele><time>2026-04-04T09:21:56.722Z</time></trkpt><trkpt lat="38.1148817" lon="14.91937"><ele>791.0</ele><time>2026-04-04T09:21:57.722Z</time></trkpt><trkpt lat="38.1148533" lon="14.9194417"><ele>791.0000000000001</ele><time>2026-04-04T09:21:58.722Z</time></trkpt><trkpt lat="38.1148133" lon="14.9195133"><ele>791.0</ele><time>2026-04-04T09:21:59.722Z</time></trkpt><trkpt lat="38.1147517" lon="14.9195817"><ele>790.7142857142857</ele><time>2026-04-04T09:22:00.722Z</time></trkpt><trkpt lat="38.1146883" lon="14.9196383"><ele>790.4285714285714</ele><time>2026-04-04T09:22:01.721Z</time></trkpt><trkpt lat="38.114625" lon="14.9196867"><ele>790.1428571428571</ele><time>2026-04-04T09:22:02.722Z</time></trkpt><trkpt lat="38.1145567" lon="14.91973"><ele>789.8571428571429</ele><time>2026-04-04T09:22:03.721Z</time></trkpt><trkpt lat="38.1144967" lon="14.9197667"><ele>789.5714285714286</ele><time>2026-04-04T09:22:04.721Z</time></trkpt><trkpt lat="38.114435" lon="14.9198067"><ele>789.2857142857142</ele><time>2026-04-04T09:22:05.722Z</time></trkpt><trkpt lat="38.114375" lon="14.9198467"><ele>789.0</ele><time>2026-04-04T09:22:06.722Z</time></trkpt><trkpt lat="38.1143233" lon="14.9198933"><ele>788.9999999999999</ele><time>2026-04-04T09:22:07.722Z</time></trkpt><trkpt lat="38.11427" lon="14.9199467"><ele>789.0</ele><time>2026-04-04T09:22:08.722Z</time></trkpt><trkpt lat="38.1142167" lon="14.9200033"><ele>789.0</ele><time>2026-04-04T09:22:09.722Z</time></trkpt><trkpt lat="38.11416" lon="14.9200717"><ele>789.0</ele><time>2026-04-04T09:22:10.721Z</time></trkpt><trkpt lat="38.1141083" lon="14.9201367"><ele>789.0</ele><time>2026-04-04T09:22:11.722Z</time></trkpt><trkpt lat="38.1140583" lon="14.9202"><ele>788.9999999999999</ele><time>2026-04-04T09:22:12.722Z</time></trkpt><trkpt lat="38.114005" lon="14.92026"><ele>789.0</ele><time>2026-04-04T09:22:13.721Z</time></trkpt><trkpt lat="38.113945" lon="14.9203133"><ele>787.1666666666666</ele><time>2026-04-04T09:22:14.721Z</time></trkpt><trkpt lat="38.1138783" lon="14.9203567"><ele>785.3333333333333</ele><time>2026-04-04T09:22:15.721Z</time></trkpt><trkpt lat="38.1138117" lon="14.9203917"><ele>783.5</ele><time>2026-04-04T09:22:16.721Z</time></trkpt><trkpt lat="38.11375" lon="14.920415"><ele>781.6666666666666</ele><time>2026-04-04T09:22:17.721Z</time></trkpt><trkpt lat="38.11369" lon="14.9204433"><ele>779.8333333333333</ele><time>2026-04-04T09:22:18.722Z</time></trkpt><trkpt lat="38.1135933" lon="14.9205033"><ele>778.0</ele><time>2026-04-04T09:22:20.722Z</time></trkpt><trkpt lat="38.1135167" lon="14.9206033"><ele>777.9999999999999</ele><time>2026-04-04T09:22:22.722Z</time></trkpt><trkpt lat="38.1134333" lon="14.9207"><ele>778.0</ele><time>2026-04-04T09:22:24.722Z</time></trkpt><trkpt lat="38.1133767" lon="14.9207433"><ele>778.0</ele><time>2026-04-04T09:22:25.722Z</time></trkpt><trkpt lat="38.1133133" lon="14.9207833"><ele>778.0</ele><time>2026-04-04T09:22:26.722Z</time></trkpt><trkpt lat="38.11325" lon="14.9208117"><ele>777.9999999999999</ele><time>2026-04-04T09:22:27.722Z</time></trkpt><trkpt lat="38.1131833" lon="14.92081"><ele>778.0</ele><time>2026-04-04T09:22:28.722Z</time></trkpt><trkpt lat="38.1130567" lon="14.9208183"><ele>775.9999999999999</ele><time>2026-04-04T09:22:30.722Z</time></trkpt><trkpt lat="38.1129767" lon="14.9208417"><ele>774.0</ele><time>2026-04-04T09:22:31.722Z</time></trkpt><trkpt lat="38.1129017" lon="14.9208567"><ele>772.0</ele><time>2026-04-04T09:22:32.721Z</time></trkpt><trkpt lat="38.11282" lon="14.920845"><ele>770.0</ele><time>2026-04-04T09:22:33.721Z</time></trkpt><trkpt lat="38.1127383" lon="14.9208267"><ele>768.0</ele><time>2026-04-04T09:22:34.721Z</time></trkpt><trkpt lat="38.1126533" lon="14.9208067"><ele>766.0</ele><time>2026-04-04T09:22:35.722Z</time></trkpt><trkpt lat="38.112575" lon="14.9207883"><ele>766.0</ele><time>2026-04-04T09:22:36.722Z</time></trkpt><trkpt lat="38.112495" lon="14.9207783"><ele>766.0</ele><time>2026-04-04T09:22:37.721Z</time></trkpt><trkpt lat="38.11242" lon="14.92078"><ele>766.0</ele><time>2026-04-04T09:22:38.722Z</time></trkpt><trkpt lat="38.1123417" lon="14.9207767"><ele>766.0</ele><time>2026-04-04T09:22:39.722Z</time></trkpt><trkpt lat="38.1122617" lon="14.9207633"><ele>766.0</ele><time>2026-04-04T09:22:40.722Z</time></trkpt><trkpt lat="38.1121817" lon="14.9207517"><ele>766.0</ele><time>2026-04-04T09:22:41.722Z</time></trkpt><trkpt lat="38.112115" lon="14.920735"><ele>761.6666666666667</ele><time>2026-04-04T09:22:42.722Z</time></trkpt><trkpt lat="38.11204" lon="14.9207267"><ele>757.3333333333334</ele><time>2026-04-04T09:22:43.721Z</time></trkpt><trkpt lat="38.1119683" lon="14.9207067"><ele>753.0</ele><time>2026-04-04T09:22:44.722Z</time></trkpt><trkpt lat="38.1118983" lon="14.9206783"><ele>748.6666666666666</ele><time>2026-04-04T09:22:45.722Z</time></trkpt><trkpt lat="38.111825" lon="14.920635"><ele>744.3333333333333</ele><time>2026-04-04T09:22:46.721Z</time></trkpt><trkpt lat="38.1117533" lon="14.920585"><ele>740.0</ele><time>2026-04-04T09:22:47.721Z</time></trkpt><trkpt lat="38.111685" lon="14.9205317"><ele>740.0</ele><time>2026-04-04T09:22:48.721Z</time></trkpt><trkpt lat="38.11162" lon="14.9204917"><ele>740.0</ele><time>2026-04-04T09:22:49.722Z</time></trkpt><trkpt lat="38.1115567" lon="14.9204583"><ele>740.0</ele><time>2026-04-04T09:22:50.722Z</time></trkpt><trkpt lat="38.1114983" lon="14.92042"><ele>740.0</ele><time>2026-04-04T09:22:51.722Z</time></trkpt><trkpt lat="38.111415" lon="14.9203333"><ele>740.0</ele><time>2026-04-04T09:22:53.722Z</time></trkpt><trkpt lat="38.1113117" lon="14.9203233"><ele>740.0</ele><time>2026-04-04T09:22:56.722Z</time></trkpt><trkpt lat="38.1112" lon="14.9203717"><ele>741.0</ele><time>2026-04-04T09:22:58.721Z</time></trkpt><trkpt lat="38.1111317" lon="14.92038"><ele>742.0</ele><time>2026-04-04T09:22:59.722Z</time></trkpt><trkpt lat="38.11106" lon="14.9203633"><ele>743.0</ele><time>2026-04-04T09:23:00.722Z</time></trkpt><trkpt lat="38.110985" lon="14.9203433"><ele>744.0</ele><time>2026-04-04T09:23:01.722Z</time></trkpt><trkpt lat="38.1109" lon="14.9203017"><ele>745.0</ele><time>2026-04-04T09:23:02.722Z</time></trkpt><trkpt lat="38.1108017" lon="14.92025"><ele>746.0</ele><time>2026-04-04T09:23:03.722Z</time></trkpt><trkpt lat="38.11071" lon="14.92021"><ele>746.0</ele><time>2026-04-04T09:23:04.721Z</time></trkpt><trkpt lat="38.11063" lon="14.9201683"><ele>746.0</ele><time>2026-04-04T09:23:05.721Z</time></trkpt><trkpt lat="38.11056" lon="14.920125"><ele>746.0</ele><time>2026-04-04T09:23:06.721Z</time></trkpt><trkpt lat="38.1105083" lon="14.920075"><ele>746.0</ele><time>2026-04-04T09:23:07.721Z</time></trkpt><trkpt lat="38.110435" lon="14.9199833"><ele>746.0</ele><time>2026-04-04T09:23:09.721Z</time></trkpt><trkpt lat="38.110375" lon="14.9199383"><ele>746.0</ele><time>2026-04-04T09:23:10.722Z</time></trkpt><trkpt lat="38.1103117" lon="14.9199167"><ele>746.0</ele><time>2026-04-04T09:23:11.722Z</time></trkpt><trkpt lat="38.110195" lon="14.9199267"><ele>746.0</ele><time>2026-04-04T09:23:13.721Z</time></trkpt><trkpt lat="38.1101117" lon="14.9199817"><ele>746.0</ele><time>2026-04-04T09:23:15.722Z</time></trkpt><trkpt lat="38.110045" lon="14.9200817"><ele>746.0</ele><time>2026-04-04T09:23:17.721Z</time></trkpt><trkpt lat="38.1099733" lon="14.9201783"><ele>746.0</ele><time>2026-04-04T09:23:19.721Z</time></trkpt><trkpt lat="38.1099133" lon="14.920245"><ele>746.0</ele><time>2026-04-04T09:23:21.721Z</time></trkpt><trkpt lat="38.10984" lon="14.9202917"><ele>746.0</ele><time>2026-04-04T09:23:23.722Z</time></trkpt><trkpt lat="38.1098617" lon="14.9203783"><ele>746.0</ele><time>2026-04-04T09:23:26.721Z</time></trkpt><trkpt lat="38.1099483" lon="14.9204583"><ele>746.0</ele><time>2026-04-04T09:23:28.721Z</time></trkpt><trkpt lat="38.1099967" lon="14.9205633"><ele>746.0</ele><time>2026-04-04T09:23:30.722Z</time></trkpt><trkpt lat="38.1100133" lon="14.9207183"><ele>744.3333333333333</ele><time>2026-04-04T09:23:32.722Z</time></trkpt><trkpt lat="38.1100333" lon="14.92091"><ele>742.6666666666666</ele><time>2026-04-04T09:23:34.722Z</time></trkpt><trkpt lat="38.1100383" lon="14.920995"><ele>741.0</ele><time>2026-04-04T09:23:35.722Z</time></trkpt><trkpt lat="38.1100417" lon="14.9210967"><ele>739.3333333333334</ele><time>2026-04-04T09:23:36.721Z</time></trkpt><trkpt lat="38.1100333" lon="14.9211933"><ele>737.6666666666667</ele><time>2026-04-04T09:23:37.722Z</time></trkpt><trkpt lat="38.1100317" lon="14.921275"><ele>736.0</ele><time>2026-04-04T09:23:38.722Z</time></trkpt><trkpt lat="38.11002" lon="14.9213633"><ele>736.0</ele><time>2026-04-04T09:23:40.722Z</time></trkpt><trkpt lat="38.109945" lon="14.92136"><ele>736.0</ele><time>2026-04-04T09:23:53.722Z</time></trkpt><trkpt lat="38.1098767" lon="14.92141"><ele>736.0</ele><time>2026-04-04T09:23:55.722Z</time></trkpt><trkpt lat="38.10982" lon="14.92147"><ele>736.0</ele><time>2026-04-04T09:23:57.722Z</time></trkpt><trkpt lat="38.1097517" lon="14.9214983"><ele>736.0</ele><time>2026-04-04T09:23:59.721Z</time></trkpt><trkpt lat="38.1096817" lon="14.9215283"><ele>736.0</ele><time>2026-04-04T09:24:01.722Z</time></trkpt><trkpt lat="38.109625" lon="14.9216"><ele>743.0</ele><time>2026-04-04T09:24:04.722Z</time></trkpt><trkpt lat="38.10962" lon="14.921695"><ele>750.0</ele><time>2026-04-04T09:24:07.722Z</time></trkpt><trkpt lat="38.1096167" lon="14.921795"><ele>757.0</ele><time>2026-04-04T09:24:10.722Z</time></trkpt><trkpt lat="38.1095967" lon="14.921895"><ele>764.0</ele><time>2026-04-04T09:24:13.722Z</time></trkpt><trkpt lat="38.1096183" lon="14.9220033"><ele>770.9999999999999</ele><time>2026-04-04T09:24:16.722Z</time></trkpt><trkpt lat="38.1096367" lon="14.9221117"><ele>778.0</ele><time>2026-04-04T09:24:18.722Z</time></trkpt><trkpt lat="38.1096517" lon="14.9222117"><ele>779.1666666666666</ele><time>2026-04-04T09:24:20.722Z</time></trkpt><trkpt lat="38.1096767" lon="14.9223033"><ele>780.3333333333333</ele><time>2026-04-04T09:24:22.722Z</time></trkpt><trkpt lat="38.1096767" lon="14.9224017"><ele>781.5</ele><time>2026-04-04T09:24:24.722Z</time></trkpt><trkpt lat="38.10968" lon="14.922505"><ele>782.6666666666667</ele><time>2026-04-04T09:24:26.722Z</time></trkpt><trkpt lat="38.1096967" lon="14.9226133"><ele>783.8333333333334</ele><time>2026-04-04T09:24:28.721Z</time></trkpt><trkpt lat="38.1097067" lon="14.9227333"><ele>785.0</ele><time>2026-04-04T09:24:30.722Z</time></trkpt><trkpt lat="38.109725" lon="14.9228583"><ele>785.0000000000001</ele><time>2026-04-04T09:24:32.721Z</time></trkpt><trkpt lat="38.10977" lon="14.9230383"><ele>785.0</ele><time>2026-04-04T09:24:34.722Z</time></trkpt><trkpt lat="38.1098133" lon="14.9231217"><ele>785.0</ele><time>2026-04-04T09:24:35.722Z</time></trkpt><trkpt lat="38.1098467" lon="14.9231967"><ele>785.0</ele><time>2026-04-04T09:24:36.722Z</time></trkpt><trkpt lat="38.109865" lon="14.923275"><ele>785.0000000000001</ele><time>2026-04-04T09:24:37.721Z</time></trkpt><trkpt lat="38.1098133" lon="14.9233667"><ele>785.0</ele><time>2026-04-04T09:24:39.722Z</time></trkpt><trkpt lat="38.1097467" lon="14.9233833"><ele>785.0000000000001</ele><time>2026-04-04T09:24:40.722Z</time></trkpt><trkpt lat="38.10965" lon="14.923395"><ele>785.0</ele><time>2026-04-04T09:24:42.722Z</time></trkpt><trkpt lat="38.1095867" lon="14.9233367"><ele>785.0</ele><time>2026-04-04T09:24:47.721Z</time></trkpt><trkpt lat="38.10958" lon="14.923245"><ele>785.0</ele><time>2026-04-04T09:24:49.722Z</time></trkpt><trkpt lat="38.109585" lon="14.9231433"><ele>785.0000000000001</ele><time>2026-04-04T09:24:51.721Z</time></trkpt><trkpt lat="38.10954" lon="14.9230033"><ele>785.0</ele><time>2026-04-04T09:24:53.722Z</time></trkpt><trkpt lat="38.1094633" lon="14.9228933"><ele>785.0000000000001</ele><time>2026-04-04T09:24:55.722Z</time></trkpt><trkpt lat="38.1094" lon="14.9228083"><ele>785.0</ele><time>2026-04-04T09:24:57.722Z</time></trkpt><trkpt lat="38.1093317" lon="14.92272"><ele>785.0</ele><time>2026-04-04T09:24:59.722Z</time></trkpt><trkpt lat="38.1092833" lon="14.92264"><ele>785.0</ele><time>2026-04-04T09:25:01.722Z</time></trkpt><trkpt lat="38.1092533" lon="14.9225417"><ele>785.0000000000001</ele><time>2026-04-04T09:25:03.721Z</time></trkpt><trkpt lat="38.1092183" lon="14.92244"><ele>785.0</ele><time>2026-04-04T09:25:05.722Z</time></trkpt><trkpt lat="38.1091667" lon="14.9223483"><ele>785.5000000000001</ele><time>2026-04-04T09:25:07.721Z</time></trkpt><trkpt lat="38.1091083" lon="14.9222583"><ele>786.0</ele><time>2026-04-04T09:25:09.722Z</time></trkpt><trkpt lat="38.10909" lon="14.92215"><ele>786.5</ele><time>2026-04-04T09:25:11.722Z</time></trkpt><trkpt lat="38.109075" lon="14.9220483"><ele>787.0</ele><time>2026-04-04T09:25:13.721Z</time></trkpt><trkpt lat="38.10907" lon="14.9219667"><ele>787.5000000000001</ele><time>2026-04-04T09:25:21.722Z</time></trkpt><trkpt lat="38.1090483" lon="14.92189"><ele>788.0</ele><time>2026-04-04T09:25:26.722Z</time></trkpt><trkpt lat="38.1090183" lon="14.9218"><ele>795.8333333333334</ele><time>2026-04-04T09:25:30.721Z</time></trkpt><trkpt lat="38.1089583" lon="14.9216783"><ele>803.6666666666667</ele><time>2026-04-04T09:28:09.723Z</time></trkpt><trkpt lat="38.108895" lon="14.9217"><ele>811.5</ele><time>2026-04-04T09:28:12.723Z</time></trkpt><trkpt lat="38.1089083" lon="14.921795"><ele>819.3333333333333</ele><time>2026-04-04T09:28:15.723Z</time></trkpt><trkpt lat="38.1089567" lon="14.9218833"><ele>827.1666666666666</ele><time>2026-04-04T09:28:17.722Z</time></trkpt><trkpt lat="38.1089933" lon="14.9219633"><ele>835.0</ele><time>2026-04-04T09:28:19.723Z</time></trkpt><trkpt lat="38.1089933" lon="14.9220717"><ele>835.0</ele><time>2026-04-04T09:28:21.723Z</time></trkpt><trkpt lat="38.1089717" lon="14.9221617"><ele>835.0</ele><time>2026-04-04T09:28:23.723Z</time></trkpt><trkpt lat="38.10896" lon="14.92227"><ele>835.0</ele><time>2026-04-04T09:28:26.723Z</time></trkpt><trkpt lat="38.1089283" lon="14.9224"><ele>835.0</ele><time>2026-04-04T09:28:35.723Z</time></trkpt><trkpt lat="38.1088917" lon="14.9225233"><ele>835.0</ele><time>2026-04-04T09:28:37.723Z</time></trkpt><trkpt lat="38.1088817" lon="14.9226517"><ele>834.9999999999999</ele><time>2026-04-04T09:28:39.722Z</time></trkpt><trkpt lat="38.1088067" lon="14.9226217"><ele>835.0</ele><time>2026-04-04T09:29:00.723Z</time></trkpt><trkpt lat="38.1087767" lon="14.9225167"><ele>835.0</ele><time>2026-04-04T09:29:03.723Z</time></trkpt><trkpt lat="38.108755" lon="14.9224017"><ele>835.0</ele><time>2026-04-04T09:29:06.723Z</time></trkpt><trkpt lat="38.1087317" lon="14.922315"><ele>834.9999999999999</ele><time>2026-04-04T09:29:08.723Z</time></trkpt><trkpt lat="38.1086983" lon="14.9222317"><ele>835.0</ele><time>2026-04-04T09:29:10.723Z</time></trkpt><trkpt lat="38.1086967" lon="14.9221233"><ele>834.9999999999999</ele><time>2026-04-04T09:29:12.723Z</time></trkpt><trkpt lat="38.1086833" lon="14.9220417"><ele>835.0</ele><time>2026-04-04T09:29:14.723Z</time></trkpt><trkpt lat="38.108625" lon="14.9220783"><ele>835.0</ele><time>2026-04-04T09:29:18.723Z</time></trkpt><trkpt lat="38.108595" lon="14.9221567"><ele>835.0</ele><time>2026-04-04T09:29:20.722Z</time></trkpt><trkpt lat="38.1085767" lon="14.9222433"><ele>834.9999999999999</ele><time>2026-04-04T09:29:22.722Z</time></trkpt><trkpt lat="38.108585" lon="14.922355"><ele>835.0</ele><time>2026-04-04T09:29:34.723Z</time></trkpt><trkpt lat="38.10859" lon="14.922495"><ele>830.3333333333333</ele><time>2026-04-04T09:29:36.723Z</time></trkpt><trkpt lat="38.1086117" lon="14.9226183"><ele>825.6666666666666</ele><time>2026-04-04T09:29:38.723Z</time></trkpt><trkpt lat="38.1086367" lon="14.9227233"><ele>821.0</ele><time>2026-04-04T09:29:40.722Z</time></trkpt><trkpt lat="38.1086167" lon="14.9228133"><ele>816.3333333333333</ele><time>2026-04-04T09:29:42.723Z</time></trkpt><trkpt lat="38.108535" lon="14.9227983"><ele>811.6666666666666</ele><time>2026-04-04T09:29:45.723Z</time></trkpt><trkpt lat="38.1084967" lon="14.9226967"><ele>807.0</ele><time>2026-04-04T09:29:48.723Z</time></trkpt><trkpt lat="38.1084817" lon="14.9226117"><ele>807.0</ele><time>2026-04-04T09:29:51.723Z</time></trkpt><trkpt lat="38.1084417" lon="14.9225133"><ele>807.0</ele><time>2026-04-04T09:29:54.723Z</time></trkpt><trkpt lat="38.1083983" lon="14.9224483"><ele>807.0</ele><time>2026-04-04T09:29:56.723Z</time></trkpt><trkpt lat="38.1083367" lon="14.92253"><ele>807.0</ele><time>2026-04-04T09:29:59.723Z</time></trkpt><trkpt lat="38.1083417" lon="14.92264"><ele>807.0</ele><time>2026-04-04T09:30:01.723Z</time></trkpt><trkpt lat="38.1082833" lon="14.92267"><ele>807.0</ele><time>2026-04-04T09:30:04.723Z</time></trkpt><trkpt lat="38.1082567" lon="14.9225967"><ele>816.1666666666666</ele><time>2026-04-04T09:30:07.723Z</time></trkpt><trkpt lat="38.1082067" lon="14.9224817"><ele>825.3333333333333</ele><time>2026-04-04T09:30:10.723Z</time></trkpt><trkpt lat="38.1081883" lon="14.9223833"><ele>834.5</ele><time>2026-04-04T09:30:12.723Z</time></trkpt><trkpt lat="38.1081733" lon="14.9223"><ele>843.6666666666666</ele><time>2026-04-04T09:30:14.722Z</time></trkpt><trkpt lat="38.1081717" lon="14.9222"><ele>852.8333333333333</ele><time>2026-04-04T09:30:17.723Z</time></trkpt><trkpt lat="38.10817" lon="14.9220983"><ele>862.0</ele><time>2026-04-04T09:30:19.722Z</time></trkpt><trkpt lat="38.1081717" lon="14.922015"><ele>862.0</ele><time>2026-04-04T09:30:21.722Z</time></trkpt><trkpt lat="38.108155" lon="14.9219267"><ele>862.0</ele><time>2026-04-04T09:30:23.722Z</time></trkpt><trkpt lat="38.1081483" lon="14.921845"><ele>862.0</ele><time>2026-04-04T09:30:25.722Z</time></trkpt><trkpt lat="38.108145" lon="14.92175"><ele>862.0</ele><time>2026-04-04T09:30:27.722Z</time></trkpt><trkpt lat="38.10814" lon="14.92166"><ele>862.0</ele><time>2026-04-04T09:30:29.723Z</time></trkpt><trkpt lat="38.108135" lon="14.921565"><ele>862.0</ele><time>2026-04-04T09:30:31.723Z</time></trkpt><trkpt lat="38.1081083" lon="14.9214817"><ele>862.0</ele><time>2026-04-04T09:30:34.723Z</time></trkpt><trkpt lat="38.10806" lon="14.9215417"><ele>861.9999999999999</ele><time>2026-04-04T09:30:38.723Z</time></trkpt><trkpt lat="38.1080433" lon="14.9216417"><ele>862.0</ele><time>2026-04-04T09:30:41.723Z</time></trkpt><trkpt lat="38.107995" lon="14.9217383"><ele>862.0</ele><time>2026-04-04T09:30:43.722Z</time></trkpt><trkpt lat="38.1079467" lon="14.921825"><ele>862.0</ele><time>2026-04-04T09:30:45.723Z</time></trkpt><trkpt lat="38.1079017" lon="14.9219033"><ele>861.9999999999999</ele><time>2026-04-04T09:30:47.722Z</time></trkpt><trkpt lat="38.10788" lon="14.9219833"><ele>862.0</ele><time>2026-04-04T09:30:50.723Z</time></trkpt><trkpt lat="38.1078517" lon="14.92206"><ele>861.9999999999999</ele><time>2026-04-04T09:30:52.723Z</time></trkpt><trkpt lat="38.1077967" lon="14.9221283"><ele>862.0</ele><time>2026-04-04T09:30:55.722Z</time></trkpt><trkpt lat="38.1077883" lon="14.9220483"><ele>862.0</ele><time>2026-04-04T09:31:00.723Z</time></trkpt><trkpt lat="38.1078" lon="14.9219533"><ele>862.0</ele><time>2026-04-04T09:31:10.723Z</time></trkpt><trkpt lat="38.107825" lon="14.9218583"><ele>861.9999999999999</ele><time>2026-04-04T09:31:14.723Z</time></trkpt><trkpt lat="38.1078217" lon="14.92169"><ele>862.0</ele><time>2026-04-04T09:31:24.724Z</time></trkpt><trkpt lat="38.1077983" lon="14.92159"><ele>866.4999999999999</ele><time>2026-04-04T09:33:11.724Z</time></trkpt><trkpt lat="38.10777" lon="14.9214783"><ele>871.0</ele><time>2026-04-04T09:33:14.724Z</time></trkpt><trkpt lat="38.107745" lon="14.921385"><ele>875.5</ele><time>2026-04-04T09:33:26.724Z</time></trkpt><trkpt lat="38.107725" lon="14.9213067"><ele>880.0</ele><time>2026-04-04T09:33:29.724Z</time></trkpt><trkpt lat="38.1076867" lon="14.9211983"><ele>884.4999999999999</ele><time>2026-04-04T09:35:18.723Z</time></trkpt><trkpt lat="38.10765" lon="14.9210867"><ele>889.0</ele><time>2026-04-04T09:35:21.724Z</time></trkpt><trkpt lat="38.1076333" lon="14.9209917"><ele>888.9999999999999</ele><time>2026-04-04T09:35:24.724Z</time></trkpt><trkpt lat="38.1075767" lon="14.9208967"><ele>889.0</ele><time>2026-04-04T09:35:43.723Z</time></trkpt><trkpt lat="38.1075467" lon="14.92097"><ele>889.0</ele><time>2026-04-04T09:35:47.724Z</time></trkpt><trkpt lat="38.1075783" lon="14.92106"><ele>889.0</ele><time>2026-04-04T09:36:19.725Z</time></trkpt><trkpt lat="38.10759" lon="14.9211867"><ele>888.9999999999999</ele><time>2026-04-04T09:36:21.725Z</time></trkpt><trkpt lat="38.1075917" lon="14.9212767"><ele>889.0</ele><time>2026-04-04T09:36:22.724Z</time></trkpt><trkpt lat="38.1075933" lon="14.9213833"><ele>889.0</ele><time>2026-04-04T09:36:23.725Z</time></trkpt><trkpt lat="38.10759" lon="14.92152"><ele>889.0000000000001</ele><time>2026-04-04T09:36:24.725Z</time></trkpt><trkpt lat="38.1075783" lon="14.921675"><ele>889.0000000000001</ele><time>2026-04-04T09:36:25.725Z</time></trkpt><trkpt lat="38.10757" lon="14.9218183"><ele>889.0</ele><time>2026-04-04T09:36:26.724Z</time></trkpt><trkpt lat="38.1075467" lon="14.9219367"><ele>889.0</ele><time>2026-04-04T09:36:27.725Z</time></trkpt><trkpt lat="38.1075083" lon="14.9220333"><ele>885.4999999999999</ele><time>2026-04-04T09:36:28.725Z</time></trkpt><trkpt lat="38.1074583" lon="14.9221183"><ele>882.0</ele><time>2026-04-04T09:36:29.725Z</time></trkpt><trkpt lat="38.1074033" lon="14.9221833"><ele>878.5</ele><time>2026-04-04T09:36:30.725Z</time></trkpt><trkpt lat="38.1073417" lon="14.92223"><ele>875.0</ele><time>2026-04-04T09:36:31.724Z</time></trkpt><trkpt lat="38.107275" lon="14.9222533"><ele>871.4999999999999</ele><time>2026-04-04T09:36:32.725Z</time></trkpt><trkpt lat="38.1072" lon="14.9222633"><ele>868.0</ele><time>2026-04-04T09:36:33.725Z</time></trkpt><trkpt lat="38.1071167" lon="14.92226"><ele>868.0</ele><time>2026-04-04T09:36:34.725Z</time></trkpt><trkpt lat="38.1070217" lon="14.9222433"><ele>868.0</ele><time>2026-04-04T09:36:35.725Z</time></trkpt><trkpt lat="38.10693" lon="14.9222133"><ele>868.0</ele><time>2026-04-04T09:36:36.725Z</time></trkpt><trkpt lat="38.106845" lon="14.9221817"><ele>868.0</ele><time>2026-04-04T09:36:37.725Z</time></trkpt><trkpt lat="38.1067517" lon="14.9221683"><ele>868.0</ele><time>2026-04-04T09:36:38.724Z</time></trkpt><trkpt lat="38.1066583" lon="14.922165"><ele>867.9999999999999</ele><time>2026-04-04T09:36:39.725Z</time></trkpt><trkpt lat="38.1065683" lon="14.922175"><ele>868.0</ele><time>2026-04-04T09:36:40.724Z</time></trkpt><trkpt lat="38.1064817" lon="14.9221917"><ele>868.0</ele><time>2026-04-04T09:36:41.725Z</time></trkpt><trkpt lat="38.106405" lon="14.92222"><ele>868.0</ele><time>2026-04-04T09:36:42.724Z</time></trkpt><trkpt lat="38.1063317" lon="14.9222467"><ele>867.9999999999999</ele><time>2026-04-04T09:36:43.725Z</time></trkpt><trkpt lat="38.1062617" lon="14.9222917"><ele>868.0</ele><time>2026-04-04T09:36:44.725Z</time></trkpt><trkpt lat="38.106195" lon="14.9223583"><ele>867.9999999999999</ele><time>2026-04-04T09:36:45.724Z</time></trkpt><trkpt lat="38.1061267" lon="14.922415"><ele>868.0</ele><time>2026-04-04T09:36:46.724Z</time></trkpt><trkpt lat="38.1060533" lon="14.9224533"><ele>868.0</ele><time>2026-04-04T09:36:47.725Z</time></trkpt><trkpt lat="38.1059817" lon="14.9224733"><ele>868.0</ele><time>2026-04-04T09:36:48.725Z</time></trkpt><trkpt lat="38.1059017" lon="14.9224633"><ele>867.9999999999999</ele><time>2026-04-04T09:36:49.725Z</time></trkpt><trkpt lat="38.10583" lon="14.9224267"><ele>868.0</ele><time>2026-04-04T09:36:50.725Z</time></trkpt><trkpt lat="38.105765" lon="14.9223917"><ele>871.2857142857143</ele><time>2026-04-04T09:36:51.725Z</time></trkpt><trkpt lat="38.1056967" lon="14.9223467"><ele>874.5714285714286</ele><time>2026-04-04T09:36:52.725Z</time></trkpt><trkpt lat="38.1056283" lon="14.9222967"><ele>877.8571428571429</ele><time>2026-04-04T09:36:53.725Z</time></trkpt><trkpt lat="38.10557" lon="14.9222367"><ele>881.1428571428571</ele><time>2026-04-04T09:36:54.724Z</time></trkpt><trkpt lat="38.10552" lon="14.922175"><ele>884.4285714285714</ele><time>2026-04-04T09:36:55.724Z</time></trkpt><trkpt lat="38.105465" lon="14.9221117"><ele>887.7142857142858</ele><time>2026-04-04T09:36:56.724Z</time></trkpt><trkpt lat="38.1054133" lon="14.9220567"><ele>891.0</ele><time>2026-04-04T09:36:57.725Z</time></trkpt><trkpt lat="38.1053517" lon="14.9220233"><ele>891.0</ele><time>2026-04-04T09:36:58.725Z</time></trkpt><trkpt lat="38.1052433" lon="14.922015"><ele>890.9999999999999</ele><time>2026-04-04T09:37:00.725Z</time></trkpt><trkpt lat="38.105175" lon="14.922105"><ele>890.9999999999999</ele><time>2026-04-04T09:37:02.725Z</time></trkpt><trkpt lat="38.105205" lon="14.9222467"><ele>891.0</ele><time>2026-04-04T09:37:04.725Z</time></trkpt><trkpt lat="38.105245" lon="14.9223267"><ele>891.0</ele><time>2026-04-04T09:37:05.725Z</time></trkpt><trkpt lat="38.1052733" lon="14.92242"><ele>891.0</ele><time>2026-04-04T09:37:06.725Z</time></trkpt><trkpt lat="38.1053017" lon="14.922525"><ele>890.9999999999999</ele><time>2026-04-04T09:37:07.725Z</time></trkpt><trkpt lat="38.10532" lon="14.92264"><ele>890.9999999999999</ele><time>2026-04-04T09:37:08.725Z</time></trkpt><trkpt lat="38.105335" lon="14.92276"><ele>891.0</ele><time>2026-04-04T09:37:09.725Z</time></trkpt><trkpt lat="38.10535" lon="14.9228767"><ele>891.0</ele><time>2026-04-04T09:37:10.724Z</time></trkpt><trkpt lat="38.1053767" lon="14.9230083"><ele>894.75</ele><time>2026-04-04T09:37:11.724Z</time></trkpt><trkpt lat="38.1054133" lon="14.9231633"><ele>898.5</ele><time>2026-04-04T09:37:12.725Z</time></trkpt><trkpt lat="38.1054483" lon="14.92331"><ele>902.25</ele><time>2026-04-04T09:37:13.725Z</time></trkpt><trkpt lat="38.10549" lon="14.9234417"><ele>906.0</ele><time>2026-04-04T09:37:14.725Z</time></trkpt><trkpt lat="38.105525" lon="14.9235483"><ele>906.1999999999999</ele><time>2026-04-04T09:37:15.725Z</time></trkpt><trkpt lat="38.1055467" lon="14.9236533"><ele>906.3999999999999</ele><time>2026-04-04T09:37:16.725Z</time></trkpt><trkpt lat="38.1055533" lon="14.923765"><ele>906.6</ele><time>2026-04-04T09:37:17.724Z</time></trkpt><trkpt lat="38.1055267" lon="14.9238967"><ele>906.8</ele><time>2026-04-04T09:37:18.725Z</time></trkpt><trkpt lat="38.105485" lon="14.9240133"><ele>907.0</ele><time>2026-04-04T09:37:19.725Z</time></trkpt><trkpt lat="38.1054417" lon="14.9241283"><ele>902.8</ele><time>2026-04-04T09:37:20.724Z</time></trkpt><trkpt lat="38.105405" lon="14.9242533"><ele>898.6</ele><time>2026-04-04T09:37:21.724Z</time></trkpt><trkpt lat="38.105385" lon="14.9243783"><ele>894.3999999999999</ele><time>2026-04-04T09:37:22.724Z</time></trkpt><trkpt lat="38.1053583" lon="14.9244883"><ele>890.1999999999999</ele><time>2026-04-04T09:37:23.725Z</time></trkpt><trkpt lat="38.1053217" lon="14.924595"><ele>886.0</ele><time>2026-04-04T09:37:24.725Z</time></trkpt><trkpt lat="38.1052683" lon="14.924685"><ele>886.0</ele><time>2026-04-04T09:37:25.725Z</time></trkpt><trkpt lat="38.105205" lon="14.9247783"><ele>885.9999999999999</ele><time>2026-04-04T09:37:26.725Z</time></trkpt><trkpt lat="38.1051317" lon="14.9248683"><ele>885.9999999999999</ele><time>2026-04-04T09:37:27.725Z</time></trkpt><trkpt lat="38.1050567" lon="14.9249767"><ele>886.0</ele><time>2026-04-04T09:37:28.725Z</time></trkpt><trkpt lat="38.1049867" lon="14.92512"><ele>886.0</ele><time>2026-04-04T09:37:29.725Z</time></trkpt><trkpt lat="38.1049367" lon="14.92527"><ele>885.8</ele><time>2026-04-04T09:37:30.725Z</time></trkpt><trkpt lat="38.104885" lon="14.925415"><ele>885.5999999999999</ele><time>2026-04-04T09:37:31.724Z</time></trkpt><trkpt lat="38.1048517" lon="14.9255433"><ele>885.4</ele><time>2026-04-04T09:37:32.724Z</time></trkpt><trkpt lat="38.1048317" lon="14.92567"><ele>885.2</ele><time>2026-04-04T09:37:33.725Z</time></trkpt><trkpt lat="38.1048017" lon="14.9257633"><ele>885.0</ele><time>2026-04-04T09:37:34.724Z</time></trkpt><trkpt lat="38.1047717" lon="14.9258367"><ele>882.1428571428571</ele><time>2026-04-04T09:37:35.724Z</time></trkpt><trkpt lat="38.1047367" lon="14.9259333"><ele>879.2857142857142</ele><time>2026-04-04T09:37:37.724Z</time></trkpt><trkpt lat="38.104705" lon="14.9260067"><ele>876.4285714285714</ele><time>2026-04-04T09:38:23.725Z</time></trkpt><trkpt lat="38.104665" lon="14.9260767"><ele>873.5714285714286</ele><time>2026-04-04T09:38:26.725Z</time></trkpt><trkpt lat="38.1046883" lon="14.9261617"><ele>870.7142857142858</ele><time>2026-04-04T09:38:30.725Z</time></trkpt><trkpt lat="38.1047467" lon="14.9262033"><ele>867.8571428571429</ele><time>2026-04-04T09:38:33.725Z</time></trkpt><trkpt lat="38.1047917" lon="14.9262617"><ele>865.0</ele><time>2026-04-04T09:38:35.724Z</time></trkpt><trkpt lat="38.1048433" lon="14.9263717"><ele>864.9999999999999</ele><time>2026-04-04T09:38:37.724Z</time></trkpt><trkpt lat="38.1048833" lon="14.926435"><ele>865.0</ele><time>2026-04-04T09:38:38.724Z</time></trkpt><trkpt lat="38.1049233" lon="14.926505"><ele>865.0</ele><time>2026-04-04T09:38:39.724Z</time></trkpt><trkpt lat="38.1049717" lon="14.926575"><ele>865.0</ele><time>2026-04-04T09:38:40.725Z</time></trkpt><trkpt lat="38.105" lon="14.9266483"><ele>864.9999999999999</ele><time>2026-04-04T09:38:41.725Z</time></trkpt><trkpt lat="38.1050333" lon="14.92678"><ele>865.0</ele><time>2026-04-04T09:38:43.724Z</time></trkpt><trkpt lat="38.1050467" lon="14.926875"><ele>869.4999999999999</ele><time>2026-04-04T09:38:45.725Z</time></trkpt><trkpt lat="38.1050167" lon="14.9269783"><ele>874.0</ele><time>2026-04-04T09:38:47.725Z</time></trkpt><trkpt lat="38.1049867" lon="14.927055"><ele>878.5</ele><time>2026-04-04T09:38:49.725Z</time></trkpt><trkpt lat="38.1049417" lon="14.9271383"><ele>883.0</ele><time>2026-04-04T09:38:52.725Z</time></trkpt><trkpt lat="38.10492" lon="14.9272633"><ele>887.4999999999999</ele><time>2026-04-04T09:38:54.725Z</time></trkpt><trkpt lat="38.10492" lon="14.9273983"><ele>892.0</ele><time>2026-04-04T09:38:56.725Z</time></trkpt><trkpt lat="38.1049467" lon="14.9275267"><ele>894.2</ele><time>2026-04-04T09:38:58.725Z</time></trkpt><trkpt lat="38.1049583" lon="14.927615"><ele>896.4000000000001</ele><time>2026-04-04T09:39:00.724Z</time></trkpt><trkpt lat="38.1050167" lon="14.9276967"><ele>898.5999999999999</ele><time>2026-04-04T09:39:02.725Z</time></trkpt><trkpt lat="38.1050817" lon="14.9277867"><ele>900.8</ele><time>2026-04-04T09:39:04.724Z</time></trkpt><trkpt lat="38.1051133" lon="14.9278967"><ele>903.0</ele><time>2026-04-04T09:39:06.725Z</time></trkpt><trkpt lat="38.1050933" lon="14.92803"><ele>903.0</ele><time>2026-04-04T09:39:08.724Z</time></trkpt><trkpt lat="38.105055" lon="14.9281583"><ele>903.0</ele><time>2026-04-04T09:39:10.724Z</time></trkpt><trkpt lat="38.1050367" lon="14.928295"><ele>903.0</ele><time>2026-04-04T09:39:12.725Z</time></trkpt><trkpt lat="38.105015" lon="14.928405"><ele>903.0</ele><time>2026-04-04T09:39:14.724Z</time></trkpt><trkpt lat="38.1049967" lon="14.9284967"><ele>903.0</ele><time>2026-04-04T09:39:17.725Z</time></trkpt><trkpt lat="38.1050083" lon="14.9285933"><ele>904.0</ele><time>2026-04-04T09:39:20.725Z</time></trkpt><trkpt lat="38.1050217" lon="14.9286717"><ele>905.0</ele><time>2026-04-04T09:39:22.725Z</time></trkpt><trkpt lat="38.1050183" lon="14.9287717"><ele>906.0</ele><time>2026-04-04T09:46:57.727Z</time></trkpt><trkpt lat="38.105055" lon="14.9288383"><ele>907.0</ele><time>2026-04-04T09:47:01.727Z</time></trkpt><trkpt lat="38.1050933" lon="14.9289117"><ele>908.0</ele><time>2026-04-04T09:47:06.726Z</time></trkpt><trkpt lat="38.10506" lon="14.9288367"><ele>909.0</ele><time>2026-04-04T09:47:24.727Z</time></trkpt><trkpt lat="38.1050233" lon="14.9286817"><ele>909.0</ele><time>2026-04-04T09:47:46.727Z</time></trkpt><trkpt lat="38.1050832" lon="14.9287517"><ele>909.0</ele><time>2026-04-04T09:52:22.727Z</time></trkpt><trkpt lat="38.1051166" lon="14.928825"><ele>909.0</ele><time>2026-04-04T09:52:27.727Z</time></trkpt><trkpt lat="38.1050775" lon="14.9287314"><ele>909.0</ele><time>2026-04-04T09:52:59.702Z</time></trkpt><trkpt lat="38.104995" lon="14.9286983"><ele>909.0</ele><time>2026-04-04T09:54:29.703Z</time></trkpt><trkpt lat="38.1050483" lon="14.9287567"><ele>909.0</ele><time>2026-04-04T09:55:54.702Z</time></trkpt><trkpt lat="38.1051212" lon="14.9288458"><ele>909.0</ele><time>2026-04-04T10:05:01.704Z</time></trkpt><trkpt lat="38.1050633" lon="14.9287739"><ele>909.0</ele><time>2026-04-04T10:12:15.704Z</time></trkpt><trkpt lat="38.1050317" lon="14.9286957"><ele>909.0</ele><time>2026-04-04T10:12:21.705Z</time></trkpt><trkpt lat="38.1050244" lon="14.9286118"><ele>909.0</ele><time>2026-04-04T10:12:26.705Z</time></trkpt><trkpt lat="38.1050145" lon="14.9285317"><ele>909.0</ele><time>2026-04-04T10:12:31.705Z</time></trkpt><trkpt lat="38.1050155" lon="14.9284456"><ele>909.0</ele><time>2026-04-04T10:12:35.705Z</time></trkpt><trkpt lat="38.1050279" lon="14.9283516"><ele>909.0</ele><time>2026-04-04T10:12:39.705Z</time></trkpt><trkpt lat="38.1050427" lon="14.9282679"><ele>908.0</ele><time>2026-04-04T10:12:43.705Z</time></trkpt><trkpt lat="38.1050564" lon="14.928186"><ele>907.0</ele><time>2026-04-04T10:12:46.705Z</time></trkpt><trkpt lat="38.1050575" lon="14.9280957"><ele>906.0</ele><time>2026-04-04T10:12:49.704Z</time></trkpt><trkpt lat="38.1050854" lon="14.9280024"><ele>905.0</ele><time>2026-04-04T10:12:53.705Z</time></trkpt><trkpt lat="38.1050869" lon="14.9278815"><ele>904.0</ele><time>2026-04-04T10:12:56.705Z</time></trkpt><trkpt lat="38.1050482" lon="14.9277769"><ele>903.0</ele><time>2026-04-04T10:12:59.705Z</time></trkpt><trkpt lat="38.105016" lon="14.9276908"><ele>903.0</ele><time>2026-04-04T10:13:02.705Z</time></trkpt><trkpt lat="38.1049931" lon="14.9276132"><ele>903.0</ele><time>2026-04-04T10:13:23.706Z</time></trkpt><trkpt lat="38.1049711" lon="14.9275359"><ele>903.0</ele><time>2026-04-04T10:13:25.705Z</time></trkpt><trkpt lat="38.1049497" lon="14.9274581"><ele>903.0</ele><time>2026-04-04T10:13:27.706Z</time></trkpt><trkpt lat="38.1049324" lon="14.9273587"><ele>903.0</ele><time>2026-04-04T10:13:29.706Z</time></trkpt><trkpt lat="38.1049224" lon="14.9272764"><ele>903.0</ele><time>2026-04-04T10:13:31.705Z</time></trkpt><trkpt lat="38.1049434" lon="14.9271664"><ele>903.0</ele><time>2026-04-04T10:13:34.706Z</time></trkpt><trkpt lat="38.1049696" lon="14.9270556"><ele>901.1666666666666</ele><time>2026-04-04T10:13:37.706Z</time></trkpt><trkpt lat="38.1050152" lon="14.9269658"><ele>899.3333333333333</ele><time>2026-04-04T10:13:40.706Z</time></trkpt><trkpt lat="38.1050265" lon="14.9268766"><ele>897.5</ele><time>2026-04-04T10:13:43.706Z</time></trkpt><trkpt lat="38.105002" lon="14.9267927"><ele>895.6666666666666</ele><time>2026-04-04T10:13:45.705Z</time></trkpt><trkpt lat="38.1049867" lon="14.9267006"><ele>893.8333333333333</ele><time>2026-04-04T10:13:47.706Z</time></trkpt><trkpt lat="38.1049621" lon="14.9266095"><ele>892.0</ele><time>2026-04-04T10:13:49.706Z</time></trkpt><trkpt lat="38.104911" lon="14.9265095"><ele>887.4999999999999</ele><time>2026-04-04T10:13:51.706Z</time></trkpt><trkpt lat="38.1048599" lon="14.9264081"><ele>883.0</ele><time>2026-04-04T10:13:53.705Z</time></trkpt><trkpt lat="38.1048311" lon="14.9263235"><ele>878.5</ele><time>2026-04-04T10:13:55.706Z</time></trkpt><trkpt lat="38.1047941" lon="14.9262541"><ele>874.0</ele><time>2026-04-04T10:13:57.706Z</time></trkpt><trkpt lat="38.1047467" lon="14.9261917"><ele>869.4999999999999</ele><time>2026-04-04T10:13:59.705Z</time></trkpt><trkpt lat="38.1048" lon="14.92613"><ele>865.0</ele><time>2026-04-04T10:14:03.705Z</time></trkpt><trkpt lat="38.10484" lon="14.9262383"><ele>864.9999999999999</ele><time>2026-04-04T10:14:06.706Z</time></trkpt><trkpt lat="38.10487" lon="14.9263733"><ele>865.0</ele><time>2026-04-04T10:14:08.706Z</time></trkpt><trkpt lat="38.1049183" lon="14.9264817"><ele>865.0</ele><time>2026-04-04T10:14:10.706Z</time></trkpt><trkpt lat="38.104985" lon="14.9264483"><ele>865.0</ele><time>2026-04-04T10:14:15.706Z</time></trkpt><trkpt lat="38.104965" lon="14.926345"><ele>864.9999999999999</ele><time>2026-04-04T10:14:18.706Z</time></trkpt><trkpt lat="38.1049183" lon="14.9262583"><ele>865.0</ele><time>2026-04-04T10:14:21.705Z</time></trkpt><trkpt lat="38.104855" lon="14.92618"><ele>864.9999999999999</ele><time>2026-04-04T10:14:24.705Z</time></trkpt><trkpt lat="38.1048133" lon="14.9260883"><ele>865.0</ele><time>2026-04-04T10:15:43.706Z</time></trkpt><trkpt lat="38.1048067" lon="14.9259717"><ele>865.0</ele><time>2026-04-04T10:15:45.705Z</time></trkpt><trkpt lat="38.1047983" lon="14.9258767"><ele>865.0</ele><time>2026-04-04T10:15:46.705Z</time></trkpt><trkpt lat="38.1048117" lon="14.9257833"><ele>864.9999999999999</ele><time>2026-04-04T10:15:47.705Z</time></trkpt><trkpt lat="38.1048467" lon="14.9256767"><ele>865.0</ele><time>2026-04-04T10:15:48.706Z</time></trkpt><trkpt lat="38.1048883" lon="14.9255483"><ele>867.0</ele><time>2026-04-04T10:15:49.706Z</time></trkpt><trkpt lat="38.1049217" lon="14.925395"><ele>869.0</ele><time>2026-04-04T10:15:50.706Z</time></trkpt><trkpt lat="38.1049683" lon="14.9252333"><ele>871.0</ele><time>2026-04-04T10:15:51.706Z</time></trkpt><trkpt lat="38.105025" lon="14.9250533"><ele>873.0</ele><time>2026-04-04T10:15:52.706Z</time></trkpt><trkpt lat="38.1051117" lon="14.9248833"><ele>876.25</ele><time>2026-04-04T10:15:53.706Z</time></trkpt><trkpt lat="38.105205" lon="14.92473"><ele>879.5</ele><time>2026-04-04T10:15:54.706Z</time></trkpt><trkpt lat="38.105305" lon="14.9245967"><ele>882.75</ele><time>2026-04-04T10:15:55.706Z</time></trkpt><trkpt lat="38.10537" lon="14.9244633"><ele>886.0</ele><time>2026-04-04T10:15:56.706Z</time></trkpt><trkpt lat="38.1053967" lon="14.9243083"><ele>890.1999999999999</ele><time>2026-04-04T10:15:57.706Z</time></trkpt><trkpt lat="38.1054233" lon="14.924155"><ele>894.3999999999999</ele><time>2026-04-04T10:15:58.706Z</time></trkpt><trkpt lat="38.105455" lon="14.9240233"><ele>898.6</ele><time>2026-04-04T10:15:59.706Z</time></trkpt><trkpt lat="38.1054983" lon="14.9239133"><ele>902.8</ele><time>2026-04-04T10:16:00.705Z</time></trkpt><trkpt lat="38.1055383" lon="14.9238117"><ele>907.0</ele><time>2026-04-04T10:16:01.705Z</time></trkpt><trkpt lat="38.1055533" lon="14.9237083"><ele>907.0</ele><time>2026-04-04T10:16:02.705Z</time></trkpt><trkpt lat="38.10555" lon="14.9235917"><ele>907.0</ele><time>2026-04-04T10:16:03.706Z</time></trkpt><trkpt lat="38.1055217" lon="14.9234517"><ele>907.0</ele><time>2026-04-04T10:16:04.706Z</time></trkpt><trkpt lat="38.1054833" lon="14.9232883"><ele>907.0</ele><time>2026-04-04T10:16:05.706Z</time></trkpt><trkpt lat="38.105425" lon="14.923115"><ele>906.75</ele><time>2026-04-04T10:16:06.706Z</time></trkpt><trkpt lat="38.105375" lon="14.9229467"><ele>906.5</ele><time>2026-04-04T10:16:07.706Z</time></trkpt><trkpt lat="38.1053433" lon="14.92278"><ele>906.25</ele><time>2026-04-04T10:16:08.706Z</time></trkpt><trkpt lat="38.10533" lon="14.92263"><ele>906.0</ele><time>2026-04-04T10:16:09.706Z</time></trkpt><trkpt lat="38.1053117" lon="14.92249"><ele>903.5</ele><time>2026-04-04T10:16:10.705Z</time></trkpt><trkpt lat="38.105285" lon="14.922365"><ele>901.0</ele><time>2026-04-04T10:16:11.706Z</time></trkpt><trkpt lat="38.1052483" lon="14.9222717"><ele>898.5</ele><time>2026-04-04T10:16:12.706Z</time></trkpt><trkpt lat="38.1052183" lon="14.9221917"><ele>896.0</ele><time>2026-04-04T10:16:13.706Z</time></trkpt><trkpt lat="38.1052017" lon="14.9220833"><ele>893.5</ele><time>2026-04-04T10:16:15.706Z</time></trkpt><trkpt lat="38.1052783" lon="14.9220217"><ele>891.0</ele><time>2026-04-04T10:16:17.706Z</time></trkpt><trkpt lat="38.105425" lon="14.9220667"><ele>891.0</ele><time>2026-04-04T10:16:19.705Z</time></trkpt><trkpt lat="38.10552" lon="14.9221567"><ele>891.0</ele><time>2026-04-04T10:16:20.706Z</time></trkpt><trkpt lat="38.1056133" lon="14.9222717"><ele>891.0</ele><time>2026-04-04T10:16:21.706Z</time></trkpt><trkpt lat="38.1057333" lon="14.92237"><ele>891.0</ele><time>2026-04-04T10:16:22.705Z</time></trkpt><trkpt lat="38.10587" lon="14.9224283"><ele>886.4</ele><time>2026-04-04T10:16:23.706Z</time></trkpt><trkpt lat="38.1059883" lon="14.9224667"><ele>881.8</ele><time>2026-04-04T10:16:24.706Z</time></trkpt><trkpt lat="38.10609" lon="14.9224567"><ele>877.1999999999999</ele><time>2026-04-04T10:16:25.706Z</time></trkpt><trkpt lat="38.106185" lon="14.9224067"><ele>872.5999999999999</ele><time>2026-04-04T10:16:26.706Z</time></trkpt><trkpt lat="38.10627" lon="14.9223333"><ele>868.0</ele><time>2026-04-04T10:16:27.706Z</time></trkpt><trkpt lat="38.1063533" lon="14.9222517"><ele>868.0</ele><time>2026-04-04T10:16:28.706Z</time></trkpt><trkpt lat="38.1064633" lon="14.9221883"><ele>868.0</ele><time>2026-04-04T10:16:29.705Z</time></trkpt><trkpt lat="38.1065767" lon="14.9221583"><ele>868.0</ele><time>2026-04-04T10:16:30.706Z</time></trkpt><trkpt lat="38.106705" lon="14.92215"><ele>868.0</ele><time>2026-04-04T10:16:31.706Z</time></trkpt><trkpt lat="38.1068383" lon="14.9221567"><ele>868.0</ele><time>2026-04-04T10:16:32.706Z</time></trkpt><trkpt lat="38.1069717" lon="14.922185"><ele>868.0</ele><time>2026-04-04T10:16:33.706Z</time></trkpt><trkpt lat="38.10709" lon="14.9222217"><ele>868.0</ele><time>2026-04-04T10:16:34.706Z</time></trkpt><trkpt lat="38.1071867" lon="14.9222483"><ele>868.0</ele><time>2026-04-04T10:16:35.705Z</time></trkpt><trkpt lat="38.10726" lon="14.9222367"><ele>868.0</ele><time>2026-04-04T10:16:36.706Z</time></trkpt><trkpt lat="38.1073633" lon="14.922205"><ele>866.8</ele><time>2026-04-04T10:16:38.706Z</time></trkpt><trkpt lat="38.1074833" lon="14.9221117"><ele>865.5999999999999</ele><time>2026-04-04T10:16:40.706Z</time></trkpt><trkpt lat="38.1075383" lon="14.9220333"><ele>864.4000000000001</ele><time>2026-04-04T10:16:41.706Z</time></trkpt><trkpt lat="38.107575" lon="14.921945"><ele>863.2</ele><time>2026-04-04T10:16:42.706Z</time></trkpt><trkpt lat="38.1075983" lon="14.9218533"><ele>862.0</ele><time>2026-04-04T10:16:43.706Z</time></trkpt><trkpt lat="38.107605" lon="14.9217517"><ele>866.4999999999999</ele><time>2026-04-04T10:16:44.706Z</time></trkpt><trkpt lat="38.107605" lon="14.9216417"><ele>871.0</ele><time>2026-04-04T10:16:45.706Z</time></trkpt><trkpt lat="38.107605" lon="14.92153"><ele>875.5</ele><time>2026-04-04T10:16:46.706Z</time></trkpt><trkpt lat="38.1076167" lon="14.92142"><ele>880.0</ele><time>2026-04-04T10:16:47.706Z</time></trkpt><trkpt lat="38.10762" lon="14.9213217"><ele>884.4999999999999</ele><time>2026-04-04T10:16:48.706Z</time></trkpt><trkpt lat="38.1076133" lon="14.9212117"><ele>889.0</ele><time>2026-04-04T10:16:49.706Z</time></trkpt><trkpt lat="38.1075933" lon="14.92108"><ele>889.0</ele><time>2026-04-04T10:16:50.705Z</time></trkpt><trkpt lat="38.1075767" lon="14.9209467"><ele>889.0000000000001</ele><time>2026-04-04T10:16:51.706Z</time></trkpt><trkpt lat="38.1075467" lon="14.9208367"><ele>889.0000000000001</ele><time>2026-04-04T10:16:52.705Z</time></trkpt><trkpt lat="38.1075183" lon="14.92075"><ele>889.0</ele><time>2026-04-04T10:16:53.706Z</time></trkpt><trkpt lat="38.107465" lon="14.920595"><ele>889.0</ele><time>2026-04-04T10:16:55.706Z</time></trkpt><trkpt lat="38.1074467" lon="14.9205033"><ele>889.4000000000001</ele><time>2026-04-04T10:16:56.706Z</time></trkpt><trkpt lat="38.10743" lon="14.9204167"><ele>889.8000000000001</ele><time>2026-04-04T10:16:57.705Z</time></trkpt><trkpt lat="38.1073883" lon="14.920305"><ele>890.1999999999999</ele><time>2026-04-04T10:16:59.706Z</time></trkpt><trkpt lat="38.10731" lon="14.9202267"><ele>890.5999999999999</ele><time>2026-04-04T10:17:01.706Z</time></trkpt><trkpt lat="38.10723" lon="14.920135"><ele>891.0</ele><time>2026-04-04T10:17:03.706Z</time></trkpt><trkpt lat="38.1071717" lon="14.9200167"><ele>899.5999999999999</ele><time>2026-04-04T10:17:05.706Z</time></trkpt><trkpt lat="38.1070983" lon="14.9198967"><ele>908.1999999999999</ele><time>2026-04-04T10:17:07.705Z</time></trkpt><trkpt lat="38.1070483" lon="14.9197783"><ele>916.8000000000001</ele><time>2026-04-04T10:17:09.706Z</time></trkpt><trkpt lat="38.107005" lon="14.9196917"><ele>925.4000000000001</ele><time>2026-04-04T10:17:11.705Z</time></trkpt><trkpt lat="38.1069717" lon="14.9197833"><ele>934.0</ele><time>2026-04-04T10:17:28.706Z</time></trkpt><trkpt lat="38.1069933" lon="14.91987"><ele>934.0</ele><time>2026-04-04T10:17:29.705Z</time></trkpt><trkpt lat="38.107025" lon="14.919975"><ele>934.0000000000001</ele><time>2026-04-04T10:17:30.706Z</time></trkpt><trkpt lat="38.1070546" lon="14.9200723"><ele>934.0000000000001</ele><time>2026-04-04T10:17:31.705Z</time></trkpt><trkpt lat="38.1070823" lon="14.9201821"><ele>934.0</ele><time>2026-04-04T10:17:32.706Z</time></trkpt><trkpt lat="38.1071091" lon="14.9202976"><ele>934.0</ele><time>2026-04-04T10:17:33.706Z</time></trkpt><trkpt lat="38.1071334" lon="14.9204145"><ele>935.6</ele><time>2026-04-04T10:17:34.705Z</time></trkpt><trkpt lat="38.1071453" lon="14.9205336"><ele>937.2</ele><time>2026-04-04T10:17:35.706Z</time></trkpt><trkpt lat="38.1071473" lon="14.9206627"><ele>938.8000000000001</ele><time>2026-04-04T10:17:36.706Z</time></trkpt><trkpt lat="38.1071287" lon="14.9207977"><ele>940.4000000000001</ele><time>2026-04-04T10:17:37.706Z</time></trkpt><trkpt lat="38.1070929" lon="14.9209475"><ele>942.0</ele><time>2026-04-04T10:17:38.706Z</time></trkpt><trkpt lat="38.1070686" lon="14.9211018"><ele>937.0</ele><time>2026-04-04T10:17:39.706Z</time></trkpt><trkpt lat="38.1070504" lon="14.921242"><ele>932.0</ele><time>2026-04-04T10:17:40.706Z</time></trkpt><trkpt lat="38.1070277" lon="14.9213617"><ele>927.0</ele><time>2026-04-04T10:17:41.706Z</time></trkpt><trkpt lat="38.106997" lon="14.9214687"><ele>922.0</ele><time>2026-04-04T10:17:42.705Z</time></trkpt><trkpt lat="38.1069681" lon="14.9215437"><ele>917.0</ele><time>2026-04-04T10:17:43.705Z</time></trkpt><trkpt lat="38.1069021" lon="14.9214758"><ele>912.0</ele><time>2026-04-04T10:17:46.706Z</time></trkpt><trkpt lat="38.1068964" lon="14.9213578"><ele>912.0</ele><time>2026-04-04T10:17:47.706Z</time></trkpt><trkpt lat="38.1068944" lon="14.9211995"><ele>912.0</ele><time>2026-04-04T10:17:48.706Z</time></trkpt><trkpt lat="38.1068878" lon="14.9210526"><ele>912.0</ele><time>2026-04-04T10:17:49.706Z</time></trkpt><trkpt lat="38.1068703" lon="14.920919"><ele>912.0</ele><time>2026-04-04T10:17:50.706Z</time></trkpt><trkpt lat="38.106847" lon="14.9207929"><ele>912.0</ele><time>2026-04-04T10:17:51.705Z</time></trkpt><trkpt lat="38.1068166" lon="14.9206592"><ele>918.0</ele><time>2026-04-04T10:17:52.705Z</time></trkpt><trkpt lat="38.1067867" lon="14.9205327"><ele>924.0</ele><time>2026-04-04T10:17:53.706Z</time></trkpt><trkpt lat="38.1067445" lon="14.9204093"><ele>930.0</ele><time>2026-04-04T10:17:54.706Z</time></trkpt><trkpt lat="38.10669" lon="14.9202965"><ele>936.0</ele><time>2026-04-04T10:17:55.706Z</time></trkpt><trkpt lat="38.10661" lon="14.9201833"><ele>942.0</ele><time>2026-04-04T10:17:56.706Z</time></trkpt><trkpt lat="38.1065333" lon="14.9200667"><ele>949.5</ele><time>2026-04-04T10:17:57.706Z</time></trkpt><trkpt lat="38.1064667" lon="14.9199533"><ele>957.0</ele><time>2026-04-04T10:17:58.706Z</time></trkpt><trkpt lat="38.1063917" lon="14.91984"><ele>964.5</ele><time>2026-04-04T10:17:59.706Z</time></trkpt><trkpt lat="38.1063233" lon="14.9197217"><ele>972.0</ele><time>2026-04-04T10:18:00.705Z</time></trkpt><trkpt lat="38.10626" lon="14.9196117"><ele>972.0</ele><time>2026-04-04T10:18:01.705Z</time></trkpt><trkpt lat="38.10619" lon="14.9195183"><ele>972.0</ele><time>2026-04-04T10:18:02.706Z</time></trkpt><trkpt lat="38.1060983" lon="14.91945"><ele>972.0</ele><time>2026-04-04T10:18:03.706Z</time></trkpt><trkpt lat="38.1060083" lon="14.9193883"><ele>972.0</ele><time>2026-04-04T10:18:04.706Z</time></trkpt><trkpt lat="38.1059167" lon="14.9193217"><ele>972.0</ele><time>2026-04-04T10:18:05.706Z</time></trkpt><trkpt lat="38.105835" lon="14.9192583"><ele>971.6666666666666</ele><time>2026-04-04T10:18:06.705Z</time></trkpt><trkpt lat="38.10577" lon="14.9191883"><ele>971.3333333333333</ele><time>2026-04-04T10:18:07.706Z</time></trkpt><trkpt lat="38.1057283" lon="14.9191233"><ele>971.0</ele><time>2026-04-04T10:18:08.705Z</time></trkpt><trkpt lat="38.10571" lon="14.9190367"><ele>970.6666666666666</ele><time>2026-04-04T10:18:09.705Z</time></trkpt><trkpt lat="38.105715" lon="14.9189267"><ele>970.3333333333333</ele><time>2026-04-04T10:18:10.706Z</time></trkpt><trkpt lat="38.1057483" lon="14.9188067"><ele>970.0</ele><time>2026-04-04T10:18:11.706Z</time></trkpt><trkpt lat="38.105775" lon="14.9186733"><ele>970.0</ele><time>2026-04-04T10:18:12.705Z</time></trkpt><trkpt lat="38.1058" lon="14.91853"><ele>970.0</ele><time>2026-04-04T10:18:13.706Z</time></trkpt><trkpt lat="38.1058333" lon="14.918385"><ele>970.0</ele><time>2026-04-04T10:18:14.705Z</time></trkpt><trkpt lat="38.1058783" lon="14.9182367"><ele>970.0</ele><time>2026-04-04T10:18:15.706Z</time></trkpt><trkpt lat="38.1059183" lon="14.9180967"><ele>971.8</ele><time>2026-04-04T10:18:16.706Z</time></trkpt><trkpt lat="38.10596" lon="14.9179717"><ele>973.6</ele><time>2026-04-04T10:18:17.706Z</time></trkpt><trkpt lat="38.1059967" lon="14.9178833"><ele>975.4000000000001</ele><time>2026-04-04T10:18:18.705Z</time></trkpt><trkpt lat="38.1060567" lon="14.9177783"><ele>977.2</ele><time>2026-04-04T10:18:20.705Z</time></trkpt><trkpt lat="38.1061283" lon="14.9177333"><ele>979.0</ele><time>2026-04-04T10:18:22.706Z</time></trkpt><trkpt lat="38.1062467" lon="14.9176883"><ele>979.0</ele><time>2026-04-04T10:18:24.706Z</time></trkpt><trkpt lat="38.1063817" lon="14.917665"><ele>979.0000000000001</ele><time>2026-04-04T10:18:26.706Z</time></trkpt><trkpt lat="38.1064817" lon="14.917675"><ele>979.0000000000001</ele><time>2026-04-04T10:18:27.705Z</time></trkpt><trkpt lat="38.1065783" lon="14.917685"><ele>979.0</ele><time>2026-04-04T10:18:28.706Z</time></trkpt><trkpt lat="38.106665" lon="14.9176967"><ele>979.0</ele><time>2026-04-04T10:18:29.706Z</time></trkpt><trkpt lat="38.1067433" lon="14.9176933"><ele>974.3333333333333</ele><time>2026-04-04T10:18:30.706Z</time></trkpt><trkpt lat="38.10683" lon="14.91769"><ele>969.6666666666666</ele><time>2026-04-04T10:18:31.706Z</time></trkpt><trkpt lat="38.106925" lon="14.917695"><ele>965.0</ele><time>2026-04-04T10:18:32.706Z</time></trkpt><trkpt lat="38.1070183" lon="14.9177033"><ele>960.3333333333333</ele><time>2026-04-04T10:18:33.705Z</time></trkpt><trkpt lat="38.1071" lon="14.91771"><ele>955.6666666666666</ele><time>2026-04-04T10:18:34.706Z</time></trkpt><trkpt lat="38.107185" lon="14.9176983"><ele>951.0</ele><time>2026-04-04T10:18:35.706Z</time></trkpt><trkpt lat="38.1072517" lon="14.91766"><ele>951.0</ele><time>2026-04-04T10:18:36.705Z</time></trkpt><trkpt lat="38.1073117" lon="14.9176117"><ele>951.0</ele><time>2026-04-04T10:18:37.705Z</time></trkpt><trkpt lat="38.1073633" lon="14.91754"><ele>951.0</ele><time>2026-04-04T10:18:38.705Z</time></trkpt><trkpt lat="38.107405" lon="14.9174567"><ele>951.0</ele><time>2026-04-04T10:18:39.705Z</time></trkpt><trkpt lat="38.10744" lon="14.91736"><ele>951.0</ele><time>2026-04-04T10:18:40.706Z</time></trkpt><trkpt lat="38.1074583" lon="14.917255"><ele>951.0</ele><time>2026-04-04T10:18:41.706Z</time></trkpt><trkpt lat="38.1074783" lon="14.917145"><ele>955.0</ele><time>2026-04-04T10:18:42.706Z</time></trkpt><trkpt lat="38.107515" lon="14.9170317"><ele>958.9999999999999</ele><time>2026-04-04T10:18:43.705Z</time></trkpt><trkpt lat="38.1075567" lon="14.9169333"><ele>962.9999999999999</ele><time>2026-04-04T10:18:44.705Z</time></trkpt><trkpt lat="38.1075983" lon="14.9168567"><ele>967.0</ele><time>2026-04-04T10:18:45.706Z</time></trkpt><trkpt lat="38.1076883" lon="14.9167767"><ele>971.0</ele><time>2026-04-04T10:18:47.706Z</time></trkpt><trkpt lat="38.1077733" lon="14.91678"><ele>971.0</ele><time>2026-04-04T10:18:49.706Z</time></trkpt><trkpt lat="38.1078667" lon="14.9167833"><ele>971.0</ele><time>2026-04-04T10:18:51.705Z</time></trkpt><trkpt lat="38.10798" lon="14.91674"><ele>971.0</ele><time>2026-04-04T10:18:53.705Z</time></trkpt><trkpt lat="38.1080767" lon="14.91665"><ele>971.0</ele><time>2026-04-04T10:18:55.706Z</time></trkpt><trkpt lat="38.10816" lon="14.916515"><ele>972.5000000000001</ele><time>2026-04-04T10:18:57.705Z</time></trkpt><trkpt lat="38.1082133" lon="14.916445"><ele>974.0</ele><time>2026-04-04T10:18:58.706Z</time></trkpt><trkpt lat="38.10828" lon="14.916385"><ele>975.5</ele><time>2026-04-04T10:18:59.706Z</time></trkpt><trkpt lat="38.1083467" lon="14.9163583"><ele>977.0</ele><time>2026-04-04T10:19:00.705Z</time></trkpt><trkpt lat="38.108435" lon="14.9163517"><ele>978.5000000000001</ele><time>2026-04-04T10:19:01.706Z</time></trkpt><trkpt lat="38.1085233" lon="14.9163667"><ele>980.0</ele><time>2026-04-04T10:19:02.706Z</time></trkpt><trkpt lat="38.1086167" lon="14.9163817"><ele>980.0000000000001</ele><time>2026-04-04T10:19:03.706Z</time></trkpt><trkpt lat="38.1087083" lon="14.916405"><ele>980.0</ele><time>2026-04-04T10:19:04.706Z</time></trkpt><trkpt lat="38.1087967" lon="14.91644"><ele>980.0</ele><time>2026-04-04T10:19:05.706Z</time></trkpt><trkpt lat="38.10887" lon="14.9164633"><ele>980.0</ele><time>2026-04-04T10:19:06.705Z</time></trkpt><trkpt lat="38.1089383" lon="14.9164567"><ele>980.0000000000001</ele><time>2026-04-04T10:19:07.706Z</time></trkpt><trkpt lat="38.10901" lon="14.91641"><ele>980.0</ele><time>2026-04-04T10:19:08.706Z</time></trkpt><trkpt lat="38.1090933" lon="14.9163433"><ele>980.0000000000001</ele><time>2026-04-04T10:19:09.706Z</time></trkpt><trkpt lat="38.109175" lon="14.9162833"><ele>980.0</ele><time>2026-04-04T10:19:10.706Z</time></trkpt><trkpt lat="38.1092283" lon="14.91624"><ele>980.0</ele><time>2026-04-04T10:19:11.706Z</time></trkpt><trkpt lat="38.10915" lon="14.9161967"><ele>980.0</ele><time>2026-04-04T10:19:17.706Z</time></trkpt><trkpt lat="38.1090817" lon="14.9162067"><ele>980.0000000000001</ele><time>2026-04-04T10:19:18.705Z</time></trkpt><trkpt lat="38.1090017" lon="14.916215"><ele>980.0</ele><time>2026-04-04T10:19:19.706Z</time></trkpt><trkpt lat="38.1089067" lon="14.9162133"><ele>980.0</ele><time>2026-04-04T10:19:20.706Z</time></trkpt><trkpt lat="38.1087983" lon="14.91619"><ele>980.0</ele><time>2026-04-04T10:19:21.706Z</time></trkpt><trkpt lat="38.108665" lon="14.91614"><ele>980.0</ele><time>2026-04-04T10:19:22.705Z</time></trkpt><trkpt lat="38.1085367" lon="14.9160817"><ele>980.0</ele><time>2026-04-04T10:19:23.705Z</time></trkpt><trkpt lat="38.1084283" lon="14.9160417"><ele>980.0</ele><time>2026-04-04T10:19:24.705Z</time></trkpt><trkpt lat="38.1083067" lon="14.9160233"><ele>980.0</ele><time>2026-04-04T10:19:25.706Z</time></trkpt><trkpt lat="38.1081883" lon="14.9160233"><ele>980.0</ele><time>2026-04-04T10:19:26.705Z</time></trkpt><trkpt lat="38.1080817" lon="14.9160167"><ele>980.0</ele><time>2026-04-04T10:19:27.705Z</time></trkpt><trkpt lat="38.1079933" lon="14.915995"><ele>980.0</ele><time>2026-04-04T10:19:28.706Z</time></trkpt><trkpt lat="38.1078967" lon="14.915965"><ele>983.3333333333334</ele><time>2026-04-04T10:19:29.706Z</time></trkpt><trkpt lat="38.1077917" lon="14.9159567"><ele>986.6666666666667</ele><time>2026-04-04T10:19:30.706Z</time></trkpt><trkpt lat="38.1077083" lon="14.915965"><ele>990.0</ele><time>2026-04-04T10:19:31.706Z</time></trkpt><trkpt lat="38.107635" lon="14.9159967"><ele>993.3333333333333</ele><time>2026-04-04T10:19:32.706Z</time></trkpt><trkpt lat="38.1075783" lon="14.91606"><ele>996.6666666666666</ele><time>2026-04-04T10:19:33.705Z</time></trkpt><trkpt lat="38.1075067" lon="14.9161217"><ele>1000.0</ele><time>2026-04-04T10:19:34.705Z</time></trkpt><trkpt lat="38.107415" lon="14.9161717"><ele>1001.2</ele><time>2026-04-04T10:19:35.705Z</time></trkpt><trkpt lat="38.1073167" lon="14.9162133"><ele>1002.4</ele><time>2026-04-04T10:19:36.706Z</time></trkpt><trkpt lat="38.1072067" lon="14.9162683"><ele>1003.5999999999999</ele><time>2026-04-04T10:19:37.706Z</time></trkpt><trkpt lat="38.107105" lon="14.91632"><ele>1004.8</ele><time>2026-04-04T10:19:38.705Z</time></trkpt><trkpt lat="38.10701" lon="14.916365"><ele>1006.0</ele><time>2026-04-04T10:19:39.705Z</time></trkpt><trkpt lat="38.1069233" lon="14.9164233"><ele>1006.0</ele><time>2026-04-04T10:19:40.706Z</time></trkpt><trkpt lat="38.1068517" lon="14.916495"><ele>1005.9999999999999</ele><time>2026-04-04T10:19:41.706Z</time></trkpt><trkpt lat="38.10679" lon="14.9165883"><ele>1005.9999999999999</ele><time>2026-04-04T10:19:42.706Z</time></trkpt><trkpt lat="38.106725" lon="14.9166767"><ele>1006.0</ele><time>2026-04-04T10:19:43.705Z</time></trkpt><trkpt lat="38.106655" lon="14.9167583"><ele>1006.0</ele><time>2026-04-04T10:19:44.706Z</time></trkpt><trkpt lat="38.10658" lon="14.9168233"><ele>1005.0</ele><time>2026-04-04T10:19:45.706Z</time></trkpt><trkpt lat="38.1064917" lon="14.9168967"><ele>1003.9999999999999</ele><time>2026-04-04T10:19:46.705Z</time></trkpt><trkpt lat="38.1064033" lon="14.9169567"><ele>1002.9999999999999</ele><time>2026-04-04T10:19:47.705Z</time></trkpt><trkpt lat="38.1063" lon="14.91698"><ele>1002.0</ele><time>2026-04-04T10:19:48.706Z</time></trkpt><trkpt lat="38.106175" lon="14.9169883"><ele>1001.0</ele><time>2026-04-04T10:19:49.706Z</time></trkpt><trkpt lat="38.1060567" lon="14.9170083"><ele>1001.0</ele><time>2026-04-04T10:19:50.706Z</time></trkpt><trkpt lat="38.1059433" lon="14.91706"><ele>1000.9999999999999</ele><time>2026-04-04T10:19:51.707Z</time></trkpt><trkpt lat="38.1058517" lon="14.9171367"><ele>1000.9999999999999</ele><time>2026-04-04T10:19:52.707Z</time></trkpt><trkpt lat="38.1057767" lon="14.9172267"><ele>1001.0</ele><time>2026-04-04T10:19:53.706Z</time></trkpt><trkpt lat="38.1056917" lon="14.9173217"><ele>1001.0</ele><time>2026-04-04T10:19:54.706Z</time></trkpt><trkpt lat="38.1055983" lon="14.9174317"><ele>1001.0</ele><time>2026-04-04T10:19:55.707Z</time></trkpt><trkpt lat="38.10551" lon="14.917535"><ele>1000.9999999999999</ele><time>2026-04-04T10:19:56.707Z</time></trkpt><trkpt lat="38.1054383" lon="14.91763"><ele>1000.9999999999999</ele><time>2026-04-04T10:19:57.707Z</time></trkpt><trkpt lat="38.1053733" lon="14.9177333"><ele>1001.0</ele><time>2026-04-04T10:19:58.707Z</time></trkpt><trkpt lat="38.10532" lon="14.9178533"><ele>1001.0</ele><time>2026-04-04T10:19:59.707Z</time></trkpt><trkpt lat="38.1052733" lon="14.9179883"><ele>1002.0</ele><time>2026-04-04T10:20:00.706Z</time></trkpt><trkpt lat="38.1052133" lon="14.9181183"><ele>1002.9999999999999</ele><time>2026-04-04T10:20:01.707Z</time></trkpt><trkpt lat="38.1051433" lon="14.9182467"><ele>1003.9999999999999</ele><time>2026-04-04T10:20:02.707Z</time></trkpt><trkpt lat="38.105075" lon="14.9183417"><ele>1005.0</ele><time>2026-04-04T10:20:03.707Z</time></trkpt><trkpt lat="38.105015" lon="14.91841"><ele>1006.0</ele><time>2026-04-04T10:20:04.707Z</time></trkpt><trkpt lat="38.1049567" lon="14.918455"><ele>1009.8333333333333</ele><time>2026-04-04T10:20:05.707Z</time></trkpt><trkpt lat="38.1049033" lon="14.9185033"><ele>1013.6666666666666</ele><time>2026-04-04T10:20:06.707Z</time></trkpt><trkpt lat="38.10486" lon="14.91857"><ele>1017.5</ele><time>2026-04-04T10:20:07.706Z</time></trkpt><trkpt lat="38.1048017" lon="14.9186583"><ele>1021.3333333333333</ele><time>2026-04-04T10:20:08.706Z</time></trkpt><trkpt lat="38.1047383" lon="14.9187317"><ele>1025.1666666666667</ele><time>2026-04-04T10:20:09.706Z</time></trkpt><trkpt lat="38.1046783" lon="14.91879"><ele>1029.0</ele><time>2026-04-04T10:20:10.707Z</time></trkpt><trkpt lat="38.10462" lon="14.9188483"><ele>1029.0</ele><time>2026-04-04T10:20:11.707Z</time></trkpt><trkpt lat="38.10456" lon="14.9189067"><ele>1029.0</ele><time>2026-04-04T10:20:12.707Z</time></trkpt><trkpt lat="38.104495" lon="14.9189467"><ele>1029.0</ele><time>2026-04-04T10:20:13.706Z</time></trkpt><trkpt lat="38.10442" lon="14.91895"><ele>1029.0</ele><time>2026-04-04T10:20:14.706Z</time></trkpt><trkpt lat="38.1043367" lon="14.9189167"><ele>1029.0</ele><time>2026-04-04T10:20:15.707Z</time></trkpt><trkpt lat="38.1042433" lon="14.9188483"><ele>1029.0</ele><time>2026-04-04T10:20:16.707Z</time></trkpt><trkpt lat="38.1041567" lon="14.91877"><ele>1030.8333333333333</ele><time>2026-04-04T10:20:17.707Z</time></trkpt><trkpt lat="38.1040783" lon="14.918715"><ele>1032.6666666666667</ele><time>2026-04-04T10:20:18.707Z</time></trkpt><trkpt lat="38.1040017" lon="14.91868"><ele>1034.5</ele><time>2026-04-04T10:20:19.707Z</time></trkpt><trkpt lat="38.1039233" lon="14.9186733"><ele>1036.3333333333335</ele><time>2026-04-04T10:20:20.707Z</time></trkpt><trkpt lat="38.1038433" lon="14.918695"><ele>1038.1666666666667</ele><time>2026-04-04T10:20:21.706Z</time></trkpt><trkpt lat="38.10377" lon="14.9187167"><ele>1040.0</ele><time>2026-04-04T10:20:22.707Z</time></trkpt><trkpt lat="38.1036967" lon="14.918725"><ele>1040.0</ele><time>2026-04-04T10:20:23.706Z</time></trkpt><trkpt lat="38.103625" lon="14.91872"><ele>1040.0</ele><time>2026-04-04T10:20:24.707Z</time></trkpt><trkpt lat="38.1035517" lon="14.9187117"><ele>1040.0</ele><time>2026-04-04T10:20:25.707Z</time></trkpt><trkpt lat="38.103475" lon="14.9187017"><ele>1040.0</ele><time>2026-04-04T10:20:26.707Z</time></trkpt><trkpt lat="38.1033967" lon="14.9186867"><ele>1040.0</ele><time>2026-04-04T10:20:27.706Z</time></trkpt><trkpt lat="38.103315" lon="14.9186483"><ele>1040.0</ele><time>2026-04-04T10:20:28.707Z</time></trkpt><trkpt lat="38.1032283" lon="14.9185983"><ele>1041.6</ele><time>2026-04-04T10:20:29.707Z</time></trkpt><trkpt lat="38.1031367" lon="14.918535"><ele>1043.2</ele><time>2026-04-04T10:20:30.707Z</time></trkpt><trkpt lat="38.1030483" lon="14.9184683"><ele>1044.8</ele><time>2026-04-04T10:20:31.707Z</time></trkpt><trkpt lat="38.10296" lon="14.918415"><ele>1046.4</ele><time>2026-04-04T10:20:32.707Z</time></trkpt><trkpt lat="38.1028817" lon="14.9183667"><ele>1048.0</ele><time>2026-04-04T10:20:33.707Z</time></trkpt><trkpt lat="38.1028133" lon="14.918305"><ele>1048.0</ele><time>2026-04-04T10:20:34.707Z</time></trkpt><trkpt lat="38.1027483" lon="14.9182367"><ele>1048.0</ele><time>2026-04-04T10:20:35.707Z</time></trkpt><trkpt lat="38.102685" lon="14.91818"><ele>1048.0</ele><time>2026-04-04T10:20:36.706Z</time></trkpt><trkpt lat="38.1026317" lon="14.9181183"><ele>1048.0</ele><time>2026-04-04T10:20:37.707Z</time></trkpt><trkpt lat="38.1025783" lon="14.9180633"><ele>1048.0</ele><time>2026-04-04T10:20:38.706Z</time></trkpt><trkpt lat="38.1024833" lon="14.9179667"><ele>1048.0</ele><time>2026-04-04T10:20:40.706Z</time></trkpt><trkpt lat="38.1023817" lon="14.9179067"><ele>1049.2</ele><time>2026-04-04T10:20:42.707Z</time></trkpt><trkpt lat="38.1022933" lon="14.9178983"><ele>1050.4</ele><time>2026-04-04T10:20:44.707Z</time></trkpt><trkpt lat="38.102195" lon="14.9179233"><ele>1051.6000000000001</ele><time>2026-04-04T10:20:46.706Z</time></trkpt><trkpt lat="38.1020833" lon="14.9179"><ele>1052.8</ele><time>2026-04-04T10:20:48.707Z</time></trkpt><trkpt lat="38.1019967" lon="14.91783"><ele>1054.0</ele><time>2026-04-04T10:20:50.706Z</time></trkpt><trkpt lat="38.10196" lon="14.9177383"><ele>1054.0000000000002</ele><time>2026-04-04T10:20:52.707Z</time></trkpt><trkpt lat="38.1019267" lon="14.9176467"><ele>1054.0</ele><time>2026-04-04T10:20:54.707Z</time></trkpt><trkpt lat="38.101875" lon="14.9175483"><ele>1054.0</ele><time>2026-04-04T10:20:56.707Z</time></trkpt><trkpt lat="38.10182" lon="14.9174983"><ele>1054.0</ele><time>2026-04-04T10:20:58.707Z</time></trkpt><trkpt lat="38.1017567" lon="14.9174833"><ele>1054.0</ele><time>2026-04-04T10:21:00.707Z</time></trkpt><trkpt lat="38.101695" lon="14.9174617"><ele>1054.0000000000002</ele><time>2026-04-04T10:21:02.707Z</time></trkpt><trkpt lat="38.1016233" lon="14.9174483"><ele>1054.0</ele><time>2026-04-04T10:21:04.706Z</time></trkpt><trkpt lat="38.1015567" lon="14.9174217"><ele>1050.0</ele><time>2026-04-04T10:21:06.707Z</time></trkpt><trkpt lat="38.1014783" lon="14.9173967"><ele>1046.0</ele><time>2026-04-04T10:21:08.706Z</time></trkpt><trkpt lat="38.1014117" lon="14.9173483"><ele>1042.0</ele><time>2026-04-04T10:21:10.707Z</time></trkpt><trkpt lat="38.1013467" lon="14.917325"><ele>1038.0</ele><time>2026-04-04T10:21:12.707Z</time></trkpt><trkpt lat="38.1012667" lon="14.9172967"><ele>1034.0</ele><time>2026-04-04T10:21:14.706Z</time></trkpt><trkpt lat="38.10118" lon="14.9172733"><ele>1030.0</ele><time>2026-04-04T10:21:16.707Z</time></trkpt><trkpt lat="38.1010917" lon="14.9172767"><ele>1030.0</ele><time>2026-04-04T10:21:18.706Z</time></trkpt><trkpt lat="38.101085" lon="14.9171717"><ele>1030.0</ele><time>2026-04-04T10:21:21.707Z</time></trkpt><trkpt lat="38.101185" lon="14.9171133"><ele>1030.0</ele><time>2026-04-04T10:21:23.706Z</time></trkpt><trkpt lat="38.1012383" lon="14.9170667"><ele>1030.0</ele><time>2026-04-04T10:21:24.706Z</time></trkpt><trkpt lat="38.1013083" lon="14.9169467"><ele>1030.0</ele><time>2026-04-04T10:21:26.706Z</time></trkpt><trkpt lat="38.10135" lon="14.9168333"><ele>1024.2</ele><time>2026-04-04T10:21:28.706Z</time></trkpt><trkpt lat="38.1013833" lon="14.91673"><ele>1018.4</ele><time>2026-04-04T10:21:30.707Z</time></trkpt><trkpt lat="38.1014233" lon="14.9166167"><ele>1012.5999999999999</ele><time>2026-04-04T10:21:32.707Z</time></trkpt><trkpt lat="38.1014833" lon="14.9165267"><ele>1006.8</ele><time>2026-04-04T10:21:34.707Z</time></trkpt><trkpt lat="38.1015233" lon="14.91641"><ele>1001.0</ele><time>2026-04-04T10:21:36.707Z</time></trkpt><trkpt lat="38.1015267" lon="14.9162967"><ele>1001.0000000000001</ele><time>2026-04-04T10:21:38.706Z</time></trkpt><trkpt lat="38.1014733" lon="14.9162283"><ele>1001.0</ele><time>2026-04-04T10:21:40.706Z</time></trkpt><trkpt lat="38.1013883" lon="14.9161833"><ele>1001.0</ele><time>2026-04-04T10:21:42.706Z</time></trkpt><trkpt lat="38.101315" lon="14.9161567"><ele>1001.0</ele><time>2026-04-04T10:21:43.707Z</time></trkpt><trkpt lat="38.1012333" lon="14.9161317"><ele>1001.0000000000001</ele><time>2026-04-04T10:21:44.706Z</time></trkpt><trkpt lat="38.1011583" lon="14.9161167"><ele>1001.0</ele><time>2026-04-04T10:21:45.707Z</time></trkpt><trkpt lat="38.1010933" lon="14.9161233"><ele>1001.0</ele><time>2026-04-04T10:21:46.707Z</time></trkpt><trkpt lat="38.1009867" lon="14.9160817"><ele>1000.9999999999999</ele><time>2026-04-04T10:21:48.707Z</time></trkpt><trkpt lat="38.1009183" lon="14.91597"><ele>1000.9999999999999</ele><time>2026-04-04T10:21:50.706Z</time></trkpt><trkpt lat="38.1008883" lon="14.9158983"><ele>1001.0</ele><time>2026-04-04T10:21:51.707Z</time></trkpt><trkpt lat="38.1008383" lon="14.9157683"><ele>1001.0</ele><time>2026-04-04T10:21:53.706Z</time></trkpt><trkpt lat="38.10079" lon="14.9156633"><ele>997.8333333333334</ele><time>2026-04-04T10:21:55.707Z</time></trkpt><trkpt lat="38.1007667" lon="14.915535"><ele>994.6666666666667</ele><time>2026-04-04T10:21:57.706Z</time></trkpt><trkpt lat="38.1007567" lon="14.9153933"><ele>991.5</ele><time>2026-04-04T10:21:59.707Z</time></trkpt><trkpt lat="38.1007283" lon="14.915295"><ele>988.3333333333333</ele><time>2026-04-04T10:22:01.707Z</time></trkpt><trkpt lat="38.1006883" lon="14.91523"><ele>985.1666666666666</ele><time>2026-04-04T10:22:04.706Z</time></trkpt><trkpt lat="38.1006217" lon="14.91521"><ele>982.0</ele><time>2026-04-04T10:22:08.706Z</time></trkpt><trkpt lat="38.1005483" lon="14.9151833"><ele>980.4285714285713</ele><time>2026-04-04T10:22:11.706Z</time></trkpt><trkpt lat="38.1005533" lon="14.9151033"><ele>978.8571428571428</ele><time>2026-04-04T10:22:14.707Z</time></trkpt><trkpt lat="38.100515" lon="14.9150283"><ele>977.2857142857142</ele><time>2026-04-04T10:22:18.706Z</time></trkpt><trkpt lat="38.1004467" lon="14.9150417"><ele>975.7142857142858</ele><time>2026-04-04T10:22:22.707Z</time></trkpt><trkpt lat="38.1003833" lon="14.915035"><ele>974.1428571428572</ele><time>2026-04-04T10:22:26.707Z</time></trkpt><trkpt lat="38.100355" lon="14.9149533"><ele>972.5714285714287</ele><time>2026-04-04T10:22:41.707Z</time></trkpt><trkpt lat="38.1003717" lon="14.9148667"><ele>971.0</ele><time>2026-04-04T10:22:45.707Z</time></trkpt><trkpt lat="38.10038" lon="14.91476"><ele>967.8333333333334</ele><time>2026-04-04T10:22:48.707Z</time></trkpt><trkpt lat="38.1003433" lon="14.914675"><ele>964.6666666666667</ele><time>2026-04-04T10:22:51.707Z</time></trkpt><trkpt lat="38.1002783" lon="14.9145983"><ele>961.5</ele><time>2026-04-04T10:22:54.707Z</time></trkpt><trkpt lat="38.10026" lon="14.9144817"><ele>958.3333333333333</ele><time>2026-04-04T10:22:57.707Z</time></trkpt><trkpt lat="38.10023" lon="14.9144017"><ele>955.1666666666666</ele><time>2026-04-04T10:22:59.707Z</time></trkpt><trkpt lat="38.1002033" lon="14.9142933"><ele>952.0</ele><time>2026-04-04T10:23:02.707Z</time></trkpt><trkpt lat="38.1001933" lon="14.9141867"><ele>949.4999999999999</ele><time>2026-04-04T10:23:04.707Z</time></trkpt><trkpt lat="38.100175" lon="14.9140833"><ele>947.0</ele><time>2026-04-04T10:23:06.707Z</time></trkpt><trkpt lat="38.10016" lon="14.9139883"><ele>944.5</ele><time>2026-04-04T10:23:08.707Z</time></trkpt><trkpt lat="38.1001417" lon="14.9138867"><ele>942.0</ele><time>2026-04-04T10:23:10.706Z</time></trkpt><trkpt lat="38.100115" lon="14.9137983"><ele>939.4999999999999</ele><time>2026-04-04T10:23:12.706Z</time></trkpt><trkpt lat="38.1000617" lon="14.91374"><ele>937.0</ele><time>2026-04-04T10:23:14.707Z</time></trkpt><trkpt lat="38.0999983" lon="14.913705"><ele>936.9999999999999</ele><time>2026-04-04T10:23:16.707Z</time></trkpt><trkpt lat="38.0999367" lon="14.9136383"><ele>937.0</ele><time>2026-04-04T10:23:19.707Z</time></trkpt><trkpt lat="38.1000133" lon="14.9135917"><ele>937.0</ele><time>2026-04-04T10:23:22.706Z</time></trkpt><trkpt lat="38.1000733" lon="14.9135533"><ele>937.0</ele><time>2026-04-04T10:23:24.706Z</time></trkpt><trkpt lat="38.1000783" lon="14.9134733"><ele>936.9999999999999</ele><time>2026-04-04T10:23:27.707Z</time></trkpt><trkpt lat="38.099995" lon="14.91336"><ele>937.0</ele><time>2026-04-04T10:23:43.706Z</time></trkpt><trkpt lat="38.0999333" lon="14.9133033"><ele>932.4285714285713</ele><time>2026-04-04T10:23:47.707Z</time></trkpt><trkpt lat="38.09987" lon="14.9132733"><ele>927.8571428571429</ele><time>2026-04-04T10:23:52.707Z</time></trkpt><trkpt lat="38.0998033" lon="14.9132333"><ele>923.2857142857142</ele><time>2026-04-04T10:23:55.707Z</time></trkpt><trkpt lat="38.0997433" lon="14.9131867"><ele>918.7142857142857</ele><time>2026-04-04T10:24:59.707Z</time></trkpt><trkpt lat="38.09969" lon="14.9131433"><ele>914.1428571428571</ele><time>2026-04-04T10:25:01.706Z</time></trkpt><trkpt lat="38.099635" lon="14.9130517"><ele>909.5714285714286</ele><time>2026-04-04T10:25:04.707Z</time></trkpt><trkpt lat="38.0996167" lon="14.912975"><ele>905.0</ele><time>2026-04-04T10:25:06.706Z</time></trkpt><trkpt lat="38.0996133" lon="14.91288"><ele>905.0</ele><time>2026-04-04T10:25:09.706Z</time></trkpt><trkpt lat="38.0996283" lon="14.9127833"><ele>904.9999999999999</ele><time>2026-04-04T10:25:13.707Z</time></trkpt><trkpt lat="38.0995783" lon="14.9127217"><ele>905.0</ele><time>2026-04-04T10:25:16.706Z</time></trkpt><trkpt lat="38.09954" lon="14.9126533"><ele>905.0</ele><time>2026-04-04T10:25:19.706Z</time></trkpt><trkpt lat="38.0994983" lon="14.912585"><ele>904.9999999999999</ele><time>2026-04-04T10:25:24.707Z</time></trkpt><trkpt lat="38.0994183" lon="14.9125883"><ele>905.0</ele><time>2026-04-04T10:25:27.707Z</time></trkpt><trkpt lat="38.0993435" lon="14.9125518"><ele>905.0</ele><time>2026-04-04T10:25:31.706Z</time></trkpt><trkpt lat="38.0993036" lon="14.9124796"><ele>903.1666666666667</ele><time>2026-04-04T10:25:35.707Z</time></trkpt><trkpt lat="38.099313" lon="14.9123917"><ele>901.3333333333334</ele><time>2026-04-04T10:25:38.707Z</time></trkpt><trkpt lat="38.0993477" lon="14.9122885"><ele>899.5</ele><time>2026-04-04T10:25:41.706Z</time></trkpt><trkpt lat="38.0993811" lon="14.912207"><ele>897.6666666666667</ele><time>2026-04-04T10:25:43.707Z</time></trkpt><trkpt lat="38.0994137" lon="14.9121108"><ele>895.8333333333334</ele><time>2026-04-04T10:25:46.706Z</time></trkpt><trkpt lat="38.0994311" lon="14.912016"><ele>894.0</ele><time>2026-04-04T10:25:49.707Z</time></trkpt><trkpt lat="38.0993699" lon="14.9119716"><ele>894.0</ele><time>2026-04-04T10:25:52.707Z</time></trkpt><trkpt lat="38.0992983" lon="14.9119502"><ele>894.0</ele><time>2026-04-04T10:25:55.706Z</time></trkpt><trkpt lat="38.0992509" lon="14.9118761"><ele>894.0</ele><time>2026-04-04T10:25:58.707Z</time></trkpt><trkpt lat="38.0992659" lon="14.9117689"><ele>894.0</ele><time>2026-04-04T10:26:01.706Z</time></trkpt><trkpt lat="38.0993309" lon="14.9116959"><ele>894.0</ele><time>2026-04-04T10:26:04.707Z</time></trkpt><trkpt lat="38.0994028" lon="14.9116136"><ele>894.0</ele><time>2026-04-04T10:26:06.707Z</time></trkpt><trkpt lat="38.0994817" lon="14.9115117"><ele>890.2</ele><time>2026-04-04T10:26:08.706Z</time></trkpt><trkpt lat="38.099555" lon="14.9114233"><ele>886.4000000000001</ele><time>2026-04-04T10:26:10.707Z</time></trkpt><trkpt lat="38.0996367" lon="14.91136"><ele>882.6</ele><time>2026-04-04T10:26:12.707Z</time></trkpt><trkpt lat="38.0997233" lon="14.9113167"><ele>878.8</ele><time>2026-04-04T10:26:14.708Z</time></trkpt><trkpt lat="38.0998233" lon="14.91126"><ele>875.0</ele><time>2026-04-04T10:26:16.708Z</time></trkpt><trkpt lat="38.0999117" lon="14.9112583"><ele>877.3333333333334</ele><time>2026-04-04T10:26:18.707Z</time></trkpt><trkpt lat="38.0999867" lon="14.9112617"><ele>879.6666666666667</ele><time>2026-04-04T10:26:20.707Z</time></trkpt><trkpt lat="38.10007" lon="14.911255"><ele>882.0</ele><time>2026-04-04T10:26:22.708Z</time></trkpt><trkpt lat="38.1001633" lon="14.9112267"><ele>884.3333333333333</ele><time>2026-04-04T10:26:24.708Z</time></trkpt><trkpt lat="38.100245" lon="14.91117"><ele>886.6666666666666</ele><time>2026-04-04T10:26:26.708Z</time></trkpt><trkpt lat="38.10031" lon="14.9110833"><ele>889.0</ele><time>2026-04-04T10:26:28.708Z</time></trkpt><trkpt lat="38.100385" lon="14.9110017"><ele>888.9999999999999</ele><time>2026-04-04T10:26:30.708Z</time></trkpt><trkpt lat="38.1004417" lon="14.91096"><ele>889.0</ele><time>2026-04-04T10:26:32.707Z</time></trkpt><trkpt lat="38.1004483" lon="14.9108717"><ele>889.0</ele><time>2026-04-04T10:26:36.707Z</time></trkpt><trkpt lat="38.1003633" lon="14.9108483"><ele>889.0</ele><time>2026-04-04T10:26:39.707Z</time></trkpt><trkpt lat="38.1003883" lon="14.9107633"><ele>888.9999999999999</ele><time>2026-04-04T10:26:43.708Z</time></trkpt><trkpt lat="38.1004567" lon="14.9106933"><ele>889.0</ele><time>2026-04-04T10:26:45.708Z</time></trkpt><trkpt lat="38.1003883" lon="14.91066"><ele>884.9999999999999</ele><time>2026-04-04T10:26:51.708Z</time></trkpt><trkpt lat="38.1003017" lon="14.91066"><ele>881.0</ele><time>2026-04-04T10:26:53.708Z</time></trkpt><trkpt lat="38.1002217" lon="14.910635"><ele>877.0</ele><time>2026-04-04T10:26:55.708Z</time></trkpt><trkpt lat="38.1001333" lon="14.9105783"><ele>873.0</ele><time>2026-04-04T10:26:57.708Z</time></trkpt><trkpt lat="38.10009" lon="14.9105167"><ele>868.9999999999999</ele><time>2026-04-04T10:26:58.707Z</time></trkpt><trkpt lat="38.100055" lon="14.9104467"><ele>865.0</ele><time>2026-04-04T10:26:59.707Z</time></trkpt><trkpt lat="38.1000033" lon="14.9103083"><ele>865.0</ele><time>2026-04-04T10:27:01.707Z</time></trkpt><trkpt lat="38.0999367" lon="14.9102033"><ele>865.0</ele><time>2026-04-04T10:27:03.707Z</time></trkpt><trkpt lat="38.09985" lon="14.910145"><ele>865.0</ele><time>2026-04-04T10:27:05.708Z</time></trkpt><trkpt lat="38.0997717" lon="14.9100817"><ele>865.0</ele><time>2026-04-04T10:27:07.708Z</time></trkpt><trkpt lat="38.0996733" lon="14.9100017"><ele>865.0</ele><time>2026-04-04T10:27:09.708Z</time></trkpt><trkpt lat="38.099555" lon="14.9099517"><ele>860.2</ele><time>2026-04-04T10:27:11.708Z</time></trkpt><trkpt lat="38.0994367" lon="14.9099133"><ele>855.4</ele><time>2026-04-04T10:27:13.708Z</time></trkpt><trkpt lat="38.0993767" lon="14.9098867"><ele>850.5999999999999</ele><time>2026-04-04T10:27:14.708Z</time></trkpt><trkpt lat="38.0992767" lon="14.9098617"><ele>845.8</ele><time>2026-04-04T10:27:16.708Z</time></trkpt><trkpt lat="38.0991867" lon="14.9098933"><ele>841.0</ele><time>2026-04-04T10:27:18.708Z</time></trkpt><trkpt lat="38.099105" lon="14.9099783"><ele>841.5</ele><time>2026-04-04T10:27:20.708Z</time></trkpt><trkpt lat="38.09903" lon="14.910055"><ele>842.0</ele><time>2026-04-04T10:27:22.708Z</time></trkpt><trkpt lat="38.098935" lon="14.9101367"><ele>842.5</ele><time>2026-04-04T10:27:24.708Z</time></trkpt><trkpt lat="38.0988333" lon="14.9102117"><ele>843.0</ele><time>2026-04-04T10:27:26.707Z</time></trkpt><trkpt lat="38.0987217" lon="14.9102917"><ele>843.0</ele><time>2026-04-04T10:27:28.708Z</time></trkpt><trkpt lat="38.09866" lon="14.9103183"><ele>843.0</ele><time>2026-04-04T10:27:29.708Z</time></trkpt><trkpt lat="38.0985417" lon="14.9103533"><ele>843.0</ele><time>2026-04-04T10:27:31.708Z</time></trkpt><trkpt lat="38.0984267" lon="14.910385"><ele>843.0</ele><time>2026-04-04T10:27:33.708Z</time></trkpt><trkpt lat="38.0983183" lon="14.9104267"><ele>843.0</ele><time>2026-04-04T10:27:35.708Z</time></trkpt><trkpt lat="38.0982167" lon="14.91047"><ele>840.0</ele><time>2026-04-04T10:27:37.707Z</time></trkpt><trkpt lat="38.0981217" lon="14.91051"><ele>837.0</ele><time>2026-04-04T10:27:39.708Z</time></trkpt><trkpt lat="38.0980283" lon="14.91055"><ele>834.0</ele><time>2026-04-04T10:27:41.708Z</time></trkpt><trkpt lat="38.0979333" lon="14.9105833"><ele>831.0</ele><time>2026-04-04T10:27:43.708Z</time></trkpt><trkpt lat="38.0978633" lon="14.9105967"><ele>828.0</ele><time>2026-04-04T10:27:45.708Z</time></trkpt><trkpt lat="38.0977967" lon="14.9105467"><ele>825.0</ele><time>2026-04-04T10:27:47.707Z</time></trkpt><trkpt lat="38.097745" lon="14.91044"><ele>825.0</ele><time>2026-04-04T10:27:49.708Z</time></trkpt><trkpt lat="38.0976783" lon="14.9104033"><ele>825.0</ele><time>2026-04-04T10:27:52.708Z</time></trkpt><trkpt lat="38.0976133" lon="14.910465"><ele>825.0</ele><time>2026-04-04T10:27:54.708Z</time></trkpt><trkpt lat="38.097555" lon="14.910535"><ele>825.0</ele><time>2026-04-04T10:27:56.707Z</time></trkpt><trkpt lat="38.0974767" lon="14.9104717"><ele>825.0</ele><time>2026-04-04T10:27:59.708Z</time></trkpt><trkpt lat="38.0974933" lon="14.9103617"><ele>825.0</ele><time>2026-04-04T10:28:01.708Z</time></trkpt><trkpt lat="38.0975417" lon="14.9102667"><ele>825.0</ele><time>2026-04-04T10:28:03.707Z</time></trkpt><trkpt lat="38.0975833" lon="14.9101583"><ele>825.0</ele><time>2026-04-04T10:28:05.707Z</time></trkpt><trkpt lat="38.0976283" lon="14.9100367"><ele>825.0</ele><time>2026-04-04T10:28:07.707Z</time></trkpt><trkpt lat="38.0976833" lon="14.9099267"><ele>825.0</ele><time>2026-04-04T10:28:09.708Z</time></trkpt><trkpt lat="38.0977333" lon="14.909795"><ele>825.0</ele><time>2026-04-04T10:28:11.707Z</time></trkpt><trkpt lat="38.09778" lon="14.9096483"><ele>822.4</ele><time>2026-04-04T10:28:13.708Z</time></trkpt><trkpt lat="38.097795" lon="14.9095683"><ele>819.8</ele><time>2026-04-04T10:28:14.707Z</time></trkpt><trkpt lat="38.0978167" lon="14.909485"><ele>817.2</ele><time>2026-04-04T10:28:15.708Z</time></trkpt><trkpt lat="38.0978683" lon="14.9093517"><ele>814.6</ele><time>2026-04-04T10:28:17.708Z</time></trkpt><trkpt lat="38.097925" lon="14.909245"><ele>812.0</ele><time>2026-04-04T10:28:19.707Z</time></trkpt><trkpt lat="38.0979917" lon="14.9091233"><ele>809.4000000000001</ele><time>2026-04-04T10:28:21.708Z</time></trkpt><trkpt lat="38.0980567" lon="14.9089833"><ele>806.8000000000001</ele><time>2026-04-04T10:28:23.708Z</time></trkpt><trkpt lat="38.0980967" lon="14.9089117"><ele>804.2</ele><time>2026-04-04T10:28:24.708Z</time></trkpt><trkpt lat="38.098165" lon="14.9088017"><ele>801.6</ele><time>2026-04-04T10:28:26.708Z</time></trkpt><trkpt lat="38.09821" lon="14.9086833"><ele>799.0</ele><time>2026-04-04T10:28:28.708Z</time></trkpt><trkpt lat="38.09819" lon="14.9085633"><ele>799.0</ele><time>2026-04-04T10:28:30.708Z</time></trkpt><trkpt lat="38.0981333" lon="14.9084683"><ele>799.0</ele><time>2026-04-04T10:28:32.708Z</time></trkpt><trkpt lat="38.0980633" lon="14.9083867"><ele>799.0</ele><time>2026-04-04T10:28:34.708Z</time></trkpt><trkpt lat="38.0979917" lon="14.9083367"><ele>799.0</ele><time>2026-04-04T10:28:36.708Z</time></trkpt><trkpt lat="38.097905" lon="14.9083217"><ele>799.0</ele><time>2026-04-04T10:28:38.708Z</time></trkpt><trkpt lat="38.09783" lon="14.9082517"><ele>796.6666666666666</ele><time>2026-04-04T10:28:41.708Z</time></trkpt><trkpt lat="38.0978317" lon="14.9081667"><ele>794.3333333333333</ele><time>2026-04-04T10:28:43.708Z</time></trkpt><trkpt lat="38.097895" lon="14.9080833"><ele>792.0</ele><time>2026-04-04T10:28:46.708Z</time></trkpt><trkpt lat="38.0979517" lon="14.9080033"><ele>789.6666666666667</ele><time>2026-04-04T10:28:48.708Z</time></trkpt><trkpt lat="38.0980067" lon="14.907905"><ele>787.3333333333334</ele><time>2026-04-04T10:28:50.708Z</time></trkpt><trkpt lat="38.0980417" lon="14.9077917"><ele>785.0</ele><time>2026-04-04T10:28:52.707Z</time></trkpt><trkpt lat="38.0980917" lon="14.90767"><ele>784.3333333333334</ele><time>2026-04-04T10:28:54.708Z</time></trkpt><trkpt lat="38.09814" lon="14.9075267"><ele>783.6666666666667</ele><time>2026-04-04T10:28:56.708Z</time></trkpt><trkpt lat="38.0981683" lon="14.9074383"><ele>783.0</ele><time>2026-04-04T10:28:57.708Z</time></trkpt><trkpt lat="38.0982" lon="14.9073517"><ele>782.3333333333333</ele><time>2026-04-04T10:28:58.708Z</time></trkpt><trkpt lat="38.09824" lon="14.90728"><ele>781.6666666666666</ele><time>2026-04-04T10:28:59.707Z</time></trkpt><trkpt lat="38.0982733" lon="14.9072117"><ele>781.0</ele><time>2026-04-04T10:29:00.708Z</time></trkpt><trkpt lat="38.0983467" lon="14.9070967"><ele>781.0</ele><time>2026-04-04T10:29:02.707Z</time></trkpt><trkpt lat="38.0984217" lon="14.9070133"><ele>781.0</ele><time>2026-04-04T10:29:04.708Z</time></trkpt><trkpt lat="38.0984967" lon="14.9069117"><ele>781.0</ele><time>2026-04-04T10:29:06.707Z</time></trkpt><trkpt lat="38.0985917" lon="14.906825"><ele>781.0</ele><time>2026-04-04T10:29:08.707Z</time></trkpt><trkpt lat="38.09869" lon="14.9067383"><ele>781.0</ele><time>2026-04-04T10:29:10.708Z</time></trkpt><trkpt lat="38.09875" lon="14.90668"><ele>777.4999999999999</ele><time>2026-04-04T10:29:11.708Z</time></trkpt><trkpt lat="38.0988133" lon="14.906645"><ele>774.0</ele><time>2026-04-04T10:29:12.708Z</time></trkpt><trkpt lat="38.0988733" lon="14.90661"><ele>770.5</ele><time>2026-04-04T10:29:13.707Z</time></trkpt><trkpt lat="38.0989333" lon="14.9065667"><ele>767.0</ele><time>2026-04-04T10:29:14.708Z</time></trkpt><trkpt lat="38.09905" lon="14.9065133"><ele>763.5</ele><time>2026-04-04T10:29:16.708Z</time></trkpt><trkpt lat="38.0991217" lon="14.9065083"><ele>760.0</ele><time>2026-04-04T10:29:17.708Z</time></trkpt><trkpt lat="38.0991983" lon="14.906525"><ele>759.6666666666667</ele><time>2026-04-04T10:29:18.707Z</time></trkpt><trkpt lat="38.0992717" lon="14.9065567"><ele>759.3333333333334</ele><time>2026-04-04T10:29:19.707Z</time></trkpt><trkpt lat="38.0993333" lon="14.90659"><ele>759.0</ele><time>2026-04-04T10:29:20.708Z</time></trkpt><trkpt lat="38.0994117" lon="14.9066533"><ele>758.6666666666666</ele><time>2026-04-04T10:29:22.708Z</time></trkpt><trkpt lat="38.0994967" lon="14.906695"><ele>758.3333333333333</ele><time>2026-04-04T10:29:25.708Z</time></trkpt><trkpt lat="38.0995017" lon="14.9066067"><ele>758.0</ele><time>2026-04-04T10:29:28.707Z</time></trkpt><trkpt lat="38.099425" lon="14.9065183"><ele>758.0</ele><time>2026-04-04T10:29:30.708Z</time></trkpt><trkpt lat="38.099345" lon="14.9064467"><ele>758.0</ele><time>2026-04-04T10:29:31.708Z</time></trkpt><trkpt lat="38.0992533" lon="14.9063667"><ele>758.0</ele><time>2026-04-04T10:29:32.707Z</time></trkpt><trkpt lat="38.099175" lon="14.90628"><ele>758.0</ele><time>2026-04-04T10:29:33.707Z</time></trkpt><trkpt lat="38.09911" lon="14.9061867"><ele>758.0</ele><time>2026-04-04T10:29:34.708Z</time></trkpt><trkpt lat="38.0990583" lon="14.906095"><ele>758.2857142857143</ele><time>2026-04-04T10:29:35.708Z</time></trkpt><trkpt lat="38.099015" lon="14.9060133"><ele>758.5714285714286</ele><time>2026-04-04T10:29:36.708Z</time></trkpt><trkpt lat="38.0989767" lon="14.9059417"><ele>758.8571428571429</ele><time>2026-04-04T10:29:37.708Z</time></trkpt><trkpt lat="38.098925" lon="14.9058867"><ele>759.1428571428571</ele><time>2026-04-04T10:29:38.708Z</time></trkpt><trkpt lat="38.098865" lon="14.905845"><ele>759.4285714285714</ele><time>2026-04-04T10:29:39.708Z</time></trkpt><trkpt lat="38.0988017" lon="14.905825"><ele>759.7142857142858</ele><time>2026-04-04T10:29:40.707Z</time></trkpt><trkpt lat="38.098725" lon="14.9058283"><ele>760.0</ele><time>2026-04-04T10:29:41.708Z</time></trkpt><trkpt lat="38.0986483" lon="14.9058517"><ele>760.0</ele><time>2026-04-04T10:29:42.707Z</time></trkpt><trkpt lat="38.0985733" lon="14.90588"><ele>760.0</ele><time>2026-04-04T10:29:43.708Z</time></trkpt><trkpt lat="38.0984983" lon="14.9059317"><ele>760.0</ele><time>2026-04-04T10:29:44.707Z</time></trkpt><trkpt lat="38.0984317" lon="14.9060017"><ele>760.0</ele><time>2026-04-04T10:29:45.707Z</time></trkpt><trkpt lat="38.0983633" lon="14.9060783"><ele>760.0</ele><time>2026-04-04T10:29:46.707Z</time></trkpt><trkpt lat="38.0983067" lon="14.9061517"><ele>760.0</ele><time>2026-04-04T10:29:47.707Z</time></trkpt><trkpt lat="38.0982467" lon="14.9062167"><ele>759.1666666666667</ele><time>2026-04-04T10:29:48.707Z</time></trkpt><trkpt lat="38.0981833" lon="14.9062767"><ele>758.3333333333334</ele><time>2026-04-04T10:29:49.708Z</time></trkpt><trkpt lat="38.098115" lon="14.9063033"><ele>757.5</ele><time>2026-04-04T10:29:50.707Z</time></trkpt><trkpt lat="38.0980483" lon="14.9063117"><ele>756.6666666666666</ele><time>2026-04-04T10:29:51.708Z</time></trkpt><trkpt lat="38.0979683" lon="14.9062433"><ele>755.8333333333333</ele><time>2026-04-04T10:29:53.708Z</time></trkpt><trkpt lat="38.0979517" lon="14.90613"><ele>755.0</ele><time>2026-04-04T10:29:54.708Z</time></trkpt><trkpt lat="38.0979217" lon="14.90602"><ele>755.0</ele><time>2026-04-04T10:29:55.707Z</time></trkpt><trkpt lat="38.09788" lon="14.905915"><ele>755.0</ele><time>2026-04-04T10:29:56.708Z</time></trkpt><trkpt lat="38.0978383" lon="14.9058283"><ele>755.0</ele><time>2026-04-04T10:29:57.708Z</time></trkpt><trkpt lat="38.0977833" lon="14.90577"><ele>755.0</ele><time>2026-04-04T10:29:58.708Z</time></trkpt><trkpt lat="38.09771" lon="14.9057417"><ele>755.0</ele><time>2026-04-04T10:29:59.708Z</time></trkpt><trkpt lat="38.097635" lon="14.90574"><ele>755.0</ele><time>2026-04-04T10:30:00.707Z</time></trkpt><trkpt lat="38.0975583" lon="14.9057567"><ele>751.1666666666666</ele><time>2026-04-04T10:30:01.708Z</time></trkpt><trkpt lat="38.09748" lon="14.9057717"><ele>747.3333333333333</ele><time>2026-04-04T10:30:02.708Z</time></trkpt><trkpt lat="38.0974017" lon="14.90579"><ele>743.5</ele><time>2026-04-04T10:30:03.708Z</time></trkpt><trkpt lat="38.0973283" lon="14.9057967"><ele>739.6666666666666</ele><time>2026-04-04T10:30:04.708Z</time></trkpt><trkpt lat="38.09725" lon="14.9058133"><ele>735.8333333333334</ele><time>2026-04-04T10:30:05.707Z</time></trkpt><trkpt lat="38.0971733" lon="14.9058317"><ele>732.0</ele><time>2026-04-04T10:30:06.707Z</time></trkpt><trkpt lat="38.0970967" lon="14.9058317"><ele>731.0</ele><time>2026-04-04T10:30:07.708Z</time></trkpt><trkpt lat="38.09703" lon="14.90584"><ele>730.0</ele><time>2026-04-04T10:30:08.708Z</time></trkpt><trkpt lat="38.0969617" lon="14.905845"><ele>729.0</ele><time>2026-04-04T10:30:09.708Z</time></trkpt><trkpt lat="38.0968417" lon="14.905875"><ele>728.0</ele><time>2026-04-04T10:30:11.708Z</time></trkpt><trkpt lat="38.0967733" lon="14.9059"><ele>727.0</ele><time>2026-04-04T10:30:12.708Z</time></trkpt><trkpt lat="38.0966917" lon="14.9059067"><ele>726.0</ele><time>2026-04-04T10:30:13.708Z</time></trkpt><trkpt lat="38.0966083" lon="14.9058933"><ele>725.5999999999999</ele><time>2026-04-04T10:30:14.707Z</time></trkpt><trkpt lat="38.0965267" lon="14.9058633"><ele>725.2</ele><time>2026-04-04T10:30:15.708Z</time></trkpt><trkpt lat="38.0964483" lon="14.9057983"><ele>724.8</ele><time>2026-04-04T10:30:16.708Z</time></trkpt><trkpt lat="38.096365" lon="14.905725"><ele>724.4000000000001</ele><time>2026-04-04T10:30:17.708Z</time></trkpt><trkpt lat="38.0962817" lon="14.9056683"><ele>724.0</ele><time>2026-04-04T10:30:18.708Z</time></trkpt><trkpt lat="38.0961917" lon="14.9056333"><ele>724.0</ele><time>2026-04-04T10:30:19.708Z</time></trkpt><trkpt lat="38.096105" lon="14.9056267"><ele>724.0</ele><time>2026-04-04T10:30:20.708Z</time></trkpt><trkpt lat="38.0960217" lon="14.9056317"><ele>724.0</ele><time>2026-04-04T10:30:21.708Z</time></trkpt><trkpt lat="38.095955" lon="14.90563"><ele>724.0</ele><time>2026-04-04T10:30:22.707Z</time></trkpt><trkpt lat="38.0958533" lon="14.9056033"><ele>724.0</ele><time>2026-04-04T10:30:24.708Z</time></trkpt><trkpt lat="38.0957817" lon="14.9054933"><ele>722.6666666666667</ele><time>2026-04-04T10:30:26.707Z</time></trkpt><trkpt lat="38.0957533" lon="14.9054017"><ele>721.3333333333334</ele><time>2026-04-04T10:30:27.707Z</time></trkpt><trkpt lat="38.09573" lon="14.905305"><ele>720.0</ele><time>2026-04-04T10:30:28.708Z</time></trkpt><trkpt lat="38.0957" lon="14.9052283"><ele>718.6666666666666</ele><time>2026-04-04T10:30:29.707Z</time></trkpt><trkpt lat="38.095665" lon="14.90509"><ele>717.3333333333333</ele><time>2026-04-04T10:30:31.707Z</time></trkpt><trkpt lat="38.095645" lon="14.9049983"><ele>716.0</ele><time>2026-04-04T10:30:33.708Z</time></trkpt><trkpt lat="38.0956217" lon="14.904915"><ele>716.0</ele><time>2026-04-04T10:30:36.707Z</time></trkpt><trkpt lat="38.09564" lon="14.9049917"><ele>716.0</ele><time>2026-04-04T10:30:43.707Z</time></trkpt><trkpt lat="38.0956183" lon="14.9050717"><ele>716.0</ele><time>2026-04-04T10:32:06.707Z</time></trkpt><trkpt lat="38.0956738" lon="14.9050106"><ele>716.0</ele><time>2026-04-04T10:42:54.709Z</time></trkpt><trkpt lat="38.0956842" lon="14.9051107"><ele>716.0</ele><time>2026-04-04T10:52:49.712Z</time></trkpt><trkpt lat="38.0956988" lon="14.9051902"><ele>716.0</ele><time>2026-04-04T10:52:51.712Z</time></trkpt><trkpt lat="38.0957422" lon="14.9053142"><ele>717.3333333333333</ele><time>2026-04-04T10:52:53.712Z</time></trkpt><trkpt lat="38.095775" lon="14.90546"><ele>718.6666666666666</ele><time>2026-04-04T10:52:55.712Z</time></trkpt><trkpt lat="38.0958" lon="14.905535"><ele>720.0</ele><time>2026-04-04T10:52:56.711Z</time></trkpt><trkpt lat="38.0958383" lon="14.905605"><ele>721.3333333333334</ele><time>2026-04-04T10:52:57.712Z</time></trkpt><trkpt lat="38.0959433" lon="14.9056583"><ele>722.6666666666667</ele><time>2026-04-04T10:52:59.712Z</time></trkpt><trkpt lat="38.0960067" lon="14.9056533"><ele>724.0</ele><time>2026-04-04T10:53:00.712Z</time></trkpt><trkpt lat="38.09608" lon="14.9056483"><ele>724.0</ele><time>2026-04-04T10:53:01.712Z</time></trkpt><trkpt lat="38.0961683" lon="14.905655"><ele>724.0</ele><time>2026-04-04T10:53:02.711Z</time></trkpt><trkpt lat="38.0962733" lon="14.9056867"><ele>724.0</ele><time>2026-04-04T10:53:03.712Z</time></trkpt><trkpt lat="38.0963733" lon="14.90575"><ele>724.0</ele><time>2026-04-04T10:53:04.712Z</time></trkpt><trkpt lat="38.09647" lon="14.9058417"><ele>724.0</ele><time>2026-04-04T10:53:05.712Z</time></trkpt><trkpt lat="38.0965633" lon="14.905915"><ele>724.4000000000001</ele><time>2026-04-04T10:53:06.712Z</time></trkpt><trkpt lat="38.0966517" lon="14.90594"><ele>724.8</ele><time>2026-04-04T10:53:07.712Z</time></trkpt><trkpt lat="38.0967417" lon="14.905935"><ele>725.2</ele><time>2026-04-04T10:53:08.712Z</time></trkpt><trkpt lat="38.0968333" lon="14.9059083"><ele>725.5999999999999</ele><time>2026-04-04T10:53:09.712Z</time></trkpt><trkpt lat="38.0969367" lon="14.905865"><ele>726.0</ele><time>2026-04-04T10:53:10.712Z</time></trkpt><trkpt lat="38.0970517" lon="14.90584"><ele>726.0</ele><time>2026-04-04T10:53:11.712Z</time></trkpt><trkpt lat="38.097165" lon="14.9058233"><ele>726.0</ele><time>2026-04-04T10:53:12.712Z</time></trkpt><trkpt lat="38.0972883" lon="14.9058067"><ele>726.0</ele><time>2026-04-04T10:53:13.712Z</time></trkpt><trkpt lat="38.09741" lon="14.9057983"><ele>726.0</ele><time>2026-04-04T10:53:14.711Z</time></trkpt><trkpt lat="38.0975217" lon="14.9057867"><ele>727.0</ele><time>2026-04-04T10:53:15.712Z</time></trkpt><trkpt lat="38.0976267" lon="14.9057783"><ele>728.0</ele><time>2026-04-04T10:53:16.712Z</time></trkpt><trkpt lat="38.0977167" lon="14.9057867"><ele>729.0</ele><time>2026-04-04T10:53:17.711Z</time></trkpt><trkpt lat="38.097785" lon="14.9058233"><ele>730.0</ele><time>2026-04-04T10:53:18.711Z</time></trkpt><trkpt lat="38.09784" lon="14.9058833"><ele>731.0</ele><time>2026-04-04T10:53:19.712Z</time></trkpt><trkpt lat="38.0978867" lon="14.9059667"><ele>732.0</ele><time>2026-04-04T10:53:20.711Z</time></trkpt><trkpt lat="38.0979267" lon="14.90606"><ele>736.6</ele><time>2026-04-04T10:53:21.712Z</time></trkpt><trkpt lat="38.0979667" lon="14.9061517"><ele>741.2</ele><time>2026-04-04T10:53:22.712Z</time></trkpt><trkpt lat="38.0980017" lon="14.9062383"><ele>745.8</ele><time>2026-04-04T10:53:23.711Z</time></trkpt><trkpt lat="38.098085" lon="14.9063"><ele>750.4</ele><time>2026-04-04T10:53:25.711Z</time></trkpt><trkpt lat="38.0982117" lon="14.9062433"><ele>755.0</ele><time>2026-04-04T10:53:27.711Z</time></trkpt><trkpt lat="38.098295" lon="14.906155"><ele>756.25</ele><time>2026-04-04T10:53:28.712Z</time></trkpt><trkpt lat="38.0983983" lon="14.9060567"><ele>757.5</ele><time>2026-04-04T10:53:29.711Z</time></trkpt><trkpt lat="38.0985033" lon="14.9059583"><ele>758.75</ele><time>2026-04-04T10:53:30.712Z</time></trkpt><trkpt lat="38.0985967" lon="14.9058817"><ele>760.0</ele><time>2026-04-04T10:53:31.712Z</time></trkpt><trkpt lat="38.0986917" lon="14.90583"><ele>760.0</ele><time>2026-04-04T10:53:32.712Z</time></trkpt><trkpt lat="38.0987883" lon="14.9058217"><ele>760.0</ele><time>2026-04-04T10:53:33.712Z</time></trkpt><trkpt lat="38.0988867" lon="14.90583"><ele>760.0</ele><time>2026-04-04T10:53:34.712Z</time></trkpt><trkpt lat="38.098965" lon="14.9059"><ele>760.0</ele><time>2026-04-04T10:53:35.712Z</time></trkpt><trkpt lat="38.0990417" lon="14.9059933"><ele>760.0</ele><time>2026-04-04T10:53:36.712Z</time></trkpt><trkpt lat="38.0991217" lon="14.9061233"><ele>759.6</ele><time>2026-04-04T10:53:37.712Z</time></trkpt><trkpt lat="38.099195" lon="14.9062717"><ele>759.2</ele><time>2026-04-04T10:53:38.712Z</time></trkpt><trkpt lat="38.099275" lon="14.9064017"><ele>758.8</ele><time>2026-04-04T10:53:39.712Z</time></trkpt><trkpt lat="38.0993483" lon="14.9064867"><ele>758.4</ele><time>2026-04-04T10:53:40.711Z</time></trkpt><trkpt lat="38.0994117" lon="14.9065433"><ele>758.0</ele><time>2026-04-04T10:53:41.711Z</time></trkpt><trkpt lat="38.0994867" lon="14.906595"><ele>758.0</ele><time>2026-04-04T10:53:43.712Z</time></trkpt><trkpt lat="38.0993517" lon="14.90654"><ele>758.0</ele><time>2026-04-04T10:53:48.711Z</time></trkpt><trkpt lat="38.0992567" lon="14.9065"><ele>758.0</ele><time>2026-04-04T10:53:49.711Z</time></trkpt><trkpt lat="38.0991467" lon="14.9064767"><ele>758.0</ele><time>2026-04-04T10:53:50.712Z</time></trkpt><trkpt lat="38.0990567" lon="14.9064817"><ele>758.0</ele><time>2026-04-04T10:53:51.711Z</time></trkpt><trkpt lat="38.0989733" lon="14.9065033"><ele>758.3333333333333</ele><time>2026-04-04T10:53:52.712Z</time></trkpt><trkpt lat="38.0988917" lon="14.9065233"><ele>758.6666666666666</ele><time>2026-04-04T10:53:53.712Z</time></trkpt><trkpt lat="38.0988283" lon="14.90657"><ele>759.0</ele><time>2026-04-04T10:53:54.711Z</time></trkpt><trkpt lat="38.0987533" lon="14.9066217"><ele>759.3333333333334</ele><time>2026-04-04T10:53:55.712Z</time></trkpt><trkpt lat="38.0986783" lon="14.906695"><ele>759.6666666666667</ele><time>2026-04-04T10:53:56.711Z</time></trkpt><trkpt lat="38.0985967" lon="14.9067817"><ele>760.0</ele><time>2026-04-04T10:53:57.711Z</time></trkpt><trkpt lat="38.0985183" lon="14.9068717"><ele>762.75</ele><time>2026-04-04T10:53:58.711Z</time></trkpt><trkpt lat="38.0984333" lon="14.9069717"><ele>765.5</ele><time>2026-04-04T10:53:59.712Z</time></trkpt><trkpt lat="38.09835" lon="14.9070783"><ele>768.25</ele><time>2026-04-04T10:54:00.712Z</time></trkpt><trkpt lat="38.0982717" lon="14.907205"><ele>771.0</ele><time>2026-04-04T10:54:01.712Z</time></trkpt><trkpt lat="38.098205" lon="14.9073467"><ele>771.0</ele><time>2026-04-04T10:54:02.712Z</time></trkpt><trkpt lat="38.098145" lon="14.9074983"><ele>771.0</ele><time>2026-04-04T10:54:03.712Z</time></trkpt><trkpt lat="38.0980967" lon="14.907645"><ele>771.0</ele><time>2026-04-04T10:54:04.712Z</time></trkpt><trkpt lat="38.0980433" lon="14.9077817"><ele>771.0</ele><time>2026-04-04T10:54:05.712Z</time></trkpt><trkpt lat="38.0980017" lon="14.907905"><ele>773.8</ele><time>2026-04-04T10:54:06.711Z</time></trkpt><trkpt lat="38.0979533" lon="14.9080133"><ele>776.5999999999999</ele><time>2026-04-04T10:54:07.711Z</time></trkpt><trkpt lat="38.0979033" lon="14.9081083"><ele>779.4</ele><time>2026-04-04T10:54:08.712Z</time></trkpt><trkpt lat="38.0978533" lon="14.908195"><ele>782.2</ele><time>2026-04-04T10:54:09.712Z</time></trkpt><trkpt lat="38.0978433" lon="14.9083217"><ele>785.0</ele><time>2026-04-04T10:54:11.711Z</time></trkpt><trkpt lat="38.0979483" lon="14.9083783"><ele>787.8</ele><time>2026-04-04T10:54:13.712Z</time></trkpt><trkpt lat="38.0980367" lon="14.9084117"><ele>790.6</ele><time>2026-04-04T10:54:14.712Z</time></trkpt><trkpt lat="38.0981167" lon="14.908465"><ele>793.4000000000001</ele><time>2026-04-04T10:54:15.712Z</time></trkpt><trkpt lat="38.0981833" lon="14.908535"><ele>796.2</ele><time>2026-04-04T10:54:16.711Z</time></trkpt><trkpt lat="38.0982267" lon="14.908665"><ele>799.0</ele><time>2026-04-04T10:54:18.712Z</time></trkpt><trkpt lat="38.0981717" lon="14.9088"><ele>799.0</ele><time>2026-04-04T10:54:20.711Z</time></trkpt><trkpt lat="38.0981067" lon="14.9089017"><ele>799.0</ele><time>2026-04-04T10:54:21.711Z</time></trkpt><trkpt lat="38.098035" lon="14.9090217"><ele>799.0</ele><time>2026-04-04T10:54:22.712Z</time></trkpt><trkpt lat="38.0979583" lon="14.90917"><ele>799.0</ele><time>2026-04-04T10:54:23.711Z</time></trkpt><trkpt lat="38.0978883" lon="14.9093133"><ele>802.25</ele><time>2026-04-04T10:54:24.711Z</time></trkpt><trkpt lat="38.0978217" lon="14.9094567"><ele>805.5</ele><time>2026-04-04T10:54:25.711Z</time></trkpt><trkpt lat="38.0977733" lon="14.9096117"><ele>808.75</ele><time>2026-04-04T10:54:26.712Z</time></trkpt><trkpt lat="38.0977367" lon="14.9097767"><ele>812.0</ele><time>2026-04-04T10:54:27.711Z</time></trkpt><trkpt lat="38.0976783" lon="14.909925"><ele>812.0</ele><time>2026-04-04T10:54:28.711Z</time></trkpt><trkpt lat="38.09762" lon="14.9100467"><ele>812.0</ele><time>2026-04-04T10:54:29.712Z</time></trkpt><trkpt lat="38.0975617" lon="14.910155"><ele>812.0</ele><time>2026-04-04T10:54:30.712Z</time></trkpt><trkpt lat="38.0975167" lon="14.9102533"><ele>812.0</ele><time>2026-04-04T10:54:31.711Z</time></trkpt><trkpt lat="38.097475" lon="14.9103383"><ele>812.0</ele><time>2026-04-04T10:54:32.712Z</time></trkpt><trkpt lat="38.09741" lon="14.9104767"><ele>814.6</ele><time>2026-04-04T10:54:34.712Z</time></trkpt><trkpt lat="38.0974433" lon="14.9105783"><ele>817.2</ele><time>2026-04-04T10:54:36.711Z</time></trkpt><trkpt lat="38.09756" lon="14.9105333"><ele>819.8</ele><time>2026-04-04T10:54:38.711Z</time></trkpt><trkpt lat="38.0976583" lon="14.9104867"><ele>822.4</ele><time>2026-04-04T10:54:40.711Z</time></trkpt><trkpt lat="38.0977117" lon="14.9105317"><ele>825.0</ele><time>2026-04-04T10:54:42.711Z</time></trkpt><trkpt lat="38.097775" lon="14.91059"><ele>825.0</ele><time>2026-04-04T10:54:44.712Z</time></trkpt><trkpt lat="38.097845" lon="14.9106183"><ele>825.0</ele><time>2026-04-04T10:54:46.712Z</time></trkpt><trkpt lat="38.097935" lon="14.9106017"><ele>825.0</ele><time>2026-04-04T10:54:48.712Z</time></trkpt><trkpt lat="38.0980333" lon="14.9105717"><ele>825.0</ele><time>2026-04-04T10:54:50.712Z</time></trkpt><trkpt lat="38.0981683" lon="14.9105383"><ele>825.0</ele><time>2026-04-04T10:54:52.712Z</time></trkpt><trkpt lat="38.0982567" lon="14.9105017"><ele>829.5</ele><time>2026-04-04T10:54:53.712Z</time></trkpt><trkpt lat="38.09836" lon="14.910455"><ele>834.0</ele><time>2026-04-04T10:54:54.711Z</time></trkpt><trkpt lat="38.098485" lon="14.9104067"><ele>838.5</ele><time>2026-04-04T10:54:55.711Z</time></trkpt><trkpt lat="38.09861" lon="14.910365"><ele>843.0</ele><time>2026-04-04T10:54:56.712Z</time></trkpt><trkpt lat="38.0987267" lon="14.9103133"><ele>843.0</ele><time>2026-04-04T10:54:57.711Z</time></trkpt><trkpt lat="38.0988317" lon="14.9102517"><ele>843.0</ele><time>2026-04-04T10:54:58.712Z</time></trkpt><trkpt lat="38.098925" lon="14.91017"><ele>843.0</ele><time>2026-04-04T10:54:59.712Z</time></trkpt><trkpt lat="38.0990067" lon="14.9100933"><ele>843.0</ele><time>2026-04-04T10:55:00.712Z</time></trkpt><trkpt lat="38.0990817" lon="14.9100217"><ele>843.0</ele><time>2026-04-04T10:55:01.712Z</time></trkpt><trkpt lat="38.0991517" lon="14.9099633"><ele>842.6666666666666</ele><time>2026-04-04T10:55:02.712Z</time></trkpt><trkpt lat="38.0992117" lon="14.9099183"><ele>842.3333333333333</ele><time>2026-04-04T10:55:03.712Z</time></trkpt><trkpt lat="38.0993133" lon="14.909885"><ele>842.0</ele><time>2026-04-04T10:55:05.712Z</time></trkpt><trkpt lat="38.099385" lon="14.9098967"><ele>841.6666666666666</ele><time>2026-04-04T10:55:07.711Z</time></trkpt><trkpt lat="38.0994267" lon="14.90997"><ele>841.3333333333333</ele><time>2026-04-04T10:55:09.712Z</time></trkpt><trkpt lat="38.0994667" lon="14.9100567"><ele>841.0</ele><time>2026-04-04T10:55:11.712Z</time></trkpt><trkpt lat="38.0995183" lon="14.910105"><ele>843.8333333333333</ele><time>2026-04-04T10:55:13.712Z</time></trkpt><trkpt lat="38.0995617" lon="14.91018"><ele>846.6666666666666</ele><time>2026-04-04T10:55:15.712Z</time></trkpt><trkpt lat="38.0996217" lon="14.910285"><ele>849.5</ele><time>2026-04-04T10:55:17.712Z</time></trkpt><trkpt lat="38.09968" lon="14.9103817"><ele>852.3333333333333</ele><time>2026-04-04T10:55:19.712Z</time></trkpt><trkpt lat="38.0997367" lon="14.9104417"><ele>855.1666666666666</ele><time>2026-04-04T10:55:21.711Z</time></trkpt><trkpt lat="38.0997783" lon="14.9105483"><ele>858.0</ele><time>2026-04-04T10:55:24.711Z</time></trkpt><trkpt lat="38.0998267" lon="14.9106283"><ele>858.0</ele><time>2026-04-04T10:55:26.712Z</time></trkpt><trkpt lat="38.0998467" lon="14.91072"><ele>858.0</ele><time>2026-04-04T10:55:29.712Z</time></trkpt><trkpt lat="38.0998178" lon="14.9108372"><ele>858.0</ele><time>2026-04-04T10:57:02.711Z</time></trkpt><trkpt lat="38.0997782" lon="14.9109003"><ele>858.0</ele><time>2026-04-04T10:57:06.712Z</time></trkpt><trkpt lat="38.0997598" lon="14.9109849"><ele>858.0</ele><time>2026-04-04T10:57:25.712Z</time></trkpt><trkpt lat="38.0997183" lon="14.9110919"><ele>858.0</ele><time>2026-04-04T10:57:27.711Z</time></trkpt><trkpt lat="38.0996695" lon="14.9111798"><ele>861.4</ele><time>2026-04-04T10:57:29.711Z</time></trkpt><trkpt lat="38.0996481" lon="14.9112737"><ele>864.8</ele><time>2026-04-04T10:57:31.712Z</time></trkpt><trkpt lat="38.0996291" lon="14.9113662"><ele>868.2</ele><time>2026-04-04T10:57:33.712Z</time></trkpt><trkpt lat="38.0995638" lon="14.9114255"><ele>871.6</ele><time>2026-04-04T10:57:36.712Z</time></trkpt><trkpt lat="38.0994851" lon="14.911501"><ele>875.0</ele><time>2026-04-04T10:57:39.712Z</time></trkpt><trkpt lat="38.0994056" lon="14.9116225"><ele>875.0000000000001</ele><time>2026-04-04T10:57:41.711Z</time></trkpt><trkpt lat="38.0993244" lon="14.9117207"><ele>875.0</ele><time>2026-04-04T10:57:43.712Z</time></trkpt><trkpt lat="38.0992604" lon="14.9118087"><ele>875.0</ele><time>2026-04-04T10:57:45.712Z</time></trkpt><trkpt lat="38.0992572" lon="14.9119045"><ele>875.0</ele><time>2026-04-04T10:57:47.711Z</time></trkpt><trkpt lat="38.0993111" lon="14.9119664"><ele>875.0000000000001</ele><time>2026-04-04T10:57:49.712Z</time></trkpt><trkpt lat="38.0994003" lon="14.911966"><ele>875.0</ele><time>2026-04-04T10:57:51.712Z</time></trkpt><trkpt lat="38.099455" lon="14.9120133"><ele>878.8</ele><time>2026-04-04T10:57:53.712Z</time></trkpt><trkpt lat="38.09945" lon="14.9120967"><ele>882.6</ele><time>2026-04-04T10:57:55.711Z</time></trkpt><trkpt lat="38.0994" lon="14.9121683"><ele>886.4000000000001</ele><time>2026-04-04T10:57:57.712Z</time></trkpt><trkpt lat="38.0993467" lon="14.9122883"><ele>890.2</ele><time>2026-04-04T10:57:59.712Z</time></trkpt><trkpt lat="38.09931" lon="14.9124267"><ele>894.0</ele><time>2026-04-04T10:58:01.712Z</time></trkpt><trkpt lat="38.0993017" lon="14.9125433"><ele>895.8333333333334</ele><time>2026-04-04T10:58:03.711Z</time></trkpt><trkpt lat="38.0993817" lon="14.9126"><ele>897.6666666666667</ele><time>2026-04-04T10:58:06.712Z</time></trkpt><trkpt lat="38.0994667" lon="14.9126083"><ele>899.5</ele><time>2026-04-04T10:58:15.713Z</time></trkpt><trkpt lat="38.0995383" lon="14.9126667"><ele>901.3333333333334</ele><time>2026-04-04T10:58:18.713Z</time></trkpt><trkpt lat="38.099585" lon="14.912725"><ele>903.1666666666667</ele><time>2026-04-04T10:58:20.712Z</time></trkpt><trkpt lat="38.09963" lon="14.9127967"><ele>905.0</ele><time>2026-04-04T10:58:22.712Z</time></trkpt><trkpt lat="38.0996217" lon="14.9128883"><ele>905.0</ele><time>2026-04-04T10:58:24.713Z</time></trkpt><trkpt lat="38.099625" lon="14.9130133"><ele>905.0</ele><time>2026-04-04T10:58:26.713Z</time></trkpt><trkpt lat="38.0996833" lon="14.9131333"><ele>905.0</ele><time>2026-04-04T10:58:28.713Z</time></trkpt><trkpt lat="38.0997533" lon="14.9132"><ele>905.0</ele><time>2026-04-04T10:58:30.712Z</time></trkpt><trkpt lat="38.0998333" lon="14.9132517"><ele>905.0</ele><time>2026-04-04T10:58:32.713Z</time></trkpt><trkpt lat="38.0998983" lon="14.9132817"><ele>908.3333333333334</ele><time>2026-04-04T10:58:34.713Z</time></trkpt><trkpt lat="38.099965" lon="14.91329"><ele>911.6666666666667</ele><time>2026-04-04T10:58:36.712Z</time></trkpt><trkpt lat="38.1000367" lon="14.913305"><ele>915.0</ele><time>2026-04-04T10:58:39.712Z</time></trkpt><trkpt lat="38.1000817" lon="14.91338"><ele>918.3333333333333</ele><time>2026-04-04T10:58:41.713Z</time></trkpt><trkpt lat="38.1001033" lon="14.913475"><ele>921.6666666666666</ele><time>2026-04-04T10:58:44.713Z</time></trkpt><trkpt lat="38.1000417" lon="14.9135817"><ele>925.0</ele><time>2026-04-04T11:00:00.713Z</time></trkpt><trkpt lat="38.09996" lon="14.9136267"><ele>927.4</ele><time>2026-04-04T11:00:02.712Z</time></trkpt><trkpt lat="38.0999417" lon="14.9137283"><ele>929.8</ele><time>2026-04-04T11:00:05.713Z</time></trkpt><trkpt lat="38.1000433" lon="14.9137683"><ele>932.2</ele><time>2026-04-04T11:00:07.713Z</time></trkpt><trkpt lat="38.1001317" lon="14.9138267"><ele>934.6</ele><time>2026-04-04T11:00:09.712Z</time></trkpt><trkpt lat="38.10017" lon="14.9139533"><ele>937.0</ele><time>2026-04-04T11:00:11.713Z</time></trkpt><trkpt lat="38.1001967" lon="14.9140917"><ele>936.9999999999999</ele><time>2026-04-04T11:00:13.712Z</time></trkpt><trkpt lat="38.1002117" lon="14.9142117"><ele>937.0</ele><time>2026-04-04T11:00:15.713Z</time></trkpt><trkpt lat="38.1002067" lon="14.9143267"><ele>937.0</ele><time>2026-04-04T11:00:17.712Z</time></trkpt><trkpt lat="38.1002267" lon="14.9144383"><ele>937.0</ele><time>2026-04-04T11:00:19.713Z</time></trkpt><trkpt lat="38.10028" lon="14.9145167"><ele>936.9999999999999</ele><time>2026-04-04T11:00:26.713Z</time></trkpt><trkpt lat="38.1002983" lon="14.9146"><ele>937.0</ele><time>2026-04-04T11:00:28.713Z</time></trkpt><trkpt lat="38.1003483" lon="14.9146867"><ele>939.4999999999999</ele><time>2026-04-04T11:00:47.713Z</time></trkpt><trkpt lat="38.100395" lon="14.91477"><ele>942.0</ele><time>2026-04-04T11:00:49.713Z</time></trkpt><trkpt lat="38.1004017" lon="14.91487"><ele>944.5</ele><time>2026-04-04T11:00:51.712Z</time></trkpt><trkpt lat="38.1003719" lon="14.9149986"><ele>947.0</ele><time>2026-04-04T11:01:46.713Z</time></trkpt><trkpt lat="38.100403" lon="14.9150706"><ele>949.4999999999999</ele><time>2026-04-04T11:07:00.714Z</time></trkpt><trkpt lat="38.1003913" lon="14.914966"><ele>952.0</ele><time>2026-04-04T11:07:51.714Z</time></trkpt><trkpt lat="38.1004003" lon="14.9148607"><ele>952.0</ele><time>2026-04-04T11:08:08.714Z</time></trkpt><trkpt lat="38.1003988" lon="14.9147494"><ele>952.0</ele><time>2026-04-04T11:08:11.713Z</time></trkpt><trkpt lat="38.1003587" lon="14.9146648"><ele>952.0</ele><time>2026-04-04T11:08:14.713Z</time></trkpt><trkpt lat="38.1003008" lon="14.9146248"><ele>952.0</ele><time>2026-04-04T11:08:24.714Z</time></trkpt><trkpt lat="38.100275" lon="14.914703"><ele>952.0</ele><time>2026-04-04T11:08:26.714Z</time></trkpt><trkpt lat="38.1002511" lon="14.9147815"><ele>952.0</ele><time>2026-04-04T11:08:28.714Z</time></trkpt><trkpt lat="38.1002107" lon="14.9148636"><ele>952.0</ele><time>2026-04-04T11:08:31.713Z</time></trkpt><trkpt lat="38.1001863" lon="14.9149376"><ele>952.0</ele><time>2026-04-04T11:08:33.714Z</time></trkpt><trkpt lat="38.1001492" lon="14.9150324"><ele>952.0</ele><time>2026-04-04T11:08:35.713Z</time></trkpt><trkpt lat="38.1000982" lon="14.9151533"><ele>952.0</ele><time>2026-04-04T11:08:37.714Z</time></trkpt><trkpt lat="38.1000491" lon="14.9152915"><ele>952.0</ele><time>2026-04-04T11:08:39.714Z</time></trkpt><trkpt lat="38.1000069" lon="14.9154343"><ele>952.0</ele><time>2026-04-04T11:08:41.714Z</time></trkpt><trkpt lat="38.0999514" lon="14.9155526"><ele>953.6</ele><time>2026-04-04T11:08:43.714Z</time></trkpt><trkpt lat="38.0998589" lon="14.915671"><ele>955.2</ele><time>2026-04-04T11:08:45.714Z</time></trkpt><trkpt lat="38.0998044" lon="14.9157257"><ele>956.8</ele><time>2026-04-04T11:08:46.713Z</time></trkpt><trkpt lat="38.0997072" lon="14.9157647"><ele>958.4</ele><time>2026-04-04T11:08:48.714Z</time></trkpt><trkpt lat="38.0996117" lon="14.91569"><ele>960.0</ele><time>2026-04-04T11:08:50.713Z</time></trkpt><trkpt lat="38.099525" lon="14.9156467"><ele>960.0</ele><time>2026-04-04T11:08:52.713Z</time></trkpt><trkpt lat="38.0994617" lon="14.9156083"><ele>960.0</ele><time>2026-04-04T11:08:54.713Z</time></trkpt><trkpt lat="38.09934" lon="14.91554"><ele>960.0</ele><time>2026-04-04T11:09:12.713Z</time></trkpt><trkpt lat="38.0992783" lon="14.91552"><ele>960.0</ele><time>2026-04-04T11:09:14.714Z</time></trkpt><trkpt lat="38.0992128" lon="14.9155482"><ele>960.0</ele><time>2026-04-04T11:09:16.714Z</time></trkpt><trkpt lat="38.0991884" lon="14.9156233"><ele>960.0</ele><time>2026-04-04T11:09:18.714Z</time></trkpt><trkpt lat="38.0992513" lon="14.9156502"><ele>960.0</ele><time>2026-04-04T11:09:20.713Z</time></trkpt><trkpt lat="38.0993356" lon="14.9156663"><ele>960.0</ele><time>2026-04-04T11:09:22.713Z</time></trkpt><trkpt lat="38.0993904" lon="14.9157287"><ele>960.0</ele><time>2026-04-04T11:09:24.714Z</time></trkpt><trkpt lat="38.0994614" lon="14.9158271"><ele>960.0</ele><time>2026-04-04T11:10:10.714Z</time></trkpt><trkpt lat="38.0995319" lon="14.9159116"><ele>960.0</ele><time>2026-04-04T11:10:12.713Z</time></trkpt><trkpt lat="38.0996248" lon="14.9159759"><ele>965.0</ele><time>2026-04-04T11:10:14.714Z</time></trkpt><trkpt lat="38.099721" lon="14.916026"><ele>970.0</ele><time>2026-04-04T11:10:16.714Z</time></trkpt><trkpt lat="38.0998089" lon="14.9160485"><ele>975.0</ele><time>2026-04-04T11:10:18.713Z</time></trkpt><trkpt lat="38.0998974" lon="14.9159996"><ele>980.0</ele><time>2026-04-04T11:10:20.713Z</time></trkpt><trkpt lat="38.0999798" lon="14.9159653"><ele>985.0</ele><time>2026-04-04T11:10:22.713Z</time></trkpt><trkpt lat="38.10008" lon="14.9159767"><ele>982.2</ele><time>2026-04-04T11:10:24.714Z</time></trkpt><trkpt lat="38.1001793" lon="14.916027"><ele>979.4</ele><time>2026-04-04T11:10:26.714Z</time></trkpt><trkpt lat="38.1002585" lon="14.9160705"><ele>976.5999999999999</ele><time>2026-04-04T11:10:28.713Z</time></trkpt><trkpt lat="38.1003555" lon="14.9160324"><ele>973.8</ele><time>2026-04-04T11:10:30.714Z</time></trkpt><trkpt lat="38.1004495" lon="14.9159595"><ele>971.0</ele><time>2026-04-04T11:10:32.713Z</time></trkpt><trkpt lat="38.1005548" lon="14.9158881"><ele>971.0</ele><time>2026-04-04T11:10:34.714Z</time></trkpt><trkpt lat="38.1006101" lon="14.9158373"><ele>971.0000000000001</ele><time>2026-04-04T11:10:35.714Z</time></trkpt><trkpt lat="38.100673" lon="14.9157803"><ele>971.0</ele><time>2026-04-04T11:10:36.713Z</time></trkpt><trkpt lat="38.1007411" lon="14.9157355"><ele>971.0</ele><time>2026-04-04T11:10:37.714Z</time></trkpt><trkpt lat="38.1008062" lon="14.915725"><ele>971.0000000000001</ele><time>2026-04-04T11:10:38.714Z</time></trkpt><trkpt lat="38.1008633" lon="14.9157683"><ele>971.0</ele><time>2026-04-04T11:10:39.714Z</time></trkpt><trkpt lat="38.1009083" lon="14.9158383"><ele>971.0</ele><time>2026-04-04T11:10:40.713Z</time></trkpt><trkpt lat="38.10093" lon="14.91593"><ele>975.2857142857143</ele><time>2026-04-04T11:10:41.714Z</time></trkpt><trkpt lat="38.1009517" lon="14.9160317"><ele>979.5714285714287</ele><time>2026-04-04T11:10:42.714Z</time></trkpt><trkpt lat="38.1009667" lon="14.9161283"><ele>983.8571428571429</ele><time>2026-04-04T11:10:43.714Z</time></trkpt><trkpt lat="38.1009883" lon="14.9162117"><ele>988.1428571428571</ele><time>2026-04-04T11:10:44.713Z</time></trkpt><trkpt lat="38.1010033" lon="14.9162967"><ele>992.4285714285714</ele><time>2026-04-04T11:10:45.714Z</time></trkpt><trkpt lat="38.10102" lon="14.9163783"><ele>996.7142857142858</ele><time>2026-04-04T11:10:46.714Z</time></trkpt><trkpt lat="38.1010317" lon="14.9164633"><ele>1001.0</ele><time>2026-04-04T11:10:47.714Z</time></trkpt><trkpt lat="38.101045" lon="14.916545"><ele>1001.0</ele><time>2026-04-04T11:10:48.713Z</time></trkpt><trkpt lat="38.1010483" lon="14.9166283"><ele>1001.0</ele><time>2026-04-04T11:10:49.714Z</time></trkpt><trkpt lat="38.1010417" lon="14.9167217"><ele>1001.0</ele><time>2026-04-04T11:10:50.713Z</time></trkpt><trkpt lat="38.101045" lon="14.9168133"><ele>1001.0</ele><time>2026-04-04T11:10:51.713Z</time></trkpt><trkpt lat="38.10106" lon="14.9169033"><ele>1001.0</ele><time>2026-04-04T11:10:52.714Z</time></trkpt><trkpt lat="38.1010767" lon="14.916985"><ele>1001.0</ele><time>2026-04-04T11:10:53.713Z</time></trkpt><trkpt lat="38.1010867" lon="14.9170683"><ele>1001.0</ele><time>2026-04-04T11:10:54.714Z</time></trkpt><trkpt lat="38.101105" lon="14.917145"><ele>1006.8</ele><time>2026-04-04T11:10:55.714Z</time></trkpt><trkpt lat="38.1011033" lon="14.9172317"><ele>1012.5999999999999</ele><time>2026-04-04T11:10:57.714Z</time></trkpt><trkpt lat="38.10117" lon="14.9172783"><ele>1018.4</ele><time>2026-04-04T11:11:01.715Z</time></trkpt><trkpt lat="38.1012617" lon="14.91727"><ele>1024.2</ele><time>2026-04-04T11:11:03.715Z</time></trkpt><trkpt lat="38.1013677" lon="14.9173318"><ele>1030.0</ele><time>2026-04-04T11:13:17.715Z</time></trkpt><trkpt lat="38.10147" lon="14.9173833"><ele>1030.0</ele><time>2026-04-04T11:13:19.715Z</time></trkpt><trkpt lat="38.1015773" lon="14.9174374"><ele>1030.0</ele><time>2026-04-04T11:13:21.715Z</time></trkpt><trkpt lat="38.1016765" lon="14.9174737"><ele>1030.0</ele><time>2026-04-04T11:13:23.715Z</time></trkpt><trkpt lat="38.1017936" lon="14.9174902"><ele>1030.0</ele><time>2026-04-04T11:13:25.715Z</time></trkpt><trkpt lat="38.1018876" lon="14.9175388"><ele>1030.0</ele><time>2026-04-04T11:13:27.714Z</time></trkpt><trkpt lat="38.1019616" lon="14.9176716"><ele>1034.0</ele><time>2026-04-04T11:13:29.715Z</time></trkpt><trkpt lat="38.1019957" lon="14.9177486"><ele>1038.0</ele><time>2026-04-04T11:13:30.715Z</time></trkpt><trkpt lat="38.1020228" lon="14.9178546"><ele>1042.0</ele><time>2026-04-04T11:13:32.715Z</time></trkpt><trkpt lat="38.102104" lon="14.9179185"><ele>1046.0</ele><time>2026-04-04T11:13:34.714Z</time></trkpt><trkpt lat="38.102174" lon="14.917935"><ele>1050.0</ele><time>2026-04-04T11:13:35.714Z</time></trkpt><trkpt lat="38.1022635" lon="14.9179298"><ele>1054.0</ele><time>2026-04-04T11:13:36.715Z</time></trkpt><trkpt lat="38.1023385" lon="14.9179209"><ele>1054.0</ele><time>2026-04-04T11:13:37.715Z</time></trkpt><trkpt lat="38.1024022" lon="14.9179212"><ele>1054.0</ele><time>2026-04-04T11:13:38.714Z</time></trkpt><trkpt lat="38.102464" lon="14.9179472"><ele>1054.0</ele><time>2026-04-04T11:13:39.715Z</time></trkpt><trkpt lat="38.102525" lon="14.9180046"><ele>1054.0</ele><time>2026-04-04T11:13:40.714Z</time></trkpt><trkpt lat="38.1026005" lon="14.9180865"><ele>1054.0</ele><time>2026-04-04T11:13:41.714Z</time></trkpt><trkpt lat="38.1026897" lon="14.9181838"><ele>1054.0</ele><time>2026-04-04T11:13:42.715Z</time></trkpt><trkpt lat="38.1027876" lon="14.9182885"><ele>1054.0</ele><time>2026-04-04T11:13:43.715Z</time></trkpt><trkpt lat="38.1028876" lon="14.9183795"><ele>1054.0</ele><time>2026-04-04T11:13:44.715Z</time></trkpt><trkpt lat="38.1029983" lon="14.9184592"><ele>1054.0</ele><time>2026-04-04T11:13:45.714Z</time></trkpt><trkpt lat="38.1031254" lon="14.9185388"><ele>1054.0</ele><time>2026-04-04T11:13:46.715Z</time></trkpt><trkpt lat="38.1032468" lon="14.9186195"><ele>1051.2</ele><time>2026-04-04T11:13:47.715Z</time></trkpt><trkpt lat="38.1033461" lon="14.9186835"><ele>1048.4</ele><time>2026-04-04T11:13:48.714Z</time></trkpt><trkpt lat="38.1034224" lon="14.9187194"><ele>1045.6</ele><time>2026-04-04T11:13:49.715Z</time></trkpt><trkpt lat="38.1035234" lon="14.9187325"><ele>1042.8</ele><time>2026-04-04T11:13:51.715Z</time></trkpt><trkpt lat="38.1035488" lon="14.9188461"><ele>1040.0</ele><time>2026-04-04T11:14:19.714Z</time></trkpt><trkpt lat="38.1035006" lon="14.918968"><ele>1040.0</ele><time>2026-04-04T11:14:21.714Z</time></trkpt><trkpt lat="38.1033918" lon="14.9190523"><ele>1040.0</ele><time>2026-04-04T11:14:23.715Z</time></trkpt><trkpt lat="38.1033043" lon="14.9190653"><ele>1040.0</ele><time>2026-04-04T11:14:24.715Z</time></trkpt><trkpt lat="38.1032151" lon="14.9190748"><ele>1040.0</ele><time>2026-04-04T11:14:25.715Z</time></trkpt><trkpt lat="38.1031312" lon="14.919077"><ele>1040.0</ele><time>2026-04-04T11:14:26.715Z</time></trkpt><trkpt lat="38.1030538" lon="14.9190633"><ele>1042.3333333333335</ele><time>2026-04-04T11:14:27.715Z</time></trkpt><trkpt lat="38.1029944" lon="14.9190335"><ele>1044.6666666666667</ele><time>2026-04-04T11:14:28.715Z</time></trkpt><trkpt lat="38.1029154" lon="14.9189895"><ele>1047.0</ele><time>2026-04-04T11:14:30.715Z</time></trkpt><trkpt lat="38.1028154" lon="14.9189647"><ele>1049.3333333333333</ele><time>2026-04-04T11:14:32.714Z</time></trkpt><trkpt lat="38.1027437" lon="14.918963"><ele>1051.6666666666665</ele><time>2026-04-04T11:14:33.714Z</time></trkpt><trkpt lat="38.1026751" lon="14.9189562"><ele>1054.0</ele><time>2026-04-04T11:14:34.714Z</time></trkpt><trkpt lat="38.10261" lon="14.9189577"><ele>1054.0000000000002</ele><time>2026-04-04T11:14:35.715Z</time></trkpt><trkpt lat="38.1025392" lon="14.9189701"><ele>1054.0</ele><time>2026-04-04T11:14:36.714Z</time></trkpt><trkpt lat="38.1024737" lon="14.9189811"><ele>1054.0</ele><time>2026-04-04T11:14:37.715Z</time></trkpt><trkpt lat="38.1024076" lon="14.9189923"><ele>1054.0</ele><time>2026-04-04T11:14:38.715Z</time></trkpt><trkpt lat="38.1023374" lon="14.918993"><ele>1054.0</ele><time>2026-04-04T11:14:39.715Z</time></trkpt><trkpt lat="38.1022676" lon="14.9189938"><ele>1054.0000000000002</ele><time>2026-04-04T11:14:40.715Z</time></trkpt><trkpt lat="38.102169" lon="14.9190283"><ele>1054.0</ele><time>2026-04-04T11:14:42.714Z</time></trkpt><trkpt lat="38.1020811" lon="14.9190712"><ele>1055.1666666666665</ele><time>2026-04-04T11:14:44.714Z</time></trkpt><trkpt lat="38.1019846" lon="14.9191118"><ele>1056.3333333333333</ele><time>2026-04-04T11:14:46.715Z</time></trkpt><trkpt lat="38.1019255" lon="14.9191433"><ele>1057.5</ele><time>2026-04-04T11:14:48.715Z</time></trkpt><trkpt lat="38.1018533" lon="14.9191908"><ele>1058.6666666666667</ele><time>2026-04-04T11:14:50.715Z</time></trkpt><trkpt lat="38.1017798" lon="14.9192492"><ele>1059.8333333333335</ele><time>2026-04-04T11:14:52.715Z</time></trkpt><trkpt lat="38.1017157" lon="14.9193364"><ele>1061.0</ele><time>2026-04-04T11:14:54.714Z</time></trkpt><trkpt lat="38.1016061" lon="14.9194288"><ele>1063.1666666666667</ele><time>2026-04-04T11:14:56.715Z</time></trkpt><trkpt lat="38.1015383" lon="14.9194766"><ele>1065.3333333333335</ele><time>2026-04-04T11:14:57.714Z</time></trkpt><trkpt lat="38.1014629" lon="14.9195171"><ele>1067.5</ele><time>2026-04-04T11:14:58.715Z</time></trkpt><trkpt lat="38.1013765" lon="14.9195423"><ele>1069.6666666666667</ele><time>2026-04-04T11:14:59.715Z</time></trkpt><trkpt lat="38.101292" lon="14.9195391"><ele>1071.8333333333333</ele><time>2026-04-04T11:15:00.715Z</time></trkpt><trkpt lat="38.101218" lon="14.919538"><ele>1074.0</ele><time>2026-04-04T11:15:01.715Z</time></trkpt><trkpt lat="38.1010974" lon="14.9195714"><ele>1074.0</ele><time>2026-04-04T11:15:03.715Z</time></trkpt><trkpt lat="38.1009883" lon="14.9196344"><ele>1074.0</ele><time>2026-04-04T11:15:05.714Z</time></trkpt><trkpt lat="38.1008775" lon="14.9196808"><ele>1074.0</ele><time>2026-04-04T11:15:07.715Z</time></trkpt><trkpt lat="38.1008133" lon="14.9196793"><ele>1074.0</ele><time>2026-04-04T11:15:08.715Z</time></trkpt><trkpt lat="38.1007445" lon="14.9196605"><ele>1074.0</ele><time>2026-04-04T11:15:09.715Z</time></trkpt><trkpt lat="38.1006808" lon="14.9196286"><ele>1074.0</ele><time>2026-04-04T11:15:10.715Z</time></trkpt><trkpt lat="38.1006168" lon="14.9195887"><ele>1072.8333333333333</ele><time>2026-04-04T11:15:11.714Z</time></trkpt><trkpt lat="38.1005486" lon="14.9195525"><ele>1071.6666666666667</ele><time>2026-04-04T11:15:12.715Z</time></trkpt><trkpt lat="38.100447" lon="14.9195218"><ele>1070.5</ele><time>2026-04-04T11:15:14.715Z</time></trkpt><trkpt lat="38.1003858" lon="14.9195519"><ele>1069.3333333333335</ele><time>2026-04-04T11:15:16.714Z</time></trkpt><trkpt lat="38.1003439" lon="14.9196124"><ele>1068.1666666666667</ele><time>2026-04-04T11:15:21.714Z</time></trkpt><trkpt lat="38.1002487" lon="14.9196453"><ele>1067.0</ele><time>2026-04-04T11:15:35.715Z</time></trkpt><trkpt lat="38.1001928" lon="14.9197065"><ele>1066.9999999999998</ele><time>2026-04-04T11:15:39.715Z</time></trkpt><trkpt lat="38.100143" lon="14.9197569"><ele>1067.0</ele><time>2026-04-04T11:15:43.715Z</time></trkpt><trkpt lat="38.1000899" lon="14.9198229"><ele>1067.0</ele><time>2026-04-04T11:15:47.715Z</time></trkpt><trkpt lat="38.1000461" lon="14.9198997"><ele>1067.0</ele><time>2026-04-04T11:16:13.715Z</time></trkpt><trkpt lat="38.0999743" lon="14.9199687"><ele>1067.0</ele><time>2026-04-04T11:16:16.715Z</time></trkpt><trkpt lat="38.0999167" lon="14.920005"><ele>1066.9999999999998</ele><time>2026-04-04T11:16:33.714Z</time></trkpt><trkpt lat="38.09985" lon="14.9200133"><ele>1067.0</ele><time>2026-04-04T11:16:35.715Z</time></trkpt><trkpt lat="38.09977" lon="14.9200233"><ele>1067.6666666666667</ele><time>2026-04-04T11:16:37.715Z</time></trkpt><trkpt lat="38.0996867" lon="14.9200167"><ele>1068.3333333333335</ele><time>2026-04-04T11:16:39.714Z</time></trkpt><trkpt lat="38.099615" lon="14.920015"><ele>1069.0</ele><time>2026-04-04T11:16:41.714Z</time></trkpt><trkpt lat="38.09954" lon="14.9200017"><ele>1069.6666666666667</ele><time>2026-04-04T11:16:46.715Z</time></trkpt><trkpt lat="38.0994583" lon="14.9200083"><ele>1070.3333333333333</ele><time>2026-04-04T11:16:49.714Z</time></trkpt><trkpt lat="38.099385" lon="14.9200167"><ele>1071.0</ele><time>2026-04-04T11:16:51.714Z</time></trkpt><trkpt lat="38.099325" lon="14.9200433"><ele>1071.1666666666667</ele><time>2026-04-04T11:16:53.714Z</time></trkpt><trkpt lat="38.09928" lon="14.9201383"><ele>1071.3333333333333</ele><time>2026-04-04T11:16:56.715Z</time></trkpt><trkpt lat="38.0992567" lon="14.9202133"><ele>1071.5</ele><time>2026-04-04T11:16:58.715Z</time></trkpt><trkpt lat="38.09924" lon="14.9203033"><ele>1071.6666666666665</ele><time>2026-04-04T11:17:00.715Z</time></trkpt><trkpt lat="38.0992283" lon="14.9203967"><ele>1071.8333333333333</ele><time>2026-04-04T11:17:03.714Z</time></trkpt><trkpt lat="38.099165" lon="14.9204783"><ele>1072.0</ele><time>2026-04-04T11:17:06.714Z</time></trkpt><trkpt lat="38.0990967" lon="14.9205767"><ele>1071.4</ele><time>2026-04-04T11:17:09.715Z</time></trkpt><trkpt lat="38.09902" lon="14.9206633"><ele>1070.8000000000002</ele><time>2026-04-04T11:17:11.714Z</time></trkpt><trkpt lat="38.09893" lon="14.9207417"><ele>1070.2</ele><time>2026-04-04T11:17:13.714Z</time></trkpt><trkpt lat="38.09884" lon="14.9208217"><ele>1069.6000000000001</ele><time>2026-04-04T11:17:15.715Z</time></trkpt><trkpt lat="38.09877" lon="14.9208867"><ele>1069.0</ele><time>2026-04-04T11:17:17.715Z</time></trkpt><trkpt lat="38.09871" lon="14.9209417"><ele>1069.0</ele><time>2026-04-04T11:17:19.715Z</time></trkpt><trkpt lat="38.0987673" lon="14.9208664"><ele>1069.0</ele><time>2026-04-04T11:27:06.716Z</time></trkpt><trkpt lat="38.0988336" lon="14.9208266"><ele>1069.0</ele><time>2026-04-04T11:27:09.717Z</time></trkpt><trkpt lat="38.0988847" lon="14.9207767"><ele>1069.0</ele><time>2026-04-04T11:27:11.716Z</time></trkpt><trkpt lat="38.0989493" lon="14.9207015"><ele>1069.0</ele><time>2026-04-04T11:27:13.716Z</time></trkpt><trkpt lat="38.0990563" lon="14.9205951"><ele>1069.0</ele><time>2026-04-04T11:27:15.716Z</time></trkpt><trkpt lat="38.0991143" lon="14.9205276"><ele>1069.5</ele><time>2026-04-04T11:27:16.717Z</time></trkpt><trkpt lat="38.0991731" lon="14.9204546"><ele>1070.0</ele><time>2026-04-04T11:27:17.717Z</time></trkpt><trkpt lat="38.0992332" lon="14.9203934"><ele>1070.5</ele><time>2026-04-04T11:27:18.717Z</time></trkpt><trkpt lat="38.0992986" lon="14.9203348"><ele>1071.0</ele><time>2026-04-04T11:27:19.716Z</time></trkpt><trkpt lat="38.0993534" lon="14.9202827"><ele>1071.5</ele><time>2026-04-04T11:27:20.716Z</time></trkpt><trkpt lat="38.0994314" lon="14.9202128"><ele>1072.0</ele><time>2026-04-04T11:27:22.716Z</time></trkpt><trkpt lat="38.0993907" lon="14.9200999"><ele>1072.0</ele><time>2026-04-04T11:27:37.717Z</time></trkpt><trkpt lat="38.0993944" lon="14.920016"><ele>1072.0</ele><time>2026-04-04T11:27:42.717Z</time></trkpt><trkpt lat="38.0994756" lon="14.9200091"><ele>1072.0</ele><time>2026-04-04T11:27:50.717Z</time></trkpt><trkpt lat="38.0995399" lon="14.9200077"><ele>1072.0</ele><time>2026-04-04T11:27:52.717Z</time></trkpt><trkpt lat="38.099616" lon="14.9200121"><ele>1072.0</ele><time>2026-04-04T11:27:56.717Z</time></trkpt><trkpt lat="38.0996921" lon="14.9200256"><ele>1072.0</ele><time>2026-04-04T11:28:10.717Z</time></trkpt><trkpt lat="38.0997544" lon="14.9200557"><ele>1072.0</ele><time>2026-04-04T11:28:13.717Z</time></trkpt><trkpt lat="38.0998404" lon="14.9200777"><ele>1072.0</ele><time>2026-04-04T11:28:59.716Z</time></trkpt><trkpt lat="38.0999091" lon="14.9200826"><ele>1072.0</ele><time>2026-04-04T11:29:01.716Z</time></trkpt><trkpt lat="38.0999217" lon="14.919985"><ele>1072.0</ele><time>2026-04-04T11:30:48.716Z</time></trkpt><trkpt lat="38.0999804" lon="14.9199543"><ele>1072.0</ele><time>2026-04-04T11:32:00.718Z</time></trkpt><trkpt lat="38.1000549" lon="14.9198412"><ele>1072.0</ele><time>2026-04-04T11:32:59.718Z</time></trkpt><trkpt lat="38.1001161" lon="14.9197663"><ele>1072.0</ele><time>2026-04-04T11:33:00.718Z</time></trkpt><trkpt lat="38.1001788" lon="14.9197004"><ele>1071.2857142857142</ele><time>2026-04-04T11:33:01.717Z</time></trkpt><trkpt lat="38.1002398" lon="14.9196497"><ele>1070.5714285714284</ele><time>2026-04-04T11:33:02.718Z</time></trkpt><trkpt lat="38.1002973" lon="14.9196168"><ele>1069.8571428571427</ele><time>2026-04-04T11:33:03.718Z</time></trkpt><trkpt lat="38.1003764" lon="14.9195838"><ele>1069.142857142857</ele><time>2026-04-04T11:33:05.717Z</time></trkpt><trkpt lat="38.1004389" lon="14.9195499"><ele>1068.4285714285713</ele><time>2026-04-04T11:33:08.718Z</time></trkpt><trkpt lat="38.1004208" lon="14.919472"><ele>1067.7142857142856</ele><time>2026-04-04T11:33:11.718Z</time></trkpt><trkpt lat="38.1004696" lon="14.9195339"><ele>1067.0</ele><time>2026-04-04T11:33:31.718Z</time></trkpt><trkpt lat="38.1005485" lon="14.9195643"><ele>1066.9999999999998</ele><time>2026-04-04T11:33:33.718Z</time></trkpt><trkpt lat="38.1006044" lon="14.9196027"><ele>1067.0</ele><time>2026-04-04T11:33:34.718Z</time></trkpt><trkpt lat="38.1006731" lon="14.9196429"><ele>1067.0</ele><time>2026-04-04T11:33:35.718Z</time></trkpt><trkpt lat="38.1007406" lon="14.9196757"><ele>1067.0</ele><time>2026-04-04T11:33:36.717Z</time></trkpt><trkpt lat="38.1008095" lon="14.9196953"><ele>1067.0</ele><time>2026-04-04T11:33:37.718Z</time></trkpt><trkpt lat="38.1008723" lon="14.9197015"><ele>1066.9999999999998</ele><time>2026-04-04T11:33:38.718Z</time></trkpt><trkpt lat="38.1009347" lon="14.9196824"><ele>1067.0</ele><time>2026-04-04T11:33:39.718Z</time></trkpt><trkpt lat="38.1009931" lon="14.9196503"><ele>1068.4</ele><time>2026-04-04T11:33:40.718Z</time></trkpt><trkpt lat="38.1011056" lon="14.9195785"><ele>1069.8000000000002</ele><time>2026-04-04T11:33:42.717Z</time></trkpt><trkpt lat="38.1011692" lon="14.9195535"><ele>1071.2</ele><time>2026-04-04T11:33:43.718Z</time></trkpt><trkpt lat="38.1012434" lon="14.9195364"><ele>1072.6000000000001</ele><time>2026-04-04T11:33:44.718Z</time></trkpt><trkpt lat="38.1013346" lon="14.9195264"><ele>1074.0</ele><time>2026-04-04T11:33:45.718Z</time></trkpt><trkpt lat="38.1014409" lon="14.9195107"><ele>1074.0</ele><time>2026-04-04T11:33:46.718Z</time></trkpt><trkpt lat="38.1015493" lon="14.9194709"><ele>1074.0</ele><time>2026-04-04T11:33:47.718Z</time></trkpt><trkpt lat="38.1016443" lon="14.9194036"><ele>1074.0</ele><time>2026-04-04T11:33:48.718Z</time></trkpt><trkpt lat="38.1017177" lon="14.9193268"><ele>1074.0</ele><time>2026-04-04T11:33:49.718Z</time></trkpt><trkpt lat="38.1017701" lon="14.9192576"><ele>1074.0</ele><time>2026-04-04T11:33:50.718Z</time></trkpt><trkpt lat="38.1018576" lon="14.9191753"><ele>1071.8</ele><time>2026-04-04T11:33:52.718Z</time></trkpt><trkpt lat="38.1019717" lon="14.9191133"><ele>1069.6000000000001</ele><time>2026-04-04T11:33:54.718Z</time></trkpt><trkpt lat="38.10206" lon="14.9190733"><ele>1067.4</ele><time>2026-04-04T11:33:55.717Z</time></trkpt><trkpt lat="38.102145" lon="14.9190483"><ele>1065.2</ele><time>2026-04-04T11:33:56.717Z</time></trkpt><trkpt lat="38.1022117" lon="14.9190267"><ele>1063.0</ele><time>2026-04-04T11:33:57.718Z</time></trkpt><trkpt lat="38.1022917" lon="14.919"><ele>1063.0</ele><time>2026-04-04T11:33:59.717Z</time></trkpt><trkpt lat="38.1023717" lon="14.918985"><ele>1063.0</ele><time>2026-04-04T11:34:01.718Z</time></trkpt><trkpt lat="38.1024533" lon="14.918985"><ele>1063.0</ele><time>2026-04-04T11:34:03.717Z</time></trkpt><trkpt lat="38.1025533" lon="14.9189617"><ele>1063.0</ele><time>2026-04-04T11:34:05.717Z</time></trkpt><trkpt lat="38.1026733" lon="14.9189433"><ele>1063.0</ele><time>2026-04-04T11:34:07.718Z</time></trkpt><trkpt lat="38.1027783" lon="14.9189583"><ele>1061.5</ele><time>2026-04-04T11:34:09.718Z</time></trkpt><trkpt lat="38.1028617" lon="14.918985"><ele>1060.0</ele><time>2026-04-04T11:34:11.718Z</time></trkpt><trkpt lat="38.1029467" lon="14.9189917"><ele>1058.5</ele><time>2026-04-04T11:34:13.718Z</time></trkpt><trkpt lat="38.10302" lon="14.91903"><ele>1057.0</ele><time>2026-04-04T11:34:15.717Z</time></trkpt><trkpt lat="38.1030933" lon="14.9190683"><ele>1055.5</ele><time>2026-04-04T11:34:17.718Z</time></trkpt><trkpt lat="38.1032033" lon="14.9190683"><ele>1054.0</ele><time>2026-04-04T11:34:19.717Z</time></trkpt><trkpt lat="38.10327" lon="14.9190567"><ele>1051.6666666666665</ele><time>2026-04-04T11:34:20.718Z</time></trkpt><trkpt lat="38.1033383" lon="14.9190467"><ele>1049.3333333333333</ele><time>2026-04-04T11:34:21.717Z</time></trkpt><trkpt lat="38.1034083" lon="14.9190233"><ele>1047.0</ele><time>2026-04-04T11:34:22.717Z</time></trkpt><trkpt lat="38.10347" lon="14.9189867"><ele>1044.6666666666667</ele><time>2026-04-04T11:34:23.718Z</time></trkpt><trkpt lat="38.10352" lon="14.9188733"><ele>1042.3333333333335</ele><time>2026-04-04T11:34:25.718Z</time></trkpt><trkpt lat="38.1035567" lon="14.9187667"><ele>1040.0</ele><time>2026-04-04T11:34:27.718Z</time></trkpt><trkpt lat="38.1036433" lon="14.9187233"><ele>1040.0</ele><time>2026-04-04T11:34:29.717Z</time></trkpt><trkpt lat="38.1037067" lon="14.9187183"><ele>1040.0</ele><time>2026-04-04T11:34:30.717Z</time></trkpt><trkpt lat="38.103815" lon="14.9187067"><ele>1040.0</ele><time>2026-04-04T11:34:32.718Z</time></trkpt><trkpt lat="38.1039033" lon="14.9186883"><ele>1040.0</ele><time>2026-04-04T11:34:34.718Z</time></trkpt><trkpt lat="38.104" lon="14.9187067"><ele>1040.0</ele><time>2026-04-04T11:34:36.718Z</time></trkpt><trkpt lat="38.104085" lon="14.9187333"><ele>1040.0</ele><time>2026-04-04T11:34:38.717Z</time></trkpt><trkpt lat="38.1041533" lon="14.9187783"><ele>1038.1666666666667</ele><time>2026-04-04T11:34:40.718Z</time></trkpt><trkpt lat="38.1042283" lon="14.9188283"><ele>1036.3333333333335</ele><time>2026-04-04T11:34:42.718Z</time></trkpt><trkpt lat="38.1043" lon="14.9188933"><ele>1034.5</ele><time>2026-04-04T11:34:44.717Z</time></trkpt><trkpt lat="38.10436" lon="14.918935"><ele>1032.6666666666667</ele><time>2026-04-04T11:34:46.718Z</time></trkpt><trkpt lat="38.104435" lon="14.918955"><ele>1030.8333333333333</ele><time>2026-04-04T11:34:48.718Z</time></trkpt><trkpt lat="38.1045483" lon="14.9189117"><ele>1029.0</ele><time>2026-04-04T11:34:50.718Z</time></trkpt><trkpt lat="38.104605" lon="14.91886"><ele>1029.0</ele><time>2026-04-04T11:34:51.718Z</time></trkpt><trkpt lat="38.1046633" lon="14.9187967"><ele>1029.0</ele><time>2026-04-04T11:34:52.717Z</time></trkpt><trkpt lat="38.10472" lon="14.9187233"><ele>1029.0</ele><time>2026-04-04T11:34:53.718Z</time></trkpt><trkpt lat="38.1047783" lon="14.9186617"><ele>1029.0</ele><time>2026-04-04T11:34:54.718Z</time></trkpt><trkpt lat="38.1048383" lon="14.9185933"><ele>1029.0</ele><time>2026-04-04T11:34:55.718Z</time></trkpt><trkpt lat="38.1048883" lon="14.91852"><ele>1029.0</ele><time>2026-04-04T11:34:56.717Z</time></trkpt><trkpt lat="38.1049367" lon="14.918445"><ele>1026.1666666666667</ele><time>2026-04-04T11:34:57.717Z</time></trkpt><trkpt lat="38.1049917" lon="14.91839"><ele>1023.3333333333333</ele><time>2026-04-04T11:34:58.718Z</time></trkpt><trkpt lat="38.105045" lon="14.9183417"><ele>1020.5</ele><time>2026-04-04T11:34:59.718Z</time></trkpt><trkpt lat="38.1051033" lon="14.9182667"><ele>1017.6666666666666</ele><time>2026-04-04T11:35:00.718Z</time></trkpt><trkpt lat="38.1051667" lon="14.9181617"><ele>1014.8333333333333</ele><time>2026-04-04T11:35:01.717Z</time></trkpt><trkpt lat="38.10524" lon="14.9180417"><ele>1012.0</ele><time>2026-04-04T11:35:02.718Z</time></trkpt><trkpt lat="38.10529" lon="14.9179117"><ele>1012.0</ele><time>2026-04-04T11:35:03.718Z</time></trkpt><trkpt lat="38.1053333" lon="14.9177983"><ele>1012.0</ele><time>2026-04-04T11:35:04.718Z</time></trkpt><trkpt lat="38.1053833" lon="14.917695"><ele>1012.0</ele><time>2026-04-04T11:35:05.718Z</time></trkpt><trkpt lat="38.1054483" lon="14.9175967"><ele>1012.0</ele><time>2026-04-04T11:35:06.717Z</time></trkpt><trkpt lat="38.1055217" lon="14.9175033"><ele>1012.0</ele><time>2026-04-04T11:35:07.718Z</time></trkpt><trkpt lat="38.1055983" lon="14.91741"><ele>1010.1666666666666</ele><time>2026-04-04T11:35:08.718Z</time></trkpt><trkpt lat="38.1056683" lon="14.9173317"><ele>1008.3333333333333</ele><time>2026-04-04T11:35:09.717Z</time></trkpt><trkpt lat="38.105735" lon="14.9172517"><ele>1006.5</ele><time>2026-04-04T11:35:10.718Z</time></trkpt><trkpt lat="38.1058" lon="14.9171833"><ele>1004.6666666666667</ele><time>2026-04-04T11:35:11.718Z</time></trkpt><trkpt lat="38.1058633" lon="14.917125"><ele>1002.8333333333334</ele><time>2026-04-04T11:35:12.718Z</time></trkpt><trkpt lat="38.1059317" lon="14.9170683"><ele>1001.0</ele><time>2026-04-04T11:35:13.718Z</time></trkpt><trkpt lat="38.1060067" lon="14.9170167"><ele>1001.0</ele><time>2026-04-04T11:35:14.718Z</time></trkpt><trkpt lat="38.1061117" lon="14.9169867"><ele>1001.0</ele><time>2026-04-04T11:35:15.718Z</time></trkpt><trkpt lat="38.1062283" lon="14.9169783"><ele>1001.0</ele><time>2026-04-04T11:35:16.717Z</time></trkpt><trkpt lat="38.1063533" lon="14.916945"><ele>1001.0</ele><time>2026-04-04T11:35:17.718Z</time></trkpt><trkpt lat="38.106475" lon="14.9168833"><ele>1002.0</ele><time>2026-04-04T11:35:18.718Z</time></trkpt><trkpt lat="38.1065783" lon="14.9168083"><ele>1002.9999999999999</ele><time>2026-04-04T11:35:19.717Z</time></trkpt><trkpt lat="38.1066733" lon="14.9167283"><ele>1003.9999999999999</ele><time>2026-04-04T11:35:20.718Z</time></trkpt><trkpt lat="38.106755" lon="14.9166383"><ele>1005.0</ele><time>2026-04-04T11:35:21.717Z</time></trkpt><trkpt lat="38.1068117" lon="14.9165683"><ele>1006.0</ele><time>2026-04-04T11:35:22.718Z</time></trkpt><trkpt lat="38.1068567" lon="14.9165083"><ele>1005.9999999999999</ele><time>2026-04-04T11:35:23.718Z</time></trkpt><trkpt lat="38.1069067" lon="14.9164467"><ele>1006.0</ele><time>2026-04-04T11:35:24.717Z</time></trkpt><trkpt lat="38.1069617" lon="14.9163817"><ele>1006.0</ele><time>2026-04-04T11:35:25.718Z</time></trkpt><trkpt lat="38.1070283" lon="14.9163317"><ele>1006.0</ele><time>2026-04-04T11:35:26.717Z</time></trkpt><trkpt lat="38.1071033" lon="14.9162933"><ele>1005.9999999999999</ele><time>2026-04-04T11:35:27.718Z</time></trkpt><trkpt lat="38.107175" lon="14.9162533"><ele>1006.0</ele><time>2026-04-04T11:35:28.718Z</time></trkpt><trkpt lat="38.1072517" lon="14.91621"><ele>1005.9999999999999</ele><time>2026-04-04T11:35:29.718Z</time></trkpt><trkpt lat="38.1073417" lon="14.9161783"><ele>1006.0</ele><time>2026-04-04T11:35:30.718Z</time></trkpt><trkpt lat="38.1074417" lon="14.9161517"><ele>1006.0</ele><time>2026-04-04T11:35:31.718Z</time></trkpt><trkpt lat="38.107525" lon="14.9161183"><ele>1006.0</ele><time>2026-04-04T11:35:32.717Z</time></trkpt><trkpt lat="38.1075967" lon="14.9160733"><ele>1005.9999999999999</ele><time>2026-04-04T11:35:33.718Z</time></trkpt><trkpt lat="38.1076483" lon="14.9160167"><ele>1006.0</ele><time>2026-04-04T11:35:34.718Z</time></trkpt><trkpt lat="38.1077467" lon="14.915955"><ele>1004.9999999999999</ele><time>2026-04-04T11:35:36.718Z</time></trkpt><trkpt lat="38.1078633" lon="14.9159683"><ele>1004.0</ele><time>2026-04-04T11:35:38.718Z</time></trkpt><trkpt lat="38.1079267" lon="14.91598"><ele>1003.0</ele><time>2026-04-04T11:35:39.718Z</time></trkpt><trkpt lat="38.1079967" lon="14.9160033"><ele>1002.0</ele><time>2026-04-04T11:35:40.717Z</time></trkpt><trkpt lat="38.1080733" lon="14.916025"><ele>1000.9999999999999</ele><time>2026-04-04T11:35:41.718Z</time></trkpt><trkpt lat="38.10815" lon="14.9160383"><ele>1000.0</ele><time>2026-04-04T11:35:42.717Z</time></trkpt><trkpt lat="38.1082283" lon="14.91604"><ele>996.6666666666666</ele><time>2026-04-04T11:35:43.717Z</time></trkpt><trkpt lat="38.1083133" lon="14.9160367"><ele>993.3333333333333</ele><time>2026-04-04T11:35:44.718Z</time></trkpt><trkpt lat="38.1084" lon="14.916035"><ele>990.0</ele><time>2026-04-04T11:35:45.718Z</time></trkpt><trkpt lat="38.10848" lon="14.9160467"><ele>986.6666666666667</ele><time>2026-04-04T11:35:46.717Z</time></trkpt><trkpt lat="38.1085483" lon="14.9160783"><ele>983.3333333333334</ele><time>2026-04-04T11:35:47.718Z</time></trkpt><trkpt lat="38.1086217" lon="14.91613"><ele>980.0</ele><time>2026-04-04T11:35:48.717Z</time></trkpt><trkpt lat="38.1087083" lon="14.9161683"><ele>980.0</ele><time>2026-04-04T11:35:49.718Z</time></trkpt><trkpt lat="38.1087983" lon="14.916195"><ele>980.0</ele><time>2026-04-04T11:35:50.717Z</time></trkpt><trkpt lat="38.1088733" lon="14.91621"><ele>980.0</ele><time>2026-04-04T11:35:51.717Z</time></trkpt><trkpt lat="38.1089367" lon="14.9162183"><ele>980.0</ele><time>2026-04-04T11:35:52.717Z</time></trkpt><trkpt lat="38.109" lon="14.91622"><ele>980.0</ele><time>2026-04-04T11:35:53.718Z</time></trkpt><trkpt lat="38.10907" lon="14.9162133"><ele>980.0</ele><time>2026-04-04T11:35:54.718Z</time></trkpt><trkpt lat="38.10914" lon="14.916205"><ele>980.0</ele><time>2026-04-04T11:35:55.718Z</time></trkpt><trkpt lat="38.1092117" lon="14.9162083"><ele>978.75</ele><time>2026-04-04T11:35:56.717Z</time></trkpt><trkpt lat="38.1092983" lon="14.9162167"><ele>977.5</ele><time>2026-04-04T11:35:57.717Z</time></trkpt><trkpt lat="38.1094167" lon="14.9162333"><ele>976.25</ele><time>2026-04-04T11:35:58.717Z</time></trkpt><trkpt lat="38.1095583" lon="14.9162483"><ele>975.0</ele><time>2026-04-04T11:35:59.718Z</time></trkpt><trkpt lat="38.1096967" lon="14.9162683"><ele>975.0</ele><time>2026-04-04T11:36:00.718Z</time></trkpt><trkpt lat="38.1098183" lon="14.9162933"><ele>975.0</ele><time>2026-04-04T11:36:01.718Z</time></trkpt><trkpt lat="38.1099217" lon="14.916315"><ele>975.0</ele><time>2026-04-04T11:36:02.717Z</time></trkpt><trkpt lat="38.1100017" lon="14.9163367"><ele>975.0</ele><time>2026-04-04T11:36:03.718Z</time></trkpt><trkpt lat="38.1100767" lon="14.9163633"><ele>975.0</ele><time>2026-04-04T11:36:04.717Z</time></trkpt><trkpt lat="38.1101467" lon="14.91638"><ele>974.0</ele><time>2026-04-04T11:36:05.717Z</time></trkpt><trkpt lat="38.11022" lon="14.91639"><ele>973.0</ele><time>2026-04-04T11:36:06.718Z</time></trkpt><trkpt lat="38.1102983" lon="14.9163917"><ele>972.0</ele><time>2026-04-04T11:36:07.717Z</time></trkpt><trkpt lat="38.1103867" lon="14.9164017"><ele>971.0</ele><time>2026-04-04T11:36:08.718Z</time></trkpt><trkpt lat="38.1104833" lon="14.91641"><ele>970.0</ele><time>2026-04-04T11:36:09.718Z</time></trkpt><trkpt lat="38.110585" lon="14.9164117"><ele>969.0</ele><time>2026-04-04T11:36:10.718Z</time></trkpt><trkpt lat="38.1106983" lon="14.9164317"><ele>968.2</ele><time>2026-04-04T11:36:11.718Z</time></trkpt><trkpt lat="38.1108067" lon="14.916445"><ele>967.4000000000001</ele><time>2026-04-04T11:36:12.718Z</time></trkpt><trkpt lat="38.1109083" lon="14.9164583"><ele>966.6</ele><time>2026-04-04T11:36:13.717Z</time></trkpt><trkpt lat="38.1109967" lon="14.916465"><ele>965.8</ele><time>2026-04-04T11:36:14.718Z</time></trkpt><trkpt lat="38.11109" lon="14.9164667"><ele>965.0</ele><time>2026-04-04T11:36:15.717Z</time></trkpt><trkpt lat="38.11117" lon="14.916465"><ele>965.0</ele><time>2026-04-04T11:36:16.718Z</time></trkpt><trkpt lat="38.1112433" lon="14.9164533"><ele>965.0</ele><time>2026-04-04T11:36:17.717Z</time></trkpt><trkpt lat="38.1113183" lon="14.9164383"><ele>965.0</ele><time>2026-04-04T11:36:18.718Z</time></trkpt><trkpt lat="38.11139" lon="14.916425"><ele>965.0</ele><time>2026-04-04T11:36:19.718Z</time></trkpt><trkpt lat="38.111495" lon="14.9164083"><ele>965.0</ele><time>2026-04-04T11:36:21.718Z</time></trkpt><trkpt lat="38.11163" lon="14.9163933"><ele>964.3333333333334</ele><time>2026-04-04T11:36:23.717Z</time></trkpt><trkpt lat="38.1117117" lon="14.9164017"><ele>963.6666666666667</ele><time>2026-04-04T11:36:24.718Z</time></trkpt><trkpt lat="38.1118" lon="14.9164083"><ele>963.0</ele><time>2026-04-04T11:36:25.718Z</time></trkpt><trkpt lat="38.1118883" lon="14.91641"><ele>962.3333333333333</ele><time>2026-04-04T11:36:26.718Z</time></trkpt><trkpt lat="38.1119717" lon="14.9164067"><ele>961.6666666666666</ele><time>2026-04-04T11:36:27.717Z</time></trkpt><trkpt lat="38.1120467" lon="14.9164"><ele>961.0</ele><time>2026-04-04T11:36:28.717Z</time></trkpt><trkpt lat="38.1121433" lon="14.916395"><ele>961.0</ele><time>2026-04-04T11:36:30.718Z</time></trkpt><trkpt lat="38.1122023" lon="14.9164235"><ele>960.9999999999999</ele><time>2026-04-04T11:41:10.719Z</time></trkpt><trkpt lat="38.1122949" lon="14.9164158"><ele>960.9999999999999</ele><time>2026-04-04T11:41:14.718Z</time></trkpt><trkpt lat="38.1123896" lon="14.9163857"><ele>961.0</ele><time>2026-04-04T11:41:17.719Z</time></trkpt><trkpt lat="38.1124802" lon="14.9163652"><ele>961.0</ele><time>2026-04-04T11:41:19.718Z</time></trkpt><trkpt lat="38.1125891" lon="14.9163404"><ele>959.8333333333333</ele><time>2026-04-04T11:41:21.719Z</time></trkpt><trkpt lat="38.112679" lon="14.9163285"><ele>958.6666666666666</ele><time>2026-04-04T11:41:23.719Z</time></trkpt><trkpt lat="38.1127482" lon="14.9163165"><ele>957.5</ele><time>2026-04-04T11:41:25.719Z</time></trkpt><trkpt lat="38.1128177" lon="14.9162981"><ele>956.3333333333333</ele><time>2026-04-04T11:41:27.719Z</time></trkpt><trkpt lat="38.1128889" lon="14.916281"><ele>955.1666666666666</ele><time>2026-04-04T11:41:29.719Z</time></trkpt><trkpt lat="38.1129584" lon="14.9162528"><ele>954.0</ele><time>2026-04-04T11:41:31.719Z</time></trkpt><trkpt lat="38.1130311" lon="14.9162178"><ele>954.0</ele><time>2026-04-04T11:41:33.719Z</time></trkpt><trkpt lat="38.1131165" lon="14.9161748"><ele>954.0000000000001</ele><time>2026-04-04T11:41:35.718Z</time></trkpt><trkpt lat="38.1132223" lon="14.9161415"><ele>954.0000000000001</ele><time>2026-04-04T11:41:37.719Z</time></trkpt><trkpt lat="38.1133183" lon="14.9160933"><ele>954.0</ele><time>2026-04-04T11:41:39.719Z</time></trkpt><trkpt lat="38.113415" lon="14.916045"><ele>954.0</ele><time>2026-04-04T11:41:41.719Z</time></trkpt><trkpt lat="38.1135" lon="14.916005"><ele>949.0</ele><time>2026-04-04T11:41:43.719Z</time></trkpt><trkpt lat="38.1135767" lon="14.91597"><ele>944.0</ele><time>2026-04-04T11:41:45.719Z</time></trkpt><trkpt lat="38.113675" lon="14.9159383"><ele>939.0</ele><time>2026-04-04T11:41:47.719Z</time></trkpt><trkpt lat="38.1137367" lon="14.915905"><ele>934.0</ele><time>2026-04-04T11:41:49.719Z</time></trkpt><trkpt lat="38.1138167" lon="14.915845"><ele>929.0</ele><time>2026-04-04T11:41:52.719Z</time></trkpt><trkpt lat="38.1138967" lon="14.9158083"><ele>924.0</ele><time>2026-04-04T11:41:55.718Z</time></trkpt><trkpt lat="38.11397" lon="14.91578"><ele>923.1666666666666</ele><time>2026-04-04T11:41:58.719Z</time></trkpt><trkpt lat="38.114045" lon="14.9157617"><ele>922.3333333333333</ele><time>2026-04-04T11:42:02.719Z</time></trkpt><trkpt lat="38.114105" lon="14.91571"><ele>921.5</ele><time>2026-04-04T11:42:06.719Z</time></trkpt><trkpt lat="38.1141683" lon="14.9156483"><ele>920.6666666666666</ele><time>2026-04-04T11:42:10.718Z</time></trkpt><trkpt lat="38.1142233" lon="14.9157367"><ele>919.8333333333333</ele><time>2026-04-04T11:42:14.719Z</time></trkpt><trkpt lat="38.1142383" lon="14.91584"><ele>919.0</ele><time>2026-04-04T11:42:17.718Z</time></trkpt><trkpt lat="38.1142383" lon="14.9159267"><ele>919.8333333333333</ele><time>2026-04-04T11:42:20.719Z</time></trkpt><trkpt lat="38.114205" lon="14.916"><ele>920.6666666666666</ele><time>2026-04-04T11:42:23.719Z</time></trkpt><trkpt lat="38.1141417" lon="14.9160317"><ele>921.5</ele><time>2026-04-04T11:42:27.719Z</time></trkpt><trkpt lat="38.1140667" lon="14.91608"><ele>922.3333333333333</ele><time>2026-04-04T11:42:30.719Z</time></trkpt><trkpt lat="38.1140117" lon="14.9161433"><ele>923.1666666666666</ele><time>2026-04-04T11:42:33.719Z</time></trkpt><trkpt lat="38.1139483" lon="14.916165"><ele>924.0</ele><time>2026-04-04T11:42:46.719Z</time></trkpt><trkpt lat="38.113865" lon="14.9162167"><ele>924.0</ele><time>2026-04-04T11:42:49.719Z</time></trkpt><trkpt lat="38.1138017" lon="14.91628"><ele>924.0</ele><time>2026-04-04T11:42:51.719Z</time></trkpt><trkpt lat="38.1137433" lon="14.9163617"><ele>924.0</ele><time>2026-04-04T11:42:54.719Z</time></trkpt><trkpt lat="38.1136933" lon="14.916435"><ele>924.0</ele><time>2026-04-04T11:42:56.718Z</time></trkpt><trkpt lat="38.113665" lon="14.9165167"><ele>924.0</ele><time>2026-04-04T11:42:58.719Z</time></trkpt><trkpt lat="38.1136533" lon="14.9166283"><ele>924.0</ele><time>2026-04-04T11:43:01.719Z</time></trkpt><trkpt lat="38.11363" lon="14.9167083"><ele>922.6666666666666</ele><time>2026-04-04T11:43:03.719Z</time></trkpt><trkpt lat="38.113585" lon="14.9168383"><ele>921.3333333333333</ele><time>2026-04-04T11:43:05.718Z</time></trkpt><trkpt lat="38.1135533" lon="14.916925"><ele>920.0</ele><time>2026-04-04T11:43:06.719Z</time></trkpt><trkpt lat="38.1135233" lon="14.9170117"><ele>918.6666666666666</ele><time>2026-04-04T11:43:07.719Z</time></trkpt><trkpt lat="38.113495" lon="14.9170883"><ele>917.3333333333333</ele><time>2026-04-04T11:43:08.718Z</time></trkpt><trkpt lat="38.1134433" lon="14.9171967"><ele>916.0</ele><time>2026-04-04T11:43:10.719Z</time></trkpt><trkpt lat="38.113405" lon="14.9172783"><ele>916.0</ele><time>2026-04-04T11:43:12.719Z</time></trkpt><trkpt lat="38.1133417" lon="14.91735"><ele>915.9999999999999</ele><time>2026-04-04T11:43:14.719Z</time></trkpt><trkpt lat="38.1132683" lon="14.9174283"><ele>915.9999999999999</ele><time>2026-04-04T11:43:16.719Z</time></trkpt><trkpt lat="38.1131917" lon="14.9174933"><ele>916.0</ele><time>2026-04-04T11:43:18.719Z</time></trkpt><trkpt lat="38.1130983" lon="14.917545"><ele>916.0</ele><time>2026-04-04T11:43:20.718Z</time></trkpt><trkpt lat="38.1129983" lon="14.91761"><ele>912.9999999999999</ele><time>2026-04-04T11:43:22.719Z</time></trkpt><trkpt lat="38.112925" lon="14.917675"><ele>910.0</ele><time>2026-04-04T11:43:24.718Z</time></trkpt><trkpt lat="38.1128567" lon="14.91774"><ele>907.0</ele><time>2026-04-04T11:43:26.718Z</time></trkpt><trkpt lat="38.1128033" lon="14.9177833"><ele>904.0</ele><time>2026-04-04T11:43:28.719Z</time></trkpt><trkpt lat="38.1127283" lon="14.9178217"><ele>900.9999999999999</ele><time>2026-04-04T11:43:31.719Z</time></trkpt><trkpt lat="38.11266" lon="14.9178467"><ele>898.0</ele><time>2026-04-04T11:43:33.719Z</time></trkpt><trkpt lat="38.1127133" lon="14.917895"><ele>897.9999999999999</ele><time>2026-04-04T11:44:00.719Z</time></trkpt><trkpt lat="38.1127817" lon="14.9178783"><ele>898.0</ele><time>2026-04-04T11:44:01.718Z</time></trkpt><trkpt lat="38.1128433" lon="14.91785"><ele>898.0</ele><time>2026-04-04T11:44:02.719Z</time></trkpt><trkpt lat="38.1129517" lon="14.9177717"><ele>898.0</ele><time>2026-04-04T11:44:04.719Z</time></trkpt><trkpt lat="38.1130183" lon="14.917715"><ele>897.9999999999999</ele><time>2026-04-04T11:44:05.719Z</time></trkpt><trkpt lat="38.113085" lon="14.917665"><ele>898.0</ele><time>2026-04-04T11:44:06.719Z</time></trkpt><trkpt lat="38.11314" lon="14.917615"><ele>898.0</ele><time>2026-04-04T11:44:07.719Z</time></trkpt><trkpt lat="38.1132" lon="14.9175717"><ele>898.0</ele><time>2026-04-04T11:44:08.718Z</time></trkpt><trkpt lat="38.11326" lon="14.91753"><ele>898.0</ele><time>2026-04-04T11:44:09.719Z</time></trkpt><trkpt lat="38.1133417" lon="14.9174383"><ele>898.0</ele><time>2026-04-04T11:44:11.718Z</time></trkpt><trkpt lat="38.11341" lon="14.91733"><ele>898.0</ele><time>2026-04-04T11:44:13.718Z</time></trkpt><trkpt lat="38.1134767" lon="14.9172133"><ele>901.5999999999999</ele><time>2026-04-04T11:44:15.718Z</time></trkpt><trkpt lat="38.1135267" lon="14.91709"><ele>905.1999999999999</ele><time>2026-04-04T11:44:17.72Z</time></trkpt><trkpt lat="38.113565" lon="14.9169667"><ele>908.8</ele><time>2026-04-04T11:44:19.719Z</time></trkpt><trkpt lat="38.11358" lon="14.9168483"><ele>912.4</ele><time>2026-04-04T11:44:21.72Z</time></trkpt><trkpt lat="38.1136067" lon="14.9167117"><ele>916.0</ele><time>2026-04-04T11:44:23.72Z</time></trkpt><trkpt lat="38.1136283" lon="14.9165767"><ele>917.3333333333333</ele><time>2026-04-04T11:44:25.719Z</time></trkpt><trkpt lat="38.1136483" lon="14.9164483"><ele>918.6666666666666</ele><time>2026-04-04T11:44:27.72Z</time></trkpt><trkpt lat="38.11368" lon="14.9163333"><ele>920.0</ele><time>2026-04-04T11:44:29.719Z</time></trkpt><trkpt lat="38.1137333" lon="14.9162433"><ele>921.3333333333333</ele><time>2026-04-04T11:44:31.719Z</time></trkpt><trkpt lat="38.1138117" lon="14.9162183"><ele>922.6666666666666</ele><time>2026-04-04T11:44:33.72Z</time></trkpt><trkpt lat="38.1138917" lon="14.9162167"><ele>924.0</ele><time>2026-04-04T11:44:35.72Z</time></trkpt><trkpt lat="38.1139467" lon="14.91615"><ele>924.0</ele><time>2026-04-04T11:44:37.719Z</time></trkpt><trkpt lat="38.11405" lon="14.91605"><ele>924.0</ele><time>2026-04-04T11:44:39.719Z</time></trkpt><trkpt lat="38.1141283" lon="14.91602"><ele>924.0</ele><time>2026-04-04T11:44:40.72Z</time></trkpt><trkpt lat="38.1141967" lon="14.915985"><ele>924.0</ele><time>2026-04-04T11:44:41.72Z</time></trkpt><trkpt lat="38.1142467" lon="14.9159033"><ele>924.0</ele><time>2026-04-04T11:44:43.72Z</time></trkpt><trkpt lat="38.1142717" lon="14.9158033"><ele>924.0</ele><time>2026-04-04T11:44:46.72Z</time></trkpt><trkpt lat="38.11428" lon="14.9158833"><ele>918.0</ele><time>2026-04-04T11:44:58.72Z</time></trkpt><trkpt lat="38.1142783" lon="14.9159667"><ele>912.0000000000001</ele><time>2026-04-04T11:45:01.719Z</time></trkpt><trkpt lat="38.1142241" lon="14.9158707"><ele>906.0000000000001</ele><time>2026-04-04T11:46:11.72Z</time></trkpt><trkpt lat="38.1142472" lon="14.9157271"><ele>900.0</ele><time>2026-04-04T11:46:13.72Z</time></trkpt><trkpt lat="38.1143174" lon="14.9156384"><ele>894.0</ele><time>2026-04-04T11:46:15.72Z</time></trkpt><trkpt lat="38.1144216" lon="14.915589"><ele>894.0</ele><time>2026-04-04T11:46:17.719Z</time></trkpt><trkpt lat="38.1145175" lon="14.9155404"><ele>894.0000000000001</ele><time>2026-04-04T11:46:19.719Z</time></trkpt><trkpt lat="38.114593" lon="14.9155016"><ele>894.0000000000001</ele><time>2026-04-04T11:46:21.72Z</time></trkpt><trkpt lat="38.114667" lon="14.9155076"><ele>894.0</ele><time>2026-04-04T11:46:23.72Z</time></trkpt><trkpt lat="38.1146725" lon="14.9156326"><ele>894.0</ele><time>2026-04-04T11:46:26.72Z</time></trkpt><trkpt lat="38.114646" lon="14.9157581"><ele>894.0</ele><time>2026-04-04T11:46:28.72Z</time></trkpt><trkpt lat="38.1146407" lon="14.9158791"><ele>894.0000000000001</ele><time>2026-04-04T11:46:30.72Z</time></trkpt><trkpt lat="38.1146789" lon="14.9159852"><ele>894.0000000000001</ele><time>2026-04-04T11:46:32.72Z</time></trkpt><trkpt lat="38.1147536" lon="14.9161168"><ele>894.0</ele><time>2026-04-04T11:46:34.719Z</time></trkpt><trkpt lat="38.1147958" lon="14.9161994"><ele>894.0</ele><time>2026-04-04T11:46:35.719Z</time></trkpt><trkpt lat="38.1148267" lon="14.9162933"><ele>893.8000000000001</ele><time>2026-04-04T11:46:36.719Z</time></trkpt><trkpt lat="38.1148367" lon="14.9163733"><ele>893.6000000000001</ele><time>2026-04-04T11:46:37.72Z</time></trkpt><trkpt lat="38.1148333" lon="14.9165233"><ele>893.4</ele><time>2026-04-04T11:46:39.72Z</time></trkpt><trkpt lat="38.1148117" lon="14.916645"><ele>893.2</ele><time>2026-04-04T11:46:41.719Z</time></trkpt><trkpt lat="38.1147867" lon="14.9167617"><ele>893.0</ele><time>2026-04-04T11:46:43.72Z</time></trkpt><trkpt lat="38.1147683" lon="14.9168633"><ele>891.2</ele><time>2026-04-04T11:46:45.72Z</time></trkpt><trkpt lat="38.1147467" lon="14.9169583"><ele>889.4</ele><time>2026-04-04T11:46:49.719Z</time></trkpt><trkpt lat="38.1147217" lon="14.9170417"><ele>887.6000000000001</ele><time>2026-04-04T11:46:52.719Z</time></trkpt><trkpt lat="38.1146817" lon="14.9171233"><ele>885.8000000000001</ele><time>2026-04-04T11:46:55.72Z</time></trkpt><trkpt lat="38.114645" lon="14.91725"><ele>884.0</ele><time>2026-04-04T11:46:57.72Z</time></trkpt><trkpt lat="38.1145917" lon="14.9173917"><ele>884.0000000000001</ele><time>2026-04-04T11:46:59.72Z</time></trkpt><trkpt lat="38.1145333" lon="14.9175383"><ele>884.0</ele><time>2026-04-04T11:47:01.72Z</time></trkpt><trkpt lat="38.11449" lon="14.9176167"><ele>884.0</ele><time>2026-04-04T11:47:02.72Z</time></trkpt><trkpt lat="38.11445" lon="14.9177"><ele>884.0</ele><time>2026-04-04T11:47:03.72Z</time></trkpt><trkpt lat="38.1144133" lon="14.9177733"><ele>884.0000000000001</ele><time>2026-04-04T11:47:04.719Z</time></trkpt><trkpt lat="38.114385" lon="14.91785"><ele>884.0</ele><time>2026-04-04T11:47:05.719Z</time></trkpt><trkpt lat="38.11435" lon="14.917965"><ele>884.0000000000001</ele><time>2026-04-04T11:47:07.72Z</time></trkpt><trkpt lat="38.1143" lon="14.9180317"><ele>884.0</ele><time>2026-04-04T11:47:09.72Z</time></trkpt><trkpt lat="38.1143367" lon="14.9179633"><ele>884.0</ele><time>2026-04-04T11:47:25.719Z</time></trkpt><trkpt lat="38.1143667" lon="14.9178867"><ele>884.0</ele><time>2026-04-04T11:47:26.719Z</time></trkpt><trkpt lat="38.1144" lon="14.917775"><ele>884.0000000000001</ele><time>2026-04-04T11:47:27.72Z</time></trkpt><trkpt lat="38.1144517" lon="14.9176467"><ele>884.0</ele><time>2026-04-04T11:47:28.72Z</time></trkpt><trkpt lat="38.1144983" lon="14.9175383"><ele>884.0000000000001</ele><time>2026-04-04T11:47:29.72Z</time></trkpt><trkpt lat="38.1145383" lon="14.9174383"><ele>884.0</ele><time>2026-04-04T11:47:30.72Z</time></trkpt><trkpt lat="38.1145783" lon="14.9173583"><ele>884.0</ele><time>2026-04-04T11:47:31.72Z</time></trkpt><trkpt lat="38.1146133" lon="14.9172883"><ele>884.0</ele><time>2026-04-04T11:47:32.72Z</time></trkpt><trkpt lat="38.114665" lon="14.9171867"><ele>884.0000000000001</ele><time>2026-04-04T11:47:34.72Z</time></trkpt><trkpt lat="38.114695" lon="14.91711"><ele>884.0</ele><time>2026-04-04T11:47:36.719Z</time></trkpt><trkpt lat="38.1147133" lon="14.91702"><ele>884.0000000000001</ele><time>2026-04-04T11:47:38.719Z</time></trkpt><trkpt lat="38.11474" lon="14.9169167"><ele>884.0</ele><time>2026-04-04T11:47:40.72Z</time></trkpt><trkpt lat="38.11469" lon="14.9170383"><ele>884.0</ele><time>2026-04-04T11:48:02.72Z</time></trkpt><trkpt lat="38.1146633" lon="14.91714"><ele>884.0</ele><time>2026-04-04T11:48:05.719Z</time></trkpt><trkpt lat="38.114635" lon="14.917225"><ele>884.0000000000001</ele><time>2026-04-04T11:48:07.72Z</time></trkpt><trkpt lat="38.114605" lon="14.91731"><ele>884.0</ele><time>2026-04-04T11:48:09.72Z</time></trkpt><trkpt lat="38.1145717" lon="14.9174017"><ele>884.0</ele><time>2026-04-04T11:48:11.72Z</time></trkpt><trkpt lat="38.1145517" lon="14.91748"><ele>884.0000000000001</ele><time>2026-04-04T11:48:13.719Z</time></trkpt><trkpt lat="38.114515" lon="14.9175733"><ele>884.0000000000001</ele><time>2026-04-04T11:48:15.72Z</time></trkpt><trkpt lat="38.1144583" lon="14.91766"><ele>884.0</ele><time>2026-04-04T11:48:17.72Z</time></trkpt><trkpt lat="38.1144117" lon="14.9177483"><ele>884.0</ele><time>2026-04-04T11:48:19.719Z</time></trkpt><trkpt lat="38.114495" lon="14.9176"><ele>884.0</ele><time>2026-04-04T11:48:27.72Z</time></trkpt><trkpt lat="38.1145517" lon="14.9174783"><ele>884.0000000000001</ele><time>2026-04-04T11:48:28.72Z</time></trkpt><trkpt lat="38.1146083" lon="14.9173367"><ele>884.0000000000001</ele><time>2026-04-04T11:48:29.719Z</time></trkpt><trkpt lat="38.1146483" lon="14.9172117"><ele>884.0</ele><time>2026-04-04T11:48:30.72Z</time></trkpt><trkpt lat="38.1146733" lon="14.9171167"><ele>884.0</ele><time>2026-04-04T11:48:31.72Z</time></trkpt><trkpt lat="38.1146983" lon="14.91703"><ele>884.0000000000001</ele><time>2026-04-04T11:48:32.72Z</time></trkpt><trkpt lat="38.11473" lon="14.91693"><ele>884.0</ele><time>2026-04-04T11:48:34.719Z</time></trkpt><trkpt lat="38.11478" lon="14.917025"><ele>884.0</ele><time>2026-04-04T11:48:38.72Z</time></trkpt><trkpt lat="38.1147967" lon="14.9171067"><ele>884.0</ele><time>2026-04-04T11:48:40.72Z</time></trkpt><trkpt lat="38.1147967" lon="14.9172217"><ele>884.0000000000001</ele><time>2026-04-04T11:48:42.719Z</time></trkpt><trkpt lat="38.11479" lon="14.9173383"><ele>884.0</ele><time>2026-04-04T11:48:44.719Z</time></trkpt><trkpt lat="38.114805" lon="14.9174483"><ele>884.0000000000001</ele><time>2026-04-04T11:48:47.72Z</time></trkpt><trkpt lat="38.1147833" lon="14.9175383"><ele>884.0</ele><time>2026-04-04T11:48:50.72Z</time></trkpt><trkpt lat="38.1147483" lon="14.9176417"><ele>884.0</ele><time>2026-04-04T11:48:53.719Z</time></trkpt><trkpt lat="38.11471" lon="14.9177217"><ele>884.0</ele><time>2026-04-04T11:48:56.719Z</time></trkpt><trkpt lat="38.1147" lon="14.9178033"><ele>884.0</ele><time>2026-04-04T11:48:58.719Z</time></trkpt><trkpt lat="38.1146917" lon="14.91789"><ele>884.0000000000001</ele><time>2026-04-04T11:49:00.72Z</time></trkpt><trkpt lat="38.1146717" lon="14.91798"><ele>884.0</ele><time>2026-04-04T11:49:03.72Z</time></trkpt><trkpt lat="38.1146483" lon="14.918075"><ele>880.1666666666667</ele><time>2026-04-04T11:49:06.72Z</time></trkpt><trkpt lat="38.1146033" lon="14.9181517"><ele>876.3333333333334</ele><time>2026-04-04T11:49:08.719Z</time></trkpt><trkpt lat="38.11455" lon="14.9182133"><ele>872.5</ele><time>2026-04-04T11:49:10.72Z</time></trkpt><trkpt lat="38.114485" lon="14.91825"><ele>868.6666666666667</ele><time>2026-04-04T11:49:41.72Z</time></trkpt><trkpt lat="38.114405" lon="14.9182833"><ele>864.8333333333334</ele><time>2026-04-04T11:49:43.719Z</time></trkpt><trkpt lat="38.1142983" lon="14.9183533"><ele>861.0</ele><time>2026-04-04T11:49:45.72Z</time></trkpt><trkpt lat="38.1142417" lon="14.9184"><ele>859.1999999999999</ele><time>2026-04-04T11:49:46.72Z</time></trkpt><trkpt lat="38.1141833" lon="14.91846"><ele>857.3999999999999</ele><time>2026-04-04T11:49:47.72Z</time></trkpt><trkpt lat="38.11413" lon="14.9185167"><ele>855.6</ele><time>2026-04-04T11:49:48.72Z</time></trkpt><trkpt lat="38.1140367" lon="14.918595"><ele>853.8</ele><time>2026-04-04T11:49:50.72Z</time></trkpt><trkpt lat="38.1139383" lon="14.9186583"><ele>852.0</ele><time>2026-04-04T11:49:52.719Z</time></trkpt><trkpt lat="38.113835" lon="14.9187167"><ele>852.0</ele><time>2026-04-04T11:49:54.72Z</time></trkpt><trkpt lat="38.11376" lon="14.9187683"><ele>852.0</ele><time>2026-04-04T11:49:55.72Z</time></trkpt><trkpt lat="38.1136783" lon="14.9188267"><ele>852.0</ele><time>2026-04-04T11:49:56.719Z</time></trkpt><trkpt lat="38.1136017" lon="14.9188733"><ele>852.0</ele><time>2026-04-04T11:49:57.72Z</time></trkpt><trkpt lat="38.1135167" lon="14.918915"><ele>852.0</ele><time>2026-04-04T11:49:58.72Z</time></trkpt><trkpt lat="38.11342" lon="14.9189533"><ele>852.0</ele><time>2026-04-04T11:49:59.719Z</time></trkpt><trkpt lat="38.1133133" lon="14.9189867"><ele>852.0</ele><time>2026-04-04T11:50:00.72Z</time></trkpt><trkpt lat="38.1131733" lon="14.91904"><ele>852.0</ele><time>2026-04-04T11:50:01.72Z</time></trkpt><trkpt lat="38.1130367" lon="14.9190583"><ele>852.0</ele><time>2026-04-04T11:50:02.72Z</time></trkpt><trkpt lat="38.112925" lon="14.9190883"><ele>853.4000000000001</ele><time>2026-04-04T11:50:03.72Z</time></trkpt><trkpt lat="38.1128433" lon="14.9191067"><ele>854.8000000000001</ele><time>2026-04-04T11:50:04.72Z</time></trkpt><trkpt lat="38.11278" lon="14.9190833"><ele>856.2</ele><time>2026-04-04T11:50:06.719Z</time></trkpt><trkpt lat="38.1128567" lon="14.9189717"><ele>857.6</ele><time>2026-04-04T11:50:08.719Z</time></trkpt><trkpt lat="38.1129233" lon="14.91888"><ele>859.0</ele><time>2026-04-04T11:50:09.72Z</time></trkpt><trkpt lat="38.1129883" lon="14.9187917"><ele>858.9999999999999</ele><time>2026-04-04T11:50:10.719Z</time></trkpt><trkpt lat="38.113055" lon="14.91871"><ele>859.0</ele><time>2026-04-04T11:50:11.72Z</time></trkpt><trkpt lat="38.1131217" lon="14.91865"><ele>859.0</ele><time>2026-04-04T11:50:12.72Z</time></trkpt><trkpt lat="38.1131917" lon="14.9186117"><ele>859.0</ele><time>2026-04-04T11:50:13.72Z</time></trkpt><trkpt lat="38.11326" lon="14.9185667"><ele>858.9999999999999</ele><time>2026-04-04T11:50:14.72Z</time></trkpt><trkpt lat="38.1133233" lon="14.9185117"><ele>859.0</ele><time>2026-04-04T11:50:15.72Z</time></trkpt><trkpt lat="38.1133867" lon="14.9184583"><ele>862.8571428571428</ele><time>2026-04-04T11:50:16.719Z</time></trkpt><trkpt lat="38.1134367" lon="14.918395"><ele>866.7142857142857</ele><time>2026-04-04T11:50:17.72Z</time></trkpt><trkpt lat="38.113485" lon="14.9183233"><ele>870.5714285714286</ele><time>2026-04-04T11:50:18.72Z</time></trkpt><trkpt lat="38.11354" lon="14.91825"><ele>874.4285714285713</ele><time>2026-04-04T11:50:19.72Z</time></trkpt><trkpt lat="38.1135983" lon="14.9181833"><ele>878.2857142857143</ele><time>2026-04-04T11:50:20.72Z</time></trkpt><trkpt lat="38.1136417" lon="14.918125"><ele>882.1428571428571</ele><time>2026-04-04T11:50:21.72Z</time></trkpt><trkpt lat="38.1137067" lon="14.91807"><ele>886.0</ele><time>2026-04-04T11:50:22.72Z</time></trkpt><trkpt lat="38.1137767" lon="14.9180183"><ele>885.9999999999999</ele><time>2026-04-04T11:50:23.72Z</time></trkpt><trkpt lat="38.1138383" lon="14.91797"><ele>886.0</ele><time>2026-04-04T11:50:24.72Z</time></trkpt><trkpt lat="38.113905" lon="14.9179017"><ele>886.0</ele><time>2026-04-04T11:50:25.719Z</time></trkpt><trkpt lat="38.11396" lon="14.9178367"><ele>886.0</ele><time>2026-04-04T11:50:26.72Z</time></trkpt><trkpt lat="38.114005" lon="14.9177517"><ele>885.9999999999999</ele><time>2026-04-04T11:50:27.72Z</time></trkpt><trkpt lat="38.1140433" lon="14.9176633"><ele>886.0</ele><time>2026-04-04T11:50:28.72Z</time></trkpt><trkpt lat="38.11408" lon="14.9175633"><ele>885.5999999999999</ele><time>2026-04-04T11:50:29.719Z</time></trkpt><trkpt lat="38.1141217" lon="14.9174683"><ele>885.1999999999999</ele><time>2026-04-04T11:50:30.72Z</time></trkpt><trkpt lat="38.1141567" lon="14.9173833"><ele>884.8000000000001</ele><time>2026-04-04T11:50:31.72Z</time></trkpt><trkpt lat="38.1141767" lon="14.9173067"><ele>884.4000000000001</ele><time>2026-04-04T11:50:32.719Z</time></trkpt><trkpt lat="38.1141983" lon="14.9171517"><ele>884.0</ele><time>2026-04-04T11:50:34.72Z</time></trkpt><trkpt lat="38.1141733" lon="14.9170017"><ele>884.0</ele><time>2026-04-04T11:50:36.72Z</time></trkpt><trkpt lat="38.1141033" lon="14.9168683"><ele>884.0</ele><time>2026-04-04T11:50:38.72Z</time></trkpt><trkpt lat="38.11403" lon="14.9167417"><ele>884.0</ele><time>2026-04-04T11:50:40.721Z</time></trkpt><trkpt lat="38.1139733" lon="14.9166117"><ele>884.0</ele><time>2026-04-04T11:50:42.72Z</time></trkpt><trkpt lat="38.1139383" lon="14.9164867"><ele>892.0</ele><time>2026-04-04T11:50:44.721Z</time></trkpt><trkpt lat="38.1139367" lon="14.916355"><ele>900.0000000000001</ele><time>2026-04-04T11:50:46.721Z</time></trkpt><trkpt lat="38.113945" lon="14.916225"><ele>908.0000000000001</ele><time>2026-04-04T11:50:48.721Z</time></trkpt><trkpt lat="38.1138683" lon="14.9161667"><ele>916.0</ele><time>2026-04-04T11:50:50.721Z</time></trkpt><trkpt lat="38.1137733" lon="14.916225"><ele>924.0</ele><time>2026-04-04T11:50:52.721Z</time></trkpt><trkpt lat="38.1137367" lon="14.916315"><ele>924.0</ele><time>2026-04-04T11:50:53.72Z</time></trkpt><trkpt lat="38.11371" lon="14.9164383"><ele>924.0</ele><time>2026-04-04T11:50:54.721Z</time></trkpt><trkpt lat="38.1136867" lon="14.916605"><ele>924.0</ele><time>2026-04-04T11:50:55.721Z</time></trkpt><trkpt lat="38.1136633" lon="14.9167967"><ele>924.0</ele><time>2026-04-04T11:50:56.721Z</time></trkpt><trkpt lat="38.1136217" lon="14.9169717"><ele>922.0</ele><time>2026-04-04T11:50:57.721Z</time></trkpt><trkpt lat="38.11357" lon="14.917125"><ele>920.0</ele><time>2026-04-04T11:50:58.72Z</time></trkpt><trkpt lat="38.1135" lon="14.9172633"><ele>918.0</ele><time>2026-04-04T11:50:59.72Z</time></trkpt><trkpt lat="38.1134133" lon="14.917385"><ele>916.0</ele><time>2026-04-04T11:51:00.721Z</time></trkpt><trkpt lat="38.11333" lon="14.9174667"><ele>911.5</ele><time>2026-04-04T11:51:01.721Z</time></trkpt><trkpt lat="38.1132383" lon="14.9175467"><ele>907.0</ele><time>2026-04-04T11:51:02.721Z</time></trkpt><trkpt lat="38.1131417" lon="14.9176133"><ele>902.5</ele><time>2026-04-04T11:51:03.721Z</time></trkpt><trkpt lat="38.1130233" lon="14.9176817"><ele>898.0</ele><time>2026-04-04T11:51:04.721Z</time></trkpt><trkpt lat="38.1129117" lon="14.9177733"><ele>898.0</ele><time>2026-04-04T11:51:05.721Z</time></trkpt><trkpt lat="38.112805" lon="14.91784"><ele>898.0</ele><time>2026-04-04T11:51:06.721Z</time></trkpt><trkpt lat="38.1127267" lon="14.91789"><ele>898.0</ele><time>2026-04-04T11:51:07.721Z</time></trkpt><trkpt lat="38.1126217" lon="14.9179267"><ele>898.0</ele><time>2026-04-04T11:51:09.721Z</time></trkpt><trkpt lat="38.112505" lon="14.9179117"><ele>898.0</ele><time>2026-04-04T11:51:11.72Z</time></trkpt><trkpt lat="38.1124033" lon="14.9178433"><ele>894.9999999999999</ele><time>2026-04-04T11:51:13.72Z</time></trkpt><trkpt lat="38.11235" lon="14.9177933"><ele>892.0</ele><time>2026-04-04T11:51:14.72Z</time></trkpt><trkpt lat="38.1122933" lon="14.9177267"><ele>889.0</ele><time>2026-04-04T11:51:15.721Z</time></trkpt><trkpt lat="38.1122317" lon="14.91765"><ele>886.0</ele><time>2026-04-04T11:51:16.721Z</time></trkpt><trkpt lat="38.1121667" lon="14.9175717"><ele>882.9999999999999</ele><time>2026-04-04T11:51:17.721Z</time></trkpt><trkpt lat="38.1121133" lon="14.9174967"><ele>880.0</ele><time>2026-04-04T11:51:18.721Z</time></trkpt><trkpt lat="38.112055" lon="14.9174117"><ele>887.9999999999999</ele><time>2026-04-04T11:51:19.72Z</time></trkpt><trkpt lat="38.1120033" lon="14.9173317"><ele>896.0</ele><time>2026-04-04T11:51:20.72Z</time></trkpt><trkpt lat="38.111955" lon="14.9172783"><ele>904.0</ele><time>2026-04-04T11:51:21.721Z</time></trkpt><trkpt lat="38.1118983" lon="14.9172167"><ele>912.0</ele><time>2026-04-04T11:51:22.72Z</time></trkpt><trkpt lat="38.1118383" lon="14.9171583"><ele>919.9999999999999</ele><time>2026-04-04T11:51:23.72Z</time></trkpt><trkpt lat="38.1117783" lon="14.9171083"><ele>928.0</ele><time>2026-04-04T11:51:24.721Z</time></trkpt><trkpt lat="38.111675" lon="14.917055"><ele>927.9999999999999</ele><time>2026-04-04T11:51:26.721Z</time></trkpt><trkpt lat="38.1116117" lon="14.9170383"><ele>928.0</ele><time>2026-04-04T11:51:27.721Z</time></trkpt><trkpt lat="38.1115317" lon="14.91703"><ele>928.0</ele><time>2026-04-04T11:51:28.72Z</time></trkpt><trkpt lat="38.1114433" lon="14.9170367"><ele>928.0</ele><time>2026-04-04T11:51:29.721Z</time></trkpt><trkpt lat="38.11136" lon="14.9170567"><ele>927.9999999999999</ele><time>2026-04-04T11:51:30.721Z</time></trkpt><trkpt lat="38.11128" lon="14.91707"><ele>928.0</ele><time>2026-04-04T11:51:31.72Z</time></trkpt><trkpt lat="38.1111967" lon="14.917075"><ele>927.3333333333333</ele><time>2026-04-04T11:51:32.72Z</time></trkpt><trkpt lat="38.11111" lon="14.9170783"><ele>926.6666666666666</ele><time>2026-04-04T11:51:33.721Z</time></trkpt><trkpt lat="38.1110317" lon="14.91707"><ele>926.0</ele><time>2026-04-04T11:51:34.721Z</time></trkpt><trkpt lat="38.1109383" lon="14.917055"><ele>925.3333333333333</ele><time>2026-04-04T11:51:35.72Z</time></trkpt><trkpt lat="38.110835" lon="14.91705"><ele>924.6666666666666</ele><time>2026-04-04T11:51:36.721Z</time></trkpt><trkpt lat="38.1107567" lon="14.91706"><ele>924.0</ele><time>2026-04-04T11:51:37.721Z</time></trkpt><trkpt lat="38.1106767" lon="14.91706"><ele>924.0</ele><time>2026-04-04T11:51:38.72Z</time></trkpt><trkpt lat="38.1106017" lon="14.91704"><ele>924.0</ele><time>2026-04-04T11:51:39.72Z</time></trkpt><trkpt lat="38.110525" lon="14.9170017"><ele>924.0</ele><time>2026-04-04T11:51:40.72Z</time></trkpt><trkpt lat="38.1104383" lon="14.9169683"><ele>924.0</ele><time>2026-04-04T11:51:41.721Z</time></trkpt><trkpt lat="38.1103533" lon="14.9169633"><ele>924.0</ele><time>2026-04-04T11:51:42.721Z</time></trkpt><trkpt lat="38.1102717" lon="14.916975"><ele>924.0</ele><time>2026-04-04T11:51:43.721Z</time></trkpt><trkpt lat="38.1102" lon="14.9169817"><ele>924.0</ele><time>2026-04-04T11:51:44.721Z</time></trkpt><trkpt lat="38.1101317" lon="14.9169717"><ele>924.0</ele><time>2026-04-04T11:51:45.721Z</time></trkpt><trkpt lat="38.1100683" lon="14.9169483"><ele>924.0</ele><time>2026-04-04T11:51:46.721Z</time></trkpt><trkpt lat="38.11001" lon="14.9169117"><ele>924.0</ele><time>2026-04-04T11:51:47.721Z</time></trkpt><trkpt lat="38.1099517" lon="14.91687"><ele>924.0</ele><time>2026-04-04T11:51:48.72Z</time></trkpt><trkpt lat="38.10989" lon="14.9168283"><ele>924.0</ele><time>2026-04-04T11:51:49.721Z</time></trkpt><trkpt lat="38.1098183" lon="14.916795"><ele>924.0</ele><time>2026-04-04T11:51:50.721Z</time></trkpt><trkpt lat="38.109735" lon="14.9167833"><ele>926.1666666666666</ele><time>2026-04-04T11:51:51.721Z</time></trkpt><trkpt lat="38.1096517" lon="14.916785"><ele>928.3333333333333</ele><time>2026-04-04T11:51:52.721Z</time></trkpt><trkpt lat="38.1095683" lon="14.916775"><ele>930.5</ele><time>2026-04-04T11:51:53.72Z</time></trkpt><trkpt lat="38.1094883" lon="14.916765"><ele>932.6666666666666</ele><time>2026-04-04T11:51:54.72Z</time></trkpt><trkpt lat="38.1094067" lon="14.916745"><ele>934.8333333333333</ele><time>2026-04-04T11:51:55.72Z</time></trkpt><trkpt lat="38.1093133" lon="14.916735"><ele>937.0</ele><time>2026-04-04T11:51:56.721Z</time></trkpt><trkpt lat="38.10921" lon="14.916755"><ele>937.0</ele><time>2026-04-04T11:51:57.72Z</time></trkpt><trkpt lat="38.10911" lon="14.9167917"><ele>937.0</ele><time>2026-04-04T11:51:58.721Z</time></trkpt><trkpt lat="38.10902" lon="14.9168567"><ele>937.0</ele><time>2026-04-04T11:51:59.721Z</time></trkpt><trkpt lat="38.1089383" lon="14.91695"><ele>937.0</ele><time>2026-04-04T11:52:00.72Z</time></trkpt><trkpt lat="38.1088733" lon="14.9170367"><ele>937.0</ele><time>2026-04-04T11:52:01.72Z</time></trkpt><trkpt lat="38.1088183" lon="14.917115"><ele>940.0</ele><time>2026-04-04T11:52:02.721Z</time></trkpt><trkpt lat="38.1087233" lon="14.9171733"><ele>943.0</ele><time>2026-04-04T11:52:04.721Z</time></trkpt><trkpt lat="38.1086383" lon="14.9171017"><ele>946.0</ele><time>2026-04-04T11:52:06.721Z</time></trkpt><trkpt lat="38.108595" lon="14.9169383"><ele>949.0</ele><time>2026-04-04T11:52:08.72Z</time></trkpt><trkpt lat="38.108575" lon="14.91683"><ele>952.0</ele><time>2026-04-04T11:52:09.721Z</time></trkpt><trkpt lat="38.108555" lon="14.9167133"><ele>957.6</ele><time>2026-04-04T11:52:10.721Z</time></trkpt><trkpt lat="38.1085333" lon="14.9166217"><ele>963.2</ele><time>2026-04-04T11:52:11.721Z</time></trkpt><trkpt lat="38.1084617" lon="14.9165167"><ele>968.8</ele><time>2026-04-04T11:52:13.721Z</time></trkpt><trkpt lat="38.1083617" lon="14.9164767"><ele>974.4</ele><time>2026-04-04T11:52:15.72Z</time></trkpt><trkpt lat="38.108245" lon="14.9165133"><ele>980.0</ele><time>2026-04-04T11:52:17.721Z</time></trkpt><trkpt lat="38.10819" lon="14.9165567"><ele>978.5000000000001</ele><time>2026-04-04T11:52:18.72Z</time></trkpt><trkpt lat="38.108125" lon="14.9166367"><ele>977.0</ele><time>2026-04-04T11:52:20.721Z</time></trkpt><trkpt lat="38.1080583" lon="14.9167033"><ele>975.5</ele><time>2026-04-04T11:52:23.721Z</time></trkpt><trkpt lat="38.108" lon="14.9167367"><ele>974.0</ele><time>2026-04-04T11:52:26.721Z</time></trkpt><trkpt lat="38.1079167" lon="14.9167517"><ele>972.5000000000001</ele><time>2026-04-04T11:52:32.721Z</time></trkpt><trkpt lat="38.1077933" lon="14.9167567"><ele>971.0</ele><time>2026-04-04T11:52:34.721Z</time></trkpt><trkpt lat="38.1076867" lon="14.9167983"><ele>971.0</ele><time>2026-04-04T11:52:36.72Z</time></trkpt><trkpt lat="38.1076283" lon="14.91689"><ele>970.9999999999999</ele><time>2026-04-04T11:52:38.721Z</time></trkpt><trkpt lat="38.107565" lon="14.9170133"><ele>970.9999999999999</ele><time>2026-04-04T11:52:40.721Z</time></trkpt><trkpt lat="38.1075133" lon="14.917115"><ele>971.0</ele><time>2026-04-04T11:52:42.721Z</time></trkpt><trkpt lat="38.1074783" lon="14.9172017"><ele>971.0</ele><time>2026-04-04T11:52:44.721Z</time></trkpt><trkpt lat="38.10744" lon="14.91731"><ele>971.0</ele><time>2026-04-04T11:52:47.721Z</time></trkpt><trkpt lat="38.1074133" lon="14.917385"><ele>971.0000000000001</ele><time>2026-04-04T11:52:49.72Z</time></trkpt><trkpt lat="38.10737" lon="14.917485"><ele>971.0</ele><time>2026-04-04T11:52:52.72Z</time></trkpt><trkpt lat="38.1073217" lon="14.917565"><ele>971.0</ele><time>2026-04-04T11:52:55.721Z</time></trkpt><trkpt lat="38.1072643" lon="14.9176219"><ele>971.0000000000001</ele><time>2026-04-04T11:53:15.721Z</time></trkpt><trkpt lat="38.1072068" lon="14.9176722"><ele>971.0</ele><time>2026-04-04T11:53:16.721Z</time></trkpt><trkpt lat="38.1071413" lon="14.9177043"><ele>971.0</ele><time>2026-04-04T11:53:17.72Z</time></trkpt><trkpt lat="38.1070722" lon="14.9177174"><ele>967.0</ele><time>2026-04-04T11:53:18.72Z</time></trkpt><trkpt lat="38.1069882" lon="14.9177196"><ele>962.9999999999999</ele><time>2026-04-04T11:53:19.72Z</time></trkpt><trkpt lat="38.1068918" lon="14.917716"><ele>958.9999999999999</ele><time>2026-04-04T11:53:20.72Z</time></trkpt><trkpt lat="38.106795" lon="14.9177096"><ele>955.0</ele><time>2026-04-04T11:53:21.72Z</time></trkpt><trkpt lat="38.106705" lon="14.9177083"><ele>951.0</ele><time>2026-04-04T11:53:22.721Z</time></trkpt><trkpt lat="38.10662" lon="14.9177033"><ele>955.6666666666666</ele><time>2026-04-04T11:53:23.721Z</time></trkpt><trkpt lat="38.106535" lon="14.9176867"><ele>960.3333333333333</ele><time>2026-04-04T11:53:24.721Z</time></trkpt><trkpt lat="38.1064467" lon="14.9176633"><ele>965.0</ele><time>2026-04-04T11:53:25.72Z</time></trkpt><trkpt lat="38.10637" lon="14.9176567"><ele>969.6666666666666</ele><time>2026-04-04T11:53:26.72Z</time></trkpt><trkpt lat="38.1063033" lon="14.91766"><ele>974.3333333333333</ele><time>2026-04-04T11:53:27.72Z</time></trkpt><trkpt lat="38.1062333" lon="14.9176917"><ele>979.0</ele><time>2026-04-04T11:53:28.721Z</time></trkpt><trkpt lat="38.1061633" lon="14.9177283"><ele>979.0</ele><time>2026-04-04T11:53:29.721Z</time></trkpt><trkpt lat="38.106055" lon="14.9177983"><ele>979.0000000000001</ele><time>2026-04-04T11:53:31.721Z</time></trkpt><trkpt lat="38.1059917" lon="14.917955"><ele>979.0000000000001</ele><time>2026-04-04T11:53:33.721Z</time></trkpt><trkpt lat="38.1059583" lon="14.9180533"><ele>979.0</ele><time>2026-04-04T11:53:34.721Z</time></trkpt><trkpt lat="38.1059267" lon="14.9181383"><ele>979.0</ele><time>2026-04-04T11:53:35.721Z</time></trkpt><trkpt lat="38.1058967" lon="14.9182383"><ele>978.9999999999999</ele><time>2026-04-04T11:53:36.721Z</time></trkpt><trkpt lat="38.1058733" lon="14.9183367"><ele>979.0</ele><time>2026-04-04T11:53:37.721Z</time></trkpt><trkpt lat="38.1058417" lon="14.9184217"><ele>979.0</ele><time>2026-04-04T11:53:38.721Z</time></trkpt><trkpt lat="38.1058117" lon="14.918515"><ele>979.0</ele><time>2026-04-04T11:53:39.721Z</time></trkpt><trkpt lat="38.1057867" lon="14.9186017"><ele>978.9999999999999</ele><time>2026-04-04T11:53:40.72Z</time></trkpt><trkpt lat="38.1057617" lon="14.9186967"><ele>979.0</ele><time>2026-04-04T11:53:41.721Z</time></trkpt><trkpt lat="38.1057483" lon="14.9187783"><ele>978.0</ele><time>2026-04-04T11:53:42.721Z</time></trkpt><trkpt lat="38.1057367" lon="14.918865"><ele>977.0</ele><time>2026-04-04T11:53:43.721Z</time></trkpt><trkpt lat="38.1057317" lon="14.9189467"><ele>976.0</ele><time>2026-04-04T11:53:44.721Z</time></trkpt><trkpt lat="38.105735" lon="14.91903"><ele>975.0</ele><time>2026-04-04T11:53:45.72Z</time></trkpt><trkpt lat="38.10575" lon="14.91911"><ele>974.0</ele><time>2026-04-04T11:53:46.72Z</time></trkpt><trkpt lat="38.1058283" lon="14.919225"><ele>973.0</ele><time>2026-04-04T11:53:48.721Z</time></trkpt><trkpt lat="38.1058867" lon="14.9192617"><ele>972.0</ele><time>2026-04-04T11:53:49.72Z</time></trkpt><trkpt lat="38.10595" lon="14.9193167"><ele>972.0</ele><time>2026-04-04T11:53:50.721Z</time></trkpt><trkpt lat="38.1060133" lon="14.91937"><ele>972.0</ele><time>2026-04-04T11:53:51.72Z</time></trkpt><trkpt lat="38.1060717" lon="14.9194233"><ele>972.0</ele><time>2026-04-04T11:53:52.721Z</time></trkpt><trkpt lat="38.1061267" lon="14.919475"><ele>972.0</ele><time>2026-04-04T11:53:53.721Z</time></trkpt><trkpt lat="38.1061767" lon="14.919535"><ele>972.0</ele><time>2026-04-04T11:53:54.721Z</time></trkpt><trkpt lat="38.1062283" lon="14.9195983"><ele>972.0</ele><time>2026-04-04T11:53:55.721Z</time></trkpt><trkpt lat="38.106275" lon="14.91966"><ele>972.0</ele><time>2026-04-04T11:53:56.721Z</time></trkpt><trkpt lat="38.1063217" lon="14.9197283"><ele>972.0</ele><time>2026-04-04T11:53:57.721Z</time></trkpt><trkpt lat="38.1063617" lon="14.9198067"><ele>972.0</ele><time>2026-04-04T11:53:58.72Z</time></trkpt><trkpt lat="38.1064017" lon="14.9198733"><ele>972.0</ele><time>2026-04-04T11:53:59.72Z</time></trkpt><trkpt lat="38.1064433" lon="14.9199433"><ele>972.0</ele><time>2026-04-04T11:54:00.72Z</time></trkpt><trkpt lat="38.1064783" lon="14.92001"><ele>972.0</ele><time>2026-04-04T11:54:01.721Z</time></trkpt><trkpt lat="38.1065117" lon="14.9200817"><ele>972.0</ele><time>2026-04-04T11:54:02.721Z</time></trkpt><trkpt lat="38.1065533" lon="14.920155"><ele>972.0</ele><time>2026-04-04T11:54:03.72Z</time></trkpt><trkpt lat="38.1066" lon="14.9202217"><ele>967.7142857142857</ele><time>2026-04-04T11:54:04.72Z</time></trkpt><trkpt lat="38.1066533" lon="14.92029"><ele>963.4285714285716</ele><time>2026-04-04T11:54:05.721Z</time></trkpt><trkpt lat="38.106705" lon="14.9203567"><ele>959.1428571428572</ele><time>2026-04-04T11:54:06.721Z</time></trkpt><trkpt lat="38.1067417" lon="14.92044"><ele>954.8571428571429</ele><time>2026-04-04T11:54:07.72Z</time></trkpt><trkpt lat="38.1067767" lon="14.9205267"><ele>950.5714285714287</ele><time>2026-04-04T11:54:08.721Z</time></trkpt><trkpt lat="38.1068083" lon="14.9206083"><ele>946.2857142857144</ele><time>2026-04-04T11:54:09.721Z</time></trkpt><trkpt lat="38.1068383" lon="14.92069"><ele>942.0000000000001</ele><time>2026-04-04T11:54:10.721Z</time></trkpt><trkpt lat="38.10686" lon="14.92078"><ele>942.0000000000001</ele><time>2026-04-04T11:54:11.72Z</time></trkpt><trkpt lat="38.1068683" lon="14.9208633"><ele>942.0</ele><time>2026-04-04T11:54:12.72Z</time></trkpt><trkpt lat="38.1068833" lon="14.9209483"><ele>942.0000000000001</ele><time>2026-04-04T11:54:13.72Z</time></trkpt><trkpt lat="38.106895" lon="14.9210383"><ele>942.0000000000001</ele><time>2026-04-04T11:54:14.721Z</time></trkpt><trkpt lat="38.1069117" lon="14.9211267"><ele>942.0</ele><time>2026-04-04T11:54:15.721Z</time></trkpt><trkpt lat="38.1069183" lon="14.9212133"><ele>942.0000000000001</ele><time>2026-04-04T11:54:16.72Z</time></trkpt><trkpt lat="38.106915" lon="14.921295"><ele>942.0000000000001</ele><time>2026-04-04T11:54:17.721Z</time></trkpt><trkpt lat="38.1069017" lon="14.9213733"><ele>937.0</ele><time>2026-04-04T11:54:18.721Z</time></trkpt><trkpt lat="38.1069" lon="14.921495"><ele>932.0</ele><time>2026-04-04T11:54:20.72Z</time></trkpt><trkpt lat="38.1069683" lon="14.9214467"><ele>927.0</ele><time>2026-04-04T11:54:25.72Z</time></trkpt><trkpt lat="38.1070217" lon="14.921295"><ele>922.0</ele><time>2026-04-04T11:54:27.721Z</time></trkpt><trkpt lat="38.1070383" lon="14.92121"><ele>917.0</ele><time>2026-04-04T11:54:28.721Z</time></trkpt><trkpt lat="38.1070433" lon="14.9211283"><ele>912.0</ele><time>2026-04-04T11:54:29.72Z</time></trkpt><trkpt lat="38.1070567" lon="14.9210483"><ele>912.0</ele><time>2026-04-04T11:54:30.721Z</time></trkpt><trkpt lat="38.107065" lon="14.9209583"><ele>911.9999999999999</ele><time>2026-04-04T11:54:31.721Z</time></trkpt><trkpt lat="38.1070733" lon="14.9208583"><ele>912.0</ele><time>2026-04-04T11:54:32.72Z</time></trkpt><trkpt lat="38.107085" lon="14.9207667"><ele>912.0</ele><time>2026-04-04T11:54:33.721Z</time></trkpt><trkpt lat="38.1070967" lon="14.9206767"><ele>911.9999999999999</ele><time>2026-04-04T11:54:34.72Z</time></trkpt><trkpt lat="38.10711" lon="14.9205917"><ele>912.0</ele><time>2026-04-04T11:54:35.72Z</time></trkpt><trkpt lat="38.1071267" lon="14.9205083"><ele>912.0</ele><time>2026-04-04T11:54:36.721Z</time></trkpt><trkpt lat="38.1071083" lon="14.920355"><ele>915.6666666666666</ele><time>2026-04-04T11:54:38.721Z</time></trkpt><trkpt lat="38.1070817" lon="14.9202717"><ele>919.3333333333333</ele><time>2026-04-04T11:54:39.721Z</time></trkpt><trkpt lat="38.10706" lon="14.9201883"><ele>923.0</ele><time>2026-04-04T11:54:40.72Z</time></trkpt><trkpt lat="38.1070433" lon="14.9201083"><ele>926.6666666666666</ele><time>2026-04-04T11:54:41.721Z</time></trkpt><trkpt lat="38.1070017" lon="14.9199667"><ele>930.3333333333333</ele><time>2026-04-04T11:54:43.72Z</time></trkpt><trkpt lat="38.1069583" lon="14.919845"><ele>934.0</ele><time>2026-04-04T11:54:45.721Z</time></trkpt><trkpt lat="38.106925" lon="14.91976"><ele>933.9999999999999</ele><time>2026-04-04T11:54:47.721Z</time></trkpt><trkpt lat="38.107005" lon="14.9197633"><ele>934.0</ele><time>2026-04-04T11:54:51.72Z</time></trkpt><trkpt lat="38.1070433" lon="14.9198367"><ele>934.0</ele><time>2026-04-04T11:54:53.721Z</time></trkpt><trkpt lat="38.1070733" lon="14.91994"><ele>934.0</ele><time>2026-04-04T11:54:56.72Z</time></trkpt><trkpt lat="38.10713" lon="14.9200317"><ele>933.9999999999999</ele><time>2026-04-04T11:54:59.72Z</time></trkpt><trkpt lat="38.1071883" lon="14.920125"><ele>934.0</ele><time>2026-04-04T11:55:01.721Z</time></trkpt><trkpt lat="38.1072417" lon="14.9201867"><ele>935.6</ele><time>2026-04-04T11:55:02.721Z</time></trkpt><trkpt lat="38.107295" lon="14.920255"><ele>937.2</ele><time>2026-04-04T11:55:03.72Z</time></trkpt><trkpt lat="38.1073417" lon="14.9203133"><ele>938.8000000000001</ele><time>2026-04-04T11:55:04.721Z</time></trkpt><trkpt lat="38.10742" lon="14.92042"><ele>940.4000000000001</ele><time>2026-04-04T11:55:06.72Z</time></trkpt><trkpt lat="38.1074633" lon="14.9205483"><ele>942.0</ele><time>2026-04-04T11:55:08.721Z</time></trkpt><trkpt lat="38.1075083" lon="14.9207117"><ele>933.5</ele><time>2026-04-04T11:55:10.721Z</time></trkpt><trkpt lat="38.10754" lon="14.9208217"><ele>925.0</ele><time>2026-04-04T11:55:11.72Z</time></trkpt><trkpt lat="38.1075717" lon="14.9209483"><ele>916.5</ele><time>2026-04-04T11:55:12.72Z</time></trkpt><trkpt lat="38.1075933" lon="14.9210717"><ele>908.0</ele><time>2026-04-04T11:55:13.721Z</time></trkpt><trkpt lat="38.1075983" lon="14.921165"><ele>899.5</ele><time>2026-04-04T11:55:14.721Z</time></trkpt><trkpt lat="38.1076" lon="14.9212467"><ele>891.0</ele><time>2026-04-04T11:55:15.721Z</time></trkpt><trkpt lat="38.1076017" lon="14.92138"><ele>890.5999999999999</ele><time>2026-04-04T11:55:17.721Z</time></trkpt><trkpt lat="38.1075867" lon="14.9215267"><ele>890.1999999999999</ele><time>2026-04-04T11:55:19.721Z</time></trkpt><trkpt lat="38.107575" lon="14.9216833"><ele>889.8000000000001</ele><time>2026-04-04T11:55:21.72Z</time></trkpt><trkpt lat="38.1075667" lon="14.92179"><ele>889.4000000000001</ele><time>2026-04-04T11:55:22.721Z</time></trkpt><trkpt lat="38.1075483" lon="14.9219017"><ele>889.0</ele><time>2026-04-04T11:55:23.72Z</time></trkpt><trkpt lat="38.1075133" lon="14.9219983"><ele>884.8000000000001</ele><time>2026-04-04T11:55:24.721Z</time></trkpt><trkpt lat="38.1074667" lon="14.9220917"><ele>880.6000000000001</ele><time>2026-04-04T11:55:25.721Z</time></trkpt><trkpt lat="38.107415" lon="14.92216"><ele>876.4</ele><time>2026-04-04T11:55:26.721Z</time></trkpt><trkpt lat="38.10731" lon="14.922225"><ele>872.2</ele><time>2026-04-04T11:55:28.72Z</time></trkpt><trkpt lat="38.1072083" lon="14.9222467"><ele>868.0</ele><time>2026-04-04T11:55:30.721Z</time></trkpt><trkpt lat="38.1070883" lon="14.9222333"><ele>868.0</ele><time>2026-04-04T11:55:32.721Z</time></trkpt><trkpt lat="38.1070217" lon="14.9222117"><ele>868.0</ele><time>2026-04-04T11:55:33.721Z</time></trkpt><trkpt lat="38.106955" lon="14.9221833"><ele>868.0</ele><time>2026-04-04T11:55:34.721Z</time></trkpt><trkpt lat="38.10688" lon="14.9221633"><ele>868.0</ele><time>2026-04-04T11:55:35.721Z</time></trkpt><trkpt lat="38.1068083" lon="14.9221483"><ele>868.0</ele><time>2026-04-04T11:55:36.721Z</time></trkpt><trkpt lat="38.1067367" lon="14.9221367"><ele>868.0</ele><time>2026-04-04T11:55:37.721Z</time></trkpt><trkpt lat="38.1066533" lon="14.9221317"><ele>868.0</ele><time>2026-04-04T11:55:38.721Z</time></trkpt><trkpt lat="38.1065833" lon="14.9221383"><ele>867.9999999999999</ele><time>2026-04-04T11:55:39.72Z</time></trkpt><trkpt lat="38.1065083" lon="14.9221583"><ele>868.0</ele><time>2026-04-04T11:55:40.721Z</time></trkpt><trkpt lat="38.1064333" lon="14.92219"><ele>868.0</ele><time>2026-04-04T11:55:41.72Z</time></trkpt><trkpt lat="38.1063617" lon="14.92222"><ele>868.0</ele><time>2026-04-04T11:55:42.72Z</time></trkpt><trkpt lat="38.1062883" lon="14.9222683"><ele>867.9999999999999</ele><time>2026-04-04T11:55:43.72Z</time></trkpt><trkpt lat="38.1062283" lon="14.922325"><ele>868.0</ele><time>2026-04-04T11:55:44.721Z</time></trkpt><trkpt lat="38.1061667" lon="14.922375"><ele>867.9999999999999</ele><time>2026-04-04T11:55:45.72Z</time></trkpt><trkpt lat="38.1061033" lon="14.922415"><ele>868.0</ele><time>2026-04-04T11:55:46.721Z</time></trkpt><trkpt lat="38.1060383" lon="14.9224433"><ele>868.0</ele><time>2026-04-04T11:55:47.72Z</time></trkpt><trkpt lat="38.105915" lon="14.92244"><ele>868.0</ele><time>2026-04-04T11:55:49.72Z</time></trkpt><trkpt lat="38.105845" lon="14.9224133"><ele>867.9999999999999</ele><time>2026-04-04T11:55:50.72Z</time></trkpt><trkpt lat="38.1057633" lon="14.9223733"><ele>868.0</ele><time>2026-04-04T11:55:51.721Z</time></trkpt><trkpt lat="38.105685" lon="14.9223233"><ele>871.2857142857143</ele><time>2026-04-04T11:55:52.721Z</time></trkpt><trkpt lat="38.1056133" lon="14.9222633"><ele>874.5714285714286</ele><time>2026-04-04T11:55:53.721Z</time></trkpt><trkpt lat="38.10555" lon="14.9222083"><ele>877.8571428571429</ele><time>2026-04-04T11:55:54.72Z</time></trkpt><trkpt lat="38.1054983" lon="14.9221567"><ele>881.1428571428571</ele><time>2026-04-04T11:55:55.721Z</time></trkpt><trkpt lat="38.1054517" lon="14.9220967"><ele>884.4285714285714</ele><time>2026-04-04T11:55:56.721Z</time></trkpt><trkpt lat="38.1054017" lon="14.922035"><ele>887.7142857142858</ele><time>2026-04-04T11:55:57.721Z</time></trkpt><trkpt lat="38.10534" lon="14.9219883"><ele>891.0</ele><time>2026-04-04T11:55:58.72Z</time></trkpt><trkpt lat="38.1052367" lon="14.9220133"><ele>891.0</ele><time>2026-04-04T11:56:00.721Z</time></trkpt><trkpt lat="38.1051867" lon="14.9221333"><ele>890.9999999999999</ele><time>2026-04-04T11:56:02.721Z</time></trkpt><trkpt lat="38.1052033" lon="14.9222233"><ele>890.9999999999999</ele><time>2026-04-04T11:56:03.721Z</time></trkpt><trkpt lat="38.1052383" lon="14.92234"><ele>891.0</ele><time>2026-04-04T11:56:04.721Z</time></trkpt><trkpt lat="38.105285" lon="14.92249"><ele>891.0</ele><time>2026-04-04T11:56:05.72Z</time></trkpt><trkpt lat="38.1053317" lon="14.92266"><ele>894.75</ele><time>2026-04-04T11:56:06.721Z</time></trkpt><trkpt lat="38.1053617" lon="14.9228383"><ele>898.5</ele><time>2026-04-04T11:56:07.72Z</time></trkpt><trkpt lat="38.1053867" lon="14.923"><ele>902.25</ele><time>2026-04-04T11:56:08.72Z</time></trkpt><trkpt lat="38.105425" lon="14.9231783"><ele>906.0</ele><time>2026-04-04T11:56:09.72Z</time></trkpt><trkpt lat="38.1054667" lon="14.9233417"><ele>906.1999999999999</ele><time>2026-04-04T11:56:10.721Z</time></trkpt><trkpt lat="38.1055117" lon="14.9234667"><ele>906.3999999999999</ele><time>2026-04-04T11:56:11.72Z</time></trkpt><trkpt lat="38.105545" lon="14.92357"><ele>906.6</ele><time>2026-04-04T11:56:12.721Z</time></trkpt><trkpt lat="38.1055467" lon="14.9236883"><ele>906.8</ele><time>2026-04-04T11:56:13.721Z</time></trkpt><trkpt lat="38.1055217" lon="14.9238183"><ele>907.0</ele><time>2026-04-04T11:56:14.721Z</time></trkpt><trkpt lat="38.1054733" lon="14.9239567"><ele>907.0</ele><time>2026-04-04T11:56:15.72Z</time></trkpt><trkpt lat="38.1054067" lon="14.924115"><ele>907.0</ele><time>2026-04-04T11:56:16.72Z</time></trkpt><trkpt lat="38.10536" lon="14.9242817"><ele>907.0</ele><time>2026-04-04T11:56:17.72Z</time></trkpt><trkpt lat="38.105325" lon="14.9244433"><ele>907.0</ele><time>2026-04-04T11:56:18.72Z</time></trkpt><trkpt lat="38.10529" lon="14.9245733"><ele>902.8</ele><time>2026-04-04T11:56:19.721Z</time></trkpt><trkpt lat="38.1052467" lon="14.924675"><ele>898.6</ele><time>2026-04-04T11:56:20.721Z</time></trkpt><trkpt lat="38.105185" lon="14.9247633"><ele>894.3999999999999</ele><time>2026-04-04T11:56:21.721Z</time></trkpt><trkpt lat="38.1051167" lon="14.9248583"><ele>890.1999999999999</ele><time>2026-04-04T11:56:22.72Z</time></trkpt><trkpt lat="38.1050633" lon="14.92495"><ele>886.0</ele><time>2026-04-04T11:56:23.72Z</time></trkpt><trkpt lat="38.105015" lon="14.925035"><ele>885.8333333333333</ele><time>2026-04-04T11:56:24.72Z</time></trkpt><trkpt lat="38.10498" lon="14.925135"><ele>885.6666666666666</ele><time>2026-04-04T11:56:25.72Z</time></trkpt><trkpt lat="38.104945" lon="14.92523"><ele>885.5</ele><time>2026-04-04T11:56:26.721Z</time></trkpt><trkpt lat="38.104915" lon="14.9253167"><ele>885.3333333333333</ele><time>2026-04-04T11:56:27.721Z</time></trkpt><trkpt lat="38.10488" lon="14.9254033"><ele>885.1666666666666</ele><time>2026-04-04T11:56:28.721Z</time></trkpt><trkpt lat="38.1048517" lon="14.9254933"><ele>885.0</ele><time>2026-04-04T11:56:29.721Z</time></trkpt><trkpt lat="38.104835" lon="14.9255767"><ele>885.0</ele><time>2026-04-04T11:56:30.721Z</time></trkpt><trkpt lat="38.1048067" lon="14.9257283"><ele>885.0</ele><time>2026-04-04T11:56:32.721Z</time></trkpt><trkpt lat="38.1047817" lon="14.9258067"><ele>885.0</ele><time>2026-04-04T11:56:33.72Z</time></trkpt><trkpt lat="38.1047617" lon="14.92589"><ele>885.0</ele><time>2026-04-04T11:56:34.72Z</time></trkpt><trkpt lat="38.1047467" lon="14.926035"><ele>885.0</ele><time>2026-04-04T11:56:36.722Z</time></trkpt><trkpt lat="38.1047933" lon="14.9261567"><ele>884.4</ele><time>2026-04-04T11:56:38.722Z</time></trkpt><trkpt lat="38.10487" lon="14.9261967"><ele>883.8</ele><time>2026-04-04T11:56:40.722Z</time></trkpt><trkpt lat="38.1049567" lon="14.9261833"><ele>883.2</ele><time>2026-04-04T11:56:42.721Z</time></trkpt><trkpt lat="38.1050417" lon="14.9261683"><ele>882.6</ele><time>2026-04-04T11:56:44.722Z</time></trkpt><trkpt lat="38.1051383" lon="14.9261733"><ele>882.0</ele><time>2026-04-04T11:56:46.721Z</time></trkpt><trkpt lat="38.1052617" lon="14.9261867"><ele>882.0</ele><time>2026-04-04T11:56:48.721Z</time></trkpt><trkpt lat="38.1053833" lon="14.9262074"><ele>882.0</ele><time>2026-04-04T11:56:50.721Z</time></trkpt><trkpt lat="38.1054525" lon="14.9262345"><ele>882.0</ele><time>2026-04-04T11:56:51.722Z</time></trkpt><trkpt lat="38.1055398" lon="14.9263258"><ele>882.0</ele><time>2026-04-04T11:56:53.722Z</time></trkpt><trkpt lat="38.1055636" lon="14.9264013"><ele>882.0</ele><time>2026-04-04T11:56:54.722Z</time></trkpt><trkpt lat="38.1055921" lon="14.9264796"><ele>882.0</ele><time>2026-04-04T11:56:55.722Z</time></trkpt><trkpt lat="38.1056309" lon="14.926551"><ele>882.0</ele><time>2026-04-04T11:56:56.722Z</time></trkpt><trkpt lat="38.1056795" lon="14.9266042"><ele>882.0</ele><time>2026-04-04T11:56:57.722Z</time></trkpt><trkpt lat="38.1057587" lon="14.9267153"><ele>882.0</ele><time>2026-04-04T11:56:59.721Z</time></trkpt><trkpt lat="38.1057741" lon="14.9268508"><ele>882.0</ele><time>2026-04-04T11:57:01.721Z</time></trkpt><trkpt lat="38.1057487" lon="14.9269879"><ele>882.0</ele><time>2026-04-04T11:57:03.722Z</time></trkpt><trkpt lat="38.1057065" lon="14.9271317"><ele>880.4000000000001</ele><time>2026-04-04T11:57:05.722Z</time></trkpt><trkpt lat="38.1056823" lon="14.9272922"><ele>878.8000000000001</ele><time>2026-04-04T11:57:07.721Z</time></trkpt><trkpt lat="38.1056946" lon="14.927395"><ele>877.2</ele><time>2026-04-04T11:57:08.722Z</time></trkpt><trkpt lat="38.1057312" lon="14.9275122"><ele>875.6</ele><time>2026-04-04T11:57:09.722Z</time></trkpt><trkpt lat="38.1058018" lon="14.9276449"><ele>874.0</ele><time>2026-04-04T11:57:10.721Z</time></trkpt><trkpt lat="38.1058793" lon="14.9277831"><ele>874.0</ele><time>2026-04-04T11:57:11.721Z</time></trkpt><trkpt lat="38.1059553" lon="14.9279072"><ele>874.0</ele><time>2026-04-04T11:57:12.722Z</time></trkpt><trkpt lat="38.1060402" lon="14.9280107"><ele>874.0</ele><time>2026-04-04T11:57:13.722Z</time></trkpt><trkpt lat="38.1061241" lon="14.9281034"><ele>874.0</ele><time>2026-04-04T11:57:14.722Z</time></trkpt><trkpt lat="38.1061946" lon="14.9281951"><ele>874.0</ele><time>2026-04-04T11:57:15.722Z</time></trkpt><trkpt lat="38.106267" lon="14.9282966"><ele>874.0000000000001</ele><time>2026-04-04T11:57:16.722Z</time></trkpt><trkpt lat="38.1063542" lon="14.9283946"><ele>874.0000000000001</ele><time>2026-04-04T11:57:17.722Z</time></trkpt><trkpt lat="38.1064445" lon="14.9284831"><ele>874.0</ele><time>2026-04-04T11:57:18.722Z</time></trkpt><trkpt lat="38.1065187" lon="14.9285753"><ele>874.0</ele><time>2026-04-04T11:57:19.722Z</time></trkpt><trkpt lat="38.1065726" lon="14.9286716"><ele>872.1666666666666</ele><time>2026-04-04T11:57:20.721Z</time></trkpt><trkpt lat="38.1066032" lon="14.9287629"><ele>870.3333333333333</ele><time>2026-04-04T11:57:21.721Z</time></trkpt><trkpt lat="38.1066236" lon="14.9288461"><ele>868.5</ele><time>2026-04-04T11:57:22.722Z</time></trkpt><trkpt lat="38.1066554" lon="14.9289319"><ele>866.6666666666667</ele><time>2026-04-04T11:57:23.722Z</time></trkpt><trkpt lat="38.1067011" lon="14.9290171"><ele>864.8333333333334</ele><time>2026-04-04T11:57:24.721Z</time></trkpt><trkpt lat="38.106772" lon="14.9291027"><ele>863.0</ele><time>2026-04-04T11:57:25.721Z</time></trkpt><trkpt lat="38.1068464" lon="14.9291775"><ele>866.1666666666667</ele><time>2026-04-04T11:57:26.722Z</time></trkpt><trkpt lat="38.1069084" lon="14.9292274"><ele>869.3333333333334</ele><time>2026-04-04T11:57:27.721Z</time></trkpt><trkpt lat="38.1069592" lon="14.929279"><ele>872.5</ele><time>2026-04-04T11:57:28.722Z</time></trkpt><trkpt lat="38.1069998" lon="14.929349"><ele>875.6666666666667</ele><time>2026-04-04T11:57:29.721Z</time></trkpt><trkpt lat="38.1070312" lon="14.9294386"><ele>878.8333333333334</ele><time>2026-04-04T11:57:30.722Z</time></trkpt><trkpt lat="38.1070502" lon="14.9295443"><ele>882.0</ele><time>2026-04-04T11:57:31.721Z</time></trkpt><trkpt lat="38.1070457" lon="14.9296527"><ele>882.0</ele><time>2026-04-04T11:57:32.721Z</time></trkpt><trkpt lat="38.1070172" lon="14.9297566"><ele>882.0</ele><time>2026-04-04T11:57:33.722Z</time></trkpt><trkpt lat="38.1069846" lon="14.9298592"><ele>882.0</ele><time>2026-04-04T11:57:34.722Z</time></trkpt><trkpt lat="38.106966" lon="14.9299601"><ele>882.0</ele><time>2026-04-04T11:57:35.722Z</time></trkpt><trkpt lat="38.1069686" lon="14.9300637"><ele>882.0</ele><time>2026-04-04T11:57:36.722Z</time></trkpt><trkpt lat="38.10697" lon="14.9301596"><ele>882.0</ele><time>2026-04-04T11:57:37.721Z</time></trkpt><trkpt lat="38.1069897" lon="14.9302972"><ele>886.2</ele><time>2026-04-04T11:57:39.722Z</time></trkpt><trkpt lat="38.1070891" lon="14.9303706"><ele>890.4000000000001</ele><time>2026-04-04T11:57:41.721Z</time></trkpt><trkpt lat="38.1071551" lon="14.9303719"><ele>894.5999999999999</ele><time>2026-04-04T11:57:42.722Z</time></trkpt><trkpt lat="38.1072242" lon="14.9303221"><ele>898.8</ele><time>2026-04-04T11:57:43.722Z</time></trkpt><trkpt lat="38.1072921" lon="14.9302222"><ele>903.0</ele><time>2026-04-04T11:57:44.721Z</time></trkpt><trkpt lat="38.107358" lon="14.9301226"><ele>901.1666666666666</ele><time>2026-04-04T11:57:45.722Z</time></trkpt><trkpt lat="38.1074262" lon="14.930077"><ele>899.3333333333333</ele><time>2026-04-04T11:57:46.722Z</time></trkpt><trkpt lat="38.1074975" lon="14.930089"><ele>897.5</ele><time>2026-04-04T11:57:47.722Z</time></trkpt><trkpt lat="38.1075662" lon="14.9301417"><ele>895.6666666666666</ele><time>2026-04-04T11:57:48.722Z</time></trkpt><trkpt lat="38.1076377" lon="14.9302248"><ele>893.8333333333333</ele><time>2026-04-04T11:57:49.722Z</time></trkpt><trkpt lat="38.1077226" lon="14.9303245"><ele>892.0</ele><time>2026-04-04T11:57:50.721Z</time></trkpt><trkpt lat="38.1078282" lon="14.9304259"><ele>892.0</ele><time>2026-04-04T11:57:51.722Z</time></trkpt><trkpt lat="38.1079351" lon="14.9305104"><ele>892.0</ele><time>2026-04-04T11:57:52.721Z</time></trkpt><trkpt lat="38.1080442" lon="14.9305712"><ele>892.0</ele><time>2026-04-04T11:57:53.722Z</time></trkpt><trkpt lat="38.1081513" lon="14.9306143"><ele>892.0</ele><time>2026-04-04T11:57:54.722Z</time></trkpt><trkpt lat="38.1082581" lon="14.9306587"><ele>889.5</ele><time>2026-04-04T11:57:55.721Z</time></trkpt><trkpt lat="38.1083627" lon="14.9307126"><ele>887.0</ele><time>2026-04-04T11:57:56.722Z</time></trkpt><trkpt lat="38.1084662" lon="14.9307799"><ele>884.5</ele><time>2026-04-04T11:57:57.722Z</time></trkpt><trkpt lat="38.1085717" lon="14.9308507"><ele>882.0</ele><time>2026-04-04T11:57:58.722Z</time></trkpt><trkpt lat="38.1086776" lon="14.9309133"><ele>886.2</ele><time>2026-04-04T11:57:59.722Z</time></trkpt><trkpt lat="38.1087817" lon="14.9309543"><ele>890.4000000000001</ele><time>2026-04-04T11:58:00.721Z</time></trkpt><trkpt lat="38.1088629" lon="14.9309927"><ele>894.5999999999999</ele><time>2026-04-04T11:58:01.721Z</time></trkpt><trkpt lat="38.1089125" lon="14.9310432"><ele>898.8</ele><time>2026-04-04T11:58:02.721Z</time></trkpt><trkpt lat="38.1089369" lon="14.9311962"><ele>903.0</ele><time>2026-04-04T11:58:04.722Z</time></trkpt><trkpt lat="38.1089211" lon="14.9312998"><ele>903.0</ele><time>2026-04-04T11:58:05.722Z</time></trkpt><trkpt lat="38.1089047" lon="14.9314191"><ele>903.0</ele><time>2026-04-04T11:58:06.722Z</time></trkpt><trkpt lat="38.1089089" lon="14.9315392"><ele>903.0</ele><time>2026-04-04T11:58:07.722Z</time></trkpt><trkpt lat="38.1089388" lon="14.9316449"><ele>903.0</ele><time>2026-04-04T11:58:08.722Z</time></trkpt><trkpt lat="38.1089787" lon="14.931732"><ele>903.0</ele><time>2026-04-04T11:58:09.722Z</time></trkpt><trkpt lat="38.1090313" lon="14.9318051"><ele>903.0</ele><time>2026-04-04T11:58:10.721Z</time></trkpt><trkpt lat="38.1090861" lon="14.9318566"><ele>903.0</ele><time>2026-04-04T11:58:11.722Z</time></trkpt><trkpt lat="38.10918" lon="14.931936"><ele>903.0</ele><time>2026-04-04T11:58:13.722Z</time></trkpt><trkpt lat="38.1092536" lon="14.9319854"><ele>903.0</ele><time>2026-04-04T11:58:14.722Z</time></trkpt><trkpt lat="38.1093474" lon="14.9320509"><ele>903.0</ele><time>2026-04-04T11:58:15.722Z</time></trkpt><trkpt lat="38.1094423" lon="14.9321199"><ele>903.0</ele><time>2026-04-04T11:58:16.722Z</time></trkpt><trkpt lat="38.1095206" lon="14.9321761"><ele>903.0</ele><time>2026-04-04T11:58:17.722Z</time></trkpt><trkpt lat="38.1095781" lon="14.9322155"><ele>903.0</ele><time>2026-04-04T11:58:18.721Z</time></trkpt><trkpt lat="38.1096616" lon="14.9322764"><ele>903.0</ele><time>2026-04-04T11:58:20.722Z</time></trkpt><trkpt lat="38.1097557" lon="14.9323207"><ele>903.0</ele><time>2026-04-04T11:58:22.722Z</time></trkpt><trkpt lat="38.1098579" lon="14.9323653"><ele>903.0</ele><time>2026-04-04T11:58:24.721Z</time></trkpt><trkpt lat="38.1099187" lon="14.9323872"><ele>903.0</ele><time>2026-04-04T11:58:25.722Z</time></trkpt><trkpt lat="38.1099922" lon="14.9324267"><ele>905.5</ele><time>2026-04-04T11:58:26.721Z</time></trkpt><trkpt lat="38.1100681" lon="14.932475"><ele>908.0</ele><time>2026-04-04T11:58:27.722Z</time></trkpt><trkpt lat="38.1101433" lon="14.9325054"><ele>910.5</ele><time>2026-04-04T11:58:28.721Z</time></trkpt><trkpt lat="38.1102124" lon="14.9325257"><ele>913.0</ele><time>2026-04-04T11:58:29.722Z</time></trkpt><trkpt lat="38.1102742" lon="14.9325504"><ele>915.5</ele><time>2026-04-04T11:58:30.722Z</time></trkpt><trkpt lat="38.1103436" lon="14.932582"><ele>918.0</ele><time>2026-04-04T11:58:31.722Z</time></trkpt><trkpt lat="38.1104198" lon="14.9326113"><ele>918.0</ele><time>2026-04-04T11:58:32.722Z</time></trkpt><trkpt lat="38.1104932" lon="14.9326292"><ele>918.0</ele><time>2026-04-04T11:58:33.721Z</time></trkpt><trkpt lat="38.1105623" lon="14.9326484"><ele>918.0</ele><time>2026-04-04T11:58:34.722Z</time></trkpt><trkpt lat="38.1106318" lon="14.9326617"><ele>918.0</ele><time>2026-04-04T11:58:35.722Z</time></trkpt><trkpt lat="38.1107057" lon="14.9326728"><ele>918.0</ele><time>2026-04-04T11:58:36.722Z</time></trkpt><trkpt lat="38.1107732" lon="14.9326788"><ele>918.0</ele><time>2026-04-04T11:58:37.722Z</time></trkpt><trkpt lat="38.1108366" lon="14.9326752"><ele>918.0</ele><time>2026-04-04T11:58:38.722Z</time></trkpt><trkpt lat="38.1109251" lon="14.9326679"><ele>917.5999999999999</ele><time>2026-04-04T11:58:40.722Z</time></trkpt><trkpt lat="38.1109918" lon="14.932676"><ele>917.1999999999999</ele><time>2026-04-04T11:58:42.722Z</time></trkpt><trkpt lat="38.1110731" lon="14.932678"><ele>916.8</ele><time>2026-04-04T11:58:44.721Z</time></trkpt><trkpt lat="38.1112076" lon="14.9326725"><ele>916.4</ele><time>2026-04-04T11:58:46.722Z</time></trkpt><trkpt lat="38.1113021" lon="14.9326327"><ele>916.0</ele><time>2026-04-04T11:58:47.721Z</time></trkpt><trkpt lat="38.1113906" lon="14.9325942"><ele>915.9999999999999</ele><time>2026-04-04T11:58:48.721Z</time></trkpt><trkpt lat="38.1114641" lon="14.9325694"><ele>916.0</ele><time>2026-04-04T11:58:49.722Z</time></trkpt><trkpt lat="38.1115851" lon="14.9325577"><ele>916.0</ele><time>2026-04-04T11:58:51.722Z</time></trkpt><trkpt lat="38.1116564" lon="14.9325452"><ele>916.0</ele><time>2026-04-04T11:58:52.722Z</time></trkpt><trkpt lat="38.1117314" lon="14.93253"><ele>915.9999999999999</ele><time>2026-04-04T11:58:53.722Z</time></trkpt><trkpt lat="38.111808" lon="14.9325308"><ele>916.0</ele><time>2026-04-04T11:58:54.721Z</time></trkpt><trkpt lat="38.1118785" lon="14.932556"><ele>914.6666666666666</ele><time>2026-04-04T11:58:55.721Z</time></trkpt><trkpt lat="38.1119463" lon="14.9326022"><ele>913.3333333333333</ele><time>2026-04-04T11:58:56.722Z</time></trkpt><trkpt lat="38.1120257" lon="14.9326494"><ele>912.0</ele><time>2026-04-04T11:58:57.722Z</time></trkpt><trkpt lat="38.1121099" lon="14.9326887"><ele>910.6666666666667</ele><time>2026-04-04T11:58:58.722Z</time></trkpt><trkpt lat="38.1121858" lon="14.9327187"><ele>909.3333333333334</ele><time>2026-04-04T11:58:59.721Z</time></trkpt><trkpt lat="38.1122494" lon="14.9327452"><ele>908.0</ele><time>2026-04-04T11:59:00.722Z</time></trkpt><trkpt lat="38.1123238" lon="14.9327879"><ele>908.0</ele><time>2026-04-04T11:59:02.721Z</time></trkpt><trkpt lat="38.1123942" lon="14.9328144"><ele>908.0</ele><time>2026-04-04T11:59:05.722Z</time></trkpt><trkpt lat="38.112486" lon="14.9328579"><ele>908.0</ele><time>2026-04-04T11:59:07.722Z</time></trkpt><trkpt lat="38.1125548" lon="14.9329337"><ele>908.0</ele><time>2026-04-04T11:59:09.722Z</time></trkpt><trkpt lat="38.1126172" lon="14.9330575"><ele>908.0</ele><time>2026-04-04T11:59:11.722Z</time></trkpt><trkpt lat="38.1126674" lon="14.9332024"><ele>906.0</ele><time>2026-04-04T11:59:13.722Z</time></trkpt><trkpt lat="38.1127023" lon="14.9332845"><ele>904.0</ele><time>2026-04-04T11:59:14.721Z</time></trkpt><trkpt lat="38.1127493" lon="14.9333897"><ele>902.0</ele><time>2026-04-04T11:59:15.722Z</time></trkpt><trkpt lat="38.1128005" lon="14.9335178"><ele>900.0</ele><time>2026-04-04T11:59:16.722Z</time></trkpt><trkpt lat="38.1128533" lon="14.9336483"><ele>898.0</ele><time>2026-04-04T11:59:17.722Z</time></trkpt><trkpt lat="38.112895" lon="14.933755"><ele>897.9999999999999</ele><time>2026-04-04T11:59:18.722Z</time></trkpt><trkpt lat="38.1129333" lon="14.933845"><ele>898.0</ele><time>2026-04-04T11:59:19.722Z</time></trkpt><trkpt lat="38.1129633" lon="14.9339367"><ele>898.0</ele><time>2026-04-04T11:59:20.722Z</time></trkpt><trkpt lat="38.112995" lon="14.93404"><ele>898.0</ele><time>2026-04-04T11:59:21.722Z</time></trkpt><trkpt lat="38.113025" lon="14.9341583"><ele>897.9999999999999</ele><time>2026-04-04T11:59:22.721Z</time></trkpt><trkpt lat="38.1130467" lon="14.9342817"><ele>898.0</ele><time>2026-04-04T11:59:23.722Z</time></trkpt><trkpt lat="38.113075" lon="14.9344"><ele>897.4999999999999</ele><time>2026-04-04T11:59:24.722Z</time></trkpt><trkpt lat="38.113105" lon="14.9345083"><ele>897.0</ele><time>2026-04-04T11:59:25.721Z</time></trkpt><trkpt lat="38.113135" lon="14.93461"><ele>896.5</ele><time>2026-04-04T11:59:26.722Z</time></trkpt><trkpt lat="38.1131767" lon="14.9347117"><ele>896.0</ele><time>2026-04-04T11:59:27.721Z</time></trkpt><trkpt lat="38.1132267" lon="14.9348133"><ele>895.4999999999999</ele><time>2026-04-04T11:59:28.722Z</time></trkpt><trkpt lat="38.1132783" lon="14.9349"><ele>895.0</ele><time>2026-04-04T11:59:29.721Z</time></trkpt><trkpt lat="38.1133283" lon="14.9349683"><ele>891.3333333333333</ele><time>2026-04-04T11:59:30.722Z</time></trkpt><trkpt lat="38.11338" lon="14.93503"><ele>887.6666666666666</ele><time>2026-04-04T11:59:31.721Z</time></trkpt><trkpt lat="38.1134267" lon="14.935085"><ele>884.0</ele><time>2026-04-04T11:59:32.722Z</time></trkpt><trkpt lat="38.1135033" lon="14.935155"><ele>880.3333333333333</ele><time>2026-04-04T11:59:34.722Z</time></trkpt><trkpt lat="38.1134433" lon="14.9352133"><ele>876.6666666666666</ele><time>2026-04-04T11:59:37.722Z</time></trkpt><trkpt lat="38.1133767" lon="14.9351617"><ele>873.0</ele><time>2026-04-04T11:59:49.722Z</time></trkpt><trkpt lat="38.1133017" lon="14.9350817"><ele>873.0</ele><time>2026-04-04T11:59:51.722Z</time></trkpt><trkpt lat="38.1132417" lon="14.9350383"><ele>873.0</ele><time>2026-04-04T11:59:52.722Z</time></trkpt><trkpt lat="38.1131717" lon="14.935035"><ele>873.0</ele><time>2026-04-04T11:59:53.722Z</time></trkpt><trkpt lat="38.1130917" lon="14.93507"><ele>873.0</ele><time>2026-04-04T11:59:54.722Z</time></trkpt><trkpt lat="38.112995" lon="14.9351333"><ele>873.0</ele><time>2026-04-04T11:59:55.722Z</time></trkpt><trkpt lat="38.112905" lon="14.9351867"><ele>873.0</ele><time>2026-04-04T11:59:56.722Z</time></trkpt><trkpt lat="38.11282" lon="14.93525"><ele>873.5</ele><time>2026-04-04T11:59:57.722Z</time></trkpt><trkpt lat="38.11274" lon="14.9353067"><ele>874.0</ele><time>2026-04-04T11:59:58.722Z</time></trkpt><trkpt lat="38.112665" lon="14.93535"><ele>874.5</ele><time>2026-04-04T11:59:59.722Z</time></trkpt><trkpt lat="38.1125817" lon="14.9353867"><ele>875.0</ele><time>2026-04-04T12:00:00.721Z</time></trkpt><trkpt lat="38.112495" lon="14.9354067"><ele>875.5</ele><time>2026-04-04T12:00:01.722Z</time></trkpt><trkpt lat="38.1124" lon="14.9354183"><ele>876.0</ele><time>2026-04-04T12:00:02.722Z</time></trkpt><trkpt lat="38.1123117" lon="14.9354467"><ele>880.1666666666666</ele><time>2026-04-04T12:00:03.722Z</time></trkpt><trkpt lat="38.1122267" lon="14.935515"><ele>884.3333333333333</ele><time>2026-04-04T12:00:04.721Z</time></trkpt><trkpt lat="38.1121533" lon="14.935595"><ele>888.5</ele><time>2026-04-04T12:00:05.721Z</time></trkpt><trkpt lat="38.1121017" lon="14.93568"><ele>892.6666666666666</ele><time>2026-04-04T12:00:06.721Z</time></trkpt><trkpt lat="38.1120517" lon="14.9357483"><ele>896.8333333333333</ele><time>2026-04-04T12:00:07.722Z</time></trkpt><trkpt lat="38.1119833" lon="14.9357967"><ele>901.0</ele><time>2026-04-04T12:00:08.721Z</time></trkpt><trkpt lat="38.1119233" lon="14.9358233"><ele>900.9999999999999</ele><time>2026-04-04T12:00:09.722Z</time></trkpt><trkpt lat="38.111805" lon="14.935775"><ele>901.0</ele><time>2026-04-04T12:00:11.721Z</time></trkpt><trkpt lat="38.1117533" lon="14.935715"><ele>901.0</ele><time>2026-04-04T12:00:12.721Z</time></trkpt><trkpt lat="38.1116883" lon="14.9356517"><ele>901.0</ele><time>2026-04-04T12:00:13.722Z</time></trkpt><trkpt lat="38.1116133" lon="14.93562"><ele>900.9999999999999</ele><time>2026-04-04T12:00:14.722Z</time></trkpt><trkpt lat="38.1115383" lon="14.9356033"><ele>901.0</ele><time>2026-04-04T12:00:15.722Z</time></trkpt><trkpt lat="38.11146" lon="14.9355933"><ele>903.8</ele><time>2026-04-04T12:00:16.721Z</time></trkpt><trkpt lat="38.11138" lon="14.9355833"><ele>906.5999999999999</ele><time>2026-04-04T12:00:17.722Z</time></trkpt><trkpt lat="38.1112867" lon="14.9355867"><ele>909.4</ele><time>2026-04-04T12:00:18.722Z</time></trkpt><trkpt lat="38.1111867" lon="14.9356033"><ele>912.2</ele><time>2026-04-04T12:00:19.722Z</time></trkpt><trkpt lat="38.11109" lon="14.9356233"><ele>915.0</ele><time>2026-04-04T12:00:20.722Z</time></trkpt><trkpt lat="38.1109883" lon="14.93563"><ele>915.0</ele><time>2026-04-04T12:00:21.722Z</time></trkpt><trkpt lat="38.1108817" lon="14.9356317"><ele>915.0</ele><time>2026-04-04T12:00:22.722Z</time></trkpt><trkpt lat="38.1107817" lon="14.9356317"><ele>915.0</ele><time>2026-04-04T12:00:23.722Z</time></trkpt><trkpt lat="38.1106933" lon="14.9355983"><ele>915.0</ele><time>2026-04-04T12:00:24.722Z</time></trkpt><trkpt lat="38.1106" lon="14.935545"><ele>915.0</ele><time>2026-04-04T12:00:25.721Z</time></trkpt><trkpt lat="38.1105033" lon="14.9354867"><ele>917.3333333333334</ele><time>2026-04-04T12:00:26.722Z</time></trkpt><trkpt lat="38.1104333" lon="14.9354317"><ele>919.6666666666667</ele><time>2026-04-04T12:00:27.722Z</time></trkpt><trkpt lat="38.1103833" lon="14.9353633"><ele>922.0</ele><time>2026-04-04T12:00:28.721Z</time></trkpt><trkpt lat="38.1103467" lon="14.9352867"><ele>924.3333333333334</ele><time>2026-04-04T12:00:29.722Z</time></trkpt><trkpt lat="38.110305" lon="14.9351983"><ele>926.6666666666667</ele><time>2026-04-04T12:00:30.722Z</time></trkpt><trkpt lat="38.1102633" lon="14.93511"><ele>929.0</ele><time>2026-04-04T12:00:31.722Z</time></trkpt><trkpt lat="38.1102117" lon="14.9350117"><ele>929.0</ele><time>2026-04-04T12:00:32.722Z</time></trkpt><trkpt lat="38.1101567" lon="14.934915"><ele>929.0000000000001</ele><time>2026-04-04T12:00:33.722Z</time></trkpt><trkpt lat="38.110095" lon="14.93479"><ele>929.0000000000001</ele><time>2026-04-04T12:00:34.721Z</time></trkpt><trkpt lat="38.11002" lon="14.9346667"><ele>929.0</ele><time>2026-04-04T12:00:35.722Z</time></trkpt><trkpt lat="38.1099467" lon="14.934555"><ele>929.0</ele><time>2026-04-04T12:00:36.721Z</time></trkpt><trkpt lat="38.1098717" lon="14.93445"><ele>922.8000000000001</ele><time>2026-04-04T12:00:37.722Z</time></trkpt><trkpt lat="38.109795" lon="14.93437"><ele>916.6000000000001</ele><time>2026-04-04T12:00:38.722Z</time></trkpt><trkpt lat="38.109725" lon="14.934315"><ele>910.4</ele><time>2026-04-04T12:00:39.722Z</time></trkpt><trkpt lat="38.1096267" lon="14.93427"><ele>904.2</ele><time>2026-04-04T12:00:41.722Z</time></trkpt><trkpt lat="38.1096867" lon="14.934225"><ele>898.0</ele><time>2026-04-04T12:00:56.721Z</time></trkpt><trkpt lat="38.1097833" lon="14.9342433"><ele>897.9999999999999</ele><time>2026-04-04T12:00:58.722Z</time></trkpt><trkpt lat="38.109845" lon="14.93426"><ele>898.0</ele><time>2026-04-04T12:00:59.721Z</time></trkpt><trkpt lat="38.1099233" lon="14.934285"><ele>898.0</ele><time>2026-04-04T12:01:00.722Z</time></trkpt><trkpt lat="38.110005" lon="14.9343017"><ele>898.0</ele><time>2026-04-04T12:01:01.722Z</time></trkpt><trkpt lat="38.11008" lon="14.9343233"><ele>897.9999999999999</ele><time>2026-04-04T12:01:02.721Z</time></trkpt><trkpt lat="38.1101633" lon="14.9343583"><ele>898.0</ele><time>2026-04-04T12:01:03.722Z</time></trkpt><trkpt lat="38.1102433" lon="14.934395"><ele>903.1666666666666</ele><time>2026-04-04T12:01:04.722Z</time></trkpt><trkpt lat="38.110315" lon="14.9344317"><ele>908.3333333333333</ele><time>2026-04-04T12:01:05.722Z</time></trkpt><trkpt lat="38.110375" lon="14.9344617"><ele>913.5</ele><time>2026-04-04T12:01:06.722Z</time></trkpt><trkpt lat="38.1104333" lon="14.9345017"><ele>918.6666666666667</ele><time>2026-04-04T12:01:07.722Z</time></trkpt><trkpt lat="38.1105283" lon="14.93458"><ele>923.8333333333334</ele><time>2026-04-04T12:01:09.722Z</time></trkpt><trkpt lat="38.1105867" lon="14.93465"><ele>929.0</ele><time>2026-04-04T12:01:11.722Z</time></trkpt><trkpt lat="38.1105206" lon="14.9346627"><ele>929.0000000000001</ele><time>2026-04-04T12:01:34.721Z</time></trkpt><trkpt lat="38.1104533" lon="14.934583"><ele>929.0</ele><time>2026-04-04T12:01:53.722Z</time></trkpt><trkpt lat="38.1104072" lon="14.9345277"><ele>929.0</ele><time>2026-04-04T12:01:57.721Z</time></trkpt><trkpt lat="38.110482" lon="14.9345458"><ele>929.0</ele><time>2026-04-04T12:02:37.722Z</time></trkpt><trkpt lat="38.1105384" lon="14.9345969"><ele>929.0000000000001</ele><time>2026-04-04T12:02:44.723Z</time></trkpt><trkpt lat="38.1106002" lon="14.9346677"><ele>929.0</ele><time>2026-04-04T12:02:51.723Z</time></trkpt><trkpt lat="38.1106455" lon="14.9347313"><ele>929.0000000000001</ele><time>2026-04-04T12:13:35.724Z</time></trkpt><trkpt lat="38.1106878" lon="14.9346702"><ele>929.0</ele><time>2026-04-04T12:25:48.727Z</time></trkpt><trkpt lat="38.1107463" lon="14.9346132"><ele>929.0</ele><time>2026-04-04T12:25:52.726Z</time></trkpt><trkpt lat="38.1108285" lon="14.9345952"><ele>929.0</ele><time>2026-04-04T12:25:56.727Z</time></trkpt><trkpt lat="38.1109005" lon="14.9346066"><ele>929.0000000000001</ele><time>2026-04-04T12:26:00.727Z</time></trkpt><trkpt lat="38.1109832" lon="14.9346233"><ele>929.0</ele><time>2026-04-04T12:26:03.727Z</time></trkpt><trkpt lat="38.1110562" lon="14.9346524"><ele>932.0000000000001</ele><time>2026-04-04T12:26:06.727Z</time></trkpt><trkpt lat="38.1111568" lon="14.9346086"><ele>935.0</ele><time>2026-04-04T12:26:09.727Z</time></trkpt><trkpt lat="38.1112459" lon="14.934586"><ele>938.0</ele><time>2026-04-04T12:26:11.727Z</time></trkpt><trkpt lat="38.1113207" lon="14.9346324"><ele>941.0</ele><time>2026-04-04T12:26:13.727Z</time></trkpt><trkpt lat="38.1112609" lon="14.9345886"><ele>944.0000000000001</ele><time>2026-04-04T12:26:43.726Z</time></trkpt><trkpt lat="38.1111925" lon="14.9345529"><ele>947.0</ele><time>2026-04-04T12:26:46.726Z</time></trkpt><trkpt lat="38.1111365" lon="14.9344935"><ele>947.0</ele><time>2026-04-04T12:26:48.727Z</time></trkpt><trkpt lat="38.1110586" lon="14.9344094"><ele>947.0</ele><time>2026-04-04T12:26:50.726Z</time></trkpt><trkpt lat="38.1109942" lon="14.9343654"><ele>947.0</ele><time>2026-04-04T12:26:51.727Z</time></trkpt><trkpt lat="38.1109208" lon="14.9343203"><ele>947.0</ele><time>2026-04-04T12:26:52.726Z</time></trkpt><trkpt lat="38.11085" lon="14.934287"><ele>947.0</ele><time>2026-04-04T12:26:53.727Z</time></trkpt><trkpt lat="38.110729" lon="14.9342444"><ele>946.6666666666667</ele><time>2026-04-04T12:26:55.726Z</time></trkpt><trkpt lat="38.1106555" lon="14.9342278"><ele>946.3333333333334</ele><time>2026-04-04T12:26:56.726Z</time></trkpt><trkpt lat="38.110584" lon="14.9342184"><ele>946.0</ele><time>2026-04-04T12:26:57.727Z</time></trkpt><trkpt lat="38.1105198" lon="14.9341995"><ele>945.6666666666667</ele><time>2026-04-04T12:26:58.727Z</time></trkpt><trkpt lat="38.1104064" lon="14.9341696"><ele>945.3333333333334</ele><time>2026-04-04T12:27:00.726Z</time></trkpt><trkpt lat="38.1103033" lon="14.934159"><ele>945.0</ele><time>2026-04-04T12:27:02.727Z</time></trkpt><trkpt lat="38.1102106" lon="14.9341518"><ele>945.0</ele><time>2026-04-04T12:27:04.726Z</time></trkpt><trkpt lat="38.1101119" lon="14.9341502"><ele>945.0</ele><time>2026-04-04T12:27:06.727Z</time></trkpt><trkpt lat="38.110013" lon="14.9341751"><ele>945.0</ele><time>2026-04-04T12:27:08.727Z</time></trkpt><trkpt lat="38.1099178" lon="14.9342075"><ele>945.0</ele><time>2026-04-04T12:27:10.727Z</time></trkpt><trkpt lat="38.1098172" lon="14.9342209"><ele>945.0</ele><time>2026-04-04T12:27:12.726Z</time></trkpt><trkpt lat="38.1097212" lon="14.9342021"><ele>942.7142857142858</ele><time>2026-04-04T12:27:14.727Z</time></trkpt><trkpt lat="38.1096419" lon="14.934229"><ele>940.4285714285714</ele><time>2026-04-04T12:27:16.727Z</time></trkpt><trkpt lat="38.1096835" lon="14.9343111"><ele>938.1428571428571</ele><time>2026-04-04T12:27:54.727Z</time></trkpt><trkpt lat="38.109747" lon="14.934348"><ele>935.8571428571429</ele><time>2026-04-04T12:27:56.727Z</time></trkpt><trkpt lat="38.1098067" lon="14.934392"><ele>933.5714285714287</ele><time>2026-04-04T12:27:58.727Z</time></trkpt><trkpt lat="38.1098616" lon="14.9344432"><ele>931.2857142857143</ele><time>2026-04-04T12:28:00.727Z</time></trkpt><trkpt lat="38.1099102" lon="14.9345009"><ele>929.0</ele><time>2026-04-04T12:28:02.727Z</time></trkpt><trkpt lat="38.1099521" lon="14.9345638"><ele>929.0</ele><time>2026-04-04T12:28:04.727Z</time></trkpt><trkpt lat="38.1099952" lon="14.9346273"><ele>929.0000000000001</ele><time>2026-04-04T12:28:06.726Z</time></trkpt><trkpt lat="38.1100616" lon="14.934737"><ele>929.0000000000001</ele><time>2026-04-04T12:28:08.727Z</time></trkpt><trkpt lat="38.1101122" lon="14.9348427"><ele>929.0</ele><time>2026-04-04T12:28:09.726Z</time></trkpt><trkpt lat="38.1101718" lon="14.9349601"><ele>929.0</ele><time>2026-04-04T12:28:10.726Z</time></trkpt><trkpt lat="38.1102305" lon="14.9350709"><ele>922.8333333333334</ele><time>2026-04-04T12:28:11.727Z</time></trkpt><trkpt lat="38.1102853" lon="14.9351676"><ele>916.6666666666667</ele><time>2026-04-04T12:28:12.727Z</time></trkpt><trkpt lat="38.1103264" lon="14.9352561"><ele>910.5</ele><time>2026-04-04T12:28:13.726Z</time></trkpt><trkpt lat="38.1103637" lon="14.9353428"><ele>904.3333333333333</ele><time>2026-04-04T12:28:14.727Z</time></trkpt><trkpt lat="38.1104066" lon="14.9354212"><ele>898.1666666666666</ele><time>2026-04-04T12:28:15.727Z</time></trkpt><trkpt lat="38.1104574" lon="14.9354901"><ele>892.0</ele><time>2026-04-04T12:28:16.726Z</time></trkpt><trkpt lat="38.110514" lon="14.9355409"><ele>891.9999999999999</ele><time>2026-04-04T12:28:17.727Z</time></trkpt><trkpt lat="38.1105736" lon="14.935576"><ele>892.0</ele><time>2026-04-04T12:28:18.726Z</time></trkpt><trkpt lat="38.1106406" lon="14.9356047"><ele>892.0</ele><time>2026-04-04T12:28:19.727Z</time></trkpt><trkpt lat="38.1107094" lon="14.9356384"><ele>892.0</ele><time>2026-04-04T12:28:20.726Z</time></trkpt><trkpt lat="38.1107838" lon="14.9356701"><ele>891.9999999999999</ele><time>2026-04-04T12:28:21.727Z</time></trkpt><trkpt lat="38.110865" lon="14.9356916"><ele>892.0</ele><time>2026-04-04T12:28:22.727Z</time></trkpt><trkpt lat="38.1109566" lon="14.9356924"><ele>895.8333333333333</ele><time>2026-04-04T12:28:23.727Z</time></trkpt><trkpt lat="38.1110453" lon="14.93567"><ele>899.6666666666666</ele><time>2026-04-04T12:28:24.726Z</time></trkpt><trkpt lat="38.1111266" lon="14.9356479"><ele>903.5</ele><time>2026-04-04T12:28:25.726Z</time></trkpt><trkpt lat="38.1112067" lon="14.9356305"><ele>907.3333333333333</ele><time>2026-04-04T12:28:26.726Z</time></trkpt><trkpt lat="38.1112877" lon="14.9356193"><ele>911.1666666666666</ele><time>2026-04-04T12:28:27.727Z</time></trkpt><trkpt lat="38.1113706" lon="14.9356184"><ele>915.0</ele><time>2026-04-04T12:28:28.726Z</time></trkpt><trkpt lat="38.1114482" lon="14.9356247"><ele>915.0</ele><time>2026-04-04T12:28:29.727Z</time></trkpt><trkpt lat="38.1115264" lon="14.9356345"><ele>915.0000000000001</ele><time>2026-04-04T12:28:30.726Z</time></trkpt><trkpt lat="38.1116042" lon="14.9356439"><ele>915.0</ele><time>2026-04-04T12:28:31.727Z</time></trkpt><trkpt lat="38.1116734" lon="14.9356642"><ele>915.0</ele><time>2026-04-04T12:28:32.727Z</time></trkpt><trkpt lat="38.1117357" lon="14.9357024"><ele>915.0000000000001</ele><time>2026-04-04T12:28:33.726Z</time></trkpt><trkpt lat="38.1117913" lon="14.935758"><ele>915.0</ele><time>2026-04-04T12:28:34.727Z</time></trkpt><trkpt lat="38.1118455" lon="14.9358087"><ele>915.0</ele><time>2026-04-04T12:28:35.727Z</time></trkpt><trkpt lat="38.1119089" lon="14.9358505"><ele>912.6666666666666</ele><time>2026-04-04T12:28:36.727Z</time></trkpt><trkpt lat="38.1119726" lon="14.9358687"><ele>910.3333333333333</ele><time>2026-04-04T12:28:37.727Z</time></trkpt><trkpt lat="38.1120348" lon="14.9358536"><ele>908.0</ele><time>2026-04-04T12:28:38.727Z</time></trkpt><trkpt lat="38.1121002" lon="14.9357967"><ele>905.6666666666666</ele><time>2026-04-04T12:28:39.727Z</time></trkpt><trkpt lat="38.1121595" lon="14.9357211"><ele>903.3333333333333</ele><time>2026-04-04T12:28:40.726Z</time></trkpt><trkpt lat="38.1122039" lon="14.9356319"><ele>901.0</ele><time>2026-04-04T12:28:41.726Z</time></trkpt><trkpt lat="38.1122466" lon="14.9355497"><ele>901.0</ele><time>2026-04-04T12:28:42.727Z</time></trkpt><trkpt lat="38.1123017" lon="14.9354858"><ele>901.0000000000001</ele><time>2026-04-04T12:28:43.727Z</time></trkpt><trkpt lat="38.1123695" lon="14.9354445"><ele>901.0</ele><time>2026-04-04T12:28:44.727Z</time></trkpt><trkpt lat="38.1124428" lon="14.9354272"><ele>901.0</ele><time>2026-04-04T12:28:45.726Z</time></trkpt><trkpt lat="38.112517" lon="14.9354208"><ele>901.0000000000001</ele><time>2026-04-04T12:28:46.726Z</time></trkpt><trkpt lat="38.1125855" lon="14.9354123"><ele>901.0</ele><time>2026-04-04T12:28:47.726Z</time></trkpt><trkpt lat="38.1126516" lon="14.9353883"><ele>901.0</ele><time>2026-04-04T12:28:48.727Z</time></trkpt><trkpt lat="38.1127601" lon="14.9353338"><ele>899.8</ele><time>2026-04-04T12:28:50.727Z</time></trkpt><trkpt lat="38.1128558" lon="14.9352832"><ele>898.5999999999999</ele><time>2026-04-04T12:28:52.726Z</time></trkpt><trkpt lat="38.1129274" lon="14.9352109"><ele>897.4</ele><time>2026-04-04T12:28:54.727Z</time></trkpt><trkpt lat="38.1130148" lon="14.9351532"><ele>896.2</ele><time>2026-04-04T12:28:56.726Z</time></trkpt><trkpt lat="38.1131067" lon="14.9351056"><ele>895.0</ele><time>2026-04-04T12:28:58.727Z</time></trkpt><trkpt lat="38.1131786" lon="14.9350434"><ele>891.3333333333333</ele><time>2026-04-04T12:29:00.727Z</time></trkpt><trkpt lat="38.1132536" lon="14.9350295"><ele>887.6666666666666</ele><time>2026-04-04T12:29:02.727Z</time></trkpt><trkpt lat="38.1133366" lon="14.9350899"><ele>884.0</ele><time>2026-04-04T12:29:04.727Z</time></trkpt><trkpt lat="38.1134064" lon="14.9351815"><ele>880.3333333333333</ele><time>2026-04-04T12:29:06.727Z</time></trkpt><trkpt lat="38.1134768" lon="14.9352332"><ele>876.6666666666666</ele><time>2026-04-04T12:29:08.727Z</time></trkpt><trkpt lat="38.1135411" lon="14.9352769"><ele>873.0</ele><time>2026-04-04T12:29:11.727Z</time></trkpt><trkpt lat="38.1135408" lon="14.9351877"><ele>873.0</ele><time>2026-04-04T12:29:16.727Z</time></trkpt><trkpt lat="38.1134684" lon="14.9351269"><ele>873.0</ele><time>2026-04-04T12:29:19.727Z</time></trkpt><trkpt lat="38.1134197" lon="14.9350639"><ele>873.0</ele><time>2026-04-04T12:29:21.726Z</time></trkpt><trkpt lat="38.1133283" lon="14.9349467"><ele>873.0</ele><time>2026-04-04T12:29:23.727Z</time></trkpt><trkpt lat="38.1132683" lon="14.93486"><ele>873.0</ele><time>2026-04-04T12:29:24.726Z</time></trkpt><trkpt lat="38.1132083" lon="14.9347567"><ele>878.5</ele><time>2026-04-04T12:29:25.727Z</time></trkpt><trkpt lat="38.1131483" lon="14.9346033"><ele>884.0</ele><time>2026-04-04T12:29:26.726Z</time></trkpt><trkpt lat="38.113095" lon="14.9344267"><ele>889.5</ele><time>2026-04-04T12:29:27.726Z</time></trkpt><trkpt lat="38.1130583" lon="14.9342633"><ele>895.0</ele><time>2026-04-04T12:29:28.727Z</time></trkpt><trkpt lat="38.11303" lon="14.934115"><ele>895.4999999999999</ele><time>2026-04-04T12:29:29.727Z</time></trkpt><trkpt lat="38.1129983" lon="14.9339917"><ele>896.0</ele><time>2026-04-04T12:29:30.727Z</time></trkpt><trkpt lat="38.112965" lon="14.9338767"><ele>896.5</ele><time>2026-04-04T12:29:31.727Z</time></trkpt><trkpt lat="38.1129283" lon="14.9337717"><ele>897.0</ele><time>2026-04-04T12:29:32.727Z</time></trkpt><trkpt lat="38.112895" lon="14.9336783"><ele>897.4999999999999</ele><time>2026-04-04T12:29:33.727Z</time></trkpt><trkpt lat="38.1128583" lon="14.9335933"><ele>898.0</ele><time>2026-04-04T12:29:34.726Z</time></trkpt><trkpt lat="38.1127967" lon="14.93345"><ele>896.2857142857142</ele><time>2026-04-04T12:29:36.727Z</time></trkpt><trkpt lat="38.1127617" lon="14.93338"><ele>894.5714285714284</ele><time>2026-04-04T12:29:37.727Z</time></trkpt><trkpt lat="38.112725" lon="14.9333033"><ele>892.8571428571429</ele><time>2026-04-04T12:29:38.727Z</time></trkpt><trkpt lat="38.1126883" lon="14.93323"><ele>891.1428571428571</ele><time>2026-04-04T12:29:39.727Z</time></trkpt><trkpt lat="38.1126517" lon="14.9331517"><ele>889.4285714285714</ele><time>2026-04-04T12:29:40.727Z</time></trkpt><trkpt lat="38.1126233" lon="14.93306"><ele>887.7142857142858</ele><time>2026-04-04T12:29:41.727Z</time></trkpt><trkpt lat="38.1125917" lon="14.932975"><ele>886.0</ele><time>2026-04-04T12:29:42.726Z</time></trkpt><trkpt lat="38.1125183" lon="14.9328783"><ele>885.9999999999999</ele><time>2026-04-04T12:29:44.726Z</time></trkpt><trkpt lat="38.1124633" lon="14.9328383"><ele>886.0</ele><time>2026-04-04T12:29:46.726Z</time></trkpt><trkpt lat="38.1123633" lon="14.9327983"><ele>886.0</ele><time>2026-04-04T12:29:48.727Z</time></trkpt><trkpt lat="38.112285" lon="14.932765"><ele>886.0</ele><time>2026-04-04T12:29:51.727Z</time></trkpt><trkpt lat="38.1122117" lon="14.9327367"><ele>885.9999999999999</ele><time>2026-04-04T12:29:53.727Z</time></trkpt><trkpt lat="38.1121517" lon="14.9327117"><ele>886.0</ele><time>2026-04-04T12:29:54.726Z</time></trkpt><trkpt lat="38.112075" lon="14.93268"><ele>883.5999999999999</ele><time>2026-04-04T12:29:55.726Z</time></trkpt><trkpt lat="38.1119717" lon="14.93265"><ele>881.1999999999999</ele><time>2026-04-04T12:29:56.726Z</time></trkpt><trkpt lat="38.1118667" lon="14.9325983"><ele>878.8000000000001</ele><time>2026-04-04T12:29:57.727Z</time></trkpt><trkpt lat="38.1117717" lon="14.9325517"><ele>876.4000000000001</ele><time>2026-04-04T12:29:58.727Z</time></trkpt><trkpt lat="38.1116917" lon="14.93253"><ele>874.0</ele><time>2026-04-04T12:29:59.727Z</time></trkpt><trkpt lat="38.1116283" lon="14.9325367"><ele>884.5</ele><time>2026-04-04T12:30:00.726Z</time></trkpt><trkpt lat="38.11151" lon="14.9325817"><ele>895.0</ele><time>2026-04-04T12:30:02.726Z</time></trkpt><trkpt lat="38.1114133" lon="14.93262"><ele>905.5</ele><time>2026-04-04T12:30:04.727Z</time></trkpt><trkpt lat="38.1113117" lon="14.9326467"><ele>916.0</ele><time>2026-04-04T12:30:06.727Z</time></trkpt><trkpt lat="38.1111933" lon="14.93269"><ele>915.9999999999999</ele><time>2026-04-04T12:30:08.727Z</time></trkpt><trkpt lat="38.1110783" lon="14.9327"><ele>916.0</ele><time>2026-04-04T12:30:10.727Z</time></trkpt><trkpt lat="38.111" lon="14.9326967"><ele>916.0</ele><time>2026-04-04T12:30:12.726Z</time></trkpt><trkpt lat="38.1109233" lon="14.9326933"><ele>916.0</ele><time>2026-04-04T12:30:14.727Z</time></trkpt><trkpt lat="38.1108183" lon="14.932695"><ele>915.9999999999999</ele><time>2026-04-04T12:30:16.726Z</time></trkpt><trkpt lat="38.1107533" lon="14.9326817"><ele>916.0</ele><time>2026-04-04T12:30:17.726Z</time></trkpt><trkpt lat="38.11068" lon="14.9326817"><ele>916.3333333333333</ele><time>2026-04-04T12:30:18.727Z</time></trkpt><trkpt lat="38.1105983" lon="14.9326567"><ele>916.6666666666666</ele><time>2026-04-04T12:30:19.727Z</time></trkpt><trkpt lat="38.1105117" lon="14.932635"><ele>917.0</ele><time>2026-04-04T12:30:20.726Z</time></trkpt><trkpt lat="38.110435" lon="14.932625"><ele>917.3333333333333</ele><time>2026-04-04T12:30:21.727Z</time></trkpt><trkpt lat="38.1103467" lon="14.9326033"><ele>917.6666666666666</ele><time>2026-04-04T12:30:22.726Z</time></trkpt><trkpt lat="38.1102583" lon="14.9325633"><ele>918.0</ele><time>2026-04-04T12:30:23.727Z</time></trkpt><trkpt lat="38.1101583" lon="14.932525"><ele>915.5</ele><time>2026-04-04T12:30:24.727Z</time></trkpt><trkpt lat="38.1100733" lon="14.9324967"><ele>913.0</ele><time>2026-04-04T12:30:25.727Z</time></trkpt><trkpt lat="38.1100017" lon="14.9324567"><ele>910.5</ele><time>2026-04-04T12:30:26.726Z</time></trkpt><trkpt lat="38.1099383" lon="14.932415"><ele>908.0</ele><time>2026-04-04T12:30:27.727Z</time></trkpt><trkpt lat="38.10987" lon="14.9323783"><ele>905.5</ele><time>2026-04-04T12:30:28.726Z</time></trkpt><trkpt lat="38.109805" lon="14.9323517"><ele>903.0</ele><time>2026-04-04T12:30:29.727Z</time></trkpt><trkpt lat="38.1097283" lon="14.9323167"><ele>903.0</ele><time>2026-04-04T12:30:30.728Z</time></trkpt><trkpt lat="38.109665" lon="14.93229"><ele>903.0</ele><time>2026-04-04T12:30:31.728Z</time></trkpt><trkpt lat="38.1095717" lon="14.9322283"><ele>903.0</ele><time>2026-04-04T12:30:33.727Z</time></trkpt><trkpt lat="38.1094517" lon="14.9321467"><ele>903.0</ele><time>2026-04-04T12:30:35.728Z</time></trkpt><trkpt lat="38.10937" lon="14.9320883"><ele>903.0</ele><time>2026-04-04T12:30:36.727Z</time></trkpt><trkpt lat="38.1092933" lon="14.9320317"><ele>903.0</ele><time>2026-04-04T12:30:37.727Z</time></trkpt><trkpt lat="38.1092233" lon="14.93199"><ele>903.0</ele><time>2026-04-04T12:30:38.727Z</time></trkpt><trkpt lat="38.10916" lon="14.9319567"><ele>903.0</ele><time>2026-04-04T12:30:39.728Z</time></trkpt><trkpt lat="38.1090667" lon="14.9318483"><ele>903.0</ele><time>2026-04-04T12:30:41.727Z</time></trkpt><trkpt lat="38.109015" lon="14.9317867"><ele>903.0</ele><time>2026-04-04T12:30:42.727Z</time></trkpt><trkpt lat="38.1089717" lon="14.9317167"><ele>903.0</ele><time>2026-04-04T12:30:43.728Z</time></trkpt><trkpt lat="38.1089417" lon="14.9316417"><ele>903.0</ele><time>2026-04-04T12:30:44.728Z</time></trkpt><trkpt lat="38.108925" lon="14.93156"><ele>903.0</ele><time>2026-04-04T12:30:45.727Z</time></trkpt><trkpt lat="38.1089083" lon="14.9314717"><ele>903.0</ele><time>2026-04-04T12:30:46.727Z</time></trkpt><trkpt lat="38.1089017" lon="14.93139"><ele>903.0</ele><time>2026-04-04T12:30:47.727Z</time></trkpt><trkpt lat="38.1089017" lon="14.931305"><ele>903.0</ele><time>2026-04-04T12:30:48.728Z</time></trkpt><trkpt lat="38.108905" lon="14.9312167"><ele>903.0</ele><time>2026-04-04T12:30:49.728Z</time></trkpt><trkpt lat="38.10891" lon="14.9310733"><ele>903.0</ele><time>2026-04-04T12:30:51.727Z</time></trkpt><trkpt lat="38.1088483" lon="14.930965"><ele>903.0</ele><time>2026-04-04T12:30:53.728Z</time></trkpt><trkpt lat="38.108745" lon="14.9309317"><ele>903.0</ele><time>2026-04-04T12:30:55.728Z</time></trkpt><trkpt lat="38.1086833" lon="14.930915"><ele>903.0</ele><time>2026-04-04T12:30:56.728Z</time></trkpt><trkpt lat="38.108575" lon="14.9308667"><ele>903.0</ele><time>2026-04-04T12:30:58.727Z</time></trkpt><trkpt lat="38.10848" lon="14.9308017"><ele>900.8</ele><time>2026-04-04T12:31:00.727Z</time></trkpt><trkpt lat="38.108385" lon="14.9307483"><ele>898.5999999999999</ele><time>2026-04-04T12:31:02.728Z</time></trkpt><trkpt lat="38.1082883" lon="14.9306967"><ele>896.4000000000001</ele><time>2026-04-04T12:31:04.728Z</time></trkpt><trkpt lat="38.1081733" lon="14.93063"><ele>894.2</ele><time>2026-04-04T12:31:06.728Z</time></trkpt><trkpt lat="38.1081083" lon="14.930605"><ele>892.0</ele><time>2026-04-04T12:31:07.728Z</time></trkpt><trkpt lat="38.108035" lon="14.9305817"><ele>891.9999999999999</ele><time>2026-04-04T12:31:08.728Z</time></trkpt><trkpt lat="38.1079617" lon="14.93055"><ele>892.0</ele><time>2026-04-04T12:31:09.727Z</time></trkpt><trkpt lat="38.1078917" lon="14.9305133"><ele>892.0</ele><time>2026-04-04T12:31:10.728Z</time></trkpt><trkpt lat="38.1078233" lon="14.9304733"><ele>892.0</ele><time>2026-04-04T12:31:11.728Z</time></trkpt><trkpt lat="38.1077517" lon="14.9304283"><ele>891.9999999999999</ele><time>2026-04-04T12:31:12.728Z</time></trkpt><trkpt lat="38.1076883" lon="14.930375"><ele>892.0</ele><time>2026-04-04T12:31:13.728Z</time></trkpt><trkpt lat="38.1076367" lon="14.9303217"><ele>892.0</ele><time>2026-04-04T12:31:14.728Z</time></trkpt><trkpt lat="38.107585" lon="14.9302617"><ele>892.0</ele><time>2026-04-04T12:31:15.728Z</time></trkpt><trkpt lat="38.1075367" lon="14.9302033"><ele>892.0</ele><time>2026-04-04T12:31:16.727Z</time></trkpt><trkpt lat="38.1074867" lon="14.9301383"><ele>892.0</ele><time>2026-04-04T12:31:17.728Z</time></trkpt><trkpt lat="38.1074267" lon="14.930095"><ele>892.0</ele><time>2026-04-04T12:31:18.727Z</time></trkpt><trkpt lat="38.1073517" lon="14.9300883"><ele>892.0</ele><time>2026-04-04T12:31:19.728Z</time></trkpt><trkpt lat="38.107285" lon="14.9301233"><ele>892.0</ele><time>2026-04-04T12:31:20.728Z</time></trkpt><trkpt lat="38.1072333" lon="14.9301867"><ele>894.2</ele><time>2026-04-04T12:31:21.728Z</time></trkpt><trkpt lat="38.1072" lon="14.9302667"><ele>896.4000000000001</ele><time>2026-04-04T12:31:22.728Z</time></trkpt><trkpt lat="38.1071283" lon="14.930365"><ele>898.5999999999999</ele><time>2026-04-04T12:31:24.727Z</time></trkpt><trkpt lat="38.1070433" lon="14.9303367"><ele>900.8</ele><time>2026-04-04T12:31:26.727Z</time></trkpt><trkpt lat="38.1069783" lon="14.9302117"><ele>903.0</ele><time>2026-04-04T12:31:28.728Z</time></trkpt><trkpt lat="38.106975" lon="14.9300867"><ele>898.8</ele><time>2026-04-04T12:31:29.728Z</time></trkpt><trkpt lat="38.106985" lon="14.92993"><ele>894.5999999999999</ele><time>2026-04-04T12:31:30.728Z</time></trkpt><trkpt lat="38.107015" lon="14.92978"><ele>890.4000000000001</ele><time>2026-04-04T12:31:31.727Z</time></trkpt><trkpt lat="38.1070383" lon="14.9296567"><ele>886.2</ele><time>2026-04-04T12:31:32.727Z</time></trkpt><trkpt lat="38.1070517" lon="14.9295483"><ele>882.0</ele><time>2026-04-04T12:31:33.728Z</time></trkpt><trkpt lat="38.1070417" lon="14.9294417"><ele>882.0</ele><time>2026-04-04T12:31:34.727Z</time></trkpt><trkpt lat="38.1070133" lon="14.9293367"><ele>882.0</ele><time>2026-04-04T12:31:35.728Z</time></trkpt><trkpt lat="38.1069733" lon="14.9292483"><ele>882.0</ele><time>2026-04-04T12:31:36.727Z</time></trkpt><trkpt lat="38.10692" lon="14.929175"><ele>882.0</ele><time>2026-04-04T12:31:37.728Z</time></trkpt><trkpt lat="38.106855" lon="14.9291083"><ele>882.0</ele><time>2026-04-04T12:31:38.727Z</time></trkpt><trkpt lat="38.1067733" lon="14.9290517"><ele>882.0</ele><time>2026-04-04T12:31:39.728Z</time></trkpt><trkpt lat="38.1067" lon="14.9289817"><ele>883.3333333333334</ele><time>2026-04-04T12:31:40.728Z</time></trkpt><trkpt lat="38.106645" lon="14.9288983"><ele>884.6666666666667</ele><time>2026-04-04T12:31:41.728Z</time></trkpt><trkpt lat="38.1066133" lon="14.9288167"><ele>886.0</ele><time>2026-04-04T12:31:42.727Z</time></trkpt><trkpt lat="38.106585" lon="14.9287383"><ele>887.3333333333334</ele><time>2026-04-04T12:31:43.728Z</time></trkpt><trkpt lat="38.106555" lon="14.9286467"><ele>888.6666666666667</ele><time>2026-04-04T12:31:44.728Z</time></trkpt><trkpt lat="38.1065117" lon="14.9285483"><ele>890.0</ele><time>2026-04-04T12:31:45.727Z</time></trkpt><trkpt lat="38.1064517" lon="14.9284733"><ele>890.0</ele><time>2026-04-04T12:31:46.727Z</time></trkpt><trkpt lat="38.106385" lon="14.92841"><ele>890.0</ele><time>2026-04-04T12:31:47.728Z</time></trkpt><trkpt lat="38.1063117" lon="14.928355"><ele>890.0</ele><time>2026-04-04T12:31:48.727Z</time></trkpt><trkpt lat="38.1062433" lon="14.92828"><ele>890.0</ele><time>2026-04-04T12:31:49.728Z</time></trkpt><trkpt lat="38.1061833" lon="14.92818"><ele>890.0</ele><time>2026-04-04T12:31:50.728Z</time></trkpt><trkpt lat="38.1061117" lon="14.9280783"><ele>887.3333333333334</ele><time>2026-04-04T12:31:51.728Z</time></trkpt><trkpt lat="38.1060467" lon="14.927995"><ele>884.6666666666667</ele><time>2026-04-04T12:31:52.727Z</time></trkpt><trkpt lat="38.1059883" lon="14.927925"><ele>882.0</ele><time>2026-04-04T12:31:53.728Z</time></trkpt><trkpt lat="38.1059367" lon="14.9278433"><ele>879.3333333333333</ele><time>2026-04-04T12:31:54.728Z</time></trkpt><trkpt lat="38.1058917" lon="14.927755"><ele>876.6666666666666</ele><time>2026-04-04T12:31:55.728Z</time></trkpt><trkpt lat="38.1058417" lon="14.92764"><ele>874.0</ele><time>2026-04-04T12:31:56.728Z</time></trkpt><trkpt lat="38.1057817" lon="14.9275317"><ele>876.9999999999999</ele><time>2026-04-04T12:31:57.728Z</time></trkpt><trkpt lat="38.1057283" lon="14.92744"><ele>880.0</ele><time>2026-04-04T12:31:58.728Z</time></trkpt><trkpt lat="38.1056967" lon="14.9273533"><ele>883.0</ele><time>2026-04-04T12:31:59.728Z</time></trkpt><trkpt lat="38.1056733" lon="14.9272583"><ele>886.0</ele><time>2026-04-04T12:32:00.727Z</time></trkpt><trkpt lat="38.1056733" lon="14.9271583"><ele>888.9999999999999</ele><time>2026-04-04T12:32:01.728Z</time></trkpt><trkpt lat="38.1056867" lon="14.927055"><ele>892.0</ele><time>2026-04-04T12:32:02.728Z</time></trkpt><trkpt lat="38.10572" lon="14.9269517"><ele>890.3333333333333</ele><time>2026-04-04T12:32:03.727Z</time></trkpt><trkpt lat="38.1057483" lon="14.9268617"><ele>888.6666666666666</ele><time>2026-04-04T12:32:04.727Z</time></trkpt><trkpt lat="38.1057533" lon="14.9267217"><ele>887.0</ele><time>2026-04-04T12:32:06.727Z</time></trkpt><trkpt lat="38.10569" lon="14.9266083"><ele>885.3333333333333</ele><time>2026-04-04T12:32:08.727Z</time></trkpt><trkpt lat="38.1056367" lon="14.9265483"><ele>883.6666666666666</ele><time>2026-04-04T12:32:09.728Z</time></trkpt><trkpt lat="38.1055933" lon="14.9264783"><ele>882.0</ele><time>2026-04-04T12:32:10.727Z</time></trkpt><trkpt lat="38.1055583" lon="14.9264033"><ele>882.0</ele><time>2026-04-04T12:32:11.727Z</time></trkpt><trkpt lat="38.1055317" lon="14.926325"><ele>882.0</ele><time>2026-04-04T12:32:12.728Z</time></trkpt><trkpt lat="38.1054683" lon="14.9262217"><ele>882.0</ele><time>2026-04-04T12:32:14.727Z</time></trkpt><trkpt lat="38.1053233" lon="14.9261833"><ele>882.0</ele><time>2026-04-04T12:32:16.728Z</time></trkpt><trkpt lat="38.105225" lon="14.9261783"><ele>882.0</ele><time>2026-04-04T12:32:17.727Z</time></trkpt><trkpt lat="38.1051217" lon="14.9261783"><ele>882.0</ele><time>2026-04-04T12:32:18.727Z</time></trkpt><trkpt lat="38.10502" lon="14.9261817"><ele>882.0</ele><time>2026-04-04T12:32:19.727Z</time></trkpt><trkpt lat="38.1049433" lon="14.9261783"><ele>882.0</ele><time>2026-04-04T12:32:20.728Z</time></trkpt><trkpt lat="38.1048733" lon="14.9261683"><ele>882.0</ele><time>2026-04-04T12:32:21.728Z</time></trkpt><trkpt lat="38.1047867" lon="14.9261033"><ele>882.0</ele><time>2026-04-04T12:32:23.728Z</time></trkpt><trkpt lat="38.104735" lon="14.9259817"><ele>882.75</ele><time>2026-04-04T12:32:25.727Z</time></trkpt><trkpt lat="38.10477" lon="14.9258167"><ele>883.5</ele><time>2026-04-04T12:32:27.727Z</time></trkpt><trkpt lat="38.10481" lon="14.9257017"><ele>884.25</ele><time>2026-04-04T12:32:28.728Z</time></trkpt><trkpt lat="38.1048417" lon="14.9255633"><ele>885.0</ele><time>2026-04-04T12:32:29.728Z</time></trkpt><trkpt lat="38.1048883" lon="14.9253967"><ele>885.2</ele><time>2026-04-04T12:32:30.727Z</time></trkpt><trkpt lat="38.10494" lon="14.9252367"><ele>885.4</ele><time>2026-04-04T12:32:31.728Z</time></trkpt><trkpt lat="38.1049883" lon="14.9251"><ele>885.5999999999999</ele><time>2026-04-04T12:32:32.728Z</time></trkpt><trkpt lat="38.1050367" lon="14.9249967"><ele>885.8</ele><time>2026-04-04T12:32:33.728Z</time></trkpt><trkpt lat="38.1050867" lon="14.9249167"><ele>886.0</ele><time>2026-04-04T12:32:34.727Z</time></trkpt><trkpt lat="38.1051417" lon="14.9248367"><ele>886.0</ele><time>2026-04-04T12:32:35.728Z</time></trkpt><trkpt lat="38.1052033" lon="14.924755"><ele>885.9999999999999</ele><time>2026-04-04T12:32:36.728Z</time></trkpt><trkpt lat="38.1052617" lon="14.9246667"><ele>885.9999999999999</ele><time>2026-04-04T12:32:37.728Z</time></trkpt><trkpt lat="38.1053183" lon="14.9245717"><ele>886.0</ele><time>2026-04-04T12:32:38.728Z</time></trkpt><trkpt lat="38.105355" lon="14.92447"><ele>886.0</ele><time>2026-04-04T12:32:39.728Z</time></trkpt><trkpt lat="38.1053817" lon="14.924355"><ele>886.0</ele><time>2026-04-04T12:32:40.728Z</time></trkpt><trkpt lat="38.1054033" lon="14.924235"><ele>885.9999999999999</ele><time>2026-04-04T12:32:41.727Z</time></trkpt><trkpt lat="38.105435" lon="14.9241083"><ele>885.9999999999999</ele><time>2026-04-04T12:32:42.727Z</time></trkpt><trkpt lat="38.1054683" lon="14.924"><ele>886.0</ele><time>2026-04-04T12:32:43.728Z</time></trkpt><trkpt lat="38.1055033" lon="14.9239067"><ele>886.0</ele><time>2026-04-04T12:32:44.728Z</time></trkpt><trkpt lat="38.10553" lon="14.92381"><ele>889.3333333333333</ele><time>2026-04-04T12:32:45.727Z</time></trkpt><trkpt lat="38.1055433" lon="14.9236983"><ele>892.6666666666666</ele><time>2026-04-04T12:32:46.727Z</time></trkpt><trkpt lat="38.1055417" lon="14.9235933"><ele>896.0</ele><time>2026-04-04T12:32:47.728Z</time></trkpt><trkpt lat="38.1055283" lon="14.9234883"><ele>899.3333333333333</ele><time>2026-04-04T12:32:48.728Z</time></trkpt><trkpt lat="38.1054967" lon="14.9233783"><ele>902.6666666666666</ele><time>2026-04-04T12:32:49.728Z</time></trkpt><trkpt lat="38.1054617" lon="14.9232617"><ele>906.0</ele><time>2026-04-04T12:32:50.728Z</time></trkpt><trkpt lat="38.1054267" lon="14.923145"><ele>906.0</ele><time>2026-04-04T12:32:51.728Z</time></trkpt><trkpt lat="38.1053883" lon="14.9230333"><ele>905.9999999999999</ele><time>2026-04-04T12:32:52.728Z</time></trkpt><trkpt lat="38.1053667" lon="14.9229083"><ele>905.9999999999999</ele><time>2026-04-04T12:32:53.728Z</time></trkpt><trkpt lat="38.1053533" lon="14.9227917"><ele>906.0</ele><time>2026-04-04T12:32:54.728Z</time></trkpt><trkpt lat="38.105335" lon="14.9226867"><ele>906.0</ele><time>2026-04-04T12:32:55.727Z</time></trkpt><trkpt lat="38.1053183" lon="14.9225817"><ele>903.0</ele><time>2026-04-04T12:32:56.728Z</time></trkpt><trkpt lat="38.1052967" lon="14.92247"><ele>899.9999999999999</ele><time>2026-04-04T12:32:57.728Z</time></trkpt><trkpt lat="38.1052683" lon="14.9223617"><ele>896.9999999999999</ele><time>2026-04-04T12:32:58.727Z</time></trkpt><trkpt lat="38.1052367" lon="14.9222633"><ele>894.0</ele><time>2026-04-04T12:32:59.727Z</time></trkpt><trkpt lat="38.10519" lon="14.9221417"><ele>891.0</ele><time>2026-04-04T12:33:01.728Z</time></trkpt><trkpt lat="38.10525" lon="14.9220483"><ele>891.0</ele><time>2026-04-04T12:33:04.727Z</time></trkpt><trkpt lat="38.105355" lon="14.9220467"><ele>890.9999999999999</ele><time>2026-04-04T12:33:06.728Z</time></trkpt><trkpt lat="38.10547" lon="14.922125"><ele>890.9999999999999</ele><time>2026-04-04T12:33:08.728Z</time></trkpt><trkpt lat="38.105525" lon="14.9222017"><ele>891.0</ele><time>2026-04-04T12:33:09.727Z</time></trkpt><trkpt lat="38.10559" lon="14.9222817"><ele>891.0</ele><time>2026-04-04T12:33:10.727Z</time></trkpt><trkpt lat="38.1056817" lon="14.9223633"><ele>886.4</ele><time>2026-04-04T12:33:11.728Z</time></trkpt><trkpt lat="38.1057833" lon="14.922425"><ele>881.8</ele><time>2026-04-04T12:33:12.727Z</time></trkpt><trkpt lat="38.1058883" lon="14.9224733"><ele>877.1999999999999</ele><time>2026-04-04T12:33:13.727Z</time></trkpt><trkpt lat="38.10599" lon="14.9224917"><ele>872.5999999999999</ele><time>2026-04-04T12:33:14.728Z</time></trkpt><trkpt lat="38.1060883" lon="14.9224717"><ele>868.0</ele><time>2026-04-04T12:33:15.728Z</time></trkpt><trkpt lat="38.106185" lon="14.9224267"><ele>867.9999999999999</ele><time>2026-04-04T12:33:16.728Z</time></trkpt><trkpt lat="38.1062683" lon="14.922355"><ele>868.0</ele><time>2026-04-04T12:33:17.728Z</time></trkpt><trkpt lat="38.1063367" lon="14.9222883"><ele>868.0</ele><time>2026-04-04T12:33:18.728Z</time></trkpt><trkpt lat="38.1064" lon="14.9222367"><ele>868.0</ele><time>2026-04-04T12:33:19.727Z</time></trkpt><trkpt lat="38.1064817" lon="14.9222083"><ele>867.9999999999999</ele><time>2026-04-04T12:33:20.727Z</time></trkpt><trkpt lat="38.1065783" lon="14.9221867"><ele>868.0</ele><time>2026-04-04T12:33:21.727Z</time></trkpt><trkpt lat="38.1066733" lon="14.922185"><ele>868.0</ele><time>2026-04-04T12:33:22.728Z</time></trkpt><trkpt lat="38.106775" lon="14.9221917"><ele>868.0</ele><time>2026-04-04T12:33:23.727Z</time></trkpt><trkpt lat="38.1068833" lon="14.9222"><ele>868.0</ele><time>2026-04-04T12:33:24.728Z</time></trkpt><trkpt lat="38.1069783" lon="14.92222"><ele>868.0</ele><time>2026-04-04T12:33:25.728Z</time></trkpt><trkpt lat="38.107075" lon="14.9222533"><ele>868.0</ele><time>2026-04-04T12:33:26.728Z</time></trkpt><trkpt lat="38.10716" lon="14.9222783"><ele>867.9999999999999</ele><time>2026-04-04T12:33:27.727Z</time></trkpt><trkpt lat="38.1072267" lon="14.9222767"><ele>868.0</ele><time>2026-04-04T12:33:28.728Z</time></trkpt><trkpt lat="38.1073083" lon="14.9222483"><ele>868.0</ele><time>2026-04-04T12:33:30.727Z</time></trkpt><trkpt lat="38.1074067" lon="14.9221967"><ele>868.0</ele><time>2026-04-04T12:33:32.728Z</time></trkpt><trkpt lat="38.1074617" lon="14.9221367"><ele>867.9999999999999</ele><time>2026-04-04T12:33:33.728Z</time></trkpt><trkpt lat="38.107515" lon="14.92205"><ele>868.0</ele><time>2026-04-04T12:33:34.727Z</time></trkpt><trkpt lat="38.107555" lon="14.921945"><ele>866.9999999999999</ele><time>2026-04-04T12:33:35.728Z</time></trkpt><trkpt lat="38.10758" lon="14.9218567"><ele>866.0</ele><time>2026-04-04T12:33:36.728Z</time></trkpt><trkpt lat="38.10759" lon="14.9217617"><ele>865.0</ele><time>2026-04-04T12:33:37.728Z</time></trkpt><trkpt lat="38.107595" lon="14.9216517"><ele>864.0</ele><time>2026-04-04T12:33:38.727Z</time></trkpt><trkpt lat="38.1076033" lon="14.921525"><ele>862.9999999999999</ele><time>2026-04-04T12:33:39.727Z</time></trkpt><trkpt lat="38.1076117" lon="14.921395"><ele>862.0</ele><time>2026-04-04T12:33:40.728Z</time></trkpt><trkpt lat="38.1076067" lon="14.9212567"><ele>867.4000000000001</ele><time>2026-04-04T12:33:41.727Z</time></trkpt><trkpt lat="38.10759" lon="14.9211183"><ele>872.8000000000001</ele><time>2026-04-04T12:33:42.728Z</time></trkpt><trkpt lat="38.1075667" lon="14.92099"><ele>878.2</ele><time>2026-04-04T12:33:43.728Z</time></trkpt><trkpt lat="38.10753" lon="14.9208633"><ele>883.6</ele><time>2026-04-04T12:33:44.727Z</time></trkpt><trkpt lat="38.1074917" lon="14.9207467"><ele>889.0</ele><time>2026-04-04T12:33:45.728Z</time></trkpt><trkpt lat="38.1074533" lon="14.9206417"><ele>889.4000000000001</ele><time>2026-04-04T12:33:46.728Z</time></trkpt><trkpt lat="38.10743" lon="14.9205383"><ele>889.8000000000001</ele><time>2026-04-04T12:33:47.728Z</time></trkpt><trkpt lat="38.1074167" lon="14.9204533"><ele>890.1999999999999</ele><time>2026-04-04T12:33:48.728Z</time></trkpt><trkpt lat="38.1073767" lon="14.9203317"><ele>890.5999999999999</ele><time>2026-04-04T12:33:50.727Z</time></trkpt><trkpt lat="38.10729" lon="14.9202317"><ele>891.0</ele><time>2026-04-04T12:33:52.728Z</time></trkpt><trkpt lat="38.1072067" lon="14.9201067"><ele>898.1666666666666</ele><time>2026-04-04T12:33:54.728Z</time></trkpt><trkpt lat="38.1071567" lon="14.9200267"><ele>905.3333333333333</ele><time>2026-04-04T12:33:55.727Z</time></trkpt><trkpt lat="38.1070917" lon="14.9199417"><ele>912.5</ele><time>2026-04-04T12:33:56.728Z</time></trkpt><trkpt lat="38.1070333" lon="14.9198433"><ele>919.6666666666666</ele><time>2026-04-04T12:33:57.728Z</time></trkpt><trkpt lat="38.1069883" lon="14.9197583"><ele>926.8333333333333</ele><time>2026-04-04T12:33:58.728Z</time></trkpt><trkpt lat="38.106955" lon="14.91969"><ele>934.0</ele><time>2026-04-04T12:33:59.727Z</time></trkpt><trkpt lat="38.10691" lon="14.9196233"><ele>934.0</ele><time>2026-04-04T12:34:01.727Z</time></trkpt><trkpt lat="38.1068417" lon="14.9195183"><ele>934.0000000000001</ele><time>2026-04-04T12:34:23.727Z</time></trkpt><trkpt lat="38.1067917" lon="14.919435"><ele>934.0000000000001</ele><time>2026-04-04T12:34:24.728Z</time></trkpt><trkpt lat="38.1067317" lon="14.919335"><ele>934.0</ele><time>2026-04-04T12:34:25.728Z</time></trkpt><trkpt lat="38.10668" lon="14.919235"><ele>934.0</ele><time>2026-04-04T12:34:26.728Z</time></trkpt><trkpt lat="38.10664" lon="14.91915"><ele>931.2</ele><time>2026-04-04T12:34:27.728Z</time></trkpt><trkpt lat="38.1065817" lon="14.9190267"><ele>928.4000000000001</ele><time>2026-04-04T12:34:29.728Z</time></trkpt><trkpt lat="38.1065833" lon="14.91892"><ele>925.6</ele><time>2026-04-04T12:34:31.727Z</time></trkpt><trkpt lat="38.10666" lon="14.9188333"><ele>922.8</ele><time>2026-04-04T12:34:33.728Z</time></trkpt><trkpt lat="38.10676" lon="14.918825"><ele>920.0</ele><time>2026-04-04T12:34:35.728Z</time></trkpt><trkpt lat="38.1068217" lon="14.9188467"><ele>920.0000000000001</ele><time>2026-04-04T12:34:36.728Z</time></trkpt><trkpt lat="38.106885" lon="14.9188667"><ele>920.0</ele><time>2026-04-04T12:34:37.727Z</time></trkpt><trkpt lat="38.1069533" lon="14.91888"><ele>920.0</ele><time>2026-04-04T12:34:38.728Z</time></trkpt><trkpt lat="38.107025" lon="14.91888"><ele>920.0</ele><time>2026-04-04T12:34:39.728Z</time></trkpt><trkpt lat="38.1071417" lon="14.9188683"><ele>920.0000000000001</ele><time>2026-04-04T12:34:41.727Z</time></trkpt><trkpt lat="38.1072533" lon="14.9188433"><ele>920.0</ele><time>2026-04-04T12:34:43.727Z</time></trkpt><trkpt lat="38.1073183" lon="14.9188417"><ele>919.9999999999999</ele><time>2026-04-04T12:34:44.728Z</time></trkpt><trkpt lat="38.10739" lon="14.9188583"><ele>920.0</ele><time>2026-04-04T12:34:45.728Z</time></trkpt><trkpt lat="38.1074617" lon="14.91887"><ele>919.9999999999999</ele><time>2026-04-04T12:34:46.728Z</time></trkpt><trkpt lat="38.1075267" lon="14.918875"><ele>919.9999999999999</ele><time>2026-04-04T12:34:47.728Z</time></trkpt><trkpt lat="38.1075917" lon="14.9188817"><ele>920.0</ele><time>2026-04-04T12:34:48.728Z</time></trkpt><trkpt lat="38.1076617" lon="14.9188867"><ele>919.9999999999999</ele><time>2026-04-04T12:34:49.728Z</time></trkpt><trkpt lat="38.107735" lon="14.9188917"><ele>919.9999999999999</ele><time>2026-04-04T12:34:50.727Z</time></trkpt><trkpt lat="38.1078067" lon="14.918905"><ele>914.9999999999999</ele><time>2026-04-04T12:34:51.727Z</time></trkpt><trkpt lat="38.1078767" lon="14.918905"><ele>910.0</ele><time>2026-04-04T12:34:52.728Z</time></trkpt><trkpt lat="38.10795" lon="14.9188817"><ele>905.0</ele><time>2026-04-04T12:34:53.727Z</time></trkpt><trkpt lat="38.1080133" lon="14.9188467"><ele>900.0</ele><time>2026-04-04T12:34:54.727Z</time></trkpt><trkpt lat="38.1080683" lon="14.9187967"><ele>895.0</ele><time>2026-04-04T12:34:55.727Z</time></trkpt><trkpt lat="38.1081317" lon="14.9187433"><ele>890.0</ele><time>2026-04-04T12:34:56.728Z</time></trkpt><trkpt lat="38.1081933" lon="14.9186917"><ele>885.0</ele><time>2026-04-04T12:34:57.728Z</time></trkpt><trkpt lat="38.10825" lon="14.91865"><ele>881.2</ele><time>2026-04-04T12:34:58.728Z</time></trkpt><trkpt lat="38.1083467" lon="14.9186217"><ele>877.4</ele><time>2026-04-04T12:35:00.728Z</time></trkpt><trkpt lat="38.1084233" lon="14.9187067"><ele>873.5999999999999</ele><time>2026-04-04T12:35:02.728Z</time></trkpt><trkpt lat="38.1084517" lon="14.9187817"><ele>869.8</ele><time>2026-04-04T12:35:03.728Z</time></trkpt><trkpt lat="38.1085" lon="14.9188683"><ele>866.0</ele><time>2026-04-04T12:35:05.727Z</time></trkpt><trkpt lat="38.1086117" lon="14.9188"><ele>866.0000000000001</ele><time>2026-04-04T12:35:21.728Z</time></trkpt><trkpt lat="38.1086783" lon="14.9187917"><ele>866.0</ele><time>2026-04-04T12:35:22.729Z</time></trkpt><trkpt lat="38.10877" lon="14.9187783"><ele>866.0</ele><time>2026-04-04T12:35:23.728Z</time></trkpt><trkpt lat="38.108855" lon="14.9187817"><ele>866.0</ele><time>2026-04-04T12:35:24.729Z</time></trkpt><trkpt lat="38.1089483" lon="14.9187633"><ele>866.0000000000001</ele><time>2026-04-04T12:35:25.728Z</time></trkpt><trkpt lat="38.1090383" lon="14.9187417"><ele>866.0</ele><time>2026-04-04T12:35:26.729Z</time></trkpt><trkpt lat="38.1091267" lon="14.9187133"><ele>861.5000000000001</ele><time>2026-04-04T12:35:27.729Z</time></trkpt><trkpt lat="38.1092133" lon="14.918695"><ele>857.0</ele><time>2026-04-04T12:35:28.728Z</time></trkpt><trkpt lat="38.1092983" lon="14.91868"><ele>852.5</ele><time>2026-04-04T12:35:29.728Z</time></trkpt><trkpt lat="38.1093833" lon="14.9186667"><ele>848.0</ele><time>2026-04-04T12:35:30.728Z</time></trkpt><trkpt lat="38.1094517" lon="14.9186417"><ele>843.5000000000001</ele><time>2026-04-04T12:35:31.728Z</time></trkpt><trkpt lat="38.1095267" lon="14.918595"><ele>839.0</ele><time>2026-04-04T12:35:32.729Z</time></trkpt><trkpt lat="38.10958" lon="14.9185333"><ele>839.0000000000001</ele><time>2026-04-04T12:35:33.729Z</time></trkpt><trkpt lat="38.10963" lon="14.9184683"><ele>839.0</ele><time>2026-04-04T12:35:34.728Z</time></trkpt><trkpt lat="38.10968" lon="14.9184033"><ele>839.0</ele><time>2026-04-04T12:35:35.728Z</time></trkpt><trkpt lat="38.1097783" lon="14.9183117"><ele>839.0</ele><time>2026-04-04T12:35:37.728Z</time></trkpt><trkpt lat="38.1098417" lon="14.9182917"><ele>839.0000000000001</ele><time>2026-04-04T12:35:38.728Z</time></trkpt><trkpt lat="38.1099083" lon="14.9182917"><ele>839.0</ele><time>2026-04-04T12:35:39.728Z</time></trkpt><trkpt lat="38.1099817" lon="14.9183033"><ele>842.8333333333334</ele><time>2026-04-04T12:35:40.729Z</time></trkpt><trkpt lat="38.110065" lon="14.91833"><ele>846.6666666666667</ele><time>2026-04-04T12:35:41.729Z</time></trkpt><trkpt lat="38.1101467" lon="14.9183333"><ele>850.5</ele><time>2026-04-04T12:35:42.728Z</time></trkpt><trkpt lat="38.110215" lon="14.9183233"><ele>854.3333333333333</ele><time>2026-04-04T12:35:43.729Z</time></trkpt><trkpt lat="38.1102933" lon="14.9183267"><ele>858.1666666666666</ele><time>2026-04-04T12:35:44.729Z</time></trkpt><trkpt lat="38.11038" lon="14.9183433"><ele>862.0</ele><time>2026-04-04T12:35:45.729Z</time></trkpt><trkpt lat="38.1104567" lon="14.9183733"><ele>852.4000000000001</ele><time>2026-04-04T12:35:46.728Z</time></trkpt><trkpt lat="38.110545" lon="14.918405"><ele>842.8000000000001</ele><time>2026-04-04T12:35:47.729Z</time></trkpt><trkpt lat="38.1106333" lon="14.91843"><ele>833.2</ele><time>2026-04-04T12:35:48.728Z</time></trkpt><trkpt lat="38.1107217" lon="14.9184567"><ele>823.6</ele><time>2026-04-04T12:35:49.729Z</time></trkpt><trkpt lat="38.1108017" lon="14.9185"><ele>814.0</ele><time>2026-04-04T12:35:50.728Z</time></trkpt><trkpt lat="38.1108817" lon="14.9185633"><ele>813.9999999999999</ele><time>2026-04-04T12:35:51.728Z</time></trkpt><trkpt lat="38.1109533" lon="14.9186333"><ele>814.0</ele><time>2026-04-04T12:35:52.729Z</time></trkpt><trkpt lat="38.1110233" lon="14.91869"><ele>814.0</ele><time>2026-04-04T12:35:53.729Z</time></trkpt><trkpt lat="38.11109" lon="14.918705"><ele>814.0</ele><time>2026-04-04T12:35:54.728Z</time></trkpt><trkpt lat="38.1111683" lon="14.9187217"><ele>813.9999999999999</ele><time>2026-04-04T12:35:55.729Z</time></trkpt><trkpt lat="38.1112417" lon="14.9187133"><ele>814.0</ele><time>2026-04-04T12:35:56.729Z</time></trkpt><trkpt lat="38.1113483" lon="14.9186433"><ele>814.0</ele><time>2026-04-04T12:35:58.729Z</time></trkpt><trkpt lat="38.1114667" lon="14.9185933"><ele>814.0</ele><time>2026-04-04T12:36:00.728Z</time></trkpt><trkpt lat="38.11153" lon="14.918605"><ele>814.0</ele><time>2026-04-04T12:36:01.728Z</time></trkpt><trkpt lat="38.1116" lon="14.9186383"><ele>814.0</ele><time>2026-04-04T12:36:02.729Z</time></trkpt><trkpt lat="38.1116767" lon="14.9187033"><ele>814.0</ele><time>2026-04-04T12:36:03.728Z</time></trkpt><trkpt lat="38.111755" lon="14.91877"><ele>818.0</ele><time>2026-04-04T12:36:04.729Z</time></trkpt><trkpt lat="38.1118467" lon="14.9188417"><ele>822.0</ele><time>2026-04-04T12:36:05.728Z</time></trkpt><trkpt lat="38.1119483" lon="14.9189383"><ele>826.0</ele><time>2026-04-04T12:36:06.729Z</time></trkpt><trkpt lat="38.1120383" lon="14.91905"><ele>830.0</ele><time>2026-04-04T12:36:07.728Z</time></trkpt><trkpt lat="38.1121033" lon="14.9191667"><ele>827.8333333333334</ele><time>2026-04-04T12:36:08.729Z</time></trkpt><trkpt lat="38.1121617" lon="14.9192733"><ele>825.6666666666667</ele><time>2026-04-04T12:36:09.729Z</time></trkpt><trkpt lat="38.1122217" lon="14.9193567"><ele>823.5</ele><time>2026-04-04T12:36:10.728Z</time></trkpt><trkpt lat="38.112285" lon="14.91942"><ele>821.3333333333333</ele><time>2026-04-04T12:36:11.729Z</time></trkpt><trkpt lat="38.1123533" lon="14.919485"><ele>819.1666666666666</ele><time>2026-04-04T12:36:12.729Z</time></trkpt><trkpt lat="38.112425" lon="14.9195333"><ele>817.0</ele><time>2026-04-04T12:36:13.729Z</time></trkpt><trkpt lat="38.1124983" lon="14.9195583"><ele>817.0</ele><time>2026-04-04T12:36:14.729Z</time></trkpt><trkpt lat="38.1125717" lon="14.9195567"><ele>817.0</ele><time>2026-04-04T12:36:15.729Z</time></trkpt><trkpt lat="38.1126367" lon="14.9195283"><ele>817.0</ele><time>2026-04-04T12:36:16.729Z</time></trkpt><trkpt lat="38.1127267" lon="14.9194667"><ele>817.0</ele><time>2026-04-04T12:36:18.729Z</time></trkpt><trkpt lat="38.1128367" lon="14.9193867"><ele>817.0</ele><time>2026-04-04T12:36:20.729Z</time></trkpt><trkpt lat="38.112935" lon="14.9193233"><ele>817.0</ele><time>2026-04-04T12:36:22.729Z</time></trkpt><trkpt lat="38.1130367" lon="14.919275"><ele>817.0</ele><time>2026-04-04T12:36:24.729Z</time></trkpt><trkpt lat="38.113135" lon="14.919215"><ele>817.0</ele><time>2026-04-04T12:36:26.728Z</time></trkpt><trkpt lat="38.1132183" lon="14.91916"><ele>817.0</ele><time>2026-04-04T12:36:28.728Z</time></trkpt><trkpt lat="38.1132083" lon="14.91907"><ele>817.0</ele><time>2026-04-04T12:36:35.729Z</time></trkpt><trkpt lat="38.1130867" lon="14.9190783"><ele>825.4000000000001</ele><time>2026-04-04T12:36:37.729Z</time></trkpt><trkpt lat="38.1129917" lon="14.919095"><ele>833.8000000000001</ele><time>2026-04-04T12:36:38.729Z</time></trkpt><trkpt lat="38.1128917" lon="14.91913"><ele>842.2</ele><time>2026-04-04T12:36:39.729Z</time></trkpt><trkpt lat="38.1128083" lon="14.9191433"><ele>850.6</ele><time>2026-04-04T12:36:40.728Z</time></trkpt><trkpt lat="38.1127233" lon="14.9190917"><ele>859.0</ele><time>2026-04-04T12:36:42.729Z</time></trkpt><trkpt lat="38.112775" lon="14.91898"><ele>859.0</ele><time>2026-04-04T12:36:44.728Z</time></trkpt><trkpt lat="38.1128467" lon="14.918905"><ele>859.0000000000001</ele><time>2026-04-04T12:36:45.729Z</time></trkpt><trkpt lat="38.1129367" lon="14.9188133"><ele>859.0000000000001</ele><time>2026-04-04T12:36:46.729Z</time></trkpt><trkpt lat="38.11303" lon="14.9187317"><ele>859.0</ele><time>2026-04-04T12:36:47.728Z</time></trkpt><trkpt lat="38.1131217" lon="14.918665"><ele>859.0</ele><time>2026-04-04T12:36:48.729Z</time></trkpt><trkpt lat="38.1132083" lon="14.9186117"><ele>857.6</ele><time>2026-04-04T12:36:49.729Z</time></trkpt><trkpt lat="38.1133033" lon="14.9185517"><ele>856.2</ele><time>2026-04-04T12:36:50.729Z</time></trkpt><trkpt lat="38.1133917" lon="14.9184783"><ele>854.8000000000001</ele><time>2026-04-04T12:36:51.729Z</time></trkpt><trkpt lat="38.1134717" lon="14.9183817"><ele>853.4000000000001</ele><time>2026-04-04T12:36:52.729Z</time></trkpt><trkpt lat="38.11355" lon="14.91829"><ele>852.0</ele><time>2026-04-04T12:36:53.729Z</time></trkpt><trkpt lat="38.11362" lon="14.9181917"><ele>858.8</ele><time>2026-04-04T12:36:54.728Z</time></trkpt><trkpt lat="38.1137" lon="14.918115"><ele>865.6</ele><time>2026-04-04T12:36:55.729Z</time></trkpt><trkpt lat="38.113785" lon="14.918055"><ele>872.3999999999999</ele><time>2026-04-04T12:36:56.729Z</time></trkpt><trkpt lat="38.1138617" lon="14.9179983"><ele>879.1999999999999</ele><time>2026-04-04T12:36:57.729Z</time></trkpt><trkpt lat="38.1139333" lon="14.9179283"><ele>886.0</ele><time>2026-04-04T12:36:58.728Z</time></trkpt><trkpt lat="38.113995" lon="14.91784"><ele>886.0</ele><time>2026-04-04T12:36:59.729Z</time></trkpt><trkpt lat="38.1140467" lon="14.917735"><ele>885.9999999999999</ele><time>2026-04-04T12:37:00.728Z</time></trkpt><trkpt lat="38.1140867" lon="14.9176217"><ele>885.9999999999999</ele><time>2026-04-04T12:37:01.729Z</time></trkpt><trkpt lat="38.1141217" lon="14.9174933"><ele>886.0</ele><time>2026-04-04T12:37:02.729Z</time></trkpt><trkpt lat="38.11416" lon="14.9173667"><ele>886.0</ele><time>2026-04-04T12:37:03.728Z</time></trkpt><trkpt lat="38.1141917" lon="14.9172683"><ele>885.5999999999999</ele><time>2026-04-04T12:37:04.729Z</time></trkpt><trkpt lat="38.11422" lon="14.9171333"><ele>885.1999999999999</ele><time>2026-04-04T12:37:06.728Z</time></trkpt><trkpt lat="38.1142183" lon="14.917035"><ele>884.8000000000001</ele><time>2026-04-04T12:37:08.728Z</time></trkpt><trkpt lat="38.1141883" lon="14.9169567"><ele>884.4000000000001</ele><time>2026-04-04T12:37:46.729Z</time></trkpt><trkpt lat="38.1140883" lon="14.9168183"><ele>884.0</ele><time>2026-04-04T12:37:48.729Z</time></trkpt><trkpt lat="38.1140117" lon="14.9167067"><ele>892.0</ele><time>2026-04-04T12:37:49.728Z</time></trkpt><trkpt lat="38.1139483" lon="14.9165583"><ele>900.0000000000001</ele><time>2026-04-04T12:37:50.728Z</time></trkpt><trkpt lat="38.1139183" lon="14.916415"><ele>908.0000000000001</ele><time>2026-04-04T12:37:51.729Z</time></trkpt><trkpt lat="38.1139133" lon="14.9163033"><ele>916.0</ele><time>2026-04-04T12:37:52.729Z</time></trkpt><trkpt lat="38.1138867" lon="14.9161817"><ele>924.0</ele><time>2026-04-04T12:37:54.728Z</time></trkpt><trkpt lat="38.1138" lon="14.9161783"><ele>924.0</ele><time>2026-04-04T12:37:56.728Z</time></trkpt><trkpt lat="38.1137383" lon="14.91624"><ele>924.0</ele><time>2026-04-04T12:37:57.728Z</time></trkpt><trkpt lat="38.1136767" lon="14.9163533"><ele>924.0</ele><time>2026-04-04T12:37:58.729Z</time></trkpt><trkpt lat="38.1136367" lon="14.9165133"><ele>924.0</ele><time>2026-04-04T12:37:59.729Z</time></trkpt><trkpt lat="38.1136133" lon="14.9167217"><ele>921.3333333333333</ele><time>2026-04-04T12:38:00.728Z</time></trkpt><trkpt lat="38.1135667" lon="14.9169433"><ele>918.6666666666666</ele><time>2026-04-04T12:38:01.729Z</time></trkpt><trkpt lat="38.1134983" lon="14.9171133"><ele>916.0</ele><time>2026-04-04T12:38:02.728Z</time></trkpt><trkpt lat="38.1134233" lon="14.9172567"><ele>916.0</ele><time>2026-04-04T12:38:03.728Z</time></trkpt><trkpt lat="38.11334" lon="14.917375"><ele>916.0</ele><time>2026-04-04T12:38:04.729Z</time></trkpt><trkpt lat="38.1132567" lon="14.9174667"><ele>916.0</ele><time>2026-04-04T12:38:05.729Z</time></trkpt><trkpt lat="38.1131583" lon="14.91754"><ele>916.0</ele><time>2026-04-04T12:38:06.729Z</time></trkpt><trkpt lat="38.1130433" lon="14.91761"><ele>912.4</ele><time>2026-04-04T12:38:07.728Z</time></trkpt><trkpt lat="38.1129267" lon="14.9176833"><ele>908.8</ele><time>2026-04-04T12:38:08.729Z</time></trkpt><trkpt lat="38.1128533" lon="14.9177633"><ele>905.1999999999999</ele><time>2026-04-04T12:38:09.729Z</time></trkpt><trkpt lat="38.1127867" lon="14.9178233"><ele>901.5999999999999</ele><time>2026-04-04T12:38:10.728Z</time></trkpt><trkpt lat="38.1127217" lon="14.9178683"><ele>898.0</ele><time>2026-04-04T12:38:11.728Z</time></trkpt><trkpt lat="38.1126217" lon="14.917925"><ele>898.0</ele><time>2026-04-04T12:38:13.729Z</time></trkpt><trkpt lat="38.1127117" lon="14.9178783"><ele>898.0</ele><time>2026-04-04T12:38:27.729Z</time></trkpt><trkpt lat="38.112805" lon="14.91782"><ele>898.0</ele><time>2026-04-04T12:38:29.729Z</time></trkpt><trkpt lat="38.1128983" lon="14.917745"><ele>898.0</ele><time>2026-04-04T12:38:31.729Z</time></trkpt><trkpt lat="38.11295" lon="14.9176967"><ele>898.0</ele><time>2026-04-04T12:38:32.729Z</time></trkpt><trkpt lat="38.1130333" lon="14.9176433"><ele>897.9999999999999</ele><time>2026-04-04T12:38:33.729Z</time></trkpt><trkpt lat="38.113105" lon="14.917595"><ele>898.0</ele><time>2026-04-04T12:38:34.729Z</time></trkpt><trkpt lat="38.1131667" lon="14.9175633"><ele>898.0</ele><time>2026-04-04T12:38:35.728Z</time></trkpt><trkpt lat="38.113255" lon="14.917515"><ele>898.0</ele><time>2026-04-04T12:38:37.729Z</time></trkpt><trkpt lat="38.113325" lon="14.9174567"><ele>897.9999999999999</ele><time>2026-04-04T12:38:39.728Z</time></trkpt><trkpt lat="38.1133983" lon="14.9173733"><ele>898.0</ele><time>2026-04-04T12:38:41.729Z</time></trkpt><trkpt lat="38.1134733" lon="14.9172883"><ele>901.5999999999999</ele><time>2026-04-04T12:38:43.729Z</time></trkpt><trkpt lat="38.1135467" lon="14.917195"><ele>905.1999999999999</ele><time>2026-04-04T12:38:45.728Z</time></trkpt><trkpt lat="38.1136067" lon="14.9170717"><ele>908.8</ele><time>2026-04-04T12:38:47.729Z</time></trkpt><trkpt lat="38.11366" lon="14.916945"><ele>912.4</ele><time>2026-04-04T12:38:49.729Z</time></trkpt><trkpt lat="38.1136833" lon="14.9168333"><ele>916.0</ele><time>2026-04-04T12:38:51.729Z</time></trkpt><trkpt lat="38.1136833" lon="14.9167183"><ele>917.5999999999999</ele><time>2026-04-04T12:38:53.728Z</time></trkpt><trkpt lat="38.11369" lon="14.9165883"><ele>919.1999999999999</ele><time>2026-04-04T12:38:55.729Z</time></trkpt><trkpt lat="38.1136983" lon="14.91647"><ele>920.8000000000001</ele><time>2026-04-04T12:38:57.729Z</time></trkpt><trkpt lat="38.1137433" lon="14.9163317"><ele>922.4000000000001</ele><time>2026-04-04T12:38:59.729Z</time></trkpt><trkpt lat="38.113805" lon="14.9162383"><ele>924.0</ele><time>2026-04-04T12:39:01.729Z</time></trkpt><trkpt lat="38.11388" lon="14.91622"><ele>924.0</ele><time>2026-04-04T12:39:03.728Z</time></trkpt><trkpt lat="38.1139283" lon="14.916285"><ele>924.0000000000001</ele><time>2026-04-04T12:39:05.729Z</time></trkpt><trkpt lat="38.11395" lon="14.916385"><ele>924.0000000000001</ele><time>2026-04-04T12:39:06.728Z</time></trkpt><trkpt lat="38.11397" lon="14.9165383"><ele>924.0</ele><time>2026-04-04T12:39:07.728Z</time></trkpt><trkpt lat="38.1140367" lon="14.9167233"><ele>924.0</ele><time>2026-04-04T12:39:08.729Z</time></trkpt><trkpt lat="38.1141067" lon="14.9168783"><ele>924.0</ele><time>2026-04-04T12:39:09.729Z</time></trkpt><trkpt lat="38.114165" lon="14.9169817"><ele>924.0</ele><time>2026-04-04T12:39:10.728Z</time></trkpt><trkpt lat="38.1142" lon="14.91705"><ele>924.0</ele><time>2026-04-04T12:39:11.729Z</time></trkpt><trkpt lat="38.1141682" lon="14.9169266"><ele>924.0</ele><time>2026-04-04T12:40:30.729Z</time></trkpt><trkpt lat="38.1141313" lon="14.9168595"><ele>924.0</ele><time>2026-04-04T12:40:31.73Z</time></trkpt><trkpt lat="38.1140896" lon="14.916784"><ele>924.0</ele><time>2026-04-04T12:40:32.73Z</time></trkpt><trkpt lat="38.1140454" lon="14.9167172"><ele>924.0</ele><time>2026-04-04T12:40:33.729Z</time></trkpt><trkpt lat="38.1139838" lon="14.9165933"><ele>924.0000000000001</ele><time>2026-04-04T12:40:35.729Z</time></trkpt><trkpt lat="38.1139538" lon="14.9164583"><ele>924.0000000000001</ele><time>2026-04-04T12:40:37.73Z</time></trkpt><trkpt lat="38.1139616" lon="14.9163371"><ele>924.0</ele><time>2026-04-04T12:40:39.73Z</time></trkpt><trkpt lat="38.1139415" lon="14.9162292"><ele>924.0</ele><time>2026-04-04T12:40:41.729Z</time></trkpt><trkpt lat="38.1138423" lon="14.9162198"><ele>924.0</ele><time>2026-04-04T12:40:43.729Z</time></trkpt><trkpt lat="38.1137732" lon="14.9162812"><ele>924.0</ele><time>2026-04-04T12:40:44.73Z</time></trkpt><trkpt lat="38.1137074" lon="14.9163977"><ele>924.0</ele><time>2026-04-04T12:40:45.73Z</time></trkpt><trkpt lat="38.1136648" lon="14.9165518"><ele>924.0</ele><time>2026-04-04T12:40:46.729Z</time></trkpt><trkpt lat="38.1136448" lon="14.9167398"><ele>922.0</ele><time>2026-04-04T12:40:47.729Z</time></trkpt><trkpt lat="38.1136193" lon="14.9169237"><ele>920.0</ele><time>2026-04-04T12:40:48.73Z</time></trkpt><trkpt lat="38.1135756" lon="14.9170898"><ele>918.0</ele><time>2026-04-04T12:40:49.729Z</time></trkpt><trkpt lat="38.1135164" lon="14.9172278"><ele>916.0</ele><time>2026-04-04T12:40:50.73Z</time></trkpt><trkpt lat="38.1134341" lon="14.9173495"><ele>916.0</ele><time>2026-04-04T12:40:51.73Z</time></trkpt><trkpt lat="38.1133419" lon="14.9174377"><ele>916.0</ele><time>2026-04-04T12:40:52.729Z</time></trkpt><trkpt lat="38.1132545" lon="14.9175114"><ele>916.0</ele><time>2026-04-04T12:40:53.729Z</time></trkpt><trkpt lat="38.1131558" lon="14.9175726"><ele>916.0</ele><time>2026-04-04T12:40:54.729Z</time></trkpt><trkpt lat="38.113044" lon="14.9176419"><ele>911.5</ele><time>2026-04-04T12:40:55.73Z</time></trkpt><trkpt lat="38.1129312" lon="14.9177247"><ele>907.0</ele><time>2026-04-04T12:40:56.73Z</time></trkpt><trkpt lat="38.112823" lon="14.9178066"><ele>902.5</ele><time>2026-04-04T12:40:57.73Z</time></trkpt><trkpt lat="38.1127267" lon="14.9178738"><ele>898.0</ele><time>2026-04-04T12:40:58.73Z</time></trkpt><trkpt lat="38.1126303" lon="14.9179167"><ele>897.9999999999999</ele><time>2026-04-04T12:40:59.73Z</time></trkpt><trkpt lat="38.112546" lon="14.9179424"><ele>898.0</ele><time>2026-04-04T12:41:00.73Z</time></trkpt><trkpt lat="38.1124695" lon="14.9179457"><ele>898.0</ele><time>2026-04-04T12:41:01.729Z</time></trkpt><trkpt lat="38.1123997" lon="14.9179086"><ele>898.0</ele><time>2026-04-04T12:41:02.729Z</time></trkpt><trkpt lat="38.1123397" lon="14.9178433"><ele>897.9999999999999</ele><time>2026-04-04T12:41:03.729Z</time></trkpt><trkpt lat="38.1122887" lon="14.9177628"><ele>898.0</ele><time>2026-04-04T12:41:04.729Z</time></trkpt><trkpt lat="38.1122281" lon="14.9176706"><ele>894.4</ele><time>2026-04-04T12:41:05.73Z</time></trkpt><trkpt lat="38.1121554" lon="14.9175711"><ele>890.8</ele><time>2026-04-04T12:41:06.73Z</time></trkpt><trkpt lat="38.1120884" lon="14.9174726"><ele>887.2</ele><time>2026-04-04T12:41:07.73Z</time></trkpt><trkpt lat="38.1120276" lon="14.9173748"><ele>883.6</ele><time>2026-04-04T12:41:08.729Z</time></trkpt><trkpt lat="38.1119678" lon="14.9172836"><ele>880.0</ele><time>2026-04-04T12:41:09.73Z</time></trkpt><trkpt lat="38.1119101" lon="14.9172051"><ele>887.1666666666666</ele><time>2026-04-04T12:41:10.73Z</time></trkpt><trkpt lat="38.1118367" lon="14.9171317"><ele>894.3333333333333</ele><time>2026-04-04T12:41:11.73Z</time></trkpt><trkpt lat="38.1117537" lon="14.9170733"><ele>901.5</ele><time>2026-04-04T12:41:12.73Z</time></trkpt><trkpt lat="38.1116709" lon="14.9170338"><ele>908.6666666666667</ele><time>2026-04-04T12:41:13.729Z</time></trkpt><trkpt lat="38.1115939" lon="14.9170155"><ele>915.8333333333334</ele><time>2026-04-04T12:41:14.73Z</time></trkpt><trkpt lat="38.11153" lon="14.9170161"><ele>923.0</ele><time>2026-04-04T12:41:15.73Z</time></trkpt><trkpt lat="38.111405" lon="14.9170593"><ele>923.0</ele><time>2026-04-04T12:41:17.73Z</time></trkpt><trkpt lat="38.1113391" lon="14.9170814"><ele>923.0</ele><time>2026-04-04T12:41:18.73Z</time></trkpt><trkpt lat="38.1112647" lon="14.9170971"><ele>923.0</ele><time>2026-04-04T12:41:19.73Z</time></trkpt><trkpt lat="38.111192" lon="14.9170989"><ele>923.0</ele><time>2026-04-04T12:41:20.73Z</time></trkpt><trkpt lat="38.1111225" lon="14.9170858"><ele>923.0</ele><time>2026-04-04T12:41:21.729Z</time></trkpt><trkpt lat="38.1110527" lon="14.9170681"><ele>923.0</ele><time>2026-04-04T12:41:22.729Z</time></trkpt><trkpt lat="38.1109799" lon="14.9170554"><ele>923.0</ele><time>2026-04-04T12:41:23.73Z</time></trkpt><trkpt lat="38.1109003" lon="14.9170504"><ele>923.0000000000001</ele><time>2026-04-04T12:41:24.729Z</time></trkpt><trkpt lat="38.1108198" lon="14.9170525"><ele>923.0</ele><time>2026-04-04T12:41:25.729Z</time></trkpt><trkpt lat="38.1107362" lon="14.9170519"><ele>923.0</ele><time>2026-04-04T12:41:26.729Z</time></trkpt><trkpt lat="38.1106548" lon="14.9170428"><ele>923.0</ele><time>2026-04-04T12:41:27.729Z</time></trkpt><trkpt lat="38.1105745" lon="14.9170167"><ele>923.0000000000001</ele><time>2026-04-04T12:41:28.729Z</time></trkpt><trkpt lat="38.1104934" lon="14.9169767"><ele>923.0</ele><time>2026-04-04T12:41:29.73Z</time></trkpt><trkpt lat="38.1104118" lon="14.9169497"><ele>923.1428571428571</ele><time>2026-04-04T12:41:30.73Z</time></trkpt><trkpt lat="38.110329" lon="14.9169504"><ele>923.2857142857143</ele><time>2026-04-04T12:41:31.73Z</time></trkpt><trkpt lat="38.1102518" lon="14.9169666"><ele>923.4285714285714</ele><time>2026-04-04T12:41:32.73Z</time></trkpt><trkpt lat="38.1101792" lon="14.9169769"><ele>923.5714285714286</ele><time>2026-04-04T12:41:33.73Z</time></trkpt><trkpt lat="38.1101102" lon="14.9169682"><ele>923.7142857142858</ele><time>2026-04-04T12:41:34.729Z</time></trkpt><trkpt lat="38.1100418" lon="14.9169423"><ele>923.8571428571429</ele><time>2026-04-04T12:41:35.73Z</time></trkpt><trkpt lat="38.1099801" lon="14.9169066"><ele>924.0</ele><time>2026-04-04T12:41:36.73Z</time></trkpt><trkpt lat="38.1099198" lon="14.9168582"><ele>925.8571428571429</ele><time>2026-04-04T12:41:37.729Z</time></trkpt><trkpt lat="38.1098631" lon="14.916819"><ele>927.7142857142858</ele><time>2026-04-04T12:41:38.729Z</time></trkpt><trkpt lat="38.1098009" lon="14.9168011"><ele>929.5714285714286</ele><time>2026-04-04T12:41:39.729Z</time></trkpt><trkpt lat="38.1097356" lon="14.9167998"><ele>931.4285714285714</ele><time>2026-04-04T12:41:40.73Z</time></trkpt><trkpt lat="38.1096703" lon="14.9168"><ele>933.2857142857143</ele><time>2026-04-04T12:41:41.73Z</time></trkpt><trkpt lat="38.1095996" lon="14.916797"><ele>935.1428571428571</ele><time>2026-04-04T12:41:42.73Z</time></trkpt><trkpt lat="38.1095213" lon="14.9167868"><ele>937.0</ele><time>2026-04-04T12:41:43.73Z</time></trkpt><trkpt lat="38.1094423" lon="14.9167668"><ele>936.9999999999999</ele><time>2026-04-04T12:41:44.73Z</time></trkpt><trkpt lat="38.1093682" lon="14.9167495"><ele>937.0</ele><time>2026-04-04T12:41:45.729Z</time></trkpt><trkpt lat="38.1092944" lon="14.9167409"><ele>937.0</ele><time>2026-04-04T12:41:46.729Z</time></trkpt><trkpt lat="38.1092083" lon="14.9167504"><ele>937.0</ele><time>2026-04-04T12:41:47.73Z</time></trkpt><trkpt lat="38.1091086" lon="14.9167896"><ele>936.9999999999999</ele><time>2026-04-04T12:41:48.73Z</time></trkpt><trkpt lat="38.1090186" lon="14.9168496"><ele>937.0</ele><time>2026-04-04T12:41:49.73Z</time></trkpt><trkpt lat="38.108936" lon="14.916928"><ele>940.0</ele><time>2026-04-04T12:41:50.73Z</time></trkpt><trkpt lat="38.1088663" lon="14.9170212"><ele>943.0</ele><time>2026-04-04T12:41:51.73Z</time></trkpt><trkpt lat="38.1088037" lon="14.9171075"><ele>946.0</ele><time>2026-04-04T12:41:52.73Z</time></trkpt><trkpt lat="38.1087499" lon="14.9171634"><ele>949.0</ele><time>2026-04-04T12:41:53.729Z</time></trkpt><trkpt lat="38.1086537" lon="14.9171689"><ele>952.0</ele><time>2026-04-04T12:41:55.73Z</time></trkpt><trkpt lat="38.1085834" lon="14.9170321"><ele>952.0</ele><time>2026-04-04T12:41:57.729Z</time></trkpt><trkpt lat="38.1085608" lon="14.9169061"><ele>952.0</ele><time>2026-04-04T12:41:58.73Z</time></trkpt><trkpt lat="38.1085449" lon="14.916768"><ele>952.0</ele><time>2026-04-04T12:41:59.73Z</time></trkpt><trkpt lat="38.1085311" lon="14.9166494"><ele>952.0</ele><time>2026-04-04T12:42:00.73Z</time></trkpt><trkpt lat="38.1085073" lon="14.9165549"><ele>952.0</ele><time>2026-04-04T12:42:01.73Z</time></trkpt><trkpt lat="38.1084632" lon="14.916487"><ele>956.0</ele><time>2026-04-04T12:42:02.73Z</time></trkpt><trkpt lat="38.1084019" lon="14.9164523"><ele>960.0</ele><time>2026-04-04T12:42:03.73Z</time></trkpt><trkpt lat="38.1083297" lon="14.9164429"><ele>964.0</ele><time>2026-04-04T12:42:04.729Z</time></trkpt><trkpt lat="38.1082553" lon="14.9164604"><ele>968.0</ele><time>2026-04-04T12:42:05.729Z</time></trkpt><trkpt lat="38.1081905" lon="14.916501"><ele>972.0</ele><time>2026-04-04T12:42:06.73Z</time></trkpt><trkpt lat="38.1081398" lon="14.91656"><ele>976.0</ele><time>2026-04-04T12:42:07.73Z</time></trkpt><trkpt lat="38.1080882" lon="14.9166387"><ele>980.0</ele><time>2026-04-04T12:42:09.73Z</time></trkpt><trkpt lat="38.1081666" lon="14.9165224"><ele>980.0</ele><time>2026-04-04T12:42:20.729Z</time></trkpt><trkpt lat="38.10822" lon="14.9164636"><ele>980.0</ele><time>2026-04-04T12:42:21.73Z</time></trkpt><trkpt lat="38.1082899" lon="14.9164101"><ele>980.0</ele><time>2026-04-04T12:42:22.73Z</time></trkpt><trkpt lat="38.1083799" lon="14.9163729"><ele>980.0</ele><time>2026-04-04T12:42:23.73Z</time></trkpt><trkpt lat="38.1084807" lon="14.9163589"><ele>980.0</ele><time>2026-04-04T12:42:24.73Z</time></trkpt><trkpt lat="38.1085946" lon="14.9163757"><ele>980.0</ele><time>2026-04-04T12:42:25.73Z</time></trkpt><trkpt lat="38.1087103" lon="14.9164189"><ele>980.0</ele><time>2026-04-04T12:42:26.73Z</time></trkpt><trkpt lat="38.1088025" lon="14.9164645"><ele>980.0</ele><time>2026-04-04T12:42:27.729Z</time></trkpt><trkpt lat="38.1088675" lon="14.916486"><ele>980.0</ele><time>2026-04-04T12:42:28.73Z</time></trkpt><trkpt lat="38.1089961" lon="14.9164366"><ele>980.0</ele><time>2026-04-04T12:42:30.73Z</time></trkpt><trkpt lat="38.1090709" lon="14.9163751"><ele>979.1666666666667</ele><time>2026-04-04T12:42:31.73Z</time></trkpt><trkpt lat="38.1091443" lon="14.9163211"><ele>978.3333333333334</ele><time>2026-04-04T12:42:32.73Z</time></trkpt><trkpt lat="38.1092012" lon="14.9162848"><ele>977.5</ele><time>2026-04-04T12:42:33.729Z</time></trkpt><trkpt lat="38.1092623" lon="14.9162446"><ele>976.6666666666667</ele><time>2026-04-04T12:42:36.73Z</time></trkpt><trkpt lat="38.1093522" lon="14.9162589"><ele>975.8333333333334</ele><time>2026-04-04T12:42:42.73Z</time></trkpt><trkpt lat="38.1094575" lon="14.9162705"><ele>975.0</ele><time>2026-04-04T12:42:44.729Z</time></trkpt><trkpt lat="38.1095207" lon="14.9162901"><ele>975.0</ele><time>2026-04-04T12:42:45.73Z</time></trkpt><trkpt lat="38.1096153" lon="14.9163023"><ele>975.0</ele><time>2026-04-04T12:42:47.73Z</time></trkpt><trkpt lat="38.1095468" lon="14.9162497"><ele>975.0</ele><time>2026-04-04T12:42:50.73Z</time></trkpt><trkpt lat="38.1094516" lon="14.916249"><ele>975.0</ele><time>2026-04-04T12:42:52.73Z</time></trkpt><trkpt lat="38.1093381" lon="14.9162414"><ele>975.0</ele><time>2026-04-04T12:42:54.73Z</time></trkpt><trkpt lat="38.1092058" lon="14.9162194"><ele>975.0</ele><time>2026-04-04T12:42:56.73Z</time></trkpt><trkpt lat="38.1091243" lon="14.9162054"><ele>975.0</ele><time>2026-04-04T12:42:57.729Z</time></trkpt><trkpt lat="38.1090445" lon="14.916202"><ele>975.0</ele><time>2026-04-04T12:42:58.729Z</time></trkpt><trkpt lat="38.1089678" lon="14.9162114"><ele>975.0</ele><time>2026-04-04T12:42:59.73Z</time></trkpt><trkpt lat="38.1088923" lon="14.916228"><ele>975.0</ele><time>2026-04-04T12:43:00.73Z</time></trkpt><trkpt lat="38.1088218" lon="14.9162329"><ele>975.0</ele><time>2026-04-04T12:43:01.729Z</time></trkpt><trkpt lat="38.1087437" lon="14.9162155"><ele>976.0</ele><time>2026-04-04T12:43:02.73Z</time></trkpt><trkpt lat="38.1086469" lon="14.9161726"><ele>977.0</ele><time>2026-04-04T12:43:03.73Z</time></trkpt><trkpt lat="38.1085472" lon="14.9161116"><ele>978.0</ele><time>2026-04-04T12:43:04.729Z</time></trkpt><trkpt lat="38.108456" lon="14.9160607"><ele>979.0</ele><time>2026-04-04T12:43:05.729Z</time></trkpt><trkpt lat="38.1083705" lon="14.9160364"><ele>980.0</ele><time>2026-04-04T12:43:06.73Z</time></trkpt><trkpt lat="38.1082818" lon="14.9160354"><ele>983.3333333333334</ele><time>2026-04-04T12:43:07.73Z</time></trkpt><trkpt lat="38.1082008" lon="14.9160427"><ele>986.6666666666667</ele><time>2026-04-04T12:43:08.73Z</time></trkpt><trkpt lat="38.1081256" lon="14.9160519"><ele>990.0</ele><time>2026-04-04T12:43:09.729Z</time></trkpt><trkpt lat="38.1080444" lon="14.9160473"><ele>993.3333333333333</ele><time>2026-04-04T12:43:10.73Z</time></trkpt><trkpt lat="38.107963" lon="14.9160232"><ele>996.6666666666666</ele><time>2026-04-04T12:43:11.73Z</time></trkpt><trkpt lat="38.1078985" lon="14.9160068"><ele>1000.0</ele><time>2026-04-04T12:43:12.729Z</time></trkpt><trkpt lat="38.1078404" lon="14.9159546"><ele>999.9999999999999</ele><time>2026-04-04T12:43:14.729Z</time></trkpt><trkpt lat="38.1079338" lon="14.9158969"><ele>1000.0</ele><time>2026-04-04T12:43:16.729Z</time></trkpt><trkpt lat="38.1079985" lon="14.9158696"><ele>1000.0</ele><time>2026-04-04T12:43:17.73Z</time></trkpt><trkpt lat="38.1080684" lon="14.9158361"><ele>1000.0</ele><time>2026-04-04T12:43:18.73Z</time></trkpt><trkpt lat="38.1081491" lon="14.9157969"><ele>999.9999999999999</ele><time>2026-04-04T12:43:19.73Z</time></trkpt><trkpt lat="38.108226" lon="14.9157602"><ele>1000.0</ele><time>2026-04-04T12:43:20.73Z</time></trkpt><trkpt lat="38.108283" lon="14.9157241"><ele>999.9999999999999</ele><time>2026-04-04T12:43:21.729Z</time></trkpt><trkpt lat="38.1083696" lon="14.9156765"><ele>1000.0</ele><time>2026-04-04T12:43:23.73Z</time></trkpt><trkpt lat="38.1084672" lon="14.9156271"><ele>1000.0</ele><time>2026-04-04T12:43:25.73Z</time></trkpt><trkpt lat="38.1085321" lon="14.9156026"><ele>1000.0</ele><time>2026-04-04T12:43:26.73Z</time></trkpt><trkpt lat="38.1086072" lon="14.9155745"><ele>999.9999999999999</ele><time>2026-04-04T12:43:27.73Z</time></trkpt><trkpt lat="38.108682" lon="14.9155501"><ele>1000.0</ele><time>2026-04-04T12:43:28.729Z</time></trkpt><trkpt lat="38.1087445" lon="14.915521"><ele>999.9999999999999</ele><time>2026-04-04T12:43:29.729Z</time></trkpt><trkpt lat="38.1088181" lon="14.9154707"><ele>1000.0</ele><time>2026-04-04T12:43:31.73Z</time></trkpt><trkpt lat="38.1088895" lon="14.9154057"><ele>1000.0</ele><time>2026-04-04T12:43:33.729Z</time></trkpt><trkpt lat="38.108965" lon="14.9153422"><ele>1000.0</ele><time>2026-04-04T12:43:35.73Z</time></trkpt><trkpt lat="38.1090133" lon="14.9152834"><ele>999.9999999999999</ele><time>2026-04-04T12:43:37.729Z</time></trkpt><trkpt lat="38.1090443" lon="14.9151944"><ele>1000.0</ele><time>2026-04-04T12:43:40.729Z</time></trkpt><trkpt lat="38.1090868" lon="14.915089"><ele>999.9999999999999</ele><time>2026-04-04T12:43:52.73Z</time></trkpt><trkpt lat="38.1091288" lon="14.9149813"><ele>1000.0</ele><time>2026-04-04T12:43:54.73Z</time></trkpt><trkpt lat="38.1091627" lon="14.914897"><ele>1000.0</ele><time>2026-04-04T12:43:56.729Z</time></trkpt><trkpt lat="38.1092167" lon="14.9147797"><ele>1000.0</ele><time>2026-04-04T12:43:58.73Z</time></trkpt><trkpt lat="38.1092544" lon="14.9147059"><ele>999.9999999999999</ele><time>2026-04-04T12:43:59.73Z</time></trkpt><trkpt lat="38.1092882" lon="14.9146319"><ele>1000.0</ele><time>2026-04-04T12:44:00.73Z</time></trkpt><trkpt lat="38.1093445" lon="14.9145194"><ele>1000.0</ele><time>2026-04-04T12:44:02.729Z</time></trkpt><trkpt lat="38.1093894" lon="14.9144248"><ele>1000.0</ele><time>2026-04-04T12:44:04.729Z</time></trkpt><trkpt lat="38.1094144" lon="14.9143043"><ele>1000.0</ele><time>2026-04-04T12:44:06.73Z</time></trkpt><trkpt lat="38.1094052" lon="14.9141649"><ele>1000.0</ele><time>2026-04-04T12:44:08.729Z</time></trkpt><trkpt lat="38.1093816" lon="14.914025"><ele>1000.0</ele><time>2026-04-04T12:44:10.73Z</time></trkpt><trkpt lat="38.1093791" lon="14.9138996"><ele>999.4999999999999</ele><time>2026-04-04T12:44:12.73Z</time></trkpt><trkpt lat="38.1093923" lon="14.9137821"><ele>999.0</ele><time>2026-04-04T12:44:14.73Z</time></trkpt><trkpt lat="38.1094211" lon="14.9136801"><ele>998.5</ele><time>2026-04-04T12:44:16.73Z</time></trkpt><trkpt lat="38.1094537" lon="14.9136054"><ele>998.0</ele><time>2026-04-04T12:44:18.73Z</time></trkpt><trkpt lat="38.1094658" lon="14.9135227"><ele>997.4999999999999</ele><time>2026-04-04T12:44:20.73Z</time></trkpt><trkpt lat="38.1094938" lon="14.913408"><ele>997.0</ele><time>2026-04-04T12:44:23.73Z</time></trkpt><trkpt lat="38.1095221" lon="14.9133241"><ele>994.4999999999999</ele><time>2026-04-04T12:44:26.729Z</time></trkpt><trkpt lat="38.1095238" lon="14.9132234"><ele>992.0</ele><time>2026-04-04T12:44:29.73Z</time></trkpt><trkpt lat="38.1095482" lon="14.913112"><ele>989.5</ele><time>2026-04-04T12:44:32.73Z</time></trkpt><trkpt lat="38.1095779" lon="14.9130333"><ele>987.0</ele><time>2026-04-04T12:44:34.73Z</time></trkpt><trkpt lat="38.1095962" lon="14.9129393"><ele>984.4999999999999</ele><time>2026-04-04T12:44:36.73Z</time></trkpt><trkpt lat="38.1096096" lon="14.9128407"><ele>982.0</ele><time>2026-04-04T12:44:38.731Z</time></trkpt><trkpt lat="38.1095757" lon="14.9127426"><ele>981.9999999999999</ele><time>2026-04-04T12:44:41.731Z</time></trkpt><trkpt lat="38.1095417" lon="14.9126614"><ele>982.0</ele><time>2026-04-04T12:44:44.73Z</time></trkpt><trkpt lat="38.1094889" lon="14.9126089"><ele>982.0</ele><time>2026-04-04T12:44:47.73Z</time></trkpt><trkpt lat="38.1095201" lon="14.912517"><ele>982.0</ele><time>2026-04-04T12:44:50.73Z</time></trkpt><trkpt lat="38.1095999" lon="14.9124525"><ele>981.9999999999999</ele><time>2026-04-04T12:44:53.73Z</time></trkpt><trkpt lat="38.1096662" lon="14.9123729"><ele>982.0</ele><time>2026-04-04T12:44:56.731Z</time></trkpt><trkpt lat="38.1097329" lon="14.9122904"><ele>979.6666666666666</ele><time>2026-04-04T12:44:59.731Z</time></trkpt><trkpt lat="38.10979" lon="14.9122133"><ele>977.3333333333333</ele><time>2026-04-04T12:45:02.73Z</time></trkpt><trkpt lat="38.10983" lon="14.9121283"><ele>975.0</ele><time>2026-04-04T12:45:05.73Z</time></trkpt><trkpt lat="38.1098767" lon="14.91204"><ele>972.6666666666667</ele><time>2026-04-04T12:45:08.731Z</time></trkpt><trkpt lat="38.1099233" lon="14.911955"><ele>970.3333333333334</ele><time>2026-04-04T12:45:11.73Z</time></trkpt><trkpt lat="38.10997" lon="14.911885"><ele>968.0</ele><time>2026-04-04T12:45:13.73Z</time></trkpt><trkpt lat="38.1100183" lon="14.9118117"><ele>967.7142857142857</ele><time>2026-04-04T12:45:15.731Z</time></trkpt><trkpt lat="38.11005" lon="14.9117417"><ele>967.4285714285713</ele><time>2026-04-04T12:45:17.731Z</time></trkpt><trkpt lat="38.110085" lon="14.9116667"><ele>967.1428571428571</ele><time>2026-04-04T12:45:19.731Z</time></trkpt><trkpt lat="38.1101233" lon="14.911595"><ele>966.8571428571429</ele><time>2026-04-04T12:45:21.731Z</time></trkpt><trkpt lat="38.1101667" lon="14.9115217"><ele>966.5714285714286</ele><time>2026-04-04T12:45:23.731Z</time></trkpt><trkpt lat="38.1102083" lon="14.911435"><ele>966.2857142857142</ele><time>2026-04-04T12:45:25.73Z</time></trkpt><trkpt lat="38.1102433" lon="14.9113617"><ele>966.0</ele><time>2026-04-04T12:45:27.731Z</time></trkpt><trkpt lat="38.1102867" lon="14.911285"><ele>965.2857142857142</ele><time>2026-04-04T12:45:29.731Z</time></trkpt><trkpt lat="38.1103133" lon="14.9112017"><ele>964.5714285714286</ele><time>2026-04-04T12:45:31.731Z</time></trkpt><trkpt lat="38.1103567" lon="14.9111317"><ele>963.8571428571429</ele><time>2026-04-04T12:45:33.73Z</time></trkpt><trkpt lat="38.1104317" lon="14.91108"><ele>963.1428571428571</ele><time>2026-04-04T12:45:35.73Z</time></trkpt><trkpt lat="38.11049" lon="14.911045"><ele>962.4285714285713</ele><time>2026-04-04T12:45:37.731Z</time></trkpt><trkpt lat="38.1105533" lon="14.91101"><ele>961.7142857142857</ele><time>2026-04-04T12:45:39.731Z</time></trkpt><trkpt lat="38.110635" lon="14.91097"><ele>961.0</ele><time>2026-04-04T12:45:41.731Z</time></trkpt><trkpt lat="38.1107117" lon="14.9109467"><ele>958.8571428571428</ele><time>2026-04-04T12:45:43.731Z</time></trkpt><trkpt lat="38.11077" lon="14.910895"><ele>956.7142857142856</ele><time>2026-04-04T12:45:45.731Z</time></trkpt><trkpt lat="38.1108167" lon="14.9108367"><ele>954.5714285714286</ele><time>2026-04-04T12:45:47.731Z</time></trkpt><trkpt lat="38.1108633" lon="14.9107667"><ele>952.4285714285713</ele><time>2026-04-04T12:45:49.73Z</time></trkpt><trkpt lat="38.1109083" lon="14.9107"><ele>950.2857142857142</ele><time>2026-04-04T12:45:51.731Z</time></trkpt><trkpt lat="38.1109483" lon="14.910625"><ele>948.1428571428571</ele><time>2026-04-04T12:45:53.73Z</time></trkpt><trkpt lat="38.1109933" lon="14.910555"><ele>946.0</ele><time>2026-04-04T12:45:55.731Z</time></trkpt><trkpt lat="38.1110517" lon="14.910465"><ele>945.9999999999999</ele><time>2026-04-04T12:45:58.731Z</time></trkpt><trkpt lat="38.111095" lon="14.9104"><ele>946.0</ele><time>2026-04-04T12:46:00.731Z</time></trkpt><trkpt lat="38.1111567" lon="14.9103133"><ele>946.0</ele><time>2026-04-04T12:46:03.73Z</time></trkpt><trkpt lat="38.1112117" lon="14.9102467"><ele>946.0</ele><time>2026-04-04T12:46:05.731Z</time></trkpt><trkpt lat="38.11128" lon="14.91016"><ele>945.9999999999999</ele><time>2026-04-04T12:46:07.731Z</time></trkpt><trkpt lat="38.1113383" lon="14.9100767"><ele>946.0</ele><time>2026-04-04T12:46:09.731Z</time></trkpt><trkpt lat="38.111405" lon="14.9100033"><ele>943.3333333333333</ele><time>2026-04-04T12:46:12.731Z</time></trkpt><trkpt lat="38.11147" lon="14.909945"><ele>940.6666666666666</ele><time>2026-04-04T12:46:15.731Z</time></trkpt><trkpt lat="38.1115367" lon="14.909875"><ele>938.0</ele><time>2026-04-04T12:46:18.731Z</time></trkpt><trkpt lat="38.1116083" lon="14.9097983"><ele>935.3333333333333</ele><time>2026-04-04T12:46:21.731Z</time></trkpt><trkpt lat="38.1116783" lon="14.90974"><ele>932.6666666666666</ele><time>2026-04-04T12:46:24.731Z</time></trkpt><trkpt lat="38.1117417" lon="14.9096567"><ele>930.0</ele><time>2026-04-04T12:46:27.731Z</time></trkpt><trkpt lat="38.1118033" lon="14.909575"><ele>930.0</ele><time>2026-04-04T12:46:30.731Z</time></trkpt><trkpt lat="38.111855" lon="14.90951"><ele>930.0</ele><time>2026-04-04T12:46:33.73Z</time></trkpt><trkpt lat="38.1119017" lon="14.9094533"><ele>930.0</ele><time>2026-04-04T12:46:35.731Z</time></trkpt><trkpt lat="38.1119817" lon="14.9094117"><ele>930.0</ele><time>2026-04-04T12:46:37.73Z</time></trkpt><trkpt lat="38.11208" lon="14.9093617"><ele>930.0</ele><time>2026-04-04T12:46:39.73Z</time></trkpt><trkpt lat="38.1121733" lon="14.9093283"><ele>930.0</ele><time>2026-04-04T12:46:41.731Z</time></trkpt><trkpt lat="38.11229" lon="14.909305"><ele>930.0</ele><time>2026-04-04T12:46:43.731Z</time></trkpt><trkpt lat="38.1123867" lon="14.9093033"><ele>930.0</ele><time>2026-04-04T12:46:45.731Z</time></trkpt><trkpt lat="38.1124667" lon="14.9093017"><ele>930.0</ele><time>2026-04-04T12:46:47.73Z</time></trkpt><trkpt lat="38.11254" lon="14.9092767"><ele>930.0</ele><time>2026-04-04T12:46:49.731Z</time></trkpt><trkpt lat="38.1126333" lon="14.9092467"><ele>930.0</ele><time>2026-04-04T12:46:51.731Z</time></trkpt><trkpt lat="38.1127083" lon="14.9092317"><ele>930.0</ele><time>2026-04-04T12:46:52.731Z</time></trkpt><trkpt lat="38.1128117" lon="14.90921"><ele>925.2</ele><time>2026-04-04T12:46:53.731Z</time></trkpt><trkpt lat="38.1129317" lon="14.9091867"><ele>920.4</ele><time>2026-04-04T12:46:54.73Z</time></trkpt><trkpt lat="38.1130367" lon="14.9091633"><ele>915.5999999999999</ele><time>2026-04-04T12:46:55.73Z</time></trkpt><trkpt lat="38.1131283" lon="14.9091433"><ele>910.8</ele><time>2026-04-04T12:46:56.731Z</time></trkpt><trkpt lat="38.113195" lon="14.909115"><ele>906.0</ele><time>2026-04-04T12:46:57.731Z</time></trkpt><trkpt lat="38.11327" lon="14.9090783"><ele>905.8</ele><time>2026-04-04T12:46:58.73Z</time></trkpt><trkpt lat="38.1133483" lon="14.9090317"><ele>905.5999999999999</ele><time>2026-04-04T12:46:59.73Z</time></trkpt><trkpt lat="38.1134417" lon="14.9089933"><ele>905.4</ele><time>2026-04-04T12:47:00.73Z</time></trkpt><trkpt lat="38.1135517" lon="14.9089367"><ele>905.2</ele><time>2026-04-04T12:47:01.731Z</time></trkpt><trkpt lat="38.11366" lon="14.908865"><ele>905.0</ele><time>2026-04-04T12:47:02.73Z</time></trkpt><trkpt lat="38.11377" lon="14.9087783"><ele>905.0</ele><time>2026-04-04T12:47:03.731Z</time></trkpt><trkpt lat="38.113855" lon="14.9086917"><ele>905.0</ele><time>2026-04-04T12:47:04.731Z</time></trkpt><trkpt lat="38.113925" lon="14.9086133"><ele>905.0</ele><time>2026-04-04T12:47:05.731Z</time></trkpt><trkpt lat="38.1139783" lon="14.9085483"><ele>905.0</ele><time>2026-04-04T12:47:06.731Z</time></trkpt><trkpt lat="38.1140583" lon="14.9084433"><ele>905.0</ele><time>2026-04-04T12:47:08.731Z</time></trkpt><trkpt lat="38.1141617" lon="14.90835"><ele>905.6666666666667</ele><time>2026-04-04T12:47:10.73Z</time></trkpt><trkpt lat="38.11421" lon="14.9082983"><ele>906.3333333333334</ele><time>2026-04-04T12:47:11.731Z</time></trkpt><trkpt lat="38.114265" lon="14.9082333"><ele>907.0</ele><time>2026-04-04T12:47:12.731Z</time></trkpt><trkpt lat="38.1143417" lon="14.908135"><ele>907.6666666666667</ele><time>2026-04-04T12:47:14.73Z</time></trkpt><trkpt lat="38.1144067" lon="14.9080717"><ele>908.3333333333334</ele><time>2026-04-04T12:47:16.73Z</time></trkpt><trkpt lat="38.1144767" lon="14.9080567"><ele>909.0</ele><time>2026-04-04T12:47:18.73Z</time></trkpt><trkpt lat="38.1145633" lon="14.908035"><ele>909.0</ele><time>2026-04-04T12:47:20.731Z</time></trkpt><trkpt lat="38.1146567" lon="14.9080233"><ele>909.0</ele><time>2026-04-04T12:47:22.731Z</time></trkpt><trkpt lat="38.1147433" lon="14.9080033"><ele>909.0</ele><time>2026-04-04T12:47:24.731Z</time></trkpt><trkpt lat="38.1148233" lon="14.90799"><ele>909.0</ele><time>2026-04-04T12:47:26.731Z</time></trkpt><trkpt lat="38.11491" lon="14.90798"><ele>909.0</ele><time>2026-04-04T12:47:28.73Z</time></trkpt><trkpt lat="38.1150017" lon="14.9079967"><ele>909.0</ele><time>2026-04-04T12:47:30.731Z</time></trkpt><trkpt lat="38.1150917" lon="14.9080183"><ele>908.0</ele><time>2026-04-04T12:47:32.731Z</time></trkpt><trkpt lat="38.115195" lon="14.9080333"><ele>907.0000000000001</ele><time>2026-04-04T12:47:34.73Z</time></trkpt><trkpt lat="38.1152983" lon="14.9080383"><ele>906.0000000000001</ele><time>2026-04-04T12:47:36.73Z</time></trkpt><trkpt lat="38.1153983" lon="14.9080433"><ele>905.0</ele><time>2026-04-04T12:47:38.731Z</time></trkpt><trkpt lat="38.1154783" lon="14.9080517"><ele>904.0</ele><time>2026-04-04T12:47:40.73Z</time></trkpt><trkpt lat="38.11554" lon="14.908015"><ele>904.0</ele><time>2026-04-04T12:47:42.731Z</time></trkpt><trkpt lat="38.1156217" lon="14.907915"><ele>904.0000000000001</ele><time>2026-04-04T12:47:44.731Z</time></trkpt><trkpt lat="38.1156967" lon="14.90785"><ele>904.0000000000001</ele><time>2026-04-04T12:47:45.73Z</time></trkpt><trkpt lat="38.1157833" lon="14.907785"><ele>904.0</ele><time>2026-04-04T12:47:46.731Z</time></trkpt><trkpt lat="38.1158833" lon="14.9077183"><ele>904.0</ele><time>2026-04-04T12:47:47.73Z</time></trkpt><trkpt lat="38.1159817" lon="14.9076533"><ele>901.0</ele><time>2026-04-04T12:47:48.731Z</time></trkpt><trkpt lat="38.116095" lon="14.9075933"><ele>898.0</ele><time>2026-04-04T12:47:49.73Z</time></trkpt><trkpt lat="38.1162083" lon="14.90753"><ele>895.0</ele><time>2026-04-04T12:47:50.73Z</time></trkpt><trkpt lat="38.116315" lon="14.907465"><ele>892.0</ele><time>2026-04-04T12:47:51.73Z</time></trkpt><trkpt lat="38.1164017" lon="14.9073917"><ele>891.9999999999999</ele><time>2026-04-04T12:47:52.731Z</time></trkpt><trkpt lat="38.1164683" lon="14.9073"><ele>892.0</ele><time>2026-04-04T12:47:53.731Z</time></trkpt><trkpt lat="38.1165133" lon="14.9072083"><ele>892.0</ele><time>2026-04-04T12:47:54.731Z</time></trkpt><trkpt lat="38.11656" lon="14.9071417"><ele>892.0</ele><time>2026-04-04T12:47:55.731Z</time></trkpt><trkpt lat="38.1166233" lon="14.9070833"><ele>891.9999999999999</ele><time>2026-04-04T12:47:56.73Z</time></trkpt><trkpt lat="38.11669" lon="14.9070167"><ele>892.0</ele><time>2026-04-04T12:47:57.731Z</time></trkpt><trkpt lat="38.11676" lon="14.906955"><ele>891.2</ele><time>2026-04-04T12:47:58.73Z</time></trkpt><trkpt lat="38.1168217" lon="14.9069067"><ele>890.4000000000001</ele><time>2026-04-04T12:47:59.731Z</time></trkpt><trkpt lat="38.1169167" lon="14.9068417"><ele>889.5999999999999</ele><time>2026-04-04T12:48:01.73Z</time></trkpt><trkpt lat="38.1170017" lon="14.9067833"><ele>888.8</ele><time>2026-04-04T12:48:03.731Z</time></trkpt><trkpt lat="38.1171" lon="14.9067533"><ele>888.0</ele><time>2026-04-04T12:48:05.731Z</time></trkpt><trkpt lat="38.1172167" lon="14.9067517"><ele>888.0</ele><time>2026-04-04T12:48:07.731Z</time></trkpt><trkpt lat="38.117335" lon="14.906745"><ele>888.0</ele><time>2026-04-04T12:48:09.731Z</time></trkpt><trkpt lat="38.1174267" lon="14.9067117"><ele>888.0</ele><time>2026-04-04T12:48:11.731Z</time></trkpt><trkpt lat="38.1175183" lon="14.906715"><ele>888.0</ele><time>2026-04-04T12:48:13.731Z</time></trkpt><trkpt lat="38.1176117" lon="14.90674"><ele>888.0</ele><time>2026-04-04T12:48:15.731Z</time></trkpt><trkpt lat="38.1176917" lon="14.9067217"><ele>888.2857142857142</ele><time>2026-04-04T12:48:17.731Z</time></trkpt><trkpt lat="38.11776" lon="14.9066883"><ele>888.5714285714287</ele><time>2026-04-04T12:48:19.73Z</time></trkpt><trkpt lat="38.11783" lon="14.9067067"><ele>888.8571428571429</ele><time>2026-04-04T12:48:22.731Z</time></trkpt><trkpt lat="38.117775" lon="14.90675"><ele>889.1428571428571</ele><time>2026-04-04T12:48:25.73Z</time></trkpt><trkpt lat="38.117705" lon="14.90679"><ele>889.4285714285713</ele><time>2026-04-04T12:48:28.73Z</time></trkpt><trkpt lat="38.1176467" lon="14.906835"><ele>889.7142857142858</ele><time>2026-04-04T12:48:31.731Z</time></trkpt><trkpt lat="38.1176183" lon="14.9069083"><ele>890.0</ele><time>2026-04-04T12:48:34.731Z</time></trkpt><trkpt lat="38.11769" lon="14.9068817"><ele>890.0000000000001</ele><time>2026-04-04T12:48:39.73Z</time></trkpt><trkpt lat="38.1177633" lon="14.9068683"><ele>890.0</ele><time>2026-04-04T12:48:42.731Z</time></trkpt><trkpt lat="38.117855" lon="14.9068333"><ele>890.0</ele><time>2026-04-04T12:48:45.731Z</time></trkpt><trkpt lat="38.1179367" lon="14.9068083"><ele>890.0</ele><time>2026-04-04T12:48:48.73Z</time></trkpt><trkpt lat="38.118" lon="14.90678"><ele>890.0000000000001</ele><time>2026-04-04T12:48:50.73Z</time></trkpt><trkpt lat="38.1180817" lon="14.9067583"><ele>890.0</ele><time>2026-04-04T12:48:52.731Z</time></trkpt><trkpt lat="38.1181817" lon="14.906705"><ele>886.6</ele><time>2026-04-04T12:48:54.73Z</time></trkpt><trkpt lat="38.1182833" lon="14.9066467"><ele>883.2</ele><time>2026-04-04T12:48:56.73Z</time></trkpt><trkpt lat="38.1183917" lon="14.90658"><ele>879.8</ele><time>2026-04-04T12:48:58.73Z</time></trkpt><trkpt lat="38.1184533" lon="14.9065517"><ele>876.4</ele><time>2026-04-04T12:48:59.731Z</time></trkpt><trkpt lat="38.1185167" lon="14.9065317"><ele>873.0</ele><time>2026-04-04T12:49:00.73Z</time></trkpt><trkpt lat="38.1186283" lon="14.9065117"><ele>873.0</ele><time>2026-04-04T12:49:02.731Z</time></trkpt><trkpt lat="38.1187417" lon="14.9064767"><ele>873.0</ele><time>2026-04-04T12:49:04.73Z</time></trkpt><trkpt lat="38.1188567" lon="14.9064067"><ele>873.0</ele><time>2026-04-04T12:49:06.731Z</time></trkpt><trkpt lat="38.118905" lon="14.9063517"><ele>873.0</ele><time>2026-04-04T12:49:07.731Z</time></trkpt><trkpt lat="38.1189833" lon="14.9062217"><ele>873.0</ele><time>2026-04-04T12:49:09.731Z</time></trkpt><trkpt lat="38.1190167" lon="14.9061533"><ele>872.9999999999999</ele><time>2026-04-04T12:49:10.731Z</time></trkpt><trkpt lat="38.1190517" lon="14.9060833"><ele>873.0</ele><time>2026-04-04T12:49:11.731Z</time></trkpt><trkpt lat="38.119085" lon="14.9060067"><ele>873.0</ele><time>2026-04-04T12:49:12.731Z</time></trkpt><trkpt lat="38.1191083" lon="14.90593"><ele>873.0</ele><time>2026-04-04T12:49:13.731Z</time></trkpt><trkpt lat="38.1191217" lon="14.9058517"><ele>873.0</ele><time>2026-04-04T12:49:14.731Z</time></trkpt><trkpt lat="38.119115" lon="14.9057017"><ele>872.9999999999999</ele><time>2026-04-04T12:49:16.73Z</time></trkpt><trkpt lat="38.1191" lon="14.9056217"><ele>873.0</ele><time>2026-04-04T12:49:17.731Z</time></trkpt><trkpt lat="38.1190717" lon="14.90555"><ele>873.8571428571428</ele><time>2026-04-04T12:49:18.73Z</time></trkpt><trkpt lat="38.1190383" lon="14.90548"><ele>874.7142857142857</ele><time>2026-04-04T12:49:19.731Z</time></trkpt><trkpt lat="38.1189967" lon="14.9054117"><ele>875.5714285714286</ele><time>2026-04-04T12:49:20.73Z</time></trkpt><trkpt lat="38.1189617" lon="14.90534"><ele>876.4285714285713</ele><time>2026-04-04T12:49:21.732Z</time></trkpt><trkpt lat="38.11892" lon="14.9052733"><ele>877.2857142857143</ele><time>2026-04-04T12:49:22.732Z</time></trkpt><trkpt lat="38.118875" lon="14.9052083"><ele>878.1428571428571</ele><time>2026-04-04T12:49:23.731Z</time></trkpt><trkpt lat="38.1188267" lon="14.9051433"><ele>879.0</ele><time>2026-04-04T12:49:24.732Z</time></trkpt><trkpt lat="38.1187783" lon="14.90508"><ele>875.5</ele><time>2026-04-04T12:49:25.731Z</time></trkpt><trkpt lat="38.11872" lon="14.9050167"><ele>872.0</ele><time>2026-04-04T12:49:26.732Z</time></trkpt><trkpt lat="38.118665" lon="14.90495"><ele>868.5</ele><time>2026-04-04T12:49:27.731Z</time></trkpt><trkpt lat="38.1186117" lon="14.904885"><ele>865.0</ele><time>2026-04-04T12:49:28.732Z</time></trkpt><trkpt lat="38.11856" lon="14.9048383"><ele>861.5</ele><time>2026-04-04T12:49:29.732Z</time></trkpt><trkpt lat="38.11846" lon="14.9047883"><ele>858.0</ele><time>2026-04-04T12:49:31.732Z</time></trkpt><trkpt lat="38.1183867" lon="14.9047617"><ele>858.0</ele><time>2026-04-04T12:49:33.732Z</time></trkpt><trkpt lat="38.1184317" lon="14.9046983"><ele>858.0</ele><time>2026-04-04T12:49:36.732Z</time></trkpt><trkpt lat="38.1185133" lon="14.9047067"><ele>858.0</ele><time>2026-04-04T12:49:38.732Z</time></trkpt><trkpt lat="38.118585" lon="14.9047333"><ele>858.0</ele><time>2026-04-04T12:49:39.732Z</time></trkpt><trkpt lat="38.1186917" lon="14.904775"><ele>858.0</ele><time>2026-04-04T12:49:40.732Z</time></trkpt><trkpt lat="38.1188133" lon="14.90484"><ele>858.0</ele><time>2026-04-04T12:49:41.731Z</time></trkpt><trkpt lat="38.1189217" lon="14.9049117"><ele>858.0</ele><time>2026-04-04T12:49:42.732Z</time></trkpt><trkpt lat="38.119025" lon="14.904975"><ele>858.0</ele><time>2026-04-04T12:49:43.732Z</time></trkpt><trkpt lat="38.1191133" lon="14.9050233"><ele>858.0</ele><time>2026-04-04T12:49:44.731Z</time></trkpt><trkpt lat="38.1192067" lon="14.9050483"><ele>858.0</ele><time>2026-04-04T12:49:45.731Z</time></trkpt><trkpt lat="38.1192967" lon="14.90506"><ele>856.8333333333334</ele><time>2026-04-04T12:49:46.732Z</time></trkpt><trkpt lat="38.11938" lon="14.9050367"><ele>855.6666666666667</ele><time>2026-04-04T12:49:47.732Z</time></trkpt><trkpt lat="38.119465" lon="14.9049933"><ele>854.5</ele><time>2026-04-04T12:49:48.732Z</time></trkpt><trkpt lat="38.1195333" lon="14.9049367"><ele>853.3333333333334</ele><time>2026-04-04T12:49:49.732Z</time></trkpt><trkpt lat="38.1195867" lon="14.9048867"><ele>852.1666666666667</ele><time>2026-04-04T12:49:50.731Z</time></trkpt><trkpt lat="38.1196417" lon="14.90484"><ele>851.0</ele><time>2026-04-04T12:49:51.732Z</time></trkpt><trkpt lat="38.119745" lon="14.904795"><ele>851.0</ele><time>2026-04-04T12:49:53.732Z</time></trkpt><trkpt lat="38.1198533" lon="14.904765"><ele>851.0</ele><time>2026-04-04T12:49:55.731Z</time></trkpt><trkpt lat="38.1199583" lon="14.90471"><ele>851.0</ele><time>2026-04-04T12:49:57.732Z</time></trkpt><trkpt lat="38.12006" lon="14.9046283"><ele>851.0</ele><time>2026-04-04T12:49:59.731Z</time></trkpt><trkpt lat="38.120115" lon="14.90458"><ele>851.0</ele><time>2026-04-04T12:50:00.732Z</time></trkpt><trkpt lat="38.120185" lon="14.9045183"><ele>848.4</ele><time>2026-04-04T12:50:01.731Z</time></trkpt><trkpt lat="38.1202533" lon="14.9044583"><ele>845.8</ele><time>2026-04-04T12:50:02.731Z</time></trkpt><trkpt lat="38.1203267" lon="14.9043967"><ele>843.1999999999999</ele><time>2026-04-04T12:50:03.732Z</time></trkpt><trkpt lat="38.1204017" lon="14.9043367"><ele>840.5999999999999</ele><time>2026-04-04T12:50:04.731Z</time></trkpt><trkpt lat="38.1204833" lon="14.9042633"><ele>838.0</ele><time>2026-04-04T12:50:05.731Z</time></trkpt><trkpt lat="38.1205617" lon="14.904195"><ele>837.5999999999999</ele><time>2026-04-04T12:50:06.731Z</time></trkpt><trkpt lat="38.120635" lon="14.9041067"><ele>837.1999999999999</ele><time>2026-04-04T12:50:07.731Z</time></trkpt><trkpt lat="38.1206983" lon="14.9040167"><ele>836.8</ele><time>2026-04-04T12:50:08.731Z</time></trkpt><trkpt lat="38.120755" lon="14.903905"><ele>836.4</ele><time>2026-04-04T12:50:09.731Z</time></trkpt><trkpt lat="38.1208083" lon="14.90379"><ele>836.0</ele><time>2026-04-04T12:50:10.732Z</time></trkpt><trkpt lat="38.1208633" lon="14.9036833"><ele>836.0</ele><time>2026-04-04T12:50:11.732Z</time></trkpt><trkpt lat="38.1209217" lon="14.9035933"><ele>836.0</ele><time>2026-04-04T12:50:12.732Z</time></trkpt><trkpt lat="38.12097" lon="14.903515"><ele>836.0</ele><time>2026-04-04T12:50:13.732Z</time></trkpt><trkpt lat="38.1210333" lon="14.90345"><ele>836.0</ele><time>2026-04-04T12:50:14.731Z</time></trkpt><trkpt lat="38.1211033" lon="14.9033783"><ele>836.0</ele><time>2026-04-04T12:50:15.732Z</time></trkpt><trkpt lat="38.1211967" lon="14.9032967"><ele>832.5999999999999</ele><time>2026-04-04T12:50:16.731Z</time></trkpt><trkpt lat="38.1212883" lon="14.9032083"><ele>829.2</ele><time>2026-04-04T12:50:17.731Z</time></trkpt><trkpt lat="38.1213733" lon="14.903115"><ele>825.8</ele><time>2026-04-04T12:50:18.732Z</time></trkpt><trkpt lat="38.1214517" lon="14.903025"><ele>822.4000000000001</ele><time>2026-04-04T12:50:19.732Z</time></trkpt><trkpt lat="38.1215317" lon="14.90295"><ele>819.0</ele><time>2026-04-04T12:50:20.732Z</time></trkpt><trkpt lat="38.1216133" lon="14.9028783"><ele>819.0</ele><time>2026-04-04T12:50:21.732Z</time></trkpt><trkpt lat="38.12169" lon="14.9028083"><ele>819.0</ele><time>2026-04-04T12:50:22.731Z</time></trkpt><trkpt lat="38.121755" lon="14.9027483"><ele>819.0</ele><time>2026-04-04T12:50:23.732Z</time></trkpt><trkpt lat="38.121815" lon="14.9027033"><ele>819.0</ele><time>2026-04-04T12:50:24.731Z</time></trkpt><trkpt lat="38.1218917" lon="14.9026733"><ele>819.0</ele><time>2026-04-04T12:50:25.732Z</time></trkpt><trkpt lat="38.1219683" lon="14.90267"><ele>819.0</ele><time>2026-04-04T12:50:26.732Z</time></trkpt><trkpt lat="38.1220533" lon="14.9026783"><ele>819.0</ele><time>2026-04-04T12:50:27.732Z</time></trkpt><trkpt lat="38.1221167" lon="14.90268"><ele>819.0</ele><time>2026-04-04T12:50:28.731Z</time></trkpt><trkpt lat="38.1221767" lon="14.9026467"><ele>819.0</ele><time>2026-04-04T12:50:29.732Z</time></trkpt><trkpt lat="38.1222767" lon="14.9025367"><ele>819.0</ele><time>2026-04-04T12:50:31.732Z</time></trkpt><trkpt lat="38.1223333" lon="14.9024517"><ele>819.0</ele><time>2026-04-04T12:50:32.732Z</time></trkpt><trkpt lat="38.12239" lon="14.9023633"><ele>819.0</ele><time>2026-04-04T12:50:33.731Z</time></trkpt><trkpt lat="38.1224533" lon="14.9022867"><ele>814.1666666666666</ele><time>2026-04-04T12:50:34.731Z</time></trkpt><trkpt lat="38.1225217" lon="14.9022183"><ele>809.3333333333333</ele><time>2026-04-04T12:50:35.731Z</time></trkpt><trkpt lat="38.1225967" lon="14.902155"><ele>804.5</ele><time>2026-04-04T12:50:36.732Z</time></trkpt><trkpt lat="38.122665" lon="14.9021017"><ele>799.6666666666666</ele><time>2026-04-04T12:50:37.732Z</time></trkpt><trkpt lat="38.1227317" lon="14.9020417"><ele>794.8333333333333</ele><time>2026-04-04T12:50:38.732Z</time></trkpt><trkpt lat="38.1227917" lon="14.9019767"><ele>790.0</ele><time>2026-04-04T12:50:39.731Z</time></trkpt><trkpt lat="38.1228467" lon="14.9018867"><ele>790.0</ele><time>2026-04-04T12:50:40.731Z</time></trkpt><trkpt lat="38.12291" lon="14.9017683"><ele>790.0</ele><time>2026-04-04T12:50:41.731Z</time></trkpt><trkpt lat="38.1229717" lon="14.9016367"><ele>790.0</ele><time>2026-04-04T12:50:42.732Z</time></trkpt><trkpt lat="38.1230267" lon="14.9015183"><ele>790.0</ele><time>2026-04-04T12:50:43.731Z</time></trkpt><trkpt lat="38.123075" lon="14.901425"><ele>790.0</ele><time>2026-04-04T12:50:44.732Z</time></trkpt><trkpt lat="38.1231233" lon="14.90134"><ele>788.8333333333333</ele><time>2026-04-04T12:50:45.732Z</time></trkpt><trkpt lat="38.1231717" lon="14.901265"><ele>787.6666666666666</ele><time>2026-04-04T12:50:46.732Z</time></trkpt><trkpt lat="38.1232183" lon="14.9011917"><ele>786.5</ele><time>2026-04-04T12:50:47.732Z</time></trkpt><trkpt lat="38.1232633" lon="14.9011183"><ele>785.3333333333333</ele><time>2026-04-04T12:50:48.732Z</time></trkpt><trkpt lat="38.1233217" lon="14.9010367"><ele>784.1666666666666</ele><time>2026-04-04T12:50:49.731Z</time></trkpt><trkpt lat="38.12337" lon="14.9009633"><ele>783.0</ele><time>2026-04-04T12:50:50.732Z</time></trkpt><trkpt lat="38.1234233" lon="14.90089"><ele>782.2</ele><time>2026-04-04T12:50:51.732Z</time></trkpt><trkpt lat="38.1234883" lon="14.9008183"><ele>781.4</ele><time>2026-04-04T12:50:52.732Z</time></trkpt><trkpt lat="38.12354" lon="14.900755"><ele>780.6</ele><time>2026-04-04T12:50:53.732Z</time></trkpt><trkpt lat="38.1236017" lon="14.90064"><ele>779.8000000000001</ele><time>2026-04-04T12:50:55.731Z</time></trkpt><trkpt lat="38.1236517" lon="14.9005217"><ele>779.0</ele><time>2026-04-04T12:50:57.731Z</time></trkpt><trkpt lat="38.1237383" lon="14.9004267"><ele>779.0000000000001</ele><time>2026-04-04T12:50:59.731Z</time></trkpt><trkpt lat="38.1238133" lon="14.90034"><ele>779.0</ele><time>2026-04-04T12:51:01.732Z</time></trkpt><trkpt lat="38.1238567" lon="14.900275"><ele>779.0</ele><time>2026-04-04T12:51:03.732Z</time></trkpt><trkpt lat="38.1239033" lon="14.9002067"><ele>779.0</ele><time>2026-04-04T12:52:37.732Z</time></trkpt><trkpt lat="38.1239667" lon="14.9001267"><ele>779.0000000000001</ele><time>2026-04-04T12:52:40.731Z</time></trkpt><trkpt lat="38.1240167" lon="14.9000233"><ele>779.0</ele><time>2026-04-04T12:52:42.732Z</time></trkpt><trkpt lat="38.1240533" lon="14.89992"><ele>779.0</ele><time>2026-04-04T12:52:44.731Z</time></trkpt><trkpt lat="38.1240717" lon="14.8998017"><ele>779.0</ele><time>2026-04-04T12:52:46.731Z</time></trkpt><trkpt lat="38.1240683" lon="14.8996917"><ele>779.0</ele><time>2026-04-04T12:52:48.731Z</time></trkpt><trkpt lat="38.12405" lon="14.8995667"><ele>779.0</ele><time>2026-04-04T12:52:50.731Z</time></trkpt><trkpt lat="38.124015" lon="14.8994333"><ele>779.0</ele><time>2026-04-04T12:52:52.731Z</time></trkpt><trkpt lat="38.1239917" lon="14.89929"><ele>775.3333333333334</ele><time>2026-04-04T12:52:54.732Z</time></trkpt><trkpt lat="38.1239283" lon="14.89923"><ele>771.6666666666667</ele><time>2026-04-04T12:52:56.732Z</time></trkpt><trkpt lat="38.1239133" lon="14.8991433"><ele>768.0</ele><time>2026-04-04T12:52:59.732Z</time></trkpt><trkpt lat="38.1240083" lon="14.8991033"><ele>764.3333333333334</ele><time>2026-04-04T12:53:02.731Z</time></trkpt><trkpt lat="38.124085" lon="14.8990283"><ele>760.6666666666667</ele><time>2026-04-04T12:53:04.732Z</time></trkpt><trkpt lat="38.124145" lon="14.89894"><ele>757.0</ele><time>2026-04-04T12:53:06.732Z</time></trkpt><trkpt lat="38.1242" lon="14.8988833"><ele>756.3333333333334</ele><time>2026-04-04T12:53:08.732Z</time></trkpt><trkpt lat="38.1242933" lon="14.8988733"><ele>755.6666666666667</ele><time>2026-04-04T12:53:11.732Z</time></trkpt><trkpt lat="38.12435" lon="14.89893"><ele>755.0</ele><time>2026-04-04T12:53:14.732Z</time></trkpt><trkpt lat="38.1242633" lon="14.8989733"><ele>754.3333333333334</ele><time>2026-04-04T12:53:17.732Z</time></trkpt><trkpt lat="38.124215" lon="14.8990433"><ele>753.6666666666666</ele><time>2026-04-04T12:53:20.732Z</time></trkpt><trkpt lat="38.1242067" lon="14.8991417"><ele>753.0</ele><time>2026-04-04T12:53:22.732Z</time></trkpt><trkpt lat="38.1242233" lon="14.89928"><ele>753.0</ele><time>2026-04-04T12:53:24.732Z</time></trkpt><trkpt lat="38.12424" lon="14.899365"><ele>753.0</ele><time>2026-04-04T12:53:25.731Z</time></trkpt><trkpt lat="38.124255" lon="14.899455"><ele>753.0</ele><time>2026-04-04T12:53:26.731Z</time></trkpt><trkpt lat="38.1242917" lon="14.8995483"><ele>753.0</ele><time>2026-04-04T12:53:27.731Z</time></trkpt><trkpt lat="38.1243267" lon="14.8996167"><ele>753.0</ele><time>2026-04-04T12:53:28.732Z</time></trkpt><trkpt lat="38.1243533" lon="14.89974"><ele>753.0</ele><time>2026-04-04T12:53:30.731Z</time></trkpt><trkpt lat="38.124345" lon="14.8998717"><ele>753.0</ele><time>2026-04-04T12:53:32.731Z</time></trkpt><trkpt lat="38.1243383" lon="14.89998"><ele>753.0</ele><time>2026-04-04T12:53:34.732Z</time></trkpt><trkpt lat="38.1242983" lon="14.9000667"><ele>753.0</ele><time>2026-04-04T12:53:36.731Z</time></trkpt><trkpt lat="38.1242233" lon="14.9001333"><ele>753.0</ele><time>2026-04-04T12:53:38.731Z</time></trkpt><trkpt lat="38.1241583" lon="14.90023"><ele>753.0</ele><time>2026-04-04T12:53:40.732Z</time></trkpt><trkpt lat="38.1240917" lon="14.9003733"><ele>755.1666666666666</ele><time>2026-04-04T12:53:42.731Z</time></trkpt><trkpt lat="38.1240583" lon="14.900445"><ele>757.3333333333334</ele><time>2026-04-04T12:53:43.732Z</time></trkpt><trkpt lat="38.1240183" lon="14.90053"><ele>759.5</ele><time>2026-04-04T12:53:44.732Z</time></trkpt><trkpt lat="38.123975" lon="14.9006267"><ele>761.6666666666667</ele><time>2026-04-04T12:53:45.731Z</time></trkpt><trkpt lat="38.1239389" lon="14.9007294"><ele>763.8333333333334</ele><time>2026-04-04T12:53:46.732Z</time></trkpt><trkpt lat="38.1239085" lon="14.9008353"><ele>766.0</ele><time>2026-04-04T12:53:47.732Z</time></trkpt><trkpt lat="38.1238833" lon="14.90093"><ele>766.0</ele><time>2026-04-04T12:53:48.732Z</time></trkpt><trkpt lat="38.1238525" lon="14.9010071"><ele>766.0</ele><time>2026-04-04T12:53:49.732Z</time></trkpt><trkpt lat="38.123796" lon="14.901124"><ele>766.0</ele><time>2026-04-04T12:53:51.732Z</time></trkpt><trkpt lat="38.123741" lon="14.9012438"><ele>766.0</ele><time>2026-04-04T12:53:53.731Z</time></trkpt><trkpt lat="38.1236824" lon="14.9013658"><ele>766.0</ele><time>2026-04-04T12:53:55.731Z</time></trkpt><trkpt lat="38.1236634" lon="14.9014771"><ele>766.0</ele><time>2026-04-04T12:53:57.732Z</time></trkpt><trkpt lat="38.1236398" lon="14.9015958"><ele>766.0</ele><time>2026-04-04T12:53:59.732Z</time></trkpt><trkpt lat="38.1236058" lon="14.9017175"><ele>766.0</ele><time>2026-04-04T12:54:01.732Z</time></trkpt><trkpt lat="38.1235714" lon="14.9018101"><ele>766.0</ele><time>2026-04-04T12:54:03.733Z</time></trkpt><trkpt lat="38.1235454" lon="14.9019004"><ele>766.0</ele><time>2026-04-04T12:54:05.732Z</time></trkpt><trkpt lat="38.1235438" lon="14.9020067"><ele>766.0</ele><time>2026-04-04T12:54:07.733Z</time></trkpt><trkpt lat="38.1235461" lon="14.9021238"><ele>762.5</ele><time>2026-04-04T12:54:09.733Z</time></trkpt><trkpt lat="38.1235361" lon="14.9022239"><ele>759.0</ele><time>2026-04-04T12:54:11.733Z</time></trkpt><trkpt lat="38.1235189" lon="14.9023252"><ele>755.5</ele><time>2026-04-04T12:54:13.732Z</time></trkpt><trkpt lat="38.1235027" lon="14.902426"><ele>752.0</ele><time>2026-04-04T12:54:15.732Z</time></trkpt><trkpt lat="38.1234937" lon="14.9025278"><ele>748.5</ele><time>2026-04-04T12:54:17.733Z</time></trkpt><trkpt lat="38.1234611" lon="14.9026075"><ele>745.0</ele><time>2026-04-04T12:54:19.732Z</time></trkpt><trkpt lat="38.1234175" lon="14.9026855"><ele>744.0</ele><time>2026-04-04T12:54:21.733Z</time></trkpt><trkpt lat="38.123376" lon="14.902746"><ele>743.0</ele><time>2026-04-04T12:54:23.733Z</time></trkpt><trkpt lat="38.1233766" lon="14.9028511"><ele>742.0</ele><time>2026-04-04T12:54:26.733Z</time></trkpt><trkpt lat="38.1233715" lon="14.9029314"><ele>741.0</ele><time>2026-04-04T12:54:28.733Z</time></trkpt><trkpt lat="38.1233918" lon="14.903025"><ele>740.0</ele><time>2026-04-04T12:54:30.732Z</time></trkpt><trkpt lat="38.1234298" lon="14.903145"><ele>739.0</ele><time>2026-04-04T12:54:32.733Z</time></trkpt><trkpt lat="38.1234473" lon="14.9032759"><ele>739.0</ele><time>2026-04-04T12:54:34.733Z</time></trkpt><trkpt lat="38.1234524" lon="14.9033585"><ele>739.0</ele><time>2026-04-04T12:54:35.733Z</time></trkpt><trkpt lat="38.1234577" lon="14.9034544"><ele>739.0</ele><time>2026-04-04T12:54:36.733Z</time></trkpt><trkpt lat="38.1234681" lon="14.9035504"><ele>739.0</ele><time>2026-04-04T12:54:37.733Z</time></trkpt><trkpt lat="38.1234857" lon="14.9036304"><ele>739.0</ele><time>2026-04-04T12:54:38.732Z</time></trkpt><trkpt lat="38.1235042" lon="14.9037696"><ele>739.0</ele><time>2026-04-04T12:54:40.733Z</time></trkpt><trkpt lat="38.1235146" lon="14.9038521"><ele>739.0</ele><time>2026-04-04T12:54:41.732Z</time></trkpt><trkpt lat="38.1235375" lon="14.9039378"><ele>739.0</ele><time>2026-04-04T12:54:42.732Z</time></trkpt><trkpt lat="38.1235629" lon="14.9040159"><ele>739.0</ele><time>2026-04-04T12:54:43.733Z</time></trkpt><trkpt lat="38.123611" lon="14.9041387"><ele>739.0</ele><time>2026-04-04T12:54:45.733Z</time></trkpt><trkpt lat="38.1236487" lon="14.9042159"><ele>739.0</ele><time>2026-04-04T12:54:47.733Z</time></trkpt><trkpt lat="38.1236914" lon="14.9043073"><ele>739.0</ele><time>2026-04-04T12:54:49.732Z</time></trkpt><trkpt lat="38.1237113" lon="14.9044"><ele>736.6666666666667</ele><time>2026-04-04T12:54:51.733Z</time></trkpt><trkpt lat="38.1237305" lon="14.9045199"><ele>734.3333333333334</ele><time>2026-04-04T12:55:05.732Z</time></trkpt><trkpt lat="38.1237397" lon="14.9046023"><ele>732.0</ele><time>2026-04-04T12:55:07.733Z</time></trkpt><trkpt lat="38.1237485" lon="14.9047134"><ele>729.6666666666666</ele><time>2026-04-04T12:55:09.732Z</time></trkpt><trkpt lat="38.1237544" lon="14.9048131"><ele>727.3333333333333</ele><time>2026-04-04T12:55:11.733Z</time></trkpt><trkpt lat="38.1237694" lon="14.9049284"><ele>725.0</ele><time>2026-04-04T12:55:14.733Z</time></trkpt><trkpt lat="38.1237914" lon="14.9050281"><ele>719.6666666666666</ele><time>2026-04-04T12:55:16.733Z</time></trkpt><trkpt lat="38.1238051" lon="14.9051299"><ele>714.3333333333333</ele><time>2026-04-04T12:55:18.733Z</time></trkpt><trkpt lat="38.1238217" lon="14.9052446"><ele>709.0</ele><time>2026-04-04T12:55:20.732Z</time></trkpt><trkpt lat="38.1238304" lon="14.9053415"><ele>703.6666666666666</ele><time>2026-04-04T12:55:22.733Z</time></trkpt><trkpt lat="38.12383" lon="14.9054337"><ele>698.3333333333334</ele><time>2026-04-04T12:55:24.733Z</time></trkpt><trkpt lat="38.1237901" lon="14.9054986"><ele>693.0</ele><time>2026-04-04T12:55:26.733Z</time></trkpt><trkpt lat="38.1237234" lon="14.9055246"><ele>693.0</ele><time>2026-04-04T12:55:28.732Z</time></trkpt><trkpt lat="38.1236696" lon="14.9055765"><ele>693.0</ele><time>2026-04-04T12:55:30.733Z</time></trkpt><trkpt lat="38.1236409" lon="14.9056479"><ele>693.0</ele><time>2026-04-04T12:56:29.733Z</time></trkpt><trkpt lat="38.1235791" lon="14.905681"><ele>693.0</ele><time>2026-04-04T12:56:31.733Z</time></trkpt><trkpt lat="38.1235143" lon="14.9057264"><ele>693.0</ele><time>2026-04-04T12:56:33.733Z</time></trkpt><trkpt lat="38.1234443" lon="14.9057621"><ele>693.0</ele><time>2026-04-04T12:56:35.733Z</time></trkpt><trkpt lat="38.1233728" lon="14.905807"><ele>693.0</ele><time>2026-04-04T12:56:37.733Z</time></trkpt><trkpt lat="38.1232803" lon="14.9058892"><ele>691.0</ele><time>2026-04-04T12:56:39.733Z</time></trkpt><trkpt lat="38.1231864" lon="14.9059617"><ele>689.0</ele><time>2026-04-04T12:56:41.732Z</time></trkpt><trkpt lat="38.1230975" lon="14.9060036"><ele>687.0</ele><time>2026-04-04T12:56:43.733Z</time></trkpt><trkpt lat="38.1230106" lon="14.9060223"><ele>685.0</ele><time>2026-04-04T12:56:45.732Z</time></trkpt><trkpt lat="38.1229229" lon="14.9060358"><ele>683.0</ele><time>2026-04-04T12:56:47.733Z</time></trkpt><trkpt lat="38.1228553" lon="14.9060427"><ele>681.0</ele><time>2026-04-04T12:56:49.733Z</time></trkpt><trkpt lat="38.1227838" lon="14.9061165"><ele>681.0</ele><time>2026-04-04T12:56:52.732Z</time></trkpt><trkpt lat="38.1227293" lon="14.9062223"><ele>681.0</ele><time>2026-04-04T12:56:54.733Z</time></trkpt><trkpt lat="38.1226574" lon="14.906307"><ele>681.0</ele><time>2026-04-04T12:56:56.732Z</time></trkpt><trkpt lat="38.1225661" lon="14.9063889"><ele>681.0</ele><time>2026-04-04T12:56:58.733Z</time></trkpt><trkpt lat="38.1224848" lon="14.9064605"><ele>681.0</ele><time>2026-04-04T12:57:00.733Z</time></trkpt><trkpt lat="38.1224391" lon="14.9065157"><ele>686.0</ele><time>2026-04-04T12:57:01.733Z</time></trkpt><trkpt lat="38.1223686" lon="14.9066213"><ele>691.0</ele><time>2026-04-04T12:57:03.733Z</time></trkpt><trkpt lat="38.1222908" lon="14.9066859"><ele>696.0</ele><time>2026-04-04T12:57:05.733Z</time></trkpt><trkpt lat="38.1222072" lon="14.9067867"><ele>701.0</ele><time>2026-04-04T12:57:07.733Z</time></trkpt><trkpt lat="38.1221866" lon="14.9068647"><ele>706.0</ele><time>2026-04-04T12:57:08.733Z</time></trkpt><trkpt lat="38.1221745" lon="14.9069575"><ele>706.0</ele><time>2026-04-04T12:57:09.733Z</time></trkpt><trkpt lat="38.1221533" lon="14.9070566"><ele>706.0</ele><time>2026-04-04T12:57:10.732Z</time></trkpt><trkpt lat="38.1221209" lon="14.9071598"><ele>706.0</ele><time>2026-04-04T12:57:11.733Z</time></trkpt><trkpt lat="38.1220935" lon="14.9072699"><ele>706.0</ele><time>2026-04-04T12:57:12.733Z</time></trkpt><trkpt lat="38.1220742" lon="14.907388"><ele>706.0</ele><time>2026-04-04T12:57:13.733Z</time></trkpt><trkpt lat="38.1220681" lon="14.9075025"><ele>706.0</ele><time>2026-04-04T12:57:14.733Z</time></trkpt><trkpt lat="38.1220739" lon="14.9075981"><ele>701.3333333333334</ele><time>2026-04-04T12:57:15.733Z</time></trkpt><trkpt lat="38.1221202" lon="14.9076927"><ele>696.6666666666667</ele><time>2026-04-04T12:57:17.733Z</time></trkpt><trkpt lat="38.1221074" lon="14.9077863"><ele>692.0</ele><time>2026-04-04T12:57:21.732Z</time></trkpt><trkpt lat="38.1220511" lon="14.9078472"><ele>687.3333333333334</ele><time>2026-04-04T12:57:23.733Z</time></trkpt><trkpt lat="38.1220039" lon="14.9079195"><ele>682.6666666666666</ele><time>2026-04-04T12:57:25.732Z</time></trkpt><trkpt lat="38.1219662" lon="14.9080118"><ele>678.0</ele><time>2026-04-04T12:57:27.732Z</time></trkpt><trkpt lat="38.1219135" lon="14.9080871"><ele>678.0</ele><time>2026-04-04T12:57:29.733Z</time></trkpt><trkpt lat="38.1218433" lon="14.90817"><ele>678.0</ele><time>2026-04-04T12:57:31.732Z</time></trkpt><trkpt lat="38.121755" lon="14.90825"><ele>678.0</ele><time>2026-04-04T12:57:33.733Z</time></trkpt><trkpt lat="38.12167" lon="14.9083133"><ele>678.0</ele><time>2026-04-04T12:57:35.733Z</time></trkpt><trkpt lat="38.1215767" lon="14.9083433"><ele>678.0</ele><time>2026-04-04T12:57:37.733Z</time></trkpt><trkpt lat="38.1215167" lon="14.9083817"><ele>675.5999999999999</ele><time>2026-04-04T12:57:38.733Z</time></trkpt><trkpt lat="38.1214683" lon="14.9084333"><ele>673.1999999999999</ele><time>2026-04-04T12:57:39.732Z</time></trkpt><trkpt lat="38.121385" lon="14.90851"><ele>670.8</ele><time>2026-04-04T12:57:41.733Z</time></trkpt><trkpt lat="38.1213083" lon="14.9086067"><ele>668.4</ele><time>2026-04-04T12:57:43.733Z</time></trkpt><trkpt lat="38.12125" lon="14.9087083"><ele>666.0</ele><time>2026-04-04T12:57:45.732Z</time></trkpt><trkpt lat="38.12117" lon="14.9087683"><ele>666.0</ele><time>2026-04-04T12:57:47.733Z</time></trkpt><trkpt lat="38.1210983" lon="14.9087883"><ele>666.0</ele><time>2026-04-04T12:57:49.733Z</time></trkpt><trkpt lat="38.1210205" lon="14.9088014"><ele>666.0</ele><time>2026-04-04T12:57:52.732Z</time></trkpt><trkpt lat="38.1209567" lon="14.9088249"><ele>666.0</ele><time>2026-04-04T12:57:57.733Z</time></trkpt><trkpt lat="38.1208809" lon="14.9088843"><ele>666.0</ele><time>2026-04-04T12:57:59.732Z</time></trkpt><trkpt lat="38.120811" lon="14.9089821"><ele>666.0</ele><time>2026-04-04T12:58:01.732Z</time></trkpt><trkpt lat="38.1207453" lon="14.9090632"><ele>667.4</ele><time>2026-04-04T12:58:03.732Z</time></trkpt><trkpt lat="38.1206557" lon="14.9091086"><ele>668.8</ele><time>2026-04-04T12:58:05.732Z</time></trkpt><trkpt lat="38.120557" lon="14.9091593"><ele>670.1999999999999</ele><time>2026-04-04T12:58:07.733Z</time></trkpt><trkpt lat="38.120475" lon="14.9092733"><ele>671.5999999999999</ele><time>2026-04-04T12:58:09.733Z</time></trkpt><trkpt lat="38.120415" lon="14.90937"><ele>673.0</ele><time>2026-04-04T12:58:11.732Z</time></trkpt><trkpt lat="38.1203417" lon="14.9094217"><ele>673.0</ele><time>2026-04-04T12:58:13.733Z</time></trkpt><trkpt lat="38.1202533" lon="14.9094517"><ele>673.0</ele><time>2026-04-04T12:58:15.733Z</time></trkpt><trkpt lat="38.1201733" lon="14.9094967"><ele>673.0</ele><time>2026-04-04T12:58:17.732Z</time></trkpt><trkpt lat="38.120095" lon="14.909555"><ele>673.0</ele><time>2026-04-04T12:58:19.732Z</time></trkpt><trkpt lat="38.120055" lon="14.9096767"><ele>673.0</ele><time>2026-04-04T12:58:21.733Z</time></trkpt><trkpt lat="38.1200483" lon="14.9098133"><ele>673.0</ele><time>2026-04-04T12:58:23.733Z</time></trkpt><trkpt lat="38.1200267" lon="14.9099433"><ele>673.0</ele><time>2026-04-04T12:58:25.733Z</time></trkpt><trkpt lat="38.1199883" lon="14.9100583"><ele>673.0</ele><time>2026-04-04T12:58:27.733Z</time></trkpt><trkpt lat="38.1199567" lon="14.91019"><ele>673.0</ele><time>2026-04-04T12:58:29.732Z</time></trkpt><trkpt lat="38.1199433" lon="14.9103233"><ele>673.0</ele><time>2026-04-04T12:58:31.733Z</time></trkpt><trkpt lat="38.1199183" lon="14.9104417"><ele>674.0</ele><time>2026-04-04T12:58:33.734Z</time></trkpt><trkpt lat="38.1198633" lon="14.9105117"><ele>675.0</ele><time>2026-04-04T12:58:35.734Z</time></trkpt><trkpt lat="38.1197883" lon="14.9105467"><ele>676.0</ele><time>2026-04-04T12:58:37.734Z</time></trkpt><trkpt lat="38.1196883" lon="14.9105783"><ele>677.0</ele><time>2026-04-04T12:58:39.733Z</time></trkpt><trkpt lat="38.1195967" lon="14.910585"><ele>678.0</ele><time>2026-04-04T12:58:41.733Z</time></trkpt><trkpt lat="38.1195017" lon="14.9105633"><ele>679.0</ele><time>2026-04-04T12:58:43.733Z</time></trkpt><trkpt lat="38.119385" lon="14.910535"><ele>679.0</ele><time>2026-04-04T12:58:45.734Z</time></trkpt><trkpt lat="38.1193033" lon="14.9105217"><ele>679.0</ele><time>2026-04-04T12:58:46.733Z</time></trkpt><trkpt lat="38.1192117" lon="14.9105233"><ele>679.0</ele><time>2026-04-04T12:58:47.734Z</time></trkpt><trkpt lat="38.1191283" lon="14.91055"><ele>679.0</ele><time>2026-04-04T12:58:48.733Z</time></trkpt><trkpt lat="38.1190667" lon="14.910575"><ele>679.0</ele><time>2026-04-04T12:58:49.733Z</time></trkpt><trkpt lat="38.1190083" lon="14.9106633"><ele>679.0</ele><time>2026-04-04T12:58:51.734Z</time></trkpt><trkpt lat="38.1190367" lon="14.9107433"><ele>679.0</ele><time>2026-04-04T12:58:53.734Z</time></trkpt><trkpt lat="38.1190917" lon="14.9108017"><ele>679.0</ele><time>2026-04-04T12:58:54.734Z</time></trkpt><trkpt lat="38.1191583" lon="14.9108833"><ele>679.0</ele><time>2026-04-04T12:58:55.734Z</time></trkpt><trkpt lat="38.1192517" lon="14.9109517"><ele>679.0</ele><time>2026-04-04T12:58:56.734Z</time></trkpt><trkpt lat="38.1193167" lon="14.911005"><ele>679.0</ele><time>2026-04-04T12:58:57.733Z</time></trkpt><trkpt lat="38.1193767" lon="14.9111133"><ele>683.6666666666667</ele><time>2026-04-04T12:58:59.733Z</time></trkpt><trkpt lat="38.119315" lon="14.911135"><ele>688.3333333333334</ele><time>2026-04-04T12:59:01.734Z</time></trkpt><trkpt lat="38.1192033" lon="14.91106"><ele>693.0</ele><time>2026-04-04T12:59:03.734Z</time></trkpt><trkpt lat="38.119135" lon="14.911005"><ele>697.6666666666666</ele><time>2026-04-04T12:59:04.733Z</time></trkpt><trkpt lat="38.1190583" lon="14.9109683"><ele>702.3333333333333</ele><time>2026-04-04T12:59:05.733Z</time></trkpt><trkpt lat="38.1189717" lon="14.9109667"><ele>707.0</ele><time>2026-04-04T12:59:06.734Z</time></trkpt><trkpt lat="38.1188783" lon="14.910975"><ele>708.4000000000001</ele><time>2026-04-04T12:59:07.733Z</time></trkpt><trkpt lat="38.1187883" lon="14.9110167"><ele>709.8000000000001</ele><time>2026-04-04T12:59:08.734Z</time></trkpt><trkpt lat="38.1187283" lon="14.911065"><ele>711.2</ele><time>2026-04-04T12:59:09.734Z</time></trkpt><trkpt lat="38.118685" lon="14.9111867"><ele>712.6</ele><time>2026-04-04T12:59:11.734Z</time></trkpt><trkpt lat="38.11865" lon="14.9113183"><ele>714.0</ele><time>2026-04-04T12:59:13.734Z</time></trkpt><trkpt lat="38.118565" lon="14.9113717"><ele>714.0</ele><time>2026-04-04T12:59:15.734Z</time></trkpt><trkpt lat="38.11844" lon="14.9113783"><ele>714.0</ele><time>2026-04-04T12:59:17.733Z</time></trkpt><trkpt lat="38.1183217" lon="14.9113683"><ele>714.0</ele><time>2026-04-04T12:59:19.733Z</time></trkpt><trkpt lat="38.11827" lon="14.9114217"><ele>714.0</ele><time>2026-04-04T12:59:21.734Z</time></trkpt><trkpt lat="38.1183917" lon="14.9114733"><ele>714.0</ele><time>2026-04-04T12:59:24.734Z</time></trkpt><trkpt lat="38.1184817" lon="14.9114817"><ele>714.0</ele><time>2026-04-04T12:59:25.734Z</time></trkpt><trkpt lat="38.1186" lon="14.9114933"><ele>714.0</ele><time>2026-04-04T12:59:26.734Z</time></trkpt><trkpt lat="38.118705" lon="14.9115"><ele>714.0</ele><time>2026-04-04T12:59:27.733Z</time></trkpt><trkpt lat="38.1187933" lon="14.9114933"><ele>714.0</ele><time>2026-04-04T12:59:28.734Z</time></trkpt><trkpt lat="38.11886" lon="14.91147"><ele>714.0</ele><time>2026-04-04T12:59:29.733Z</time></trkpt><trkpt lat="38.1189717" lon="14.911485"><ele>714.0</ele><time>2026-04-04T12:59:31.733Z</time></trkpt><trkpt lat="38.11906" lon="14.9116033"><ele>714.0</ele><time>2026-04-04T12:59:33.734Z</time></trkpt><trkpt lat="38.1191067" lon="14.9116583"><ele>714.0</ele><time>2026-04-04T12:59:34.733Z</time></trkpt><trkpt lat="38.1191533" lon="14.9117133"><ele>714.0</ele><time>2026-04-04T12:59:35.734Z</time></trkpt><trkpt lat="38.1192483" lon="14.9117983"><ele>714.0</ele><time>2026-04-04T12:59:37.734Z</time></trkpt><trkpt lat="38.1193267" lon="14.9118567"><ele>713.0</ele><time>2026-04-04T12:59:39.734Z</time></trkpt><trkpt lat="38.1193867" lon="14.911905"><ele>712.0</ele><time>2026-04-04T12:59:41.734Z</time></trkpt><trkpt lat="38.1194483" lon="14.911945"><ele>711.0</ele><time>2026-04-04T12:59:43.734Z</time></trkpt><trkpt lat="38.1195167" lon="14.91193"><ele>710.0</ele><time>2026-04-04T12:59:45.733Z</time></trkpt><trkpt lat="38.119575" lon="14.9118667"><ele>709.0</ele><time>2026-04-04T12:59:47.733Z</time></trkpt><trkpt lat="38.11965" lon="14.9118"><ele>708.0</ele><time>2026-04-04T12:59:50.734Z</time></trkpt><trkpt lat="38.1197083" lon="14.9117667"><ele>707.0</ele><time>2026-04-04T12:59:52.734Z</time></trkpt><trkpt lat="38.1197783" lon="14.911735"><ele>707.0</ele><time>2026-04-04T12:59:54.734Z</time></trkpt><trkpt lat="38.1198583" lon="14.911695"><ele>707.0</ele><time>2026-04-04T12:59:56.734Z</time></trkpt><trkpt lat="38.1199433" lon="14.9116417"><ele>707.0</ele><time>2026-04-04T12:59:58.734Z</time></trkpt><trkpt lat="38.1200267" lon="14.91159"><ele>707.0</ele><time>2026-04-04T13:00:00.734Z</time></trkpt><trkpt lat="38.1201033" lon="14.911535"><ele>707.0</ele><time>2026-04-04T13:00:02.733Z</time></trkpt><trkpt lat="38.12021" lon="14.911505"><ele>706.4000000000001</ele><time>2026-04-04T13:00:04.733Z</time></trkpt><trkpt lat="38.120335" lon="14.9114717"><ele>705.8000000000001</ele><time>2026-04-04T13:00:06.733Z</time></trkpt><trkpt lat="38.120395" lon="14.9114383"><ele>705.2</ele><time>2026-04-04T13:00:07.734Z</time></trkpt><trkpt lat="38.120455" lon="14.9114117"><ele>704.6</ele><time>2026-04-04T13:00:08.734Z</time></trkpt><trkpt lat="38.1205817" lon="14.91138"><ele>704.0</ele><time>2026-04-04T13:00:10.734Z</time></trkpt><trkpt lat="38.1206683" lon="14.9113633"><ele>704.0</ele><time>2026-04-04T13:00:11.734Z</time></trkpt><trkpt lat="38.1207717" lon="14.9113333"><ele>704.0</ele><time>2026-04-04T13:00:12.733Z</time></trkpt><trkpt lat="38.1208683" lon="14.9112917"><ele>704.0</ele><time>2026-04-04T13:00:13.734Z</time></trkpt><trkpt lat="38.1209483" lon="14.9112583"><ele>704.0</ele><time>2026-04-04T13:00:14.733Z</time></trkpt><trkpt lat="38.1210267" lon="14.91125"><ele>704.0</ele><time>2026-04-04T13:00:15.734Z</time></trkpt><trkpt lat="38.1211017" lon="14.9112617"><ele>704.0</ele><time>2026-04-04T13:00:16.734Z</time></trkpt><trkpt lat="38.12117" lon="14.91129"><ele>704.0</ele><time>2026-04-04T13:00:17.734Z</time></trkpt><trkpt lat="38.1212433" lon="14.91132"><ele>704.0</ele><time>2026-04-04T13:00:18.734Z</time></trkpt><trkpt lat="38.12132" lon="14.911345"><ele>704.0</ele><time>2026-04-04T13:00:19.733Z</time></trkpt><trkpt lat="38.1213833" lon="14.911365"><ele>704.0</ele><time>2026-04-04T13:00:20.734Z</time></trkpt><trkpt lat="38.121445" lon="14.9113817"><ele>704.0</ele><time>2026-04-04T13:00:21.733Z</time></trkpt><trkpt lat="38.121575" lon="14.911365"><ele>704.0</ele><time>2026-04-04T13:00:23.733Z</time></trkpt><trkpt lat="38.121645" lon="14.9113617"><ele>702.5</ele><time>2026-04-04T13:00:24.734Z</time></trkpt><trkpt lat="38.1217283" lon="14.9113267"><ele>701.0</ele><time>2026-04-04T13:00:25.734Z</time></trkpt><trkpt lat="38.1217983" lon="14.9112917"><ele>699.5</ele><time>2026-04-04T13:00:26.734Z</time></trkpt><trkpt lat="38.1218567" lon="14.9112583"><ele>698.0</ele><time>2026-04-04T13:00:27.733Z</time></trkpt><trkpt lat="38.12192" lon="14.9112117"><ele>696.5</ele><time>2026-04-04T13:00:28.733Z</time></trkpt><trkpt lat="38.1219767" lon="14.9111533"><ele>695.0</ele><time>2026-04-04T13:00:29.733Z</time></trkpt><trkpt lat="38.12204" lon="14.911095"><ele>695.0</ele><time>2026-04-04T13:00:30.733Z</time></trkpt><trkpt lat="38.1221033" lon="14.9110517"><ele>695.0</ele><time>2026-04-04T13:00:31.734Z</time></trkpt><trkpt lat="38.122165" lon="14.911025"><ele>695.0</ele><time>2026-04-04T13:00:32.733Z</time></trkpt><trkpt lat="38.1222817" lon="14.9110383"><ele>695.0</ele><time>2026-04-04T13:00:34.734Z</time></trkpt><trkpt lat="38.1223817" lon="14.9111167"><ele>695.0</ele><time>2026-04-04T13:00:36.733Z</time></trkpt><trkpt lat="38.122465" lon="14.9112183"><ele>692.8</ele><time>2026-04-04T13:00:38.734Z</time></trkpt><trkpt lat="38.1225333" lon="14.911345"><ele>690.6</ele><time>2026-04-04T13:00:40.734Z</time></trkpt><trkpt lat="38.1225967" lon="14.9114533"><ele>688.4000000000001</ele><time>2026-04-04T13:00:42.734Z</time></trkpt><trkpt lat="38.12268" lon="14.9115283"><ele>686.2</ele><time>2026-04-04T13:00:44.734Z</time></trkpt><trkpt lat="38.1227667" lon="14.9115183"><ele>684.0</ele><time>2026-04-04T13:00:46.734Z</time></trkpt><trkpt lat="38.1228617" lon="14.911465"><ele>684.0</ele><time>2026-04-04T13:00:48.734Z</time></trkpt><trkpt lat="38.1229833" lon="14.9114283"><ele>684.0</ele><time>2026-04-04T13:00:50.734Z</time></trkpt><trkpt lat="38.1230533" lon="14.91143"><ele>684.0</ele><time>2026-04-04T13:00:51.734Z</time></trkpt><trkpt lat="38.123125" lon="14.91144"><ele>684.0</ele><time>2026-04-04T13:00:52.734Z</time></trkpt><trkpt lat="38.1231933" lon="14.9114567"><ele>684.0</ele><time>2026-04-04T13:00:53.734Z</time></trkpt><trkpt lat="38.1232533" lon="14.9114917"><ele>684.0</ele><time>2026-04-04T13:00:54.734Z</time></trkpt><trkpt lat="38.12333" lon="14.9115867"><ele>680.8000000000001</ele><time>2026-04-04T13:00:56.734Z</time></trkpt><trkpt lat="38.1233533" lon="14.9117317"><ele>677.6</ele><time>2026-04-04T13:00:58.734Z</time></trkpt><trkpt lat="38.1233467" lon="14.9118383"><ele>674.4</ele><time>2026-04-04T13:00:59.734Z</time></trkpt><trkpt lat="38.1233333" lon="14.9119667"><ele>671.2</ele><time>2026-04-04T13:01:00.733Z</time></trkpt><trkpt lat="38.1233167" lon="14.9120917"><ele>668.0</ele><time>2026-04-04T13:01:01.734Z</time></trkpt><trkpt lat="38.1233083" lon="14.9121933"><ele>668.0</ele><time>2026-04-04T13:01:02.734Z</time></trkpt><trkpt lat="38.1233167" lon="14.9122733"><ele>668.0</ele><time>2026-04-04T13:01:03.734Z</time></trkpt><trkpt lat="38.12335" lon="14.9123483"><ele>668.0</ele><time>2026-04-04T13:01:04.734Z</time></trkpt><trkpt lat="38.123405" lon="14.9124083"><ele>668.0</ele><time>2026-04-04T13:01:05.733Z</time></trkpt><trkpt lat="38.1234733" lon="14.9124717"><ele>668.0</ele><time>2026-04-04T13:01:06.733Z</time></trkpt><trkpt lat="38.12356" lon="14.9125283"><ele>668.0</ele><time>2026-04-04T13:01:07.734Z</time></trkpt><trkpt lat="38.1236183" lon="14.9126067"><ele>670.1666666666666</ele><time>2026-04-04T13:01:08.733Z</time></trkpt><trkpt lat="38.12366" lon="14.9126933"><ele>672.3333333333333</ele><time>2026-04-04T13:01:09.734Z</time></trkpt><trkpt lat="38.1236883" lon="14.9127967"><ele>674.5</ele><time>2026-04-04T13:01:10.733Z</time></trkpt><trkpt lat="38.1237017" lon="14.9129117"><ele>676.6666666666666</ele><time>2026-04-04T13:01:11.734Z</time></trkpt><trkpt lat="38.1236967" lon="14.9130217"><ele>678.8333333333334</ele><time>2026-04-04T13:01:12.733Z</time></trkpt><trkpt lat="38.1236767" lon="14.9131167"><ele>681.0</ele><time>2026-04-04T13:01:13.733Z</time></trkpt><trkpt lat="38.12366" lon="14.91321"><ele>681.0</ele><time>2026-04-04T13:01:14.733Z</time></trkpt><trkpt lat="38.123645" lon="14.9133033"><ele>681.0</ele><time>2026-04-04T13:01:15.733Z</time></trkpt><trkpt lat="38.1236283" lon="14.913385"><ele>681.0</ele><time>2026-04-04T13:01:16.734Z</time></trkpt><trkpt lat="38.1236467" lon="14.9134933"><ele>681.0</ele><time>2026-04-04T13:01:18.733Z</time></trkpt><trkpt lat="38.1237167" lon="14.91352"><ele>681.0</ele><time>2026-04-04T13:01:20.734Z</time></trkpt><trkpt lat="38.1238167" lon="14.9134767"><ele>681.0</ele><time>2026-04-04T13:01:22.734Z</time></trkpt><trkpt lat="38.1238817" lon="14.9134417"><ele>681.0</ele><time>2026-04-04T13:01:23.733Z</time></trkpt><trkpt lat="38.1239517" lon="14.91341"><ele>681.0</ele><time>2026-04-04T13:01:24.734Z</time></trkpt><trkpt lat="38.1240217" lon="14.9133917"><ele>681.0</ele><time>2026-04-04T13:01:25.734Z</time></trkpt><trkpt lat="38.124085" lon="14.9133767"><ele>681.0</ele><time>2026-04-04T13:01:26.734Z</time></trkpt><trkpt lat="38.1241917" lon="14.913405"><ele>681.0</ele><time>2026-04-04T13:01:28.733Z</time></trkpt><trkpt lat="38.1242783" lon="14.9133883"><ele>681.0</ele><time>2026-04-04T13:01:30.734Z</time></trkpt><trkpt lat="38.124355" lon="14.9133017"><ele>676.0</ele><time>2026-04-04T13:01:32.733Z</time></trkpt><trkpt lat="38.1244017" lon="14.9132467"><ele>671.0</ele><time>2026-04-04T13:01:33.733Z</time></trkpt><trkpt lat="38.124485" lon="14.91313"><ele>666.0</ele><time>2026-04-04T13:01:35.734Z</time></trkpt><trkpt lat="38.1245433" lon="14.9130167"><ele>661.0</ele><time>2026-04-04T13:01:37.734Z</time></trkpt><trkpt lat="38.1246267" lon="14.9129067"><ele>656.0</ele><time>2026-04-04T13:01:39.734Z</time></trkpt><trkpt lat="38.1247317" lon="14.912805"><ele>656.0</ele><time>2026-04-04T13:01:41.734Z</time></trkpt><trkpt lat="38.1248017" lon="14.9127633"><ele>656.0</ele><time>2026-04-04T13:01:42.734Z</time></trkpt><trkpt lat="38.1248633" lon="14.9127267"><ele>656.0</ele><time>2026-04-04T13:01:43.733Z</time></trkpt><trkpt lat="38.1249667" lon="14.9126817"><ele>656.0</ele><time>2026-04-04T13:01:45.734Z</time></trkpt><trkpt lat="38.125035" lon="14.9126217"><ele>656.0</ele><time>2026-04-04T13:01:47.733Z</time></trkpt><trkpt lat="38.1251083" lon="14.9125083"><ele>652.8</ele><time>2026-04-04T13:01:49.734Z</time></trkpt><trkpt lat="38.125175" lon="14.9124033"><ele>649.5999999999999</ele><time>2026-04-04T13:01:51.734Z</time></trkpt><trkpt lat="38.1252467" lon="14.9122867"><ele>646.4</ele><time>2026-04-04T13:01:53.733Z</time></trkpt><trkpt lat="38.1252883" lon="14.9122233"><ele>643.2</ele><time>2026-04-04T13:01:54.734Z</time></trkpt><trkpt lat="38.125355" lon="14.9121517"><ele>640.0</ele><time>2026-04-04T13:01:55.734Z</time></trkpt><trkpt lat="38.125435" lon="14.9120817"><ele>640.0</ele><time>2026-04-04T13:01:56.734Z</time></trkpt><trkpt lat="38.1255217" lon="14.9120233"><ele>640.0</ele><time>2026-04-04T13:01:57.734Z</time></trkpt><trkpt lat="38.1256183" lon="14.9119917"><ele>640.0</ele><time>2026-04-04T13:01:58.734Z</time></trkpt><trkpt lat="38.12571" lon="14.911945"><ele>640.0</ele><time>2026-04-04T13:01:59.734Z</time></trkpt><trkpt lat="38.1257983" lon="14.9119017"><ele>640.0</ele><time>2026-04-04T13:02:00.734Z</time></trkpt><trkpt lat="38.1258917" lon="14.9118617"><ele>638.1666666666667</ele><time>2026-04-04T13:02:01.734Z</time></trkpt><trkpt lat="38.12598" lon="14.9118117"><ele>636.3333333333334</ele><time>2026-04-04T13:02:02.734Z</time></trkpt><trkpt lat="38.12606" lon="14.9117467"><ele>634.5</ele><time>2026-04-04T13:02:03.734Z</time></trkpt><trkpt lat="38.1261317" lon="14.911675"><ele>632.6666666666666</ele><time>2026-04-04T13:02:04.733Z</time></trkpt><trkpt lat="38.126185" lon="14.911605"><ele>630.8333333333333</ele><time>2026-04-04T13:02:05.734Z</time></trkpt><trkpt lat="38.1262317" lon="14.9115333"><ele>629.0</ele><time>2026-04-04T13:02:06.734Z</time></trkpt><trkpt lat="38.1262767" lon="14.911465"><ele>629.0</ele><time>2026-04-04T13:02:07.734Z</time></trkpt><trkpt lat="38.1263267" lon="14.9114117"><ele>629.0</ele><time>2026-04-04T13:02:08.734Z</time></trkpt><trkpt lat="38.1263817" lon="14.911365"><ele>629.0</ele><time>2026-04-04T13:02:09.734Z</time></trkpt><trkpt lat="38.1264483" lon="14.9113117"><ele>629.0</ele><time>2026-04-04T13:02:10.734Z</time></trkpt><trkpt lat="38.12652" lon="14.9112483"><ele>629.0</ele><time>2026-04-04T13:02:11.734Z</time></trkpt><trkpt lat="38.1265883" lon="14.91119"><ele>629.0</ele><time>2026-04-04T13:02:12.734Z</time></trkpt><trkpt lat="38.12665" lon="14.911145"><ele>631.6</ele><time>2026-04-04T13:02:13.734Z</time></trkpt><trkpt lat="38.126715" lon="14.911105"><ele>634.2</ele><time>2026-04-04T13:02:14.734Z</time></trkpt><trkpt lat="38.1268283" lon="14.9110483"><ele>636.8000000000001</ele><time>2026-04-04T13:02:16.734Z</time></trkpt><trkpt lat="38.1269483" lon="14.9110083"><ele>639.4</ele><time>2026-04-04T13:02:18.734Z</time></trkpt><trkpt lat="38.127065" lon="14.910975"><ele>642.0</ele><time>2026-04-04T13:02:20.733Z</time></trkpt><trkpt lat="38.1271867" lon="14.910935"><ele>642.0</ele><time>2026-04-04T13:02:22.734Z</time></trkpt><trkpt lat="38.1272567" lon="14.91092"><ele>642.0</ele><time>2026-04-04T13:02:23.734Z</time></trkpt><trkpt lat="38.1273267" lon="14.9108983"><ele>642.0</ele><time>2026-04-04T13:02:24.733Z</time></trkpt><trkpt lat="38.127395" lon="14.910875"><ele>642.0</ele><time>2026-04-04T13:02:25.733Z</time></trkpt><trkpt lat="38.1274983" lon="14.9108317"><ele>642.0</ele><time>2026-04-04T13:02:27.733Z</time></trkpt><trkpt lat="38.1275667" lon="14.9107867"><ele>642.0</ele><time>2026-04-04T13:02:28.734Z</time></trkpt><trkpt lat="38.127635" lon="14.910735"><ele>639.5</ele><time>2026-04-04T13:02:29.734Z</time></trkpt><trkpt lat="38.1276917" lon="14.9106917"><ele>637.0</ele><time>2026-04-04T13:02:30.733Z</time></trkpt><trkpt lat="38.1277533" lon="14.9106367"><ele>634.5</ele><time>2026-04-04T13:02:32.734Z</time></trkpt><trkpt lat="38.127745" lon="14.9105233"><ele>632.0</ele><time>2026-04-04T13:02:35.734Z</time></trkpt><trkpt lat="38.1277133" lon="14.9104217"><ele>629.5</ele><time>2026-04-04T13:02:38.734Z</time></trkpt><trkpt lat="38.1276967" lon="14.9103317"><ele>627.0</ele><time>2026-04-04T13:02:40.733Z</time></trkpt><trkpt lat="38.1276883" lon="14.9102417"><ele>627.0</ele><time>2026-04-04T13:02:42.733Z</time></trkpt><trkpt lat="38.1276833" lon="14.9101317"><ele>627.0</ele><time>2026-04-04T13:02:44.734Z</time></trkpt><trkpt lat="38.1276833" lon="14.9100217"><ele>627.0</ele><time>2026-04-04T13:02:46.734Z</time></trkpt><trkpt lat="38.1276783" lon="14.90993"><ele>627.0</ele><time>2026-04-04T13:02:48.733Z</time></trkpt><trkpt lat="38.1276733" lon="14.9098467"><ele>627.0</ele><time>2026-04-04T13:02:50.734Z</time></trkpt><trkpt lat="38.1276683" lon="14.9097617"><ele>627.0</ele><time>2026-04-04T13:02:52.734Z</time></trkpt><trkpt lat="38.127665" lon="14.90967"><ele>623.5</ele><time>2026-04-04T13:02:54.734Z</time></trkpt><trkpt lat="38.1276567" lon="14.9095733"><ele>620.0</ele><time>2026-04-04T13:02:56.734Z</time></trkpt><trkpt lat="38.127645" lon="14.90947"><ele>616.5</ele><time>2026-04-04T13:02:58.733Z</time></trkpt><trkpt lat="38.127625" lon="14.90939"><ele>613.0</ele><time>2026-04-04T13:03:00.733Z</time></trkpt><trkpt lat="38.1276033" lon="14.9092983"><ele>609.5</ele><time>2026-04-04T13:03:02.733Z</time></trkpt><trkpt lat="38.127575" lon="14.9091933"><ele>606.0</ele><time>2026-04-04T13:03:04.734Z</time></trkpt><trkpt lat="38.12755" lon="14.9090917"><ele>603.3333333333334</ele><time>2026-04-04T13:03:06.733Z</time></trkpt><trkpt lat="38.1275283" lon="14.9089967"><ele>600.6666666666666</ele><time>2026-04-04T13:03:08.733Z</time></trkpt><trkpt lat="38.1275133" lon="14.9088917"><ele>598.0</ele><time>2026-04-04T13:03:10.734Z</time></trkpt><trkpt lat="38.1275083" lon="14.9087833"><ele>595.3333333333333</ele><time>2026-04-04T13:03:12.734Z</time></trkpt><trkpt lat="38.127505" lon="14.908675"><ele>592.6666666666666</ele><time>2026-04-04T13:03:14.735Z</time></trkpt><trkpt lat="38.12751" lon="14.9085667"><ele>590.0</ele><time>2026-04-04T13:03:16.734Z</time></trkpt><trkpt lat="38.127545" lon="14.9084433"><ele>587.8333333333333</ele><time>2026-04-04T13:03:18.735Z</time></trkpt><trkpt lat="38.1275783" lon="14.9083733"><ele>585.6666666666666</ele><time>2026-04-04T13:03:19.735Z</time></trkpt><trkpt lat="38.127625" lon="14.9082333"><ele>583.5</ele><time>2026-04-04T13:03:21.735Z</time></trkpt><trkpt lat="38.127645" lon="14.9080783"><ele>581.3333333333334</ele><time>2026-04-04T13:03:23.735Z</time></trkpt><trkpt lat="38.1276583" lon="14.9079917"><ele>579.1666666666667</ele><time>2026-04-04T13:03:24.734Z</time></trkpt><trkpt lat="38.1276833" lon="14.9079067"><ele>577.0</ele><time>2026-04-04T13:03:25.735Z</time></trkpt><trkpt lat="38.1277133" lon="14.90783"><ele>577.0</ele><time>2026-04-04T13:03:26.735Z</time></trkpt><trkpt lat="38.12773" lon="14.9076733"><ele>577.0</ele><time>2026-04-04T13:03:28.735Z</time></trkpt><trkpt lat="38.1277217" lon="14.90754"><ele>577.0</ele><time>2026-04-04T13:03:30.734Z</time></trkpt><trkpt lat="38.1277217" lon="14.9074333"><ele>577.0</ele><time>2026-04-04T13:03:32.735Z</time></trkpt><trkpt lat="38.1277517" lon="14.9073333"><ele>577.0</ele><time>2026-04-04T13:03:34.734Z</time></trkpt><trkpt lat="38.1277967" lon="14.907225"><ele>573.0</ele><time>2026-04-04T13:03:36.734Z</time></trkpt><trkpt lat="38.1278367" lon="14.907115"><ele>569.0</ele><time>2026-04-04T13:03:38.734Z</time></trkpt><trkpt lat="38.12789" lon="14.9070583"><ele>565.0</ele><time>2026-04-04T13:03:40.734Z</time></trkpt><trkpt lat="38.1279633" lon="14.9070783"><ele>561.0</ele><time>2026-04-04T13:03:42.734Z</time></trkpt><trkpt lat="38.1280133" lon="14.9071683"><ele>557.0</ele><time>2026-04-04T13:03:44.734Z</time></trkpt><trkpt lat="38.12806" lon="14.9072533"><ele>553.0</ele><time>2026-04-04T13:03:46.735Z</time></trkpt><trkpt lat="38.12811" lon="14.9073333"><ele>553.0</ele><time>2026-04-04T13:03:48.735Z</time></trkpt><trkpt lat="38.1281717" lon="14.9073117"><ele>553.0</ele><time>2026-04-04T13:03:51.735Z</time></trkpt><trkpt lat="38.1281933" lon="14.9072167"><ele>553.0</ele><time>2026-04-04T13:03:53.734Z</time></trkpt><trkpt lat="38.1282333" lon="14.9071417"><ele>553.0</ele><time>2026-04-04T13:03:55.735Z</time></trkpt><trkpt lat="38.128315" lon="14.9072183"><ele>553.0</ele><time>2026-04-04T13:03:58.734Z</time></trkpt><trkpt lat="38.1283533" lon="14.907325"><ele>553.0</ele><time>2026-04-04T13:03:59.735Z</time></trkpt><trkpt lat="38.1283983" lon="14.9074583"><ele>553.8</ele><time>2026-04-04T13:04:00.735Z</time></trkpt><trkpt lat="38.128435" lon="14.90759"><ele>554.5999999999999</ele><time>2026-04-04T13:04:01.735Z</time></trkpt><trkpt lat="38.128455" lon="14.9077133"><ele>555.4000000000001</ele><time>2026-04-04T13:04:02.735Z</time></trkpt><trkpt lat="38.1284633" lon="14.9078317"><ele>556.2</ele><time>2026-04-04T13:04:03.735Z</time></trkpt><trkpt lat="38.128475" lon="14.9079467"><ele>557.0</ele><time>2026-04-04T13:04:04.735Z</time></trkpt><trkpt lat="38.12848" lon="14.908065"><ele>557.0</ele><time>2026-04-04T13:04:05.735Z</time></trkpt><trkpt lat="38.1284983" lon="14.9081767"><ele>557.0</ele><time>2026-04-04T13:04:06.734Z</time></trkpt><trkpt lat="38.128515" lon="14.908275"><ele>557.0</ele><time>2026-04-04T13:04:07.735Z</time></trkpt><trkpt lat="38.1285317" lon="14.9083767"><ele>557.0</ele><time>2026-04-04T13:04:08.734Z</time></trkpt><trkpt lat="38.1285367" lon="14.9084733"><ele>557.0</ele><time>2026-04-04T13:04:09.734Z</time></trkpt><trkpt lat="38.1285583" lon="14.9085633"><ele>557.0</ele><time>2026-04-04T13:04:10.734Z</time></trkpt><trkpt lat="38.1285883" lon="14.908645"><ele>559.6666666666666</ele><time>2026-04-04T13:04:11.735Z</time></trkpt><trkpt lat="38.1286183" lon="14.9087217"><ele>562.3333333333333</ele><time>2026-04-04T13:04:12.734Z</time></trkpt><trkpt lat="38.1286633" lon="14.9087967"><ele>565.0</ele><time>2026-04-04T13:04:13.735Z</time></trkpt><trkpt lat="38.1287217" lon="14.9088717"><ele>567.6666666666666</ele><time>2026-04-04T13:04:14.735Z</time></trkpt><trkpt lat="38.1287883" lon="14.90895"><ele>570.3333333333334</ele><time>2026-04-04T13:04:15.735Z</time></trkpt><trkpt lat="38.128855" lon="14.909025"><ele>573.0</ele><time>2026-04-04T13:04:16.735Z</time></trkpt><trkpt lat="38.128915" lon="14.9090933"><ele>573.0</ele><time>2026-04-04T13:04:17.735Z</time></trkpt><trkpt lat="38.1289667" lon="14.9091583"><ele>573.0</ele><time>2026-04-04T13:04:18.735Z</time></trkpt><trkpt lat="38.1290083" lon="14.9092317"><ele>573.0</ele><time>2026-04-04T13:04:19.735Z</time></trkpt><trkpt lat="38.1290317" lon="14.90932"><ele>573.0</ele><time>2026-04-04T13:04:20.735Z</time></trkpt><trkpt lat="38.1290367" lon="14.9094133"><ele>573.0</ele><time>2026-04-04T13:04:21.735Z</time></trkpt><trkpt lat="38.12904" lon="14.90951"><ele>573.0</ele><time>2026-04-04T13:04:22.735Z</time></trkpt><trkpt lat="38.1290567" lon="14.9096033"><ele>573.0</ele><time>2026-04-04T13:04:23.735Z</time></trkpt><trkpt lat="38.1290783" lon="14.9096867"><ele>569.6</ele><time>2026-04-04T13:04:24.735Z</time></trkpt><trkpt lat="38.1291083" lon="14.9097667"><ele>566.1999999999999</ele><time>2026-04-04T13:04:25.735Z</time></trkpt><trkpt lat="38.1291333" lon="14.9098483"><ele>562.8</ele><time>2026-04-04T13:04:26.735Z</time></trkpt><trkpt lat="38.12917" lon="14.9099217"><ele>559.4</ele><time>2026-04-04T13:04:27.735Z</time></trkpt><trkpt lat="38.12927" lon="14.9099867"><ele>556.0</ele><time>2026-04-04T13:04:29.735Z</time></trkpt><trkpt lat="38.1293883" lon="14.9099033"><ele>556.0</ele><time>2026-04-04T13:04:31.735Z</time></trkpt><trkpt lat="38.1294617" lon="14.90985"><ele>556.0</ele><time>2026-04-04T13:04:32.735Z</time></trkpt><trkpt lat="38.12954" lon="14.9098067"><ele>556.0</ele><time>2026-04-04T13:04:33.735Z</time></trkpt><trkpt lat="38.1296033" lon="14.9097767"><ele>556.0</ele><time>2026-04-04T13:04:34.735Z</time></trkpt><trkpt lat="38.1296833" lon="14.9097517"><ele>556.0</ele><time>2026-04-04T13:04:35.735Z</time></trkpt><trkpt lat="38.1297667" lon="14.9097267"><ele>556.0</ele><time>2026-04-04T13:04:36.735Z</time></trkpt><trkpt lat="38.129855" lon="14.9097"><ele>553.75</ele><time>2026-04-04T13:04:37.734Z</time></trkpt><trkpt lat="38.12996" lon="14.9096617"><ele>551.5</ele><time>2026-04-04T13:04:38.735Z</time></trkpt><trkpt lat="38.130075" lon="14.9096017"><ele>549.25</ele><time>2026-04-04T13:04:39.734Z</time></trkpt><trkpt lat="38.1301917" lon="14.9095533"><ele>547.0</ele><time>2026-04-04T13:04:40.735Z</time></trkpt><trkpt lat="38.1303" lon="14.90952"><ele>547.0</ele><time>2026-04-04T13:04:41.734Z</time></trkpt><trkpt lat="38.1303867" lon="14.9094967"><ele>547.0</ele><time>2026-04-04T13:04:42.734Z</time></trkpt><trkpt lat="38.1304567" lon="14.9094867"><ele>547.0</ele><time>2026-04-04T13:04:43.735Z</time></trkpt><trkpt lat="38.1305233" lon="14.9094917"><ele>547.0</ele><time>2026-04-04T13:04:44.735Z</time></trkpt><trkpt lat="38.1305867" lon="14.9095033"><ele>547.0</ele><time>2026-04-04T13:04:45.735Z</time></trkpt><trkpt lat="38.1306617" lon="14.90952"><ele>547.0</ele><time>2026-04-04T13:04:46.735Z</time></trkpt><trkpt lat="38.13073" lon="14.9095383"><ele>547.0</ele><time>2026-04-04T13:04:47.734Z</time></trkpt><trkpt lat="38.1307967" lon="14.9095567"><ele>546.8000000000001</ele><time>2026-04-04T13:04:48.735Z</time></trkpt><trkpt lat="38.1308917" lon="14.909605"><ele>546.6</ele><time>2026-04-04T13:04:50.734Z</time></trkpt><trkpt lat="38.1309567" lon="14.9096283"><ele>546.4000000000001</ele><time>2026-04-04T13:04:52.735Z</time></trkpt><trkpt lat="38.131045" lon="14.9096417"><ele>546.2</ele><time>2026-04-04T13:04:54.735Z</time></trkpt><trkpt lat="38.1311683" lon="14.90958"><ele>546.0</ele><time>2026-04-04T13:04:56.734Z</time></trkpt><trkpt lat="38.13124" lon="14.909545"><ele>546.0</ele><time>2026-04-04T13:04:57.735Z</time></trkpt><trkpt lat="38.1313083" lon="14.9095017"><ele>546.0</ele><time>2026-04-04T13:04:58.735Z</time></trkpt><trkpt lat="38.1313933" lon="14.9094817"><ele>546.0</ele><time>2026-04-04T13:04:59.735Z</time></trkpt><trkpt lat="38.13149" lon="14.90948"><ele>546.0</ele><time>2026-04-04T13:05:00.734Z</time></trkpt><trkpt lat="38.1315933" lon="14.909485"><ele>546.0</ele><time>2026-04-04T13:05:01.734Z</time></trkpt><trkpt lat="38.1316917" lon="14.9094867"><ele>546.3333333333334</ele><time>2026-04-04T13:05:02.735Z</time></trkpt><trkpt lat="38.1317717" lon="14.9094817"><ele>546.6666666666666</ele><time>2026-04-04T13:05:03.734Z</time></trkpt><trkpt lat="38.131835" lon="14.909475"><ele>547.0</ele><time>2026-04-04T13:05:04.734Z</time></trkpt><trkpt lat="38.1319217" lon="14.9094733"><ele>547.3333333333333</ele><time>2026-04-04T13:05:06.735Z</time></trkpt><trkpt lat="38.13201" lon="14.909535"><ele>547.6666666666666</ele><time>2026-04-04T13:05:09.735Z</time></trkpt><trkpt lat="38.1320833" lon="14.909595"><ele>548.0</ele><time>2026-04-04T13:05:11.734Z</time></trkpt><trkpt lat="38.1321733" lon="14.90962"><ele>548.0</ele><time>2026-04-04T13:05:13.734Z</time></trkpt><trkpt lat="38.13224" lon="14.9096117"><ele>548.0</ele><time>2026-04-04T13:05:15.735Z</time></trkpt><trkpt lat="38.132305" lon="14.90964"><ele>548.0</ele><time>2026-04-04T13:05:17.735Z</time></trkpt><trkpt lat="38.1323817" lon="14.9096633"><ele>548.0</ele><time>2026-04-04T13:05:19.734Z</time></trkpt><trkpt lat="38.1324767" lon="14.9096817"><ele>548.0</ele><time>2026-04-04T13:05:21.734Z</time></trkpt><trkpt lat="38.1325633" lon="14.9096417"><ele>548.0</ele><time>2026-04-04T13:05:23.735Z</time></trkpt><trkpt lat="38.1326667" lon="14.9095883"><ele>546.1666666666666</ele><time>2026-04-04T13:05:25.734Z</time></trkpt><trkpt lat="38.1327683" lon="14.9095817"><ele>544.3333333333333</ele><time>2026-04-04T13:05:27.735Z</time></trkpt><trkpt lat="38.1328317" lon="14.9096017"><ele>542.5</ele><time>2026-04-04T13:05:28.735Z</time></trkpt><trkpt lat="38.1328983" lon="14.9096417"><ele>540.6666666666666</ele><time>2026-04-04T13:05:29.735Z</time></trkpt><trkpt lat="38.132965" lon="14.909695"><ele>538.8333333333334</ele><time>2026-04-04T13:05:30.735Z</time></trkpt><trkpt lat="38.1330217" lon="14.909745"><ele>537.0</ele><time>2026-04-04T13:05:31.735Z</time></trkpt><trkpt lat="38.1330983" lon="14.9098183"><ele>537.0</ele><time>2026-04-04T13:05:33.734Z</time></trkpt><trkpt lat="38.1331633" lon="14.9098217"><ele>537.0</ele><time>2026-04-04T13:05:36.734Z</time></trkpt><trkpt lat="38.1331533" lon="14.9097333"><ele>537.0</ele><time>2026-04-04T13:05:38.735Z</time></trkpt><trkpt lat="38.133095" lon="14.9095817"><ele>537.0</ele><time>2026-04-04T13:05:40.735Z</time></trkpt><trkpt lat="38.133055" lon="14.9095117"><ele>537.0</ele><time>2026-04-04T13:05:41.735Z</time></trkpt><trkpt lat="38.1329833" lon="14.90941"><ele>537.0</ele><time>2026-04-04T13:05:43.735Z</time></trkpt><trkpt lat="38.1329017" lon="14.9093233"><ele>537.0</ele><time>2026-04-04T13:05:45.734Z</time></trkpt><trkpt lat="38.132805" lon="14.9092633"><ele>537.0</ele><time>2026-04-04T13:05:47.735Z</time></trkpt><trkpt lat="38.13272" lon="14.9092"><ele>537.0</ele><time>2026-04-04T13:05:49.735Z</time></trkpt><trkpt lat="38.1326383" lon="14.909125"><ele>537.0</ele><time>2026-04-04T13:05:51.735Z</time></trkpt><trkpt lat="38.1325917" lon="14.90907"><ele>537.0</ele><time>2026-04-04T13:05:52.735Z</time></trkpt><trkpt lat="38.1325217" lon="14.908965"><ele>535.3333333333334</ele><time>2026-04-04T13:05:54.735Z</time></trkpt><trkpt lat="38.13248" lon="14.908885"><ele>533.6666666666666</ele><time>2026-04-04T13:05:56.735Z</time></trkpt><trkpt lat="38.13244" lon="14.9088217"><ele>532.0</ele><time>2026-04-04T13:05:58.735Z</time></trkpt><trkpt lat="38.1323967" lon="14.90875"><ele>530.3333333333333</ele><time>2026-04-04T13:06:00.734Z</time></trkpt><trkpt lat="38.1323517" lon="14.9086467"><ele>528.6666666666666</ele><time>2026-04-04T13:06:02.735Z</time></trkpt><trkpt lat="38.1323267" lon="14.908555"><ele>527.0</ele><time>2026-04-04T13:06:03.735Z</time></trkpt><trkpt lat="38.1322917" lon="14.90844"><ele>522.0</ele><time>2026-04-04T13:06:04.734Z</time></trkpt><trkpt lat="38.13226" lon="14.9083283"><ele>517.0</ele><time>2026-04-04T13:06:05.735Z</time></trkpt><trkpt lat="38.1322417" lon="14.9082267"><ele>512.0</ele><time>2026-04-04T13:06:06.735Z</time></trkpt><trkpt lat="38.132225" lon="14.9081467"><ele>507.0</ele><time>2026-04-04T13:06:07.735Z</time></trkpt><trkpt lat="38.1321783" lon="14.9080183"><ele>502.0</ele><time>2026-04-04T13:06:09.735Z</time></trkpt><trkpt lat="38.1320633" lon="14.90792"><ele>502.0</ele><time>2026-04-04T13:06:11.734Z</time></trkpt><trkpt lat="38.13198" lon="14.9078967"><ele>502.00000000000006</ele><time>2026-04-04T13:06:12.734Z</time></trkpt><trkpt lat="38.1318917" lon="14.9078867"><ele>502.00000000000006</ele><time>2026-04-04T13:06:13.734Z</time></trkpt><trkpt lat="38.1317933" lon="14.9078767"><ele>502.0</ele><time>2026-04-04T13:06:14.735Z</time></trkpt><trkpt lat="38.1317" lon="14.907875"><ele>502.0</ele><time>2026-04-04T13:06:15.734Z</time></trkpt><trkpt lat="38.13161" lon="14.9078817"><ele>500.33333333333337</ele><time>2026-04-04T13:06:16.735Z</time></trkpt><trkpt lat="38.13152" lon="14.9078983"><ele>498.6666666666667</ele><time>2026-04-04T13:06:17.735Z</time></trkpt><trkpt lat="38.1314367" lon="14.907915"><ele>497.0</ele><time>2026-04-04T13:06:18.735Z</time></trkpt><trkpt lat="38.1313533" lon="14.9079283"><ele>495.33333333333337</ele><time>2026-04-04T13:06:19.735Z</time></trkpt><trkpt lat="38.131275" lon="14.9079467"><ele>493.6666666666667</ele><time>2026-04-04T13:06:20.735Z</time></trkpt><trkpt lat="38.1312" lon="14.9079617"><ele>492.0</ele><time>2026-04-04T13:06:21.735Z</time></trkpt><trkpt lat="38.131135" lon="14.90798"><ele>492.0</ele><time>2026-04-04T13:06:22.734Z</time></trkpt><trkpt lat="38.131065" lon="14.9079983"><ele>492.0</ele><time>2026-04-04T13:06:23.734Z</time></trkpt><trkpt lat="38.1310017" lon="14.9080183"><ele>492.0</ele><time>2026-04-04T13:06:24.735Z</time></trkpt><trkpt lat="38.1309367" lon="14.9080317"><ele>492.0</ele><time>2026-04-04T13:06:25.735Z</time></trkpt><trkpt lat="38.130805" lon="14.908055"><ele>492.0</ele><time>2026-04-04T13:06:27.735Z</time></trkpt><trkpt lat="38.1307267" lon="14.9080683"><ele>492.0</ele><time>2026-04-04T13:06:28.735Z</time></trkpt><trkpt lat="38.1306517" lon="14.908085"><ele>491.1666666666667</ele><time>2026-04-04T13:06:29.735Z</time></trkpt><trkpt lat="38.13058" lon="14.9081"><ele>490.33333333333337</ele><time>2026-04-04T13:06:30.734Z</time></trkpt><trkpt lat="38.13047" lon="14.90813"><ele>489.5</ele><time>2026-04-04T13:06:32.735Z</time></trkpt><trkpt lat="38.130375" lon="14.90817"><ele>488.6666666666667</ele><time>2026-04-04T13:06:34.734Z</time></trkpt><trkpt lat="38.13031" lon="14.90819"><ele>487.83333333333337</ele><time>2026-04-04T13:06:35.735Z</time></trkpt><trkpt lat="38.1302517" lon="14.9082217"><ele>487.0</ele><time>2026-04-04T13:06:36.734Z</time></trkpt><trkpt lat="38.13019" lon="14.908275"><ele>487.0</ele><time>2026-04-04T13:06:37.734Z</time></trkpt><trkpt lat="38.1301317" lon="14.908325"><ele>487.00000000000006</ele><time>2026-04-04T13:06:38.735Z</time></trkpt><trkpt lat="38.1300333" lon="14.9084117"><ele>487.00000000000006</ele><time>2026-04-04T13:06:40.735Z</time></trkpt><trkpt lat="38.1299317" lon="14.9084633"><ele>487.0</ele><time>2026-04-04T13:06:42.734Z</time></trkpt><trkpt lat="38.1298417" lon="14.90841"><ele>487.0</ele><time>2026-04-04T13:06:44.734Z</time></trkpt><trkpt lat="38.1298033" lon="14.908335"><ele>491.83333333333337</ele><time>2026-04-04T13:06:45.735Z</time></trkpt><trkpt lat="38.12977" lon="14.9082383"><ele>496.6666666666667</ele><time>2026-04-04T13:06:46.735Z</time></trkpt><trkpt lat="38.1297567" lon="14.9081433"><ele>501.5</ele><time>2026-04-04T13:06:47.735Z</time></trkpt><trkpt lat="38.129745" lon="14.9080483"><ele>506.33333333333337</ele><time>2026-04-04T13:06:48.735Z</time></trkpt><trkpt lat="38.12973" lon="14.9079583"><ele>511.1666666666667</ele><time>2026-04-04T13:06:49.734Z</time></trkpt><trkpt lat="38.129735" lon="14.9078017"><ele>516.0</ele><time>2026-04-04T13:06:51.735Z</time></trkpt><trkpt lat="38.12974" lon="14.9076517"><ele>515.2</ele><time>2026-04-04T13:06:53.734Z</time></trkpt><trkpt lat="38.1297517" lon="14.9075083"><ele>514.4000000000001</ele><time>2026-04-04T13:06:55.735Z</time></trkpt><trkpt lat="38.12977" lon="14.9073783"><ele>513.6</ele><time>2026-04-04T13:06:57.735Z</time></trkpt><trkpt lat="38.1297883" lon="14.90729"><ele>512.8000000000001</ele><time>2026-04-04T13:06:58.735Z</time></trkpt><trkpt lat="38.1298117" lon="14.9071567"><ele>512.0</ele><time>2026-04-04T13:06:59.735Z</time></trkpt><trkpt lat="38.1298517" lon="14.9069817"><ele>512.0</ele><time>2026-04-04T13:07:00.734Z</time></trkpt><trkpt lat="38.1298917" lon="14.9068183"><ele>512.0</ele><time>2026-04-04T13:07:01.735Z</time></trkpt><trkpt lat="38.12992" lon="14.9066617"><ele>512.0</ele><time>2026-04-04T13:07:02.735Z</time></trkpt><trkpt lat="38.129935" lon="14.9065517"><ele>512.0</ele><time>2026-04-04T13:07:03.735Z</time></trkpt><trkpt lat="38.1299467" lon="14.9064633"><ele>512.0</ele><time>2026-04-04T13:07:04.734Z</time></trkpt><trkpt lat="38.129915" lon="14.9063267"><ele>511.20000000000005</ele><time>2026-04-04T13:07:06.735Z</time></trkpt><trkpt lat="38.1298617" lon="14.9062767"><ele>510.40000000000003</ele><time>2026-04-04T13:07:07.735Z</time></trkpt><trkpt lat="38.1297667" lon="14.906195"><ele>509.59999999999997</ele><time>2026-04-04T13:07:09.735Z</time></trkpt><trkpt lat="38.12973" lon="14.90607"><ele>508.79999999999995</ele><time>2026-04-04T13:07:11.734Z</time></trkpt><trkpt lat="38.1297217" lon="14.9059367"><ele>508.0</ele><time>2026-04-04T13:07:13.735Z</time></trkpt><trkpt lat="38.1297033" lon="14.905765"><ele>504.57142857142856</ele><time>2026-04-04T13:07:15.735Z</time></trkpt><trkpt lat="38.129665" lon="14.9056667"><ele>501.1428571428571</ele><time>2026-04-04T13:07:16.735Z</time></trkpt><trkpt lat="38.1296117" lon="14.905595"><ele>497.71428571428567</ele><time>2026-04-04T13:07:17.735Z</time></trkpt><trkpt lat="38.1295517" lon="14.9055317"><ele>494.2857142857143</ele><time>2026-04-04T13:07:18.735Z</time></trkpt><trkpt lat="38.1294983" lon="14.9054767"><ele>490.8571428571428</ele><time>2026-04-04T13:07:19.735Z</time></trkpt><trkpt lat="38.1294533" lon="14.9054167"><ele>487.4285714285714</ele><time>2026-04-04T13:07:20.735Z</time></trkpt><trkpt lat="38.1294167" lon="14.90535"><ele>484.0</ele><time>2026-04-04T13:07:21.735Z</time></trkpt><trkpt lat="38.12938" lon="14.9052183"><ele>484.0</ele><time>2026-04-04T13:07:23.735Z</time></trkpt><trkpt lat="38.129425" lon="14.9050833"><ele>484.0</ele><time>2026-04-04T13:07:25.734Z</time></trkpt><trkpt lat="38.1295017" lon="14.9049867"><ele>484.0</ele><time>2026-04-04T13:07:27.735Z</time></trkpt><trkpt lat="38.12954" lon="14.9049083"><ele>484.0</ele><time>2026-04-04T13:07:29.735Z</time></trkpt><trkpt lat="38.1295183" lon="14.90481"><ele>484.0</ele><time>2026-04-04T13:07:45.736Z</time></trkpt><trkpt lat="38.1294417" lon="14.9047233"><ele>455.0</ele><time>2026-04-04T13:07:47.736Z</time></trkpt><trkpt lat="38.1293717" lon="14.90465"><ele>455.0</ele><time>2026-04-04T13:07:50.735Z</time></trkpt><trkpt lat="38.1293" lon="14.9046017"><ele>455.0</ele><time>2026-04-04T13:07:53.735Z</time></trkpt><trkpt lat="38.1293756" lon="14.9046362"><ele>455.0</ele><time>2026-04-04T13:09:21.735Z</time></trkpt></trkseg></trk></gpx>